<?xml version="1.0" encoding="UTF-8" standalone="no" ?>
<gpx xmlns="http://www.topografix.com/GPX/1/1" xmlns:xsi="http://www.w3.org/2001/XMLSchema-instance" xsi:schemaLocation="http://www.topografix.com/GPX/1/1 http://www.topografix.com/GPX/1/1/gpx.xsd" version="1.1" creator="VisuGPX - https://www.visugpx.com">
  <metadata>
    <name>vtt a saint julien en vercors</name>
    <desc><![CDATA[magnifique point de vue sur les gorge de la bourne et les grands goulets]]></desc>
  </metadata>
  <trk>
    <name><![CDATA[2012-08-23-01]]></name>
    <trkseg>
      <trkpt lat="45.04696" lon="5.44586">
        <ele>892</ele>
        <time>2012-08-23T05:42:59Z</time>
      </trkpt>
      <trkpt lat="45.0466" lon="5.44655">
        <ele>1080.9</ele>
        <time>2012-08-23T05:43:00Z</time>
      </trkpt>
      <trkpt lat="45.04676" lon="5.44628">
        <ele>1013.5</ele>
        <time>2012-08-23T05:43:02Z</time>
      </trkpt>
      <trkpt lat="45.04682" lon="5.44621">
        <ele>992.5</ele>
        <time>2012-08-23T05:43:05Z</time>
      </trkpt>
      <trkpt lat="45.04683" lon="5.44618">
        <ele>985.2</ele>
        <time>2012-08-23T05:43:07Z</time>
      </trkpt>
      <trkpt lat="45.04689" lon="5.44606">
        <ele>957.2</ele>
        <time>2012-08-23T05:43:17Z</time>
      </trkpt>
      <trkpt lat="45.04695" lon="5.44596">
        <ele>928.4</ele>
        <time>2012-08-23T05:43:28Z</time>
      </trkpt>
      <trkpt lat="45.04696" lon="5.44594">
        <ele>923</ele>
        <time>2012-08-23T05:43:32Z</time>
      </trkpt>
      <trkpt lat="45.04699" lon="5.44596">
        <ele>921.9</ele>
        <time>2012-08-23T05:43:36Z</time>
      </trkpt>
      <trkpt lat="45.04699" lon="5.44595">
        <ele>913.5</ele>
        <time>2012-08-23T05:43:40Z</time>
      </trkpt>
      <trkpt lat="45.047" lon="5.44594">
        <ele>903.7</ele>
        <time>2012-08-23T05:43:46Z</time>
      </trkpt>
      <trkpt lat="45.04701" lon="5.44594">
        <ele>897.9</ele>
        <time>2012-08-23T05:43:51Z</time>
      </trkpt>
      <trkpt lat="45.047" lon="5.44593">
        <ele>891.7</ele>
        <time>2012-08-23T05:43:57Z</time>
      </trkpt>
      <trkpt lat="45.04698" lon="5.44595">
        <ele>886.2</ele>
        <time>2012-08-23T05:44:06Z</time>
      </trkpt>
      <trkpt lat="45.04696" lon="5.44595">
        <ele>883.2</ele>
        <time>2012-08-23T05:44:11Z</time>
      </trkpt>
      <trkpt lat="45.04699" lon="5.44596">
        <ele>882</ele>
        <time>2012-08-23T05:44:26Z</time>
      </trkpt>
      <trkpt lat="45.04699" lon="5.44594">
        <ele>883.7</ele>
        <time>2012-08-23T05:44:30Z</time>
      </trkpt>
      <trkpt lat="45.04701" lon="5.44593">
        <ele>885.5</ele>
        <time>2012-08-23T05:44:33Z</time>
      </trkpt>
      <trkpt lat="45.04703" lon="5.44593">
        <ele>886.2</ele>
        <time>2012-08-23T05:44:34Z</time>
      </trkpt>
      <trkpt lat="45.04705" lon="5.44597">
        <ele>884.7</ele>
        <time>2012-08-23T05:44:37Z</time>
      </trkpt>
      <trkpt lat="45.04704" lon="5.446">
        <ele>887.9</ele>
        <time>2012-08-23T05:44:43Z</time>
      </trkpt>
      <trkpt lat="45.04703" lon="5.44601">
        <ele>889.2</ele>
        <time>2012-08-23T05:44:45Z</time>
      </trkpt>
      <trkpt lat="45.04702" lon="5.446">
        <ele>891.7</ele>
        <time>2012-08-23T05:44:48Z</time>
      </trkpt>
      <trkpt lat="45.047" lon="5.44605">
        <ele>885.5</ele>
        <time>2012-08-23T05:44:52Z</time>
      </trkpt>
      <trkpt lat="45.04698" lon="5.44608">
        <ele>884.2</ele>
        <time>2012-08-23T05:44:55Z</time>
      </trkpt>
      <trkpt lat="45.04699" lon="5.44621">
        <ele>890.2</ele>
        <time>2012-08-23T05:45:01Z</time>
      </trkpt>
      <trkpt lat="45.04698" lon="5.44626">
        <ele>898.2</ele>
        <time>2012-08-23T05:45:03Z</time>
      </trkpt>
      <trkpt lat="45.04697" lon="5.44633">
        <ele>909.5</ele>
        <time>2012-08-23T05:45:07Z</time>
      </trkpt>
      <trkpt lat="45.04698" lon="5.44635">
        <ele>914</ele>
        <time>2012-08-23T05:45:10Z</time>
      </trkpt>
      <trkpt lat="45.04698" lon="5.44636">
        <ele>911.4</ele>
        <time>2012-08-23T05:45:14Z</time>
      </trkpt>
      <trkpt lat="45.04696" lon="5.44638">
        <ele>912.5</ele>
        <time>2012-08-23T05:45:29Z</time>
      </trkpt>
      <trkpt lat="45.04691" lon="5.44638">
        <ele>912.2</ele>
        <time>2012-08-23T05:45:32Z</time>
      </trkpt>
      <trkpt lat="45.04674" lon="5.44633">
        <ele>913.2</ele>
        <time>2012-08-23T05:45:37Z</time>
      </trkpt>
      <trkpt lat="45.04646" lon="5.44622">
        <ele>916.7</ele>
        <time>2012-08-23T05:45:42Z</time>
      </trkpt>
      <trkpt lat="45.04634" lon="5.44616">
        <ele>920</ele>
        <time>2012-08-23T05:45:44Z</time>
      </trkpt>
      <trkpt lat="45.04594" lon="5.44594">
        <ele>921.9</ele>
        <time>2012-08-23T05:45:51Z</time>
      </trkpt>
      <trkpt lat="45.04588" lon="5.44591">
        <ele>921.7</ele>
        <time>2012-08-23T05:45:52Z</time>
      </trkpt>
      <trkpt lat="45.04584" lon="5.44585">
        <ele>921</ele>
        <time>2012-08-23T05:45:53Z</time>
      </trkpt>
      <trkpt lat="45.04581" lon="5.44578">
        <ele>921</ele>
        <time>2012-08-23T05:45:54Z</time>
      </trkpt>
      <trkpt lat="45.04579" lon="5.44571">
        <ele>920.7</ele>
        <time>2012-08-23T05:45:55Z</time>
      </trkpt>
      <trkpt lat="45.0458" lon="5.44481">
        <ele>912.7</ele>
        <time>2012-08-23T05:46:03Z</time>
      </trkpt>
      <trkpt lat="45.04582" lon="5.44445">
        <ele>908.5</ele>
        <time>2012-08-23T05:46:06Z</time>
      </trkpt>
      <trkpt lat="45.04588" lon="5.44401">
        <ele>906</ele>
        <time>2012-08-23T05:46:10Z</time>
      </trkpt>
      <trkpt lat="45.04596" lon="5.44368">
        <ele>905.2</ele>
        <time>2012-08-23T05:46:14Z</time>
      </trkpt>
      <trkpt lat="45.04597" lon="5.4436">
        <ele>904.4</ele>
        <time>2012-08-23T05:46:15Z</time>
      </trkpt>
      <trkpt lat="45.04597" lon="5.44336">
        <ele>903.5</ele>
        <time>2012-08-23T05:46:17Z</time>
      </trkpt>
      <trkpt lat="45.04599" lon="5.44313">
        <ele>902.5</ele>
        <time>2012-08-23T05:46:19Z</time>
      </trkpt>
      <trkpt lat="45.04618" lon="5.44253">
        <ele>899</ele>
        <time>2012-08-23T05:46:24Z</time>
      </trkpt>
      <trkpt lat="45.04622" lon="5.44238">
        <ele>898</ele>
        <time>2012-08-23T05:46:25Z</time>
      </trkpt>
      <trkpt lat="45.04646" lon="5.44158">
        <ele>892.9</ele>
        <time>2012-08-23T05:46:31Z</time>
      </trkpt>
      <trkpt lat="45.04655" lon="5.44084">
        <ele>890</ele>
        <time>2012-08-23T05:46:37Z</time>
      </trkpt>
      <trkpt lat="45.04659" lon="5.44075">
        <ele>890.5</ele>
        <time>2012-08-23T05:46:38Z</time>
      </trkpt>
      <trkpt lat="45.04682" lon="5.4404">
        <ele>889.5</ele>
        <time>2012-08-23T05:46:42Z</time>
      </trkpt>
      <trkpt lat="45.04712" lon="5.43972">
        <ele>888.7</ele>
        <time>2012-08-23T05:46:49Z</time>
      </trkpt>
      <trkpt lat="45.04719" lon="5.43951">
        <ele>889</ele>
        <time>2012-08-23T05:46:51Z</time>
      </trkpt>
      <trkpt lat="45.04721" lon="5.43941">
        <ele>888.7</ele>
        <time>2012-08-23T05:46:52Z</time>
      </trkpt>
      <trkpt lat="45.04723" lon="5.43896">
        <ele>886.2</ele>
        <time>2012-08-23T05:46:56Z</time>
      </trkpt>
      <trkpt lat="45.04718" lon="5.43848">
        <ele>886.2</ele>
        <time>2012-08-23T05:47:00Z</time>
      </trkpt>
      <trkpt lat="45.04706" lon="5.43755">
        <ele>887.7</ele>
        <time>2012-08-23T05:47:08Z</time>
      </trkpt>
      <trkpt lat="45.04705" lon="5.43737">
        <ele>888.2</ele>
        <time>2012-08-23T05:47:10Z</time>
      </trkpt>
      <trkpt lat="45.04704" lon="5.43731">
        <ele>888</ele>
        <time>2012-08-23T05:47:11Z</time>
      </trkpt>
      <trkpt lat="45.04704" lon="5.43726">
        <ele>887.7</ele>
        <time>2012-08-23T05:47:12Z</time>
      </trkpt>
      <trkpt lat="45.04705" lon="5.43721">
        <ele>889.2</ele>
        <time>2012-08-23T05:47:13Z</time>
      </trkpt>
      <trkpt lat="45.04706" lon="5.43717">
        <ele>891.2</ele>
        <time>2012-08-23T05:47:15Z</time>
      </trkpt>
      <trkpt lat="45.04708" lon="5.43713">
        <ele>893.2</ele>
        <time>2012-08-23T05:47:19Z</time>
      </trkpt>
      <trkpt lat="45.04705" lon="5.4371">
        <ele>897</ele>
        <time>2012-08-23T05:47:23Z</time>
      </trkpt>
      <trkpt lat="45.04707" lon="5.43714">
        <ele>900.5</ele>
        <time>2012-08-23T05:47:28Z</time>
      </trkpt>
      <trkpt lat="45.04707" lon="5.43714">
        <ele>903.5</ele>
        <time>2012-08-23T05:47:34Z</time>
      </trkpt>
      <trkpt lat="45.0471" lon="5.43716">
        <ele>903.9</ele>
        <time>2012-08-23T05:47:38Z</time>
      </trkpt>
      <trkpt lat="45.0471" lon="5.43718">
        <ele>904.4</ele>
        <time>2012-08-23T05:47:40Z</time>
      </trkpt>
      <trkpt lat="45.04712" lon="5.4372">
        <ele>902.4</ele>
        <time>2012-08-23T05:47:43Z</time>
      </trkpt>
      <trkpt lat="45.04709" lon="5.4372">
        <ele>906.5</ele>
        <time>2012-08-23T05:47:47Z</time>
      </trkpt>
      <trkpt lat="45.04703" lon="5.43725">
        <ele>916</ele>
        <time>2012-08-23T05:47:52Z</time>
      </trkpt>
      <trkpt lat="45.04702" lon="5.43725">
        <ele>915.7</ele>
        <time>2012-08-23T05:47:56Z</time>
      </trkpt>
      <trkpt lat="45.04702" lon="5.43726">
        <ele>916.5</ele>
        <time>2012-08-23T05:47:57Z</time>
      </trkpt>
      <trkpt lat="45.047" lon="5.43728">
        <ele>910.4</ele>
        <time>2012-08-23T05:48:07Z</time>
      </trkpt>
      <trkpt lat="45.047" lon="5.43727">
        <ele>908.7</ele>
        <time>2012-08-23T05:48:11Z</time>
      </trkpt>
      <trkpt lat="45.04702" lon="5.43726">
        <ele>905</ele>
        <time>2012-08-23T05:48:15Z</time>
      </trkpt>
      <trkpt lat="45.04703" lon="5.43727">
        <ele>903.5</ele>
        <time>2012-08-23T05:48:19Z</time>
      </trkpt>
      <trkpt lat="45.04703" lon="5.43726">
        <ele>906.5</ele>
        <time>2012-08-23T05:48:24Z</time>
      </trkpt>
      <trkpt lat="45.04702" lon="5.43724">
        <ele>912</ele>
        <time>2012-08-23T05:48:28Z</time>
      </trkpt>
      <trkpt lat="45.04701" lon="5.43722">
        <ele>913.4</ele>
        <time>2012-08-23T05:48:32Z</time>
      </trkpt>
      <trkpt lat="45.04698" lon="5.43722">
        <ele>916</ele>
        <time>2012-08-23T05:48:35Z</time>
      </trkpt>
      <trkpt lat="45.04698" lon="5.43722">
        <ele>919.5</ele>
        <time>2012-08-23T05:48:40Z</time>
      </trkpt>
      <trkpt lat="45.047" lon="5.43724">
        <ele>919</ele>
        <time>2012-08-23T05:48:44Z</time>
      </trkpt>
      <trkpt lat="45.047" lon="5.43726">
        <ele>920.2</ele>
        <time>2012-08-23T05:48:48Z</time>
      </trkpt>
      <trkpt lat="45.04702" lon="5.43724">
        <ele>920.9</ele>
        <time>2012-08-23T05:48:55Z</time>
      </trkpt>
      <trkpt lat="45.04701" lon="5.43723">
        <ele>919.7</ele>
        <time>2012-08-23T05:49:01Z</time>
      </trkpt>
      <trkpt lat="45.047" lon="5.43723">
        <ele>918.5</ele>
        <time>2012-08-23T05:49:07Z</time>
      </trkpt>
      <trkpt lat="45.047" lon="5.43722">
        <ele>919.9</ele>
        <time>2012-08-23T05:49:09Z</time>
      </trkpt>
      <trkpt lat="45.047" lon="5.43721">
        <ele>921</ele>
        <time>2012-08-23T05:49:13Z</time>
      </trkpt>
      <trkpt lat="45.04699" lon="5.4372">
        <ele>923</ele>
        <time>2012-08-23T05:49:16Z</time>
      </trkpt>
      <trkpt lat="45.04704" lon="5.43719">
        <ele>932.4</ele>
        <time>2012-08-23T05:49:27Z</time>
      </trkpt>
      <trkpt lat="45.04701" lon="5.43717">
        <ele>930.7</ele>
        <time>2012-08-23T05:49:31Z</time>
      </trkpt>
      <trkpt lat="45.04698" lon="5.43717">
        <ele>928.2</ele>
        <time>2012-08-23T05:49:34Z</time>
      </trkpt>
      <trkpt lat="45.04699" lon="5.43717">
        <ele>926.4</ele>
        <time>2012-08-23T05:49:39Z</time>
      </trkpt>
      <trkpt lat="45.04695" lon="5.43715">
        <ele>921.5</ele>
        <time>2012-08-23T05:49:46Z</time>
      </trkpt>
      <trkpt lat="45.04695" lon="5.43714">
        <ele>919.7</ele>
        <time>2012-08-23T05:49:51Z</time>
      </trkpt>
      <trkpt lat="45.04696" lon="5.43713">
        <ele>917</ele>
        <time>2012-08-23T05:49:53Z</time>
      </trkpt>
      <trkpt lat="45.04696" lon="5.43712">
        <ele>916</ele>
        <time>2012-08-23T05:49:56Z</time>
      </trkpt>
      <trkpt lat="45.04696" lon="5.43711">
        <ele>913.4</ele>
        <time>2012-08-23T05:50:00Z</time>
      </trkpt>
      <trkpt lat="45.04697" lon="5.4371">
        <ele>911.2</ele>
        <time>2012-08-23T05:50:04Z</time>
      </trkpt>
      <trkpt lat="45.047" lon="5.43709">
        <ele>908.5</ele>
        <time>2012-08-23T05:50:24Z</time>
      </trkpt>
      <trkpt lat="45.04702" lon="5.43709">
        <ele>901.9</ele>
        <time>2012-08-23T05:50:30Z</time>
      </trkpt>
      <trkpt lat="45.04703" lon="5.4371">
        <ele>898.4</ele>
        <time>2012-08-23T05:50:32Z</time>
      </trkpt>
      <trkpt lat="45.04703" lon="5.43711">
        <ele>893.4</ele>
        <time>2012-08-23T05:50:36Z</time>
      </trkpt>
      <trkpt lat="45.04705" lon="5.43715">
        <ele>885.5</ele>
        <time>2012-08-23T05:50:45Z</time>
      </trkpt>
      <trkpt lat="45.04711" lon="5.43722">
        <ele>875.2</ele>
        <time>2012-08-23T05:50:55Z</time>
      </trkpt>
      <trkpt lat="45.04713" lon="5.43726">
        <ele>870.9</ele>
        <time>2012-08-23T05:50:59Z</time>
      </trkpt>
      <trkpt lat="45.04714" lon="5.43728">
        <ele>869.7</ele>
        <time>2012-08-23T05:51:02Z</time>
      </trkpt>
      <trkpt lat="45.04713" lon="5.43729">
        <ele>869.9</ele>
        <time>2012-08-23T05:51:04Z</time>
      </trkpt>
      <trkpt lat="45.04715" lon="5.43729">
        <ele>870</ele>
        <time>2012-08-23T05:51:08Z</time>
      </trkpt>
      <trkpt lat="45.04716" lon="5.43725">
        <ele>872</ele>
        <time>2012-08-23T05:51:14Z</time>
      </trkpt>
      <trkpt lat="45.04717" lon="5.43725">
        <ele>870.4</ele>
        <time>2012-08-23T05:51:18Z</time>
      </trkpt>
      <trkpt lat="45.04716" lon="5.43729">
        <ele>869.4</ele>
        <time>2012-08-23T05:51:25Z</time>
      </trkpt>
      <trkpt lat="45.04715" lon="5.43733">
        <ele>869</ele>
        <time>2012-08-23T05:51:30Z</time>
      </trkpt>
      <trkpt lat="45.04712" lon="5.43742">
        <ele>869.4</ele>
        <time>2012-08-23T05:51:37Z</time>
      </trkpt>
      <trkpt lat="45.04711" lon="5.43741">
        <ele>871.5</ele>
        <time>2012-08-23T05:51:45Z</time>
      </trkpt>
      <trkpt lat="45.0471" lon="5.4374">
        <ele>873.4</ele>
        <time>2012-08-23T05:51:47Z</time>
      </trkpt>
      <trkpt lat="45.0471" lon="5.43739">
        <ele>875.7</ele>
        <time>2012-08-23T05:51:52Z</time>
      </trkpt>
      <trkpt lat="45.04708" lon="5.43735">
        <ele>885.4</ele>
        <time>2012-08-23T05:52:02Z</time>
      </trkpt>
      <trkpt lat="45.04707" lon="5.43734">
        <ele>888.2</ele>
        <time>2012-08-23T05:52:06Z</time>
      </trkpt>
      <trkpt lat="45.04707" lon="5.43734">
        <ele>890.2</ele>
        <time>2012-08-23T05:52:09Z</time>
      </trkpt>
      <trkpt lat="45.04706" lon="5.43733">
        <ele>891.7</ele>
        <time>2012-08-23T05:52:13Z</time>
      </trkpt>
      <trkpt lat="45.04705" lon="5.43732">
        <ele>895</ele>
        <time>2012-08-23T05:52:15Z</time>
      </trkpt>
      <trkpt lat="45.04704" lon="5.43731">
        <ele>896</ele>
        <time>2012-08-23T05:52:21Z</time>
      </trkpt>
      <trkpt lat="45.04701" lon="5.43734">
        <ele>899.2</ele>
        <time>2012-08-23T05:52:30Z</time>
      </trkpt>
      <trkpt lat="45.047" lon="5.43738">
        <ele>901.5</ele>
        <time>2012-08-23T05:52:34Z</time>
      </trkpt>
      <trkpt lat="45.04701" lon="5.43737">
        <ele>900.2</ele>
        <time>2012-08-23T05:52:39Z</time>
      </trkpt>
      <trkpt lat="45.04704" lon="5.43733">
        <ele>897.2</ele>
        <time>2012-08-23T05:52:47Z</time>
      </trkpt>
      <trkpt lat="45.04704" lon="5.43734">
        <ele>897.9</ele>
        <time>2012-08-23T05:52:51Z</time>
      </trkpt>
      <trkpt lat="45.04706" lon="5.43734">
        <ele>896.2</ele>
        <time>2012-08-23T05:52:58Z</time>
      </trkpt>
      <trkpt lat="45.04707" lon="5.43733">
        <ele>895</ele>
        <time>2012-08-23T05:53:00Z</time>
      </trkpt>
      <trkpt lat="45.04706" lon="5.4373">
        <ele>895.5</ele>
        <time>2012-08-23T05:53:05Z</time>
      </trkpt>
      <trkpt lat="45.04705" lon="5.4373">
        <ele>896</ele>
        <time>2012-08-23T05:53:11Z</time>
      </trkpt>
      <trkpt lat="45.04706" lon="5.43728">
        <ele>895</ele>
        <time>2012-08-23T05:53:15Z</time>
      </trkpt>
      <trkpt lat="45.04704" lon="5.43729">
        <ele>894.5</ele>
        <time>2012-08-23T05:53:22Z</time>
      </trkpt>
      <trkpt lat="45.04703" lon="5.4373">
        <ele>894.9</ele>
        <time>2012-08-23T05:53:25Z</time>
      </trkpt>
      <trkpt lat="45.04703" lon="5.4373">
        <ele>894.9</ele>
        <time>2012-08-23T05:53:29Z</time>
      </trkpt>
      <trkpt lat="45.04702" lon="5.43732">
        <ele>898</ele>
        <time>2012-08-23T05:53:34Z</time>
      </trkpt>
      <trkpt lat="45.04701" lon="5.43733">
        <ele>899</ele>
        <time>2012-08-23T05:53:37Z</time>
      </trkpt>
      <trkpt lat="45.04703" lon="5.43732">
        <ele>897.7</ele>
        <time>2012-08-23T05:53:41Z</time>
      </trkpt>
      <trkpt lat="45.04704" lon="5.43736">
        <ele>899.9</ele>
        <time>2012-08-23T05:53:49Z</time>
      </trkpt>
      <trkpt lat="45.047" lon="5.43738">
        <ele>906</ele>
        <time>2012-08-23T05:53:56Z</time>
      </trkpt>
      <trkpt lat="45.047" lon="5.43737">
        <ele>904.2</ele>
        <time>2012-08-23T05:54:00Z</time>
      </trkpt>
      <trkpt lat="45.047" lon="5.43736">
        <ele>901.4</ele>
        <time>2012-08-23T05:54:03Z</time>
      </trkpt>
      <trkpt lat="45.04698" lon="5.43733">
        <ele>901.2</ele>
        <time>2012-08-23T05:54:11Z</time>
      </trkpt>
      <trkpt lat="45.04697" lon="5.43731">
        <ele>902.5</ele>
        <time>2012-08-23T05:54:15Z</time>
      </trkpt>
      <trkpt lat="45.04698" lon="5.43727">
        <ele>902.7</ele>
        <time>2012-08-23T05:54:18Z</time>
      </trkpt>
      <trkpt lat="45.04699" lon="5.43726">
        <ele>903.2</ele>
        <time>2012-08-23T05:54:22Z</time>
      </trkpt>
      <trkpt lat="45.04705" lon="5.43724">
        <ele>901.5</ele>
        <time>2012-08-23T05:54:31Z</time>
      </trkpt>
      <trkpt lat="45.04706" lon="5.43724">
        <ele>899.5</ele>
        <time>2012-08-23T05:54:35Z</time>
      </trkpt>
      <trkpt lat="45.04706" lon="5.43725">
        <ele>897</ele>
        <time>2012-08-23T05:54:39Z</time>
      </trkpt>
      <trkpt lat="45.04706" lon="5.43725">
        <ele>896</ele>
        <time>2012-08-23T05:54:42Z</time>
      </trkpt>
      <trkpt lat="45.04703" lon="5.43727">
        <ele>899.7</ele>
        <time>2012-08-23T05:54:46Z</time>
      </trkpt>
      <trkpt lat="45.04706" lon="5.43718">
        <ele>907</ele>
        <time>2012-08-23T05:54:58Z</time>
      </trkpt>
      <trkpt lat="45.04705" lon="5.43719">
        <ele>908.2</ele>
        <time>2012-08-23T05:55:01Z</time>
      </trkpt>
      <trkpt lat="45.04703" lon="5.43729">
        <ele>908.5</ele>
        <time>2012-08-23T05:55:11Z</time>
      </trkpt>
      <trkpt lat="45.04703" lon="5.43734">
        <ele>901.7</ele>
        <time>2012-08-23T05:55:15Z</time>
      </trkpt>
      <trkpt lat="45.04701" lon="5.43737">
        <ele>902.9</ele>
        <time>2012-08-23T05:55:21Z</time>
      </trkpt>
      <trkpt lat="45.04701" lon="5.43736">
        <ele>903.2</ele>
        <time>2012-08-23T05:55:25Z</time>
      </trkpt>
      <trkpt lat="45.04701" lon="5.43735">
        <ele>901.5</ele>
        <time>2012-08-23T05:55:28Z</time>
      </trkpt>
      <trkpt lat="45.04701" lon="5.43735">
        <ele>901.5</ele>
        <time>2012-08-23T05:55:32Z</time>
      </trkpt>
      <trkpt lat="45.04702" lon="5.43734">
        <ele>900</ele>
        <time>2012-08-23T05:55:34Z</time>
      </trkpt>
      <trkpt lat="45.04703" lon="5.43734">
        <ele>896</ele>
        <time>2012-08-23T05:55:41Z</time>
      </trkpt>
      <trkpt lat="45.04709" lon="5.43729">
        <ele>886</ele>
        <time>2012-08-23T05:55:49Z</time>
      </trkpt>
      <trkpt lat="45.04711" lon="5.43726">
        <ele>884.5</ele>
        <time>2012-08-23T05:56:18Z</time>
      </trkpt>
      <trkpt lat="45.04711" lon="5.43726">
        <ele>884.7</ele>
        <time>2012-08-23T05:56:26Z</time>
      </trkpt>
      <trkpt lat="45.0471" lon="5.43726">
        <ele>884.9</ele>
        <time>2012-08-23T05:56:27Z</time>
      </trkpt>
      <trkpt lat="45.04709" lon="5.43725">
        <ele>885</ele>
        <time>2012-08-23T05:56:30Z</time>
      </trkpt>
      <trkpt lat="45.04707" lon="5.43725">
        <ele>891.4</ele>
        <time>2012-08-23T05:56:35Z</time>
      </trkpt>
      <trkpt lat="45.04704" lon="5.43725">
        <ele>897.2</ele>
        <time>2012-08-23T05:56:39Z</time>
      </trkpt>
      <trkpt lat="45.04701" lon="5.43724">
        <ele>904.5</ele>
        <time>2012-08-23T05:56:48Z</time>
      </trkpt>
      <trkpt lat="45.04701" lon="5.43723">
        <ele>903.7</ele>
        <time>2012-08-23T05:56:55Z</time>
      </trkpt>
      <trkpt lat="45.04699" lon="5.43722">
        <ele>904.5</ele>
        <time>2012-08-23T05:56:57Z</time>
      </trkpt>
      <trkpt lat="45.04702" lon="5.43722">
        <ele>907</ele>
        <time>2012-08-23T05:57:07Z</time>
      </trkpt>
      <trkpt lat="45.04702" lon="5.4372">
        <ele>906.2</ele>
        <time>2012-08-23T05:57:18Z</time>
      </trkpt>
      <trkpt lat="45.04702" lon="5.43721">
        <ele>903.5</ele>
        <time>2012-08-23T05:57:27Z</time>
      </trkpt>
      <trkpt lat="45.04702" lon="5.43718">
        <ele>900.7</ele>
        <time>2012-08-23T05:57:31Z</time>
      </trkpt>
      <trkpt lat="45.04705" lon="5.43713">
        <ele>895.7</ele>
        <time>2012-08-23T05:57:36Z</time>
      </trkpt>
      <trkpt lat="45.0471" lon="5.4371">
        <ele>892.4</ele>
        <time>2012-08-23T05:57:39Z</time>
      </trkpt>
      <trkpt lat="45.04713" lon="5.43706">
        <ele>891</ele>
        <time>2012-08-23T05:57:41Z</time>
      </trkpt>
      <trkpt lat="45.04722" lon="5.43697">
        <ele>890.5</ele>
        <time>2012-08-23T05:57:48Z</time>
      </trkpt>
      <trkpt lat="45.04728" lon="5.4369">
        <ele>891.9</ele>
        <time>2012-08-23T05:57:54Z</time>
      </trkpt>
      <trkpt lat="45.04732" lon="5.43685">
        <ele>890.2</ele>
        <time>2012-08-23T05:57:57Z</time>
      </trkpt>
      <trkpt lat="45.04735" lon="5.43681">
        <ele>890</ele>
        <time>2012-08-23T05:58:00Z</time>
      </trkpt>
      <trkpt lat="45.04743" lon="5.43675">
        <ele>890.2</ele>
        <time>2012-08-23T05:58:05Z</time>
      </trkpt>
      <trkpt lat="45.04747" lon="5.43673">
        <ele>891.4</ele>
        <time>2012-08-23T05:58:07Z</time>
      </trkpt>
      <trkpt lat="45.04752" lon="5.43673">
        <ele>893</ele>
        <time>2012-08-23T05:58:11Z</time>
      </trkpt>
      <trkpt lat="45.04758" lon="5.43674">
        <ele>893.4</ele>
        <time>2012-08-23T05:58:16Z</time>
      </trkpt>
      <trkpt lat="45.0476" lon="5.43674">
        <ele>899.5</ele>
        <time>2012-08-23T05:58:22Z</time>
      </trkpt>
      <trkpt lat="45.04761" lon="5.43675">
        <ele>904.7</ele>
        <time>2012-08-23T05:58:27Z</time>
      </trkpt>
      <trkpt lat="45.04763" lon="5.43677">
        <ele>907.2</ele>
        <time>2012-08-23T05:58:32Z</time>
      </trkpt>
      <trkpt lat="45.04765" lon="5.43679">
        <ele>907.2</ele>
        <time>2012-08-23T05:58:34Z</time>
      </trkpt>
      <trkpt lat="45.0477" lon="5.43684">
        <ele>906</ele>
        <time>2012-08-23T05:58:38Z</time>
      </trkpt>
      <trkpt lat="45.04781" lon="5.43692">
        <ele>904.9</ele>
        <time>2012-08-23T05:58:44Z</time>
      </trkpt>
      <trkpt lat="45.04785" lon="5.43694">
        <ele>904.5</ele>
        <time>2012-08-23T05:58:46Z</time>
      </trkpt>
      <trkpt lat="45.04795" lon="5.43696">
        <ele>903.7</ele>
        <time>2012-08-23T05:58:51Z</time>
      </trkpt>
      <trkpt lat="45.04805" lon="5.43695">
        <ele>903.2</ele>
        <time>2012-08-23T05:58:56Z</time>
      </trkpt>
      <trkpt lat="45.04816" lon="5.43694">
        <ele>903.7</ele>
        <time>2012-08-23T05:59:01Z</time>
      </trkpt>
      <trkpt lat="45.04826" lon="5.43692">
        <ele>899.7</ele>
        <time>2012-08-23T05:59:05Z</time>
      </trkpt>
      <trkpt lat="45.04831" lon="5.43693">
        <ele>899</ele>
        <time>2012-08-23T05:59:07Z</time>
      </trkpt>
      <trkpt lat="45.04841" lon="5.43698">
        <ele>898</ele>
        <time>2012-08-23T05:59:11Z</time>
      </trkpt>
      <trkpt lat="45.04855" lon="5.43707">
        <ele>895</ele>
        <time>2012-08-23T05:59:16Z</time>
      </trkpt>
      <trkpt lat="45.04867" lon="5.43716">
        <ele>892.7</ele>
        <time>2012-08-23T05:59:20Z</time>
      </trkpt>
      <trkpt lat="45.04873" lon="5.43717">
        <ele>892.9</ele>
        <time>2012-08-23T05:59:22Z</time>
      </trkpt>
      <trkpt lat="45.04888" lon="5.43717">
        <ele>891.9</ele>
        <time>2012-08-23T05:59:28Z</time>
      </trkpt>
      <trkpt lat="45.04897" lon="5.43718">
        <ele>892.9</ele>
        <time>2012-08-23T05:59:32Z</time>
      </trkpt>
      <trkpt lat="45.04908" lon="5.43718">
        <ele>893.7</ele>
        <time>2012-08-23T05:59:36Z</time>
      </trkpt>
      <trkpt lat="45.04913" lon="5.43718">
        <ele>893.5</ele>
        <time>2012-08-23T05:59:38Z</time>
      </trkpt>
      <trkpt lat="45.04927" lon="5.43725">
        <ele>894.2</ele>
        <time>2012-08-23T05:59:43Z</time>
      </trkpt>
      <trkpt lat="45.04937" lon="5.43733">
        <ele>894.2</ele>
        <time>2012-08-23T05:59:47Z</time>
      </trkpt>
      <trkpt lat="45.04942" lon="5.43733">
        <ele>892.5</ele>
        <time>2012-08-23T05:59:49Z</time>
      </trkpt>
      <trkpt lat="45.04951" lon="5.43733">
        <ele>890</ele>
        <time>2012-08-23T05:59:52Z</time>
      </trkpt>
      <trkpt lat="45.04955" lon="5.43732">
        <ele>888.7</ele>
        <time>2012-08-23T05:59:54Z</time>
      </trkpt>
      <trkpt lat="45.0496" lon="5.43733">
        <ele>888</ele>
        <time>2012-08-23T05:59:56Z</time>
      </trkpt>
      <trkpt lat="45.04968" lon="5.43738">
        <ele>889</ele>
        <time>2012-08-23T05:59:59Z</time>
      </trkpt>
      <trkpt lat="45.04971" lon="5.43743">
        <ele>888.7</ele>
        <time>2012-08-23T06:00:01Z</time>
      </trkpt>
      <trkpt lat="45.04976" lon="5.43755">
        <ele>887.4</ele>
        <time>2012-08-23T06:00:05Z</time>
      </trkpt>
      <trkpt lat="45.04984" lon="5.43776">
        <ele>886.5</ele>
        <time>2012-08-23T06:00:11Z</time>
      </trkpt>
      <trkpt lat="45.04987" lon="5.43789">
        <ele>886.5</ele>
        <time>2012-08-23T06:00:15Z</time>
      </trkpt>
      <trkpt lat="45.04988" lon="5.43795">
        <ele>886.7</ele>
        <time>2012-08-23T06:00:17Z</time>
      </trkpt>
      <trkpt lat="45.04989" lon="5.43807">
        <ele>885.2</ele>
        <time>2012-08-23T06:00:22Z</time>
      </trkpt>
      <trkpt lat="45.0499" lon="5.43812">
        <ele>885</ele>
        <time>2012-08-23T06:00:24Z</time>
      </trkpt>
      <trkpt lat="45.04992" lon="5.43815">
        <ele>885.2</ele>
        <time>2012-08-23T06:00:25Z</time>
      </trkpt>
      <trkpt lat="45.04993" lon="5.43821">
        <ele>886</ele>
        <time>2012-08-23T06:00:27Z</time>
      </trkpt>
      <trkpt lat="45.04995" lon="5.43826">
        <ele>885.7</ele>
        <time>2012-08-23T06:00:29Z</time>
      </trkpt>
      <trkpt lat="45.04996" lon="5.43841">
        <ele>886.2</ele>
        <time>2012-08-23T06:00:35Z</time>
      </trkpt>
      <trkpt lat="45.05001" lon="5.43863">
        <ele>887</ele>
        <time>2012-08-23T06:00:42Z</time>
      </trkpt>
      <trkpt lat="45.05006" lon="5.43875">
        <ele>887.2</ele>
        <time>2012-08-23T06:00:46Z</time>
      </trkpt>
      <trkpt lat="45.05012" lon="5.43885">
        <ele>887.5</ele>
        <time>2012-08-23T06:00:50Z</time>
      </trkpt>
      <trkpt lat="45.05022" lon="5.43895">
        <ele>887.7</ele>
        <time>2012-08-23T06:00:55Z</time>
      </trkpt>
      <trkpt lat="45.05025" lon="5.439">
        <ele>887.5</ele>
        <time>2012-08-23T06:00:57Z</time>
      </trkpt>
      <trkpt lat="45.05037" lon="5.4391">
        <ele>887</ele>
        <time>2012-08-23T06:01:02Z</time>
      </trkpt>
      <trkpt lat="45.05046" lon="5.43919">
        <ele>887.5</ele>
        <time>2012-08-23T06:01:06Z</time>
      </trkpt>
      <trkpt lat="45.05048" lon="5.43921">
        <ele>887.5</ele>
        <time>2012-08-23T06:01:07Z</time>
      </trkpt>
      <trkpt lat="45.05054" lon="5.43923">
        <ele>887.5</ele>
        <time>2012-08-23T06:01:09Z</time>
      </trkpt>
      <trkpt lat="45.05065" lon="5.4393">
        <ele>887.5</ele>
        <time>2012-08-23T06:01:13Z</time>
      </trkpt>
      <trkpt lat="45.05084" lon="5.43938">
        <ele>890</ele>
        <time>2012-08-23T06:01:19Z</time>
      </trkpt>
      <trkpt lat="45.05098" lon="5.43942">
        <ele>890.5</ele>
        <time>2012-08-23T06:01:23Z</time>
      </trkpt>
      <trkpt lat="45.051" lon="5.43944">
        <ele>890.4</ele>
        <time>2012-08-23T06:01:24Z</time>
      </trkpt>
      <trkpt lat="45.05111" lon="5.43949">
        <ele>890.4</ele>
        <time>2012-08-23T06:01:30Z</time>
      </trkpt>
      <trkpt lat="45.05118" lon="5.4395">
        <ele>890.7</ele>
        <time>2012-08-23T06:01:33Z</time>
      </trkpt>
      <trkpt lat="45.05122" lon="5.4395">
        <ele>891</ele>
        <time>2012-08-23T06:01:35Z</time>
      </trkpt>
      <trkpt lat="45.05135" lon="5.43948">
        <ele>890.9</ele>
        <time>2012-08-23T06:01:42Z</time>
      </trkpt>
      <trkpt lat="45.05137" lon="5.43947">
        <ele>890</ele>
        <time>2012-08-23T06:01:43Z</time>
      </trkpt>
      <trkpt lat="45.05141" lon="5.43947">
        <ele>889.9</ele>
        <time>2012-08-23T06:01:45Z</time>
      </trkpt>
      <trkpt lat="45.05146" lon="5.4395">
        <ele>890.5</ele>
        <time>2012-08-23T06:01:48Z</time>
      </trkpt>
      <trkpt lat="45.05149" lon="5.43954">
        <ele>890.2</ele>
        <time>2012-08-23T06:01:50Z</time>
      </trkpt>
      <trkpt lat="45.05154" lon="5.43963">
        <ele>890</ele>
        <time>2012-08-23T06:01:54Z</time>
      </trkpt>
      <trkpt lat="45.05155" lon="5.43967">
        <ele>889.7</ele>
        <time>2012-08-23T06:01:56Z</time>
      </trkpt>
      <trkpt lat="45.05161" lon="5.43977">
        <ele>888.7</ele>
        <time>2012-08-23T06:02:01Z</time>
      </trkpt>
      <trkpt lat="45.05163" lon="5.43981">
        <ele>888.7</ele>
        <time>2012-08-23T06:02:03Z</time>
      </trkpt>
      <trkpt lat="45.05166" lon="5.43988">
        <ele>889.5</ele>
        <time>2012-08-23T06:02:07Z</time>
      </trkpt>
      <trkpt lat="45.05168" lon="5.43994">
        <ele>889.4</ele>
        <time>2012-08-23T06:02:10Z</time>
      </trkpt>
      <trkpt lat="45.0517" lon="5.43999">
        <ele>889.2</ele>
        <time>2012-08-23T06:02:13Z</time>
      </trkpt>
      <trkpt lat="45.05171" lon="5.44006">
        <ele>888.9</ele>
        <time>2012-08-23T06:02:17Z</time>
      </trkpt>
      <trkpt lat="45.05171" lon="5.44017">
        <ele>887.7</ele>
        <time>2012-08-23T06:02:22Z</time>
      </trkpt>
      <trkpt lat="45.05169" lon="5.44027">
        <ele>887.2</ele>
        <time>2012-08-23T06:02:26Z</time>
      </trkpt>
      <trkpt lat="45.05168" lon="5.44032">
        <ele>887.5</ele>
        <time>2012-08-23T06:02:28Z</time>
      </trkpt>
      <trkpt lat="45.05165" lon="5.44054">
        <ele>890</ele>
        <time>2012-08-23T06:02:35Z</time>
      </trkpt>
      <trkpt lat="45.05164" lon="5.44063">
        <ele>891.5</ele>
        <time>2012-08-23T06:02:38Z</time>
      </trkpt>
      <trkpt lat="45.05164" lon="5.44074">
        <ele>892.5</ele>
        <time>2012-08-23T06:02:42Z</time>
      </trkpt>
      <trkpt lat="45.05164" lon="5.44082">
        <ele>892.4</ele>
        <time>2012-08-23T06:02:45Z</time>
      </trkpt>
      <trkpt lat="45.05166" lon="5.44093">
        <ele>893</ele>
        <time>2012-08-23T06:02:49Z</time>
      </trkpt>
      <trkpt lat="45.05167" lon="5.44102">
        <ele>892.9</ele>
        <time>2012-08-23T06:02:53Z</time>
      </trkpt>
      <trkpt lat="45.05169" lon="5.44107">
        <ele>892.9</ele>
        <time>2012-08-23T06:02:55Z</time>
      </trkpt>
      <trkpt lat="45.05173" lon="5.44112">
        <ele>892.9</ele>
        <time>2012-08-23T06:02:58Z</time>
      </trkpt>
      <trkpt lat="45.0518" lon="5.44122">
        <ele>893.4</ele>
        <time>2012-08-23T06:03:04Z</time>
      </trkpt>
      <trkpt lat="45.05185" lon="5.4413">
        <ele>895</ele>
        <time>2012-08-23T06:03:08Z</time>
      </trkpt>
      <trkpt lat="45.0519" lon="5.44142">
        <ele>897</ele>
        <time>2012-08-23T06:03:13Z</time>
      </trkpt>
      <trkpt lat="45.05195" lon="5.44155">
        <ele>898.5</ele>
        <time>2012-08-23T06:03:21Z</time>
      </trkpt>
      <trkpt lat="45.05194" lon="5.44157">
        <ele>900.7</ele>
        <time>2012-08-23T06:03:53Z</time>
      </trkpt>
      <trkpt lat="45.05195" lon="5.44157">
        <ele>902.2</ele>
        <time>2012-08-23T06:04:07Z</time>
      </trkpt>
      <trkpt lat="45.05196" lon="5.44157">
        <ele>901.2</ele>
        <time>2012-08-23T06:04:32Z</time>
      </trkpt>
      <trkpt lat="45.05196" lon="5.4416">
        <ele>899.7</ele>
        <time>2012-08-23T06:04:46Z</time>
      </trkpt>
      <trkpt lat="45.05193" lon="5.44164">
        <ele>899.7</ele>
        <time>2012-08-23T06:04:50Z</time>
      </trkpt>
      <trkpt lat="45.05186" lon="5.44174">
        <ele>900.2</ele>
        <time>2012-08-23T06:04:57Z</time>
      </trkpt>
      <trkpt lat="45.05182" lon="5.44183">
        <ele>900.2</ele>
        <time>2012-08-23T06:05:01Z</time>
      </trkpt>
      <trkpt lat="45.05173" lon="5.44198">
        <ele>900</ele>
        <time>2012-08-23T06:05:07Z</time>
      </trkpt>
      <trkpt lat="45.05164" lon="5.44221">
        <ele>899</ele>
        <time>2012-08-23T06:05:15Z</time>
      </trkpt>
      <trkpt lat="45.05159" lon="5.44229">
        <ele>899.2</ele>
        <time>2012-08-23T06:05:18Z</time>
      </trkpt>
      <trkpt lat="45.05157" lon="5.44231">
        <ele>899.2</ele>
        <time>2012-08-23T06:05:19Z</time>
      </trkpt>
      <trkpt lat="45.05147" lon="5.4424">
        <ele>900</ele>
        <time>2012-08-23T06:05:25Z</time>
      </trkpt>
      <trkpt lat="45.05142" lon="5.44243">
        <ele>900.5</ele>
        <time>2012-08-23T06:05:28Z</time>
      </trkpt>
      <trkpt lat="45.05132" lon="5.44246">
        <ele>902.2</ele>
        <time>2012-08-23T06:05:35Z</time>
      </trkpt>
      <trkpt lat="45.0512" lon="5.44249">
        <ele>903.5</ele>
        <time>2012-08-23T06:05:43Z</time>
      </trkpt>
      <trkpt lat="45.05113" lon="5.44249">
        <ele>903.7</ele>
        <time>2012-08-23T06:05:47Z</time>
      </trkpt>
      <trkpt lat="45.0511" lon="5.4425">
        <ele>904</ele>
        <time>2012-08-23T06:05:49Z</time>
      </trkpt>
      <trkpt lat="45.05105" lon="5.44253">
        <ele>905.2</ele>
        <time>2012-08-23T06:05:53Z</time>
      </trkpt>
      <trkpt lat="45.051" lon="5.44255">
        <ele>906</ele>
        <time>2012-08-23T06:05:56Z</time>
      </trkpt>
      <trkpt lat="45.05096" lon="5.44259">
        <ele>906.4</ele>
        <time>2012-08-23T06:05:59Z</time>
      </trkpt>
      <trkpt lat="45.05089" lon="5.44267">
        <ele>906.2</ele>
        <time>2012-08-23T06:06:04Z</time>
      </trkpt>
      <trkpt lat="45.05082" lon="5.44276">
        <ele>904.2</ele>
        <time>2012-08-23T06:06:08Z</time>
      </trkpt>
      <trkpt lat="45.05075" lon="5.44283">
        <ele>903.2</ele>
        <time>2012-08-23T06:06:11Z</time>
      </trkpt>
      <trkpt lat="45.05071" lon="5.4429">
        <ele>902.5</ele>
        <time>2012-08-23T06:06:13Z</time>
      </trkpt>
      <trkpt lat="45.05069" lon="5.44294">
        <ele>902</ele>
        <time>2012-08-23T06:06:14Z</time>
      </trkpt>
      <trkpt lat="45.05067" lon="5.44299">
        <ele>902</ele>
        <time>2012-08-23T06:06:15Z</time>
      </trkpt>
      <trkpt lat="45.05059" lon="5.44334">
        <ele>900.2</ele>
        <time>2012-08-23T06:06:23Z</time>
      </trkpt>
      <trkpt lat="45.05052" lon="5.44354">
        <ele>900.5</ele>
        <time>2012-08-23T06:06:28Z</time>
      </trkpt>
      <trkpt lat="45.0505" lon="5.44362">
        <ele>900.5</ele>
        <time>2012-08-23T06:06:30Z</time>
      </trkpt>
      <trkpt lat="45.0504" lon="5.44395">
        <ele>898.7</ele>
        <time>2012-08-23T06:06:37Z</time>
      </trkpt>
      <trkpt lat="45.05032" lon="5.4442">
        <ele>899.2</ele>
        <time>2012-08-23T06:06:44Z</time>
      </trkpt>
      <trkpt lat="45.05026" lon="5.44435">
        <ele>900.2</ele>
        <time>2012-08-23T06:06:49Z</time>
      </trkpt>
      <trkpt lat="45.05022" lon="5.44451">
        <ele>900.7</ele>
        <time>2012-08-23T06:06:54Z</time>
      </trkpt>
      <trkpt lat="45.05021" lon="5.44458">
        <ele>900.5</ele>
        <time>2012-08-23T06:06:56Z</time>
      </trkpt>
      <trkpt lat="45.05022" lon="5.44485">
        <ele>901</ele>
        <time>2012-08-23T06:07:04Z</time>
      </trkpt>
      <trkpt lat="45.0502" lon="5.44496">
        <ele>902.7</ele>
        <time>2012-08-23T06:07:09Z</time>
      </trkpt>
      <trkpt lat="45.05016" lon="5.44508">
        <ele>904</ele>
        <time>2012-08-23T06:07:15Z</time>
      </trkpt>
      <trkpt lat="45.05015" lon="5.44511">
        <ele>904</ele>
        <time>2012-08-23T06:07:17Z</time>
      </trkpt>
      <trkpt lat="45.05014" lon="5.44525">
        <ele>905.4</ele>
        <time>2012-08-23T06:07:24Z</time>
      </trkpt>
      <trkpt lat="45.05012" lon="5.44538">
        <ele>905.7</ele>
        <time>2012-08-23T06:07:30Z</time>
      </trkpt>
      <trkpt lat="45.0501" lon="5.44547">
        <ele>906</ele>
        <time>2012-08-23T06:07:33Z</time>
      </trkpt>
      <trkpt lat="45.05008" lon="5.44564">
        <ele>906.2</ele>
        <time>2012-08-23T06:07:38Z</time>
      </trkpt>
      <trkpt lat="45.05007" lon="5.44572">
        <ele>906.4</ele>
        <time>2012-08-23T06:07:40Z</time>
      </trkpt>
      <trkpt lat="45.05008" lon="5.44581">
        <ele>906.2</ele>
        <time>2012-08-23T06:07:42Z</time>
      </trkpt>
      <trkpt lat="45.0501" lon="5.44588">
        <ele>906.7</ele>
        <time>2012-08-23T06:07:44Z</time>
      </trkpt>
      <trkpt lat="45.05014" lon="5.44595">
        <ele>906.7</ele>
        <time>2012-08-23T06:07:46Z</time>
      </trkpt>
      <trkpt lat="45.05025" lon="5.44606">
        <ele>906.5</ele>
        <time>2012-08-23T06:07:51Z</time>
      </trkpt>
      <trkpt lat="45.05033" lon="5.44615">
        <ele>906</ele>
        <time>2012-08-23T06:07:55Z</time>
      </trkpt>
      <trkpt lat="45.0505" lon="5.44632">
        <ele>905.2</ele>
        <time>2012-08-23T06:08:02Z</time>
      </trkpt>
      <trkpt lat="45.0506" lon="5.44643">
        <ele>905</ele>
        <time>2012-08-23T06:08:06Z</time>
      </trkpt>
      <trkpt lat="45.05062" lon="5.44647">
        <ele>905.5</ele>
        <time>2012-08-23T06:08:07Z</time>
      </trkpt>
      <trkpt lat="45.05063" lon="5.4465">
        <ele>905.5</ele>
        <time>2012-08-23T06:08:08Z</time>
      </trkpt>
      <trkpt lat="45.05062" lon="5.44658">
        <ele>906</ele>
        <time>2012-08-23T06:08:10Z</time>
      </trkpt>
      <trkpt lat="45.0506" lon="5.4467">
        <ele>906.5</ele>
        <time>2012-08-23T06:08:14Z</time>
      </trkpt>
      <trkpt lat="45.05057" lon="5.44686">
        <ele>905.5</ele>
        <time>2012-08-23T06:08:19Z</time>
      </trkpt>
      <trkpt lat="45.05055" lon="5.44697">
        <ele>904.7</ele>
        <time>2012-08-23T06:08:23Z</time>
      </trkpt>
      <trkpt lat="45.05055" lon="5.44705">
        <ele>904.7</ele>
        <time>2012-08-23T06:08:26Z</time>
      </trkpt>
      <trkpt lat="45.05056" lon="5.44715">
        <ele>904.7</ele>
        <time>2012-08-23T06:08:30Z</time>
      </trkpt>
      <trkpt lat="45.05056" lon="5.44724">
        <ele>905.5</ele>
        <time>2012-08-23T06:08:34Z</time>
      </trkpt>
      <trkpt lat="45.05057" lon="5.44732">
        <ele>906</ele>
        <time>2012-08-23T06:08:38Z</time>
      </trkpt>
      <trkpt lat="45.05056" lon="5.4474">
        <ele>906.9</ele>
        <time>2012-08-23T06:08:42Z</time>
      </trkpt>
      <trkpt lat="45.05056" lon="5.44747">
        <ele>907.5</ele>
        <time>2012-08-23T06:08:46Z</time>
      </trkpt>
      <trkpt lat="45.05057" lon="5.44754">
        <ele>907.7</ele>
        <time>2012-08-23T06:08:50Z</time>
      </trkpt>
      <trkpt lat="45.05055" lon="5.44759">
        <ele>908.2</ele>
        <time>2012-08-23T06:08:54Z</time>
      </trkpt>
      <trkpt lat="45.05055" lon="5.44764">
        <ele>908.7</ele>
        <time>2012-08-23T06:08:57Z</time>
      </trkpt>
      <trkpt lat="45.05055" lon="5.44769">
        <ele>909.2</ele>
        <time>2012-08-23T06:09:00Z</time>
      </trkpt>
      <trkpt lat="45.05054" lon="5.44773">
        <ele>909.4</ele>
        <time>2012-08-23T06:09:02Z</time>
      </trkpt>
      <trkpt lat="45.05052" lon="5.44777">
        <ele>909.5</ele>
        <time>2012-08-23T06:09:05Z</time>
      </trkpt>
      <trkpt lat="45.05051" lon="5.44783">
        <ele>910</ele>
        <time>2012-08-23T06:09:09Z</time>
      </trkpt>
      <trkpt lat="45.05049" lon="5.44788">
        <ele>911</ele>
        <time>2012-08-23T06:09:13Z</time>
      </trkpt>
      <trkpt lat="45.05045" lon="5.44792">
        <ele>912</ele>
        <time>2012-08-23T06:09:17Z</time>
      </trkpt>
      <trkpt lat="45.05043" lon="5.448">
        <ele>913.7</ele>
        <time>2012-08-23T06:09:22Z</time>
      </trkpt>
      <trkpt lat="45.05041" lon="5.44802">
        <ele>914.9</ele>
        <time>2012-08-23T06:09:25Z</time>
      </trkpt>
      <trkpt lat="45.05038" lon="5.44808">
        <ele>916.4</ele>
        <time>2012-08-23T06:09:29Z</time>
      </trkpt>
      <trkpt lat="45.05036" lon="5.44809">
        <ele>917.2</ele>
        <time>2012-08-23T06:09:31Z</time>
      </trkpt>
      <trkpt lat="45.05034" lon="5.44813">
        <ele>918.4</ele>
        <time>2012-08-23T06:09:34Z</time>
      </trkpt>
      <trkpt lat="45.05033" lon="5.44817">
        <ele>918.9</ele>
        <time>2012-08-23T06:09:37Z</time>
      </trkpt>
      <trkpt lat="45.0503" lon="5.4482">
        <ele>921</ele>
        <time>2012-08-23T06:09:41Z</time>
      </trkpt>
      <trkpt lat="45.05028" lon="5.44824">
        <ele>920.7</ele>
        <time>2012-08-23T06:09:44Z</time>
      </trkpt>
      <trkpt lat="45.05027" lon="5.44828">
        <ele>920.7</ele>
        <time>2012-08-23T06:09:46Z</time>
      </trkpt>
      <trkpt lat="45.05024" lon="5.4483">
        <ele>921.4</ele>
        <time>2012-08-23T06:09:48Z</time>
      </trkpt>
      <trkpt lat="45.05023" lon="5.44834">
        <ele>921.7</ele>
        <time>2012-08-23T06:09:50Z</time>
      </trkpt>
      <trkpt lat="45.05024" lon="5.4484">
        <ele>924.2</ele>
        <time>2012-08-23T06:09:53Z</time>
      </trkpt>
      <trkpt lat="45.05025" lon="5.44843">
        <ele>925.5</ele>
        <time>2012-08-23T06:09:55Z</time>
      </trkpt>
      <trkpt lat="45.05027" lon="5.44847">
        <ele>925</ele>
        <time>2012-08-23T06:09:57Z</time>
      </trkpt>
      <trkpt lat="45.05026" lon="5.44854">
        <ele>924.5</ele>
        <time>2012-08-23T06:10:01Z</time>
      </trkpt>
      <trkpt lat="45.05024" lon="5.4486">
        <ele>927.7</ele>
        <time>2012-08-23T06:10:04Z</time>
      </trkpt>
      <trkpt lat="45.05022" lon="5.44862">
        <ele>930.5</ele>
        <time>2012-08-23T06:10:06Z</time>
      </trkpt>
      <trkpt lat="45.0502" lon="5.44866">
        <ele>931.4</ele>
        <time>2012-08-23T06:10:08Z</time>
      </trkpt>
      <trkpt lat="45.05019" lon="5.4487">
        <ele>931.4</ele>
        <time>2012-08-23T06:10:10Z</time>
      </trkpt>
      <trkpt lat="45.05018" lon="5.44881">
        <ele>930.2</ele>
        <time>2012-08-23T06:10:14Z</time>
      </trkpt>
      <trkpt lat="45.05018" lon="5.4489">
        <ele>929.5</ele>
        <time>2012-08-23T06:10:17Z</time>
      </trkpt>
      <trkpt lat="45.0502" lon="5.44897">
        <ele>927.5</ele>
        <time>2012-08-23T06:10:20Z</time>
      </trkpt>
      <trkpt lat="45.05025" lon="5.44902">
        <ele>926.2</ele>
        <time>2012-08-23T06:10:23Z</time>
      </trkpt>
      <trkpt lat="45.05029" lon="5.44904">
        <ele>926.5</ele>
        <time>2012-08-23T06:10:25Z</time>
      </trkpt>
      <trkpt lat="45.05034" lon="5.44908">
        <ele>927.9</ele>
        <time>2012-08-23T06:10:28Z</time>
      </trkpt>
      <trkpt lat="45.05046" lon="5.44914">
        <ele>927.7</ele>
        <time>2012-08-23T06:10:33Z</time>
      </trkpt>
      <trkpt lat="45.05063" lon="5.44928">
        <ele>925</ele>
        <time>2012-08-23T06:10:41Z</time>
      </trkpt>
      <trkpt lat="45.0507" lon="5.44933">
        <ele>923.9</ele>
        <time>2012-08-23T06:10:44Z</time>
      </trkpt>
      <trkpt lat="45.05072" lon="5.44935">
        <ele>924.7</ele>
        <time>2012-08-23T06:10:45Z</time>
      </trkpt>
      <trkpt lat="45.05081" lon="5.44941">
        <ele>925.5</ele>
        <time>2012-08-23T06:10:49Z</time>
      </trkpt>
      <trkpt lat="45.05092" lon="5.44948">
        <ele>924.2</ele>
        <time>2012-08-23T06:10:55Z</time>
      </trkpt>
      <trkpt lat="45.05098" lon="5.44952">
        <ele>924.2</ele>
        <time>2012-08-23T06:10:58Z</time>
      </trkpt>
      <trkpt lat="45.05106" lon="5.44957">
        <ele>923.5</ele>
        <time>2012-08-23T06:11:02Z</time>
      </trkpt>
      <trkpt lat="45.05112" lon="5.44961">
        <ele>922.7</ele>
        <time>2012-08-23T06:11:05Z</time>
      </trkpt>
      <trkpt lat="45.05123" lon="5.44968">
        <ele>922.5</ele>
        <time>2012-08-23T06:11:10Z</time>
      </trkpt>
      <trkpt lat="45.05133" lon="5.44974">
        <ele>923.2</ele>
        <time>2012-08-23T06:11:15Z</time>
      </trkpt>
      <trkpt lat="45.05137" lon="5.44978">
        <ele>923.5</ele>
        <time>2012-08-23T06:11:17Z</time>
      </trkpt>
      <trkpt lat="45.05151" lon="5.44985">
        <ele>922</ele>
        <time>2012-08-23T06:11:23Z</time>
      </trkpt>
      <trkpt lat="45.05159" lon="5.44988">
        <ele>921.5</ele>
        <time>2012-08-23T06:11:27Z</time>
      </trkpt>
      <trkpt lat="45.05165" lon="5.44992">
        <ele>920.7</ele>
        <time>2012-08-23T06:11:30Z</time>
      </trkpt>
      <trkpt lat="45.05178" lon="5.44999">
        <ele>918.9</ele>
        <time>2012-08-23T06:11:36Z</time>
      </trkpt>
      <trkpt lat="45.05194" lon="5.45008">
        <ele>918.2</ele>
        <time>2012-08-23T06:11:44Z</time>
      </trkpt>
      <trkpt lat="45.05199" lon="5.45011">
        <ele>918.2</ele>
        <time>2012-08-23T06:11:47Z</time>
      </trkpt>
      <trkpt lat="45.05208" lon="5.45015">
        <ele>919.7</ele>
        <time>2012-08-23T06:11:51Z</time>
      </trkpt>
      <trkpt lat="45.05212" lon="5.45019">
        <ele>920</ele>
        <time>2012-08-23T06:11:54Z</time>
      </trkpt>
      <trkpt lat="45.05215" lon="5.4502">
        <ele>920</ele>
        <time>2012-08-23T06:11:56Z</time>
      </trkpt>
      <trkpt lat="45.05219" lon="5.45019">
        <ele>920</ele>
        <time>2012-08-23T06:11:58Z</time>
      </trkpt>
      <trkpt lat="45.05222" lon="5.45015">
        <ele>919.7</ele>
        <time>2012-08-23T06:12:00Z</time>
      </trkpt>
      <trkpt lat="45.0523" lon="5.44996">
        <ele>920</ele>
        <time>2012-08-23T06:12:06Z</time>
      </trkpt>
      <trkpt lat="45.05242" lon="5.4497">
        <ele>920</ele>
        <time>2012-08-23T06:12:13Z</time>
      </trkpt>
      <trkpt lat="45.05252" lon="5.4495">
        <ele>920.2</ele>
        <time>2012-08-23T06:12:19Z</time>
      </trkpt>
      <trkpt lat="45.05261" lon="5.44933">
        <ele>919.7</ele>
        <time>2012-08-23T06:12:25Z</time>
      </trkpt>
      <trkpt lat="45.05267" lon="5.4492">
        <ele>919</ele>
        <time>2012-08-23T06:12:30Z</time>
      </trkpt>
      <trkpt lat="45.05269" lon="5.44916">
        <ele>918.9</ele>
        <time>2012-08-23T06:12:32Z</time>
      </trkpt>
      <trkpt lat="45.05273" lon="5.44914">
        <ele>918.7</ele>
        <time>2012-08-23T06:12:34Z</time>
      </trkpt>
      <trkpt lat="45.0529" lon="5.44909">
        <ele>917.2</ele>
        <time>2012-08-23T06:12:40Z</time>
      </trkpt>
      <trkpt lat="45.05297" lon="5.44909">
        <ele>916.5</ele>
        <time>2012-08-23T06:12:42Z</time>
      </trkpt>
      <trkpt lat="45.05304" lon="5.4491">
        <ele>916.5</ele>
        <time>2012-08-23T06:12:44Z</time>
      </trkpt>
      <trkpt lat="45.05323" lon="5.44917">
        <ele>916.7</ele>
        <time>2012-08-23T06:12:50Z</time>
      </trkpt>
      <trkpt lat="45.05347" lon="5.44923">
        <ele>913.4</ele>
        <time>2012-08-23T06:12:57Z</time>
      </trkpt>
      <trkpt lat="45.05356" lon="5.44924">
        <ele>912.2</ele>
        <time>2012-08-23T06:13:00Z</time>
      </trkpt>
      <trkpt lat="45.05372" lon="5.4493">
        <ele>909.4</ele>
        <time>2012-08-23T06:13:05Z</time>
      </trkpt>
      <trkpt lat="45.05397" lon="5.4494">
        <ele>909</ele>
        <time>2012-08-23T06:13:12Z</time>
      </trkpt>
      <trkpt lat="45.05414" lon="5.44944">
        <ele>909.5</ele>
        <time>2012-08-23T06:13:18Z</time>
      </trkpt>
      <trkpt lat="45.05419" lon="5.44945">
        <ele>909.9</ele>
        <time>2012-08-23T06:13:20Z</time>
      </trkpt>
      <trkpt lat="45.05424" lon="5.44945">
        <ele>910</ele>
        <time>2012-08-23T06:13:22Z</time>
      </trkpt>
      <trkpt lat="45.05429" lon="5.44944">
        <ele>909.9</ele>
        <time>2012-08-23T06:13:24Z</time>
      </trkpt>
      <trkpt lat="45.0544" lon="5.44937">
        <ele>909</ele>
        <time>2012-08-23T06:13:30Z</time>
      </trkpt>
      <trkpt lat="45.05449" lon="5.44933">
        <ele>909</ele>
        <time>2012-08-23T06:13:34Z</time>
      </trkpt>
      <trkpt lat="45.05457" lon="5.44931">
        <ele>909</ele>
        <time>2012-08-23T06:13:37Z</time>
      </trkpt>
      <trkpt lat="45.05471" lon="5.44928">
        <ele>911</ele>
        <time>2012-08-23T06:13:43Z</time>
      </trkpt>
      <trkpt lat="45.05482" lon="5.44926">
        <ele>912</ele>
        <time>2012-08-23T06:13:48Z</time>
      </trkpt>
      <trkpt lat="45.05495" lon="5.44925">
        <ele>913.2</ele>
        <time>2012-08-23T06:13:54Z</time>
      </trkpt>
      <trkpt lat="45.05499" lon="5.44925">
        <ele>913.5</ele>
        <time>2012-08-23T06:13:56Z</time>
      </trkpt>
      <trkpt lat="45.05517" lon="5.44926">
        <ele>914.2</ele>
        <time>2012-08-23T06:14:04Z</time>
      </trkpt>
      <trkpt lat="45.05526" lon="5.44927">
        <ele>914.7</ele>
        <time>2012-08-23T06:14:08Z</time>
      </trkpt>
      <trkpt lat="45.05536" lon="5.44928">
        <ele>915.2</ele>
        <time>2012-08-23T06:14:12Z</time>
      </trkpt>
      <trkpt lat="45.05551" lon="5.44931">
        <ele>915.7</ele>
        <time>2012-08-23T06:14:18Z</time>
      </trkpt>
      <trkpt lat="45.05559" lon="5.44934">
        <ele>916</ele>
        <time>2012-08-23T06:14:21Z</time>
      </trkpt>
      <trkpt lat="45.05579" lon="5.44946">
        <ele>916.5</ele>
        <time>2012-08-23T06:14:28Z</time>
      </trkpt>
      <trkpt lat="45.05597" lon="5.44956">
        <ele>916</ele>
        <time>2012-08-23T06:14:34Z</time>
      </trkpt>
      <trkpt lat="45.05618" lon="5.44965">
        <ele>915</ele>
        <time>2012-08-23T06:14:40Z</time>
      </trkpt>
      <trkpt lat="45.05624" lon="5.44969">
        <ele>914.7</ele>
        <time>2012-08-23T06:14:42Z</time>
      </trkpt>
      <trkpt lat="45.0564" lon="5.44976">
        <ele>913.2</ele>
        <time>2012-08-23T06:14:47Z</time>
      </trkpt>
      <trkpt lat="45.05662" lon="5.44989">
        <ele>910.7</ele>
        <time>2012-08-23T06:14:54Z</time>
      </trkpt>
      <trkpt lat="45.05675" lon="5.44997">
        <ele>909</ele>
        <time>2012-08-23T06:14:57Z</time>
      </trkpt>
      <trkpt lat="45.05688" lon="5.45011">
        <ele>909</ele>
        <time>2012-08-23T06:15:01Z</time>
      </trkpt>
      <trkpt lat="45.05696" lon="5.45015">
        <ele>908.5</ele>
        <time>2012-08-23T06:15:03Z</time>
      </trkpt>
      <trkpt lat="45.05707" lon="5.45018">
        <ele>908.2</ele>
        <time>2012-08-23T06:15:06Z</time>
      </trkpt>
      <trkpt lat="45.05731" lon="5.45022">
        <ele>907.2</ele>
        <time>2012-08-23T06:15:12Z</time>
      </trkpt>
      <trkpt lat="45.05743" lon="5.45026">
        <ele>906.9</ele>
        <time>2012-08-23T06:15:15Z</time>
      </trkpt>
      <trkpt lat="45.05764" lon="5.45035">
        <ele>906</ele>
        <time>2012-08-23T06:15:23Z</time>
      </trkpt>
      <trkpt lat="45.05773" lon="5.4504">
        <ele>906.2</ele>
        <time>2012-08-23T06:15:28Z</time>
      </trkpt>
      <trkpt lat="45.05777" lon="5.45044">
        <ele>906</ele>
        <time>2012-08-23T06:15:31Z</time>
      </trkpt>
      <trkpt lat="45.0578" lon="5.4505">
        <ele>906.2</ele>
        <time>2012-08-23T06:15:34Z</time>
      </trkpt>
      <trkpt lat="45.05782" lon="5.45059">
        <ele>908.5</ele>
        <time>2012-08-23T06:15:38Z</time>
      </trkpt>
      <trkpt lat="45.05787" lon="5.45075">
        <ele>910</ele>
        <time>2012-08-23T06:15:45Z</time>
      </trkpt>
      <trkpt lat="45.05788" lon="5.45078">
        <ele>910.2</ele>
        <time>2012-08-23T06:15:46Z</time>
      </trkpt>
      <trkpt lat="45.05793" lon="5.45091">
        <ele>910.9</ele>
        <time>2012-08-23T06:15:53Z</time>
      </trkpt>
      <trkpt lat="45.05794" lon="5.45092">
        <ele>910.7</ele>
        <time>2012-08-23T06:15:54Z</time>
      </trkpt>
      <trkpt lat="45.058" lon="5.45105">
        <ele>911</ele>
        <time>2012-08-23T06:16:02Z</time>
      </trkpt>
      <trkpt lat="45.05801" lon="5.45112">
        <ele>911.5</ele>
        <time>2012-08-23T06:16:06Z</time>
      </trkpt>
      <trkpt lat="45.05803" lon="5.45115">
        <ele>912</ele>
        <time>2012-08-23T06:16:08Z</time>
      </trkpt>
      <trkpt lat="45.05805" lon="5.45119">
        <ele>912.4</ele>
        <time>2012-08-23T06:16:11Z</time>
      </trkpt>
      <trkpt lat="45.05806" lon="5.45123">
        <ele>912.5</ele>
        <time>2012-08-23T06:16:14Z</time>
      </trkpt>
      <trkpt lat="45.05806" lon="5.45124">
        <ele>913.7</ele>
        <time>2012-08-23T06:16:24Z</time>
      </trkpt>
      <trkpt lat="45.05806" lon="5.45124">
        <ele>914.2</ele>
        <time>2012-08-23T06:16:26Z</time>
      </trkpt>
      <trkpt lat="45.05806" lon="5.45123">
        <ele>915</ele>
        <time>2012-08-23T06:16:29Z</time>
      </trkpt>
      <trkpt lat="45.05805" lon="5.45117">
        <ele>915.2</ele>
        <time>2012-08-23T06:16:32Z</time>
      </trkpt>
      <trkpt lat="45.05797" lon="5.45102">
        <ele>913</ele>
        <time>2012-08-23T06:16:37Z</time>
      </trkpt>
      <trkpt lat="45.05787" lon="5.45075">
        <ele>909.4</ele>
        <time>2012-08-23T06:16:44Z</time>
      </trkpt>
      <trkpt lat="45.0578" lon="5.45053">
        <ele>907.7</ele>
        <time>2012-08-23T06:16:50Z</time>
      </trkpt>
      <trkpt lat="45.05774" lon="5.4504">
        <ele>906.5</ele>
        <time>2012-08-23T06:16:55Z</time>
      </trkpt>
      <trkpt lat="45.05775" lon="5.45036">
        <ele>906.2</ele>
        <time>2012-08-23T06:16:57Z</time>
      </trkpt>
      <trkpt lat="45.05779" lon="5.45033">
        <ele>905.2</ele>
        <time>2012-08-23T06:16:59Z</time>
      </trkpt>
      <trkpt lat="45.05781" lon="5.45032">
        <ele>904.7</ele>
        <time>2012-08-23T06:17:00Z</time>
      </trkpt>
      <trkpt lat="45.05789" lon="5.45032">
        <ele>903</ele>
        <time>2012-08-23T06:17:04Z</time>
      </trkpt>
      <trkpt lat="45.05796" lon="5.45029">
        <ele>900.5</ele>
        <time>2012-08-23T06:17:07Z</time>
      </trkpt>
      <trkpt lat="45.05802" lon="5.45028">
        <ele>900.2</ele>
        <time>2012-08-23T06:17:09Z</time>
      </trkpt>
      <trkpt lat="45.05813" lon="5.45026">
        <ele>900</ele>
        <time>2012-08-23T06:17:13Z</time>
      </trkpt>
      <trkpt lat="45.05818" lon="5.45024">
        <ele>899.7</ele>
        <time>2012-08-23T06:17:16Z</time>
      </trkpt>
      <trkpt lat="45.05826" lon="5.45023">
        <ele>899.5</ele>
        <time>2012-08-23T06:17:21Z</time>
      </trkpt>
      <trkpt lat="45.0583" lon="5.4502">
        <ele>899.7</ele>
        <time>2012-08-23T06:17:24Z</time>
      </trkpt>
      <trkpt lat="45.05834" lon="5.45019">
        <ele>899.5</ele>
        <time>2012-08-23T06:17:26Z</time>
      </trkpt>
      <trkpt lat="45.0584" lon="5.45019">
        <ele>900</ele>
        <time>2012-08-23T06:17:30Z</time>
      </trkpt>
      <trkpt lat="45.05849" lon="5.45017">
        <ele>901.2</ele>
        <time>2012-08-23T06:17:35Z</time>
      </trkpt>
      <trkpt lat="45.05854" lon="5.45013">
        <ele>901</ele>
        <time>2012-08-23T06:17:39Z</time>
      </trkpt>
      <trkpt lat="45.05863" lon="5.4501">
        <ele>901.4</ele>
        <time>2012-08-23T06:17:47Z</time>
      </trkpt>
      <trkpt lat="45.05871" lon="5.45011">
        <ele>901</ele>
        <time>2012-08-23T06:17:53Z</time>
      </trkpt>
      <trkpt lat="45.05873" lon="5.45011">
        <ele>901</ele>
        <time>2012-08-23T06:17:54Z</time>
      </trkpt>
      <trkpt lat="45.05878" lon="5.45009">
        <ele>900.2</ele>
        <time>2012-08-23T06:17:57Z</time>
      </trkpt>
      <trkpt lat="45.05884" lon="5.45006">
        <ele>900.4</ele>
        <time>2012-08-23T06:18:00Z</time>
      </trkpt>
      <trkpt lat="45.05887" lon="5.45003">
        <ele>900.5</ele>
        <time>2012-08-23T06:18:02Z</time>
      </trkpt>
      <trkpt lat="45.0589" lon="5.44999">
        <ele>900.7</ele>
        <time>2012-08-23T06:18:04Z</time>
      </trkpt>
      <trkpt lat="45.05892" lon="5.44994">
        <ele>901.2</ele>
        <time>2012-08-23T06:18:06Z</time>
      </trkpt>
      <trkpt lat="45.05894" lon="5.44988">
        <ele>901.5</ele>
        <time>2012-08-23T06:18:09Z</time>
      </trkpt>
      <trkpt lat="45.05895" lon="5.44986">
        <ele>901.5</ele>
        <time>2012-08-23T06:18:10Z</time>
      </trkpt>
      <trkpt lat="45.05895" lon="5.44978">
        <ele>901.9</ele>
        <time>2012-08-23T06:18:13Z</time>
      </trkpt>
      <trkpt lat="45.05896" lon="5.44971">
        <ele>902.2</ele>
        <time>2012-08-23T06:18:16Z</time>
      </trkpt>
      <trkpt lat="45.05895" lon="5.44969">
        <ele>902.5</ele>
        <time>2012-08-23T06:18:17Z</time>
      </trkpt>
      <trkpt lat="45.05896" lon="5.44964">
        <ele>902.7</ele>
        <time>2012-08-23T06:18:19Z</time>
      </trkpt>
      <trkpt lat="45.05896" lon="5.44955">
        <ele>904.4</ele>
        <time>2012-08-23T06:18:23Z</time>
      </trkpt>
      <trkpt lat="45.05897" lon="5.44951">
        <ele>904.7</ele>
        <time>2012-08-23T06:18:25Z</time>
      </trkpt>
      <trkpt lat="45.05902" lon="5.44941">
        <ele>905.9</ele>
        <time>2012-08-23T06:18:31Z</time>
      </trkpt>
      <trkpt lat="45.05903" lon="5.44937">
        <ele>906.5</ele>
        <time>2012-08-23T06:18:33Z</time>
      </trkpt>
      <trkpt lat="45.05903" lon="5.44933">
        <ele>907</ele>
        <time>2012-08-23T06:18:39Z</time>
      </trkpt>
      <trkpt lat="45.05904" lon="5.4493">
        <ele>907.5</ele>
        <time>2012-08-23T06:18:42Z</time>
      </trkpt>
      <trkpt lat="45.05905" lon="5.44926">
        <ele>908</ele>
        <time>2012-08-23T06:18:46Z</time>
      </trkpt>
      <trkpt lat="45.05907" lon="5.44922">
        <ele>908.7</ele>
        <time>2012-08-23T06:18:50Z</time>
      </trkpt>
      <trkpt lat="45.05911" lon="5.44917">
        <ele>910.5</ele>
        <time>2012-08-23T06:18:56Z</time>
      </trkpt>
      <trkpt lat="45.05912" lon="5.44915">
        <ele>911</ele>
        <time>2012-08-23T06:18:59Z</time>
      </trkpt>
      <trkpt lat="45.05919" lon="5.44909">
        <ele>912.9</ele>
        <time>2012-08-23T06:19:09Z</time>
      </trkpt>
      <trkpt lat="45.05923" lon="5.44908">
        <ele>913.9</ele>
        <time>2012-08-23T06:19:14Z</time>
      </trkpt>
      <trkpt lat="45.05929" lon="5.44907">
        <ele>913.9</ele>
        <time>2012-08-23T06:19:26Z</time>
      </trkpt>
      <trkpt lat="45.05932" lon="5.44906">
        <ele>913.4</ele>
        <time>2012-08-23T06:19:28Z</time>
      </trkpt>
      <trkpt lat="45.05938" lon="5.44906">
        <ele>912.7</ele>
        <time>2012-08-23T06:19:32Z</time>
      </trkpt>
      <trkpt lat="45.05941" lon="5.44906">
        <ele>913.2</ele>
        <time>2012-08-23T06:19:34Z</time>
      </trkpt>
      <trkpt lat="45.05946" lon="5.44909">
        <ele>914</ele>
        <time>2012-08-23T06:19:38Z</time>
      </trkpt>
      <trkpt lat="45.05948" lon="5.44909">
        <ele>913.7</ele>
        <time>2012-08-23T06:19:50Z</time>
      </trkpt>
      <trkpt lat="45.0595" lon="5.4491">
        <ele>913.4</ele>
        <time>2012-08-23T06:19:54Z</time>
      </trkpt>
      <trkpt lat="45.05956" lon="5.44919">
        <ele>912.7</ele>
        <time>2012-08-23T06:20:01Z</time>
      </trkpt>
      <trkpt lat="45.05957" lon="5.44921">
        <ele>913.5</ele>
        <time>2012-08-23T06:20:02Z</time>
      </trkpt>
      <trkpt lat="45.05962" lon="5.44926">
        <ele>913.9</ele>
        <time>2012-08-23T06:20:06Z</time>
      </trkpt>
      <trkpt lat="45.05968" lon="5.44931">
        <ele>914.4</ele>
        <time>2012-08-23T06:20:11Z</time>
      </trkpt>
      <trkpt lat="45.05972" lon="5.44932">
        <ele>914.4</ele>
        <time>2012-08-23T06:20:14Z</time>
      </trkpt>
      <trkpt lat="45.05975" lon="5.44931">
        <ele>914</ele>
        <time>2012-08-23T06:20:16Z</time>
      </trkpt>
      <trkpt lat="45.05986" lon="5.44932">
        <ele>914.5</ele>
        <time>2012-08-23T06:20:26Z</time>
      </trkpt>
      <trkpt lat="45.05991" lon="5.44933">
        <ele>915</ele>
        <time>2012-08-23T06:20:31Z</time>
      </trkpt>
      <trkpt lat="45.05993" lon="5.44934">
        <ele>914.9</ele>
        <time>2012-08-23T06:20:33Z</time>
      </trkpt>
      <trkpt lat="45.05997" lon="5.44935">
        <ele>915</ele>
        <time>2012-08-23T06:20:37Z</time>
      </trkpt>
      <trkpt lat="45.06004" lon="5.44938">
        <ele>915.7</ele>
        <time>2012-08-23T06:20:42Z</time>
      </trkpt>
      <trkpt lat="45.06009" lon="5.4494">
        <ele>916.4</ele>
        <time>2012-08-23T06:20:45Z</time>
      </trkpt>
      <trkpt lat="45.06014" lon="5.44942">
        <ele>917</ele>
        <time>2012-08-23T06:20:48Z</time>
      </trkpt>
      <trkpt lat="45.06019" lon="5.44945">
        <ele>916.2</ele>
        <time>2012-08-23T06:20:52Z</time>
      </trkpt>
      <trkpt lat="45.06029" lon="5.44951">
        <ele>916.2</ele>
        <time>2012-08-23T06:20:59Z</time>
      </trkpt>
      <trkpt lat="45.06037" lon="5.44954">
        <ele>915.4</ele>
        <time>2012-08-23T06:21:05Z</time>
      </trkpt>
      <trkpt lat="45.06045" lon="5.44959">
        <ele>913.7</ele>
        <time>2012-08-23T06:21:11Z</time>
      </trkpt>
      <trkpt lat="45.06052" lon="5.44959">
        <ele>914.9</ele>
        <time>2012-08-23T06:21:15Z</time>
      </trkpt>
      <trkpt lat="45.06056" lon="5.44959">
        <ele>914.5</ele>
        <time>2012-08-23T06:21:17Z</time>
      </trkpt>
      <trkpt lat="45.06065" lon="5.44956">
        <ele>914.2</ele>
        <time>2012-08-23T06:21:20Z</time>
      </trkpt>
      <trkpt lat="45.06068" lon="5.44957">
        <ele>913.5</ele>
        <time>2012-08-23T06:21:21Z</time>
      </trkpt>
      <trkpt lat="45.06072" lon="5.44959">
        <ele>913.2</ele>
        <time>2012-08-23T06:21:23Z</time>
      </trkpt>
      <trkpt lat="45.06076" lon="5.44963">
        <ele>911.7</ele>
        <time>2012-08-23T06:21:26Z</time>
      </trkpt>
      <trkpt lat="45.06081" lon="5.44971">
        <ele>910.9</ele>
        <time>2012-08-23T06:21:33Z</time>
      </trkpt>
      <trkpt lat="45.06086" lon="5.44978">
        <ele>911.5</ele>
        <time>2012-08-23T06:21:37Z</time>
      </trkpt>
      <trkpt lat="45.0609" lon="5.4498">
        <ele>914</ele>
        <time>2012-08-23T06:21:43Z</time>
      </trkpt>
      <trkpt lat="45.06092" lon="5.44984">
        <ele>915.5</ele>
        <time>2012-08-23T06:21:48Z</time>
      </trkpt>
      <trkpt lat="45.06099" lon="5.44993">
        <ele>917.9</ele>
        <time>2012-08-23T06:21:59Z</time>
      </trkpt>
      <trkpt lat="45.06098" lon="5.44998">
        <ele>922</ele>
        <time>2012-08-23T06:22:04Z</time>
      </trkpt>
      <trkpt lat="45.06099" lon="5.45002">
        <ele>923.5</ele>
        <time>2012-08-23T06:22:09Z</time>
      </trkpt>
      <trkpt lat="45.061" lon="5.45004">
        <ele>925.2</ele>
        <time>2012-08-23T06:22:14Z</time>
      </trkpt>
      <trkpt lat="45.06105" lon="5.45009">
        <ele>922.5</ele>
        <time>2012-08-23T06:22:18Z</time>
      </trkpt>
      <trkpt lat="45.0611" lon="5.4502">
        <ele>918.9</ele>
        <time>2012-08-23T06:22:24Z</time>
      </trkpt>
      <trkpt lat="45.06111" lon="5.45024">
        <ele>918</ele>
        <time>2012-08-23T06:22:27Z</time>
      </trkpt>
      <trkpt lat="45.06118" lon="5.45037">
        <ele>915.4</ele>
        <time>2012-08-23T06:22:35Z</time>
      </trkpt>
      <trkpt lat="45.06121" lon="5.45041">
        <ele>913.2</ele>
        <time>2012-08-23T06:22:37Z</time>
      </trkpt>
      <trkpt lat="45.06125" lon="5.45044">
        <ele>911.4</ele>
        <time>2012-08-23T06:22:39Z</time>
      </trkpt>
      <trkpt lat="45.06129" lon="5.45048">
        <ele>911</ele>
        <time>2012-08-23T06:22:41Z</time>
      </trkpt>
      <trkpt lat="45.06132" lon="5.45052">
        <ele>911.2</ele>
        <time>2012-08-23T06:22:43Z</time>
      </trkpt>
      <trkpt lat="45.06135" lon="5.45055">
        <ele>911.5</ele>
        <time>2012-08-23T06:22:45Z</time>
      </trkpt>
      <trkpt lat="45.06142" lon="5.45061">
        <ele>912.4</ele>
        <time>2012-08-23T06:22:49Z</time>
      </trkpt>
      <trkpt lat="45.06145" lon="5.45062">
        <ele>913</ele>
        <time>2012-08-23T06:22:51Z</time>
      </trkpt>
      <trkpt lat="45.06146" lon="5.45066">
        <ele>916.5</ele>
        <time>2012-08-23T06:22:57Z</time>
      </trkpt>
      <trkpt lat="45.06147" lon="5.45069">
        <ele>918.5</ele>
        <time>2012-08-23T06:23:02Z</time>
      </trkpt>
      <trkpt lat="45.06147" lon="5.45066">
        <ele>918.7</ele>
        <time>2012-08-23T06:23:06Z</time>
      </trkpt>
      <trkpt lat="45.06144" lon="5.45069">
        <ele>919.7</ele>
        <time>2012-08-23T06:23:09Z</time>
      </trkpt>
      <trkpt lat="45.06141" lon="5.45068">
        <ele>919.9</ele>
        <time>2012-08-23T06:23:11Z</time>
      </trkpt>
      <trkpt lat="45.06136" lon="5.45066">
        <ele>921.2</ele>
        <time>2012-08-23T06:23:15Z</time>
      </trkpt>
      <trkpt lat="45.06134" lon="5.45064">
        <ele>922</ele>
        <time>2012-08-23T06:23:17Z</time>
      </trkpt>
      <trkpt lat="45.06132" lon="5.4506">
        <ele>922</ele>
        <time>2012-08-23T06:23:19Z</time>
      </trkpt>
      <trkpt lat="45.0613" lon="5.45056">
        <ele>922.2</ele>
        <time>2012-08-23T06:23:21Z</time>
      </trkpt>
      <trkpt lat="45.06127" lon="5.45052">
        <ele>925.5</ele>
        <time>2012-08-23T06:23:26Z</time>
      </trkpt>
      <trkpt lat="45.06125" lon="5.45043">
        <ele>927</ele>
        <time>2012-08-23T06:23:31Z</time>
      </trkpt>
      <trkpt lat="45.06123" lon="5.45038">
        <ele>928</ele>
        <time>2012-08-23T06:23:33Z</time>
      </trkpt>
      <trkpt lat="45.06121" lon="5.45035">
        <ele>929</ele>
        <time>2012-08-23T06:23:34Z</time>
      </trkpt>
      <trkpt lat="45.06117" lon="5.45027">
        <ele>932.2</ele>
        <time>2012-08-23T06:23:37Z</time>
      </trkpt>
      <trkpt lat="45.06114" lon="5.4502">
        <ele>935.9</ele>
        <time>2012-08-23T06:23:41Z</time>
      </trkpt>
      <trkpt lat="45.06113" lon="5.45016">
        <ele>936.5</ele>
        <time>2012-08-23T06:23:43Z</time>
      </trkpt>
      <trkpt lat="45.0611" lon="5.45009">
        <ele>935.2</ele>
        <time>2012-08-23T06:23:48Z</time>
      </trkpt>
      <trkpt lat="45.06109" lon="5.45006">
        <ele>935.7</ele>
        <time>2012-08-23T06:23:49Z</time>
      </trkpt>
      <trkpt lat="45.06107" lon="5.45">
        <ele>935.5</ele>
        <time>2012-08-23T06:23:52Z</time>
      </trkpt>
      <trkpt lat="45.06105" lon="5.44997">
        <ele>936</ele>
        <time>2012-08-23T06:23:54Z</time>
      </trkpt>
      <trkpt lat="45.06103" lon="5.44991">
        <ele>935.4</ele>
        <time>2012-08-23T06:23:58Z</time>
      </trkpt>
      <trkpt lat="45.06101" lon="5.44989">
        <ele>935.5</ele>
        <time>2012-08-23T06:23:59Z</time>
      </trkpt>
      <trkpt lat="45.06099" lon="5.44984">
        <ele>931</ele>
        <time>2012-08-23T06:24:07Z</time>
      </trkpt>
      <trkpt lat="45.061" lon="5.44982">
        <ele>928.4</ele>
        <time>2012-08-23T06:24:12Z</time>
      </trkpt>
      <trkpt lat="45.06095" lon="5.44974">
        <ele>926.5</ele>
        <time>2012-08-23T06:24:17Z</time>
      </trkpt>
      <trkpt lat="45.06091" lon="5.44969">
        <ele>924.7</ele>
        <time>2012-08-23T06:24:20Z</time>
      </trkpt>
      <trkpt lat="45.06085" lon="5.44962">
        <ele>924.7</ele>
        <time>2012-08-23T06:24:30Z</time>
      </trkpt>
      <trkpt lat="45.06082" lon="5.44949">
        <ele>923.9</ele>
        <time>2012-08-23T06:24:35Z</time>
      </trkpt>
      <trkpt lat="45.06081" lon="5.44946">
        <ele>923.2</ele>
        <time>2012-08-23T06:24:36Z</time>
      </trkpt>
      <trkpt lat="45.06082" lon="5.4493">
        <ele>921.2</ele>
        <time>2012-08-23T06:24:40Z</time>
      </trkpt>
      <trkpt lat="45.06084" lon="5.44921">
        <ele>920.4</ele>
        <time>2012-08-23T06:24:42Z</time>
      </trkpt>
      <trkpt lat="45.06087" lon="5.44913">
        <ele>919.9</ele>
        <time>2012-08-23T06:24:44Z</time>
      </trkpt>
      <trkpt lat="45.06091" lon="5.44905">
        <ele>919.4</ele>
        <time>2012-08-23T06:24:46Z</time>
      </trkpt>
      <trkpt lat="45.06093" lon="5.44902">
        <ele>919.2</ele>
        <time>2012-08-23T06:24:47Z</time>
      </trkpt>
      <trkpt lat="45.06096" lon="5.44899">
        <ele>918.9</ele>
        <time>2012-08-23T06:24:48Z</time>
      </trkpt>
      <trkpt lat="45.06101" lon="5.44895">
        <ele>918.2</ele>
        <time>2012-08-23T06:24:50Z</time>
      </trkpt>
      <trkpt lat="45.06104" lon="5.44894">
        <ele>918</ele>
        <time>2012-08-23T06:24:51Z</time>
      </trkpt>
      <trkpt lat="45.06122" lon="5.44887">
        <ele>916.7</ele>
        <time>2012-08-23T06:24:58Z</time>
      </trkpt>
      <trkpt lat="45.06126" lon="5.44882">
        <ele>916</ele>
        <time>2012-08-23T06:25:01Z</time>
      </trkpt>
      <trkpt lat="45.06132" lon="5.44867">
        <ele>914</ele>
        <time>2012-08-23T06:25:08Z</time>
      </trkpt>
      <trkpt lat="45.06133" lon="5.44864">
        <ele>913.7</ele>
        <time>2012-08-23T06:25:09Z</time>
      </trkpt>
      <trkpt lat="45.06138" lon="5.44855">
        <ele>913.4</ele>
        <time>2012-08-23T06:25:13Z</time>
      </trkpt>
      <trkpt lat="45.06142" lon="5.44847">
        <ele>912.5</ele>
        <time>2012-08-23T06:25:17Z</time>
      </trkpt>
      <trkpt lat="45.06145" lon="5.44844">
        <ele>914.7</ele>
        <time>2012-08-23T06:25:23Z</time>
      </trkpt>
      <trkpt lat="45.06147" lon="5.44842">
        <ele>914</ele>
        <time>2012-08-23T06:25:26Z</time>
      </trkpt>
      <trkpt lat="45.06151" lon="5.44829">
        <ele>911.5</ele>
        <time>2012-08-23T06:25:35Z</time>
      </trkpt>
      <trkpt lat="45.06159" lon="5.4481">
        <ele>910.5</ele>
        <time>2012-08-23T06:25:40Z</time>
      </trkpt>
      <trkpt lat="45.06167" lon="5.44785">
        <ele>909.5</ele>
        <time>2012-08-23T06:25:46Z</time>
      </trkpt>
      <trkpt lat="45.06168" lon="5.44782">
        <ele>909.4</ele>
        <time>2012-08-23T06:25:47Z</time>
      </trkpt>
      <trkpt lat="45.0617" lon="5.44777">
        <ele>909</ele>
        <time>2012-08-23T06:25:49Z</time>
      </trkpt>
      <trkpt lat="45.06171" lon="5.44772">
        <ele>909</ele>
        <time>2012-08-23T06:25:51Z</time>
      </trkpt>
      <trkpt lat="45.0617" lon="5.44766">
        <ele>908.7</ele>
        <time>2012-08-23T06:25:54Z</time>
      </trkpt>
      <trkpt lat="45.06171" lon="5.44763">
        <ele>908.2</ele>
        <time>2012-08-23T06:25:56Z</time>
      </trkpt>
      <trkpt lat="45.06171" lon="5.44759">
        <ele>912</ele>
        <time>2012-08-23T06:26:01Z</time>
      </trkpt>
      <trkpt lat="45.06173" lon="5.44759">
        <ele>914.2</ele>
        <time>2012-08-23T06:26:04Z</time>
      </trkpt>
      <trkpt lat="45.06174" lon="5.44758">
        <ele>916.7</ele>
        <time>2012-08-23T06:26:09Z</time>
      </trkpt>
      <trkpt lat="45.06177" lon="5.44755">
        <ele>916.5</ele>
        <time>2012-08-23T06:26:12Z</time>
      </trkpt>
      <trkpt lat="45.06179" lon="5.44752">
        <ele>916.5</ele>
        <time>2012-08-23T06:26:15Z</time>
      </trkpt>
      <trkpt lat="45.06179" lon="5.4475">
        <ele>916.5</ele>
        <time>2012-08-23T06:26:19Z</time>
      </trkpt>
      <trkpt lat="45.0618" lon="5.44747">
        <ele>917</ele>
        <time>2012-08-23T06:26:22Z</time>
      </trkpt>
      <trkpt lat="45.06187" lon="5.44741">
        <ele>916.5</ele>
        <time>2012-08-23T06:26:29Z</time>
      </trkpt>
      <trkpt lat="45.06191" lon="5.44736">
        <ele>915.5</ele>
        <time>2012-08-23T06:26:33Z</time>
      </trkpt>
      <trkpt lat="45.06191" lon="5.44733">
        <ele>914.7</ele>
        <time>2012-08-23T06:26:35Z</time>
      </trkpt>
      <trkpt lat="45.06192" lon="5.44728">
        <ele>914.5</ele>
        <time>2012-08-23T06:26:39Z</time>
      </trkpt>
      <trkpt lat="45.0619" lon="5.44724">
        <ele>915.7</ele>
        <time>2012-08-23T06:26:43Z</time>
      </trkpt>
      <trkpt lat="45.06187" lon="5.4472">
        <ele>918.2</ele>
        <time>2012-08-23T06:26:47Z</time>
      </trkpt>
      <trkpt lat="45.06188" lon="5.44712">
        <ele>918.5</ele>
        <time>2012-08-23T06:26:53Z</time>
      </trkpt>
      <trkpt lat="45.06194" lon="5.447">
        <ele>916</ele>
        <time>2012-08-23T06:27:01Z</time>
      </trkpt>
      <trkpt lat="45.06197" lon="5.44693">
        <ele>915</ele>
        <time>2012-08-23T06:27:07Z</time>
      </trkpt>
      <trkpt lat="45.06199" lon="5.44681">
        <ele>916.5</ele>
        <time>2012-08-23T06:27:16Z</time>
      </trkpt>
      <trkpt lat="45.06197" lon="5.44674">
        <ele>918</ele>
        <time>2012-08-23T06:27:21Z</time>
      </trkpt>
      <trkpt lat="45.06195" lon="5.44668">
        <ele>921.2</ele>
        <time>2012-08-23T06:27:26Z</time>
      </trkpt>
      <trkpt lat="45.06193" lon="5.44664">
        <ele>922.9</ele>
        <time>2012-08-23T06:27:30Z</time>
      </trkpt>
      <trkpt lat="45.06191" lon="5.44658">
        <ele>924.7</ele>
        <time>2012-08-23T06:27:34Z</time>
      </trkpt>
      <trkpt lat="45.0619" lon="5.44654">
        <ele>925.4</ele>
        <time>2012-08-23T06:27:36Z</time>
      </trkpt>
      <trkpt lat="45.06185" lon="5.44642">
        <ele>928.4</ele>
        <time>2012-08-23T06:27:43Z</time>
      </trkpt>
      <trkpt lat="45.06182" lon="5.44633">
        <ele>930.7</ele>
        <time>2012-08-23T06:27:49Z</time>
      </trkpt>
      <trkpt lat="45.0618" lon="5.44629">
        <ele>931.2</ele>
        <time>2012-08-23T06:27:51Z</time>
      </trkpt>
      <trkpt lat="45.06183" lon="5.44618">
        <ele>929.5</ele>
        <time>2012-08-23T06:27:58Z</time>
      </trkpt>
      <trkpt lat="45.06184" lon="5.44609">
        <ele>928.7</ele>
        <time>2012-08-23T06:28:02Z</time>
      </trkpt>
      <trkpt lat="45.06188" lon="5.44595">
        <ele>926</ele>
        <time>2012-08-23T06:28:09Z</time>
      </trkpt>
      <trkpt lat="45.06189" lon="5.44588">
        <ele>926.2</ele>
        <time>2012-08-23T06:28:12Z</time>
      </trkpt>
      <trkpt lat="45.06185" lon="5.44577">
        <ele>924.9</ele>
        <time>2012-08-23T06:28:19Z</time>
      </trkpt>
      <trkpt lat="45.06183" lon="5.44575">
        <ele>925.5</ele>
        <time>2012-08-23T06:28:21Z</time>
      </trkpt>
      <trkpt lat="45.06178" lon="5.44568">
        <ele>926.9</ele>
        <time>2012-08-23T06:28:25Z</time>
      </trkpt>
      <trkpt lat="45.06174" lon="5.4456">
        <ele>929.2</ele>
        <time>2012-08-23T06:28:29Z</time>
      </trkpt>
      <trkpt lat="45.06173" lon="5.44557">
        <ele>931.4</ele>
        <time>2012-08-23T06:28:36Z</time>
      </trkpt>
      <trkpt lat="45.06172" lon="5.44556">
        <ele>930.9</ele>
        <time>2012-08-23T06:28:43Z</time>
      </trkpt>
      <trkpt lat="45.06172" lon="5.44553">
        <ele>931.5</ele>
        <time>2012-08-23T06:28:47Z</time>
      </trkpt>
      <trkpt lat="45.06171" lon="5.4455">
        <ele>931</ele>
        <time>2012-08-23T06:28:51Z</time>
      </trkpt>
      <trkpt lat="45.06168" lon="5.44546">
        <ele>933.4</ele>
        <time>2012-08-23T06:28:58Z</time>
      </trkpt>
      <trkpt lat="45.06167" lon="5.44544">
        <ele>932.5</ele>
        <time>2012-08-23T06:29:03Z</time>
      </trkpt>
      <trkpt lat="45.06169" lon="5.44539">
        <ele>931</ele>
        <time>2012-08-23T06:29:08Z</time>
      </trkpt>
      <trkpt lat="45.06175" lon="5.44532">
        <ele>928.7</ele>
        <time>2012-08-23T06:29:14Z</time>
      </trkpt>
      <trkpt lat="45.06178" lon="5.44524">
        <ele>927.2</ele>
        <time>2012-08-23T06:29:18Z</time>
      </trkpt>
      <trkpt lat="45.0618" lon="5.44517">
        <ele>925.7</ele>
        <time>2012-08-23T06:29:22Z</time>
      </trkpt>
      <trkpt lat="45.06182" lon="5.44514">
        <ele>925</ele>
        <time>2012-08-23T06:29:24Z</time>
      </trkpt>
      <trkpt lat="45.06183" lon="5.44509">
        <ele>923.9</ele>
        <time>2012-08-23T06:29:27Z</time>
      </trkpt>
      <trkpt lat="45.06184" lon="5.44506">
        <ele>923.2</ele>
        <time>2012-08-23T06:29:29Z</time>
      </trkpt>
      <trkpt lat="45.06185" lon="5.445">
        <ele>922.2</ele>
        <time>2012-08-23T06:29:33Z</time>
      </trkpt>
      <trkpt lat="45.06186" lon="5.44493">
        <ele>921.4</ele>
        <time>2012-08-23T06:29:36Z</time>
      </trkpt>
      <trkpt lat="45.06189" lon="5.44486">
        <ele>922</ele>
        <time>2012-08-23T06:29:39Z</time>
      </trkpt>
      <trkpt lat="45.06199" lon="5.44466">
        <ele>922.2</ele>
        <time>2012-08-23T06:29:46Z</time>
      </trkpt>
      <trkpt lat="45.06202" lon="5.44452">
        <ele>922.4</ele>
        <time>2012-08-23T06:29:49Z</time>
      </trkpt>
      <trkpt lat="45.06202" lon="5.44446">
        <ele>922.7</ele>
        <time>2012-08-23T06:29:50Z</time>
      </trkpt>
      <trkpt lat="45.06202" lon="5.44436">
        <ele>923.2</ele>
        <time>2012-08-23T06:29:52Z</time>
      </trkpt>
      <trkpt lat="45.062" lon="5.44424">
        <ele>925.4</ele>
        <time>2012-08-23T06:29:57Z</time>
      </trkpt>
      <trkpt lat="45.062" lon="5.44418">
        <ele>927.9</ele>
        <time>2012-08-23T06:30:01Z</time>
      </trkpt>
      <trkpt lat="45.06197" lon="5.44411">
        <ele>929.2</ele>
        <time>2012-08-23T06:30:06Z</time>
      </trkpt>
      <trkpt lat="45.06196" lon="5.44407">
        <ele>930.5</ele>
        <time>2012-08-23T06:30:09Z</time>
      </trkpt>
      <trkpt lat="45.06196" lon="5.44403">
        <ele>931</ele>
        <time>2012-08-23T06:30:11Z</time>
      </trkpt>
      <trkpt lat="45.06196" lon="5.44392">
        <ele>932.2</ele>
        <time>2012-08-23T06:30:17Z</time>
      </trkpt>
      <trkpt lat="45.06196" lon="5.44386">
        <ele>932</ele>
        <time>2012-08-23T06:30:21Z</time>
      </trkpt>
      <trkpt lat="45.06194" lon="5.44378">
        <ele>932.2</ele>
        <time>2012-08-23T06:30:25Z</time>
      </trkpt>
      <trkpt lat="45.06191" lon="5.44366">
        <ele>933.4</ele>
        <time>2012-08-23T06:30:33Z</time>
      </trkpt>
      <trkpt lat="45.06189" lon="5.44361">
        <ele>933.7</ele>
        <time>2012-08-23T06:30:36Z</time>
      </trkpt>
      <trkpt lat="45.06185" lon="5.44357">
        <ele>933.7</ele>
        <time>2012-08-23T06:30:38Z</time>
      </trkpt>
      <trkpt lat="45.06182" lon="5.44353">
        <ele>934</ele>
        <time>2012-08-23T06:30:41Z</time>
      </trkpt>
      <trkpt lat="45.06179" lon="5.4435">
        <ele>933.7</ele>
        <time>2012-08-23T06:30:45Z</time>
      </trkpt>
      <trkpt lat="45.06177" lon="5.44347">
        <ele>934.5</ele>
        <time>2012-08-23T06:30:48Z</time>
      </trkpt>
      <trkpt lat="45.0617" lon="5.44341">
        <ele>936.2</ele>
        <time>2012-08-23T06:30:52Z</time>
      </trkpt>
      <trkpt lat="45.06167" lon="5.44336">
        <ele>936.7</ele>
        <time>2012-08-23T06:30:55Z</time>
      </trkpt>
      <trkpt lat="45.06165" lon="5.44334">
        <ele>936.9</ele>
        <time>2012-08-23T06:30:56Z</time>
      </trkpt>
      <trkpt lat="45.06162" lon="5.4433">
        <ele>936.4</ele>
        <time>2012-08-23T06:30:58Z</time>
      </trkpt>
      <trkpt lat="45.06157" lon="5.4432">
        <ele>934.7</ele>
        <time>2012-08-23T06:31:05Z</time>
      </trkpt>
      <trkpt lat="45.06154" lon="5.44317">
        <ele>935.4</ele>
        <time>2012-08-23T06:31:12Z</time>
      </trkpt>
      <trkpt lat="45.06153" lon="5.44317">
        <ele>935.2</ele>
        <time>2012-08-23T06:31:17Z</time>
      </trkpt>
      <trkpt lat="45.06152" lon="5.44312">
        <ele>935.4</ele>
        <time>2012-08-23T06:31:22Z</time>
      </trkpt>
      <trkpt lat="45.06154" lon="5.44304">
        <ele>933.9</ele>
        <time>2012-08-23T06:31:25Z</time>
      </trkpt>
      <trkpt lat="45.06155" lon="5.44292">
        <ele>932.5</ele>
        <time>2012-08-23T06:31:29Z</time>
      </trkpt>
      <trkpt lat="45.06155" lon="5.44284">
        <ele>931.7</ele>
        <time>2012-08-23T06:31:31Z</time>
      </trkpt>
      <trkpt lat="45.06157" lon="5.44275">
        <ele>930</ele>
        <time>2012-08-23T06:31:34Z</time>
      </trkpt>
      <trkpt lat="45.06163" lon="5.44268">
        <ele>926</ele>
        <time>2012-08-23T06:31:38Z</time>
      </trkpt>
      <trkpt lat="45.06168" lon="5.44265">
        <ele>923.7</ele>
        <time>2012-08-23T06:31:41Z</time>
      </trkpt>
      <trkpt lat="45.06172" lon="5.44264">
        <ele>922.2</ele>
        <time>2012-08-23T06:31:43Z</time>
      </trkpt>
      <trkpt lat="45.06178" lon="5.44265">
        <ele>921.2</ele>
        <time>2012-08-23T06:31:45Z</time>
      </trkpt>
      <trkpt lat="45.0619" lon="5.44271">
        <ele>918.2</ele>
        <time>2012-08-23T06:31:50Z</time>
      </trkpt>
      <trkpt lat="45.06193" lon="5.44272">
        <ele>917.5</ele>
        <time>2012-08-23T06:31:51Z</time>
      </trkpt>
      <trkpt lat="45.06201" lon="5.4427">
        <ele>916.2</ele>
        <time>2012-08-23T06:31:53Z</time>
      </trkpt>
      <trkpt lat="45.06206" lon="5.44266">
        <ele>916</ele>
        <time>2012-08-23T06:31:55Z</time>
      </trkpt>
      <trkpt lat="45.06209" lon="5.44263">
        <ele>915.7</ele>
        <time>2012-08-23T06:31:57Z</time>
      </trkpt>
      <trkpt lat="45.06212" lon="5.44256">
        <ele>917</ele>
        <time>2012-08-23T06:32:01Z</time>
      </trkpt>
      <trkpt lat="45.06215" lon="5.44252">
        <ele>917.5</ele>
        <time>2012-08-23T06:32:03Z</time>
      </trkpt>
      <trkpt lat="45.06222" lon="5.44245">
        <ele>918.4</ele>
        <time>2012-08-23T06:32:06Z</time>
      </trkpt>
      <trkpt lat="45.06224" lon="5.44237">
        <ele>918.7</ele>
        <time>2012-08-23T06:32:08Z</time>
      </trkpt>
      <trkpt lat="45.06224" lon="5.44232">
        <ele>919</ele>
        <time>2012-08-23T06:32:09Z</time>
      </trkpt>
      <trkpt lat="45.06222" lon="5.44217">
        <ele>920</ele>
        <time>2012-08-23T06:32:13Z</time>
      </trkpt>
      <trkpt lat="45.06223" lon="5.4421">
        <ele>920.2</ele>
        <time>2012-08-23T06:32:17Z</time>
      </trkpt>
      <trkpt lat="45.06225" lon="5.44207">
        <ele>921</ele>
        <time>2012-08-23T06:32:19Z</time>
      </trkpt>
      <trkpt lat="45.06224" lon="5.44202">
        <ele>921.4</ele>
        <time>2012-08-23T06:32:22Z</time>
      </trkpt>
      <trkpt lat="45.06226" lon="5.44198">
        <ele>922.4</ele>
        <time>2012-08-23T06:32:25Z</time>
      </trkpt>
      <trkpt lat="45.06229" lon="5.44186">
        <ele>924.2</ele>
        <time>2012-08-23T06:32:32Z</time>
      </trkpt>
      <trkpt lat="45.06229" lon="5.44184">
        <ele>924</ele>
        <time>2012-08-23T06:32:37Z</time>
      </trkpt>
      <trkpt lat="45.0623" lon="5.44181">
        <ele>923.5</ele>
        <time>2012-08-23T06:32:43Z</time>
      </trkpt>
      <trkpt lat="45.06227" lon="5.44176">
        <ele>922.7</ele>
        <time>2012-08-23T06:32:47Z</time>
      </trkpt>
      <trkpt lat="45.06231" lon="5.44171">
        <ele>921.7</ele>
        <time>2012-08-23T06:32:50Z</time>
      </trkpt>
      <trkpt lat="45.06232" lon="5.44169">
        <ele>921.4</ele>
        <time>2012-08-23T06:32:51Z</time>
      </trkpt>
      <trkpt lat="45.06236" lon="5.44164">
        <ele>920.7</ele>
        <time>2012-08-23T06:32:54Z</time>
      </trkpt>
      <trkpt lat="45.0624" lon="5.44159">
        <ele>921.2</ele>
        <time>2012-08-23T06:32:57Z</time>
      </trkpt>
      <trkpt lat="45.06243" lon="5.44154">
        <ele>922</ele>
        <time>2012-08-23T06:32:59Z</time>
      </trkpt>
      <trkpt lat="45.06244" lon="5.4415">
        <ele>921.9</ele>
        <time>2012-08-23T06:33:01Z</time>
      </trkpt>
      <trkpt lat="45.06246" lon="5.44144">
        <ele>921.7</ele>
        <time>2012-08-23T06:33:04Z</time>
      </trkpt>
      <trkpt lat="45.06246" lon="5.44137">
        <ele>922</ele>
        <time>2012-08-23T06:33:08Z</time>
      </trkpt>
      <trkpt lat="45.06248" lon="5.44131">
        <ele>922.7</ele>
        <time>2012-08-23T06:33:12Z</time>
      </trkpt>
      <trkpt lat="45.06248" lon="5.44124">
        <ele>923.4</ele>
        <time>2012-08-23T06:33:17Z</time>
      </trkpt>
      <trkpt lat="45.06246" lon="5.44112">
        <ele>926</ele>
        <time>2012-08-23T06:33:23Z</time>
      </trkpt>
      <trkpt lat="45.06243" lon="5.44105">
        <ele>927.2</ele>
        <time>2012-08-23T06:33:27Z</time>
      </trkpt>
      <trkpt lat="45.06243" lon="5.44097">
        <ele>927.7</ele>
        <time>2012-08-23T06:33:32Z</time>
      </trkpt>
      <trkpt lat="45.06241" lon="5.44087">
        <ele>930.4</ele>
        <time>2012-08-23T06:33:38Z</time>
      </trkpt>
      <trkpt lat="45.06234" lon="5.44076">
        <ele>932</ele>
        <time>2012-08-23T06:33:46Z</time>
      </trkpt>
      <trkpt lat="45.06228" lon="5.4406">
        <ele>934.5</ele>
        <time>2012-08-23T06:33:54Z</time>
      </trkpt>
      <trkpt lat="45.06221" lon="5.44036">
        <ele>936.7</ele>
        <time>2012-08-23T06:34:02Z</time>
      </trkpt>
      <trkpt lat="45.06218" lon="5.4403">
        <ele>937.5</ele>
        <time>2012-08-23T06:34:04Z</time>
      </trkpt>
      <trkpt lat="45.06205" lon="5.44013">
        <ele>936.5</ele>
        <time>2012-08-23T06:34:09Z</time>
      </trkpt>
      <trkpt lat="45.06201" lon="5.44007">
        <ele>936.4</ele>
        <time>2012-08-23T06:34:11Z</time>
      </trkpt>
      <trkpt lat="45.06198" lon="5.43999">
        <ele>936</ele>
        <time>2012-08-23T06:34:14Z</time>
      </trkpt>
      <trkpt lat="45.06197" lon="5.43994">
        <ele>936.7</ele>
        <time>2012-08-23T06:34:17Z</time>
      </trkpt>
      <trkpt lat="45.06199" lon="5.43988">
        <ele>936.7</ele>
        <time>2012-08-23T06:34:21Z</time>
      </trkpt>
      <trkpt lat="45.06198" lon="5.43981">
        <ele>935.5</ele>
        <time>2012-08-23T06:34:24Z</time>
      </trkpt>
      <trkpt lat="45.06199" lon="5.43977">
        <ele>934.2</ele>
        <time>2012-08-23T06:34:26Z</time>
      </trkpt>
      <trkpt lat="45.06197" lon="5.4397">
        <ele>934.4</ele>
        <time>2012-08-23T06:34:28Z</time>
      </trkpt>
      <trkpt lat="45.06197" lon="5.43958">
        <ele>933.9</ele>
        <time>2012-08-23T06:34:31Z</time>
      </trkpt>
      <trkpt lat="45.06198" lon="5.43952">
        <ele>932.7</ele>
        <time>2012-08-23T06:34:33Z</time>
      </trkpt>
      <trkpt lat="45.06199" lon="5.43949">
        <ele>930.5</ele>
        <time>2012-08-23T06:34:36Z</time>
      </trkpt>
      <trkpt lat="45.062" lon="5.43954">
        <ele>927</ele>
        <time>2012-08-23T06:34:45Z</time>
      </trkpt>
      <trkpt lat="45.062" lon="5.43953">
        <ele>931.7</ele>
        <time>2012-08-23T06:34:50Z</time>
      </trkpt>
      <trkpt lat="45.062" lon="5.43954">
        <ele>935.4</ele>
        <time>2012-08-23T06:34:55Z</time>
      </trkpt>
      <trkpt lat="45.06199" lon="5.43954">
        <ele>936.5</ele>
        <time>2012-08-23T06:34:57Z</time>
      </trkpt>
      <trkpt lat="45.06198" lon="5.43956">
        <ele>938</ele>
        <time>2012-08-23T06:35:04Z</time>
      </trkpt>
      <trkpt lat="45.06196" lon="5.43952">
        <ele>939.9</ele>
        <time>2012-08-23T06:35:08Z</time>
      </trkpt>
      <trkpt lat="45.06195" lon="5.43947">
        <ele>940.5</ele>
        <time>2012-08-23T06:35:10Z</time>
      </trkpt>
      <trkpt lat="45.06196" lon="5.43944">
        <ele>940</ele>
        <time>2012-08-23T06:35:15Z</time>
      </trkpt>
      <trkpt lat="45.06198" lon="5.43942">
        <ele>938.5</ele>
        <time>2012-08-23T06:35:17Z</time>
      </trkpt>
      <trkpt lat="45.062" lon="5.43939">
        <ele>936.5</ele>
        <time>2012-08-23T06:35:20Z</time>
      </trkpt>
      <trkpt lat="45.0621" lon="5.43934">
        <ele>933.2</ele>
        <time>2012-08-23T06:35:29Z</time>
      </trkpt>
      <trkpt lat="45.06213" lon="5.43929">
        <ele>932.2</ele>
        <time>2012-08-23T06:35:33Z</time>
      </trkpt>
      <trkpt lat="45.06215" lon="5.43928">
        <ele>929.5</ele>
        <time>2012-08-23T06:35:38Z</time>
      </trkpt>
      <trkpt lat="45.06215" lon="5.43928">
        <ele>928.5</ele>
        <time>2012-08-23T06:35:45Z</time>
      </trkpt>
      <trkpt lat="45.06216" lon="5.43929">
        <ele>926</ele>
        <time>2012-08-23T06:35:57Z</time>
      </trkpt>
      <trkpt lat="45.06217" lon="5.4393">
        <ele>925.2</ele>
        <time>2012-08-23T06:36:06Z</time>
      </trkpt>
      <trkpt lat="45.06219" lon="5.43929">
        <ele>926.5</ele>
        <time>2012-08-23T06:36:14Z</time>
      </trkpt>
      <trkpt lat="45.06222" lon="5.43928">
        <ele>931.2</ele>
        <time>2012-08-23T06:36:21Z</time>
      </trkpt>
      <trkpt lat="45.06224" lon="5.43926">
        <ele>935.4</ele>
        <time>2012-08-23T06:36:32Z</time>
      </trkpt>
      <trkpt lat="45.06226" lon="5.43925">
        <ele>937.7</ele>
        <time>2012-08-23T06:36:51Z</time>
      </trkpt>
      <trkpt lat="45.06225" lon="5.43926">
        <ele>936.2</ele>
        <time>2012-08-23T06:37:02Z</time>
      </trkpt>
      <trkpt lat="45.06222" lon="5.43927">
        <ele>931.7</ele>
        <time>2012-08-23T06:37:14Z</time>
      </trkpt>
      <trkpt lat="45.0622" lon="5.43928">
        <ele>925.5</ele>
        <time>2012-08-23T06:37:39Z</time>
      </trkpt>
      <trkpt lat="45.06217" lon="5.43929">
        <ele>920</ele>
        <time>2012-08-23T06:38:04Z</time>
      </trkpt>
      <trkpt lat="45.06217" lon="5.4393">
        <ele>920.7</ele>
        <time>2012-08-23T06:38:08Z</time>
      </trkpt>
      <trkpt lat="45.06217" lon="5.43933">
        <ele>924</ele>
        <time>2012-08-23T06:38:15Z</time>
      </trkpt>
      <trkpt lat="45.06217" lon="5.43934">
        <ele>927.2</ele>
        <time>2012-08-23T06:38:20Z</time>
      </trkpt>
      <trkpt lat="45.06218" lon="5.43933">
        <ele>928.5</ele>
        <time>2012-08-23T06:38:24Z</time>
      </trkpt>
      <trkpt lat="45.06221" lon="5.43931">
        <ele>931.2</ele>
        <time>2012-08-23T06:38:36Z</time>
      </trkpt>
      <trkpt lat="45.06224" lon="5.43932">
        <ele>931.9</ele>
        <time>2012-08-23T06:38:39Z</time>
      </trkpt>
      <trkpt lat="45.06221" lon="5.43936">
        <ele>934.2</ele>
        <time>2012-08-23T06:38:48Z</time>
      </trkpt>
      <trkpt lat="45.06213" lon="5.4394">
        <ele>933.4</ele>
        <time>2012-08-23T06:38:52Z</time>
      </trkpt>
      <trkpt lat="45.0621" lon="5.43941">
        <ele>933.4</ele>
        <time>2012-08-23T06:38:53Z</time>
      </trkpt>
      <trkpt lat="45.06206" lon="5.43939">
        <ele>932.5</ele>
        <time>2012-08-23T06:38:55Z</time>
      </trkpt>
      <trkpt lat="45.06206" lon="5.4393">
        <ele>933</ele>
        <time>2012-08-23T06:38:58Z</time>
      </trkpt>
      <trkpt lat="45.06204" lon="5.43925">
        <ele>933.4</ele>
        <time>2012-08-23T06:39:01Z</time>
      </trkpt>
      <trkpt lat="45.06201" lon="5.43921">
        <ele>935.5</ele>
        <time>2012-08-23T06:39:05Z</time>
      </trkpt>
      <trkpt lat="45.06194" lon="5.43915">
        <ele>935.7</ele>
        <time>2012-08-23T06:39:10Z</time>
      </trkpt>
      <trkpt lat="45.06182" lon="5.4391">
        <ele>936.5</ele>
        <time>2012-08-23T06:39:15Z</time>
      </trkpt>
      <trkpt lat="45.06169" lon="5.43903">
        <ele>937.2</ele>
        <time>2012-08-23T06:39:21Z</time>
      </trkpt>
      <trkpt lat="45.06159" lon="5.439">
        <ele>936.4</ele>
        <time>2012-08-23T06:39:26Z</time>
      </trkpt>
      <trkpt lat="45.06153" lon="5.43899">
        <ele>935</ele>
        <time>2012-08-23T06:39:28Z</time>
      </trkpt>
      <trkpt lat="45.06142" lon="5.439">
        <ele>935.2</ele>
        <time>2012-08-23T06:39:31Z</time>
      </trkpt>
      <trkpt lat="45.06138" lon="5.439">
        <ele>935.4</ele>
        <time>2012-08-23T06:39:33Z</time>
      </trkpt>
      <trkpt lat="45.06135" lon="5.439">
        <ele>936.2</ele>
        <time>2012-08-23T06:39:35Z</time>
      </trkpt>
      <trkpt lat="45.06132" lon="5.43905">
        <ele>936.7</ele>
        <time>2012-08-23T06:39:38Z</time>
      </trkpt>
      <trkpt lat="45.0613" lon="5.43913">
        <ele>937.2</ele>
        <time>2012-08-23T06:39:41Z</time>
      </trkpt>
      <trkpt lat="45.0613" lon="5.4392">
        <ele>937.2</ele>
        <time>2012-08-23T06:39:43Z</time>
      </trkpt>
      <trkpt lat="45.06129" lon="5.43927">
        <ele>937.4</ele>
        <time>2012-08-23T06:39:45Z</time>
      </trkpt>
      <trkpt lat="45.06128" lon="5.4394">
        <ele>938</ele>
        <time>2012-08-23T06:39:49Z</time>
      </trkpt>
      <trkpt lat="45.06126" lon="5.43945">
        <ele>937.4</ele>
        <time>2012-08-23T06:39:51Z</time>
      </trkpt>
      <trkpt lat="45.06119" lon="5.43962">
        <ele>936.5</ele>
        <time>2012-08-23T06:39:57Z</time>
      </trkpt>
      <trkpt lat="45.06112" lon="5.43975">
        <ele>934</ele>
        <time>2012-08-23T06:40:05Z</time>
      </trkpt>
      <trkpt lat="45.06108" lon="5.43982">
        <ele>932</ele>
        <time>2012-08-23T06:40:09Z</time>
      </trkpt>
      <trkpt lat="45.06107" lon="5.43987">
        <ele>931.4</ele>
        <time>2012-08-23T06:40:11Z</time>
      </trkpt>
      <trkpt lat="45.06108" lon="5.4399">
        <ele>932.2</ele>
        <time>2012-08-23T06:40:12Z</time>
      </trkpt>
      <trkpt lat="45.06108" lon="5.43998">
        <ele>933.5</ele>
        <time>2012-08-23T06:40:15Z</time>
      </trkpt>
      <trkpt lat="45.06107" lon="5.44001">
        <ele>934</ele>
        <time>2012-08-23T06:40:16Z</time>
      </trkpt>
      <trkpt lat="45.06104" lon="5.44007">
        <ele>931.9</ele>
        <time>2012-08-23T06:40:20Z</time>
      </trkpt>
      <trkpt lat="45.06104" lon="5.44011">
        <ele>931.5</ele>
        <time>2012-08-23T06:40:22Z</time>
      </trkpt>
      <trkpt lat="45.06109" lon="5.44021">
        <ele>925.7</ele>
        <time>2012-08-23T06:40:29Z</time>
      </trkpt>
      <trkpt lat="45.06114" lon="5.44025">
        <ele>923.9</ele>
        <time>2012-08-23T06:40:32Z</time>
      </trkpt>
      <trkpt lat="45.06117" lon="5.44029">
        <ele>923.2</ele>
        <time>2012-08-23T06:40:34Z</time>
      </trkpt>
      <trkpt lat="45.06118" lon="5.44035">
        <ele>920.7</ele>
        <time>2012-08-23T06:40:36Z</time>
      </trkpt>
      <trkpt lat="45.06117" lon="5.44041">
        <ele>920.4</ele>
        <time>2012-08-23T06:40:38Z</time>
      </trkpt>
      <trkpt lat="45.06114" lon="5.44046">
        <ele>919.2</ele>
        <time>2012-08-23T06:40:40Z</time>
      </trkpt>
      <trkpt lat="45.06104" lon="5.44053">
        <ele>916.5</ele>
        <time>2012-08-23T06:40:46Z</time>
      </trkpt>
      <trkpt lat="45.06099" lon="5.44058">
        <ele>914</ele>
        <time>2012-08-23T06:40:49Z</time>
      </trkpt>
      <trkpt lat="45.06097" lon="5.44059">
        <ele>913.7</ele>
        <time>2012-08-23T06:40:50Z</time>
      </trkpt>
      <trkpt lat="45.06092" lon="5.44061">
        <ele>913</ele>
        <time>2012-08-23T06:40:53Z</time>
      </trkpt>
      <trkpt lat="45.06085" lon="5.44061">
        <ele>911.5</ele>
        <time>2012-08-23T06:40:57Z</time>
      </trkpt>
      <trkpt lat="45.06077" lon="5.44063">
        <ele>910.5</ele>
        <time>2012-08-23T06:41:03Z</time>
      </trkpt>
      <trkpt lat="45.06072" lon="5.44065">
        <ele>909.4</ele>
        <time>2012-08-23T06:41:07Z</time>
      </trkpt>
      <trkpt lat="45.06063" lon="5.44068">
        <ele>913</ele>
        <time>2012-08-23T06:41:13Z</time>
      </trkpt>
      <trkpt lat="45.06055" lon="5.4407">
        <ele>915.5</ele>
        <time>2012-08-23T06:41:18Z</time>
      </trkpt>
      <trkpt lat="45.06052" lon="5.44072">
        <ele>916</ele>
        <time>2012-08-23T06:41:20Z</time>
      </trkpt>
      <trkpt lat="45.06046" lon="5.44079">
        <ele>917</ele>
        <time>2012-08-23T06:41:25Z</time>
      </trkpt>
      <trkpt lat="45.06044" lon="5.44081">
        <ele>916</ele>
        <time>2012-08-23T06:41:27Z</time>
      </trkpt>
      <trkpt lat="45.06041" lon="5.44081">
        <ele>915.2</ele>
        <time>2012-08-23T06:41:32Z</time>
      </trkpt>
      <trkpt lat="45.06036" lon="5.44084">
        <ele>914.5</ele>
        <time>2012-08-23T06:41:38Z</time>
      </trkpt>
      <trkpt lat="45.0603" lon="5.44088">
        <ele>913.7</ele>
        <time>2012-08-23T06:41:48Z</time>
      </trkpt>
      <trkpt lat="45.06024" lon="5.44091">
        <ele>913.5</ele>
        <time>2012-08-23T06:41:55Z</time>
      </trkpt>
      <trkpt lat="45.06015" lon="5.44097">
        <ele>913.5</ele>
        <time>2012-08-23T06:42:06Z</time>
      </trkpt>
      <trkpt lat="45.06012" lon="5.44102">
        <ele>912.7</ele>
        <time>2012-08-23T06:42:14Z</time>
      </trkpt>
      <trkpt lat="45.06011" lon="5.44106">
        <ele>912.7</ele>
        <time>2012-08-23T06:42:20Z</time>
      </trkpt>
      <trkpt lat="45.06008" lon="5.4411">
        <ele>913.2</ele>
        <time>2012-08-23T06:42:26Z</time>
      </trkpt>
      <trkpt lat="45.06003" lon="5.44117">
        <ele>913</ele>
        <time>2012-08-23T06:42:31Z</time>
      </trkpt>
      <trkpt lat="45.05999" lon="5.44122">
        <ele>912.9</ele>
        <time>2012-08-23T06:42:34Z</time>
      </trkpt>
      <trkpt lat="45.05997" lon="5.44125">
        <ele>912.2</ele>
        <time>2012-08-23T06:42:36Z</time>
      </trkpt>
      <trkpt lat="45.05993" lon="5.44132">
        <ele>910.2</ele>
        <time>2012-08-23T06:42:40Z</time>
      </trkpt>
      <trkpt lat="45.05991" lon="5.44146">
        <ele>908.5</ele>
        <time>2012-08-23T06:42:45Z</time>
      </trkpt>
      <trkpt lat="45.05991" lon="5.44156">
        <ele>906.5</ele>
        <time>2012-08-23T06:42:50Z</time>
      </trkpt>
      <trkpt lat="45.0599" lon="5.4416">
        <ele>906.7</ele>
        <time>2012-08-23T06:42:52Z</time>
      </trkpt>
      <trkpt lat="45.05988" lon="5.44164">
        <ele>906.9</ele>
        <time>2012-08-23T06:42:54Z</time>
      </trkpt>
      <trkpt lat="45.05987" lon="5.44172">
        <ele>906</ele>
        <time>2012-08-23T06:42:57Z</time>
      </trkpt>
      <trkpt lat="45.05986" lon="5.4418">
        <ele>905.7</ele>
        <time>2012-08-23T06:43:00Z</time>
      </trkpt>
      <trkpt lat="45.05984" lon="5.44187">
        <ele>907</ele>
        <time>2012-08-23T06:43:02Z</time>
      </trkpt>
      <trkpt lat="45.05977" lon="5.44196">
        <ele>905</ele>
        <time>2012-08-23T06:43:07Z</time>
      </trkpt>
      <trkpt lat="45.05974" lon="5.442">
        <ele>904.2</ele>
        <time>2012-08-23T06:43:09Z</time>
      </trkpt>
      <trkpt lat="45.05971" lon="5.44205">
        <ele>903.9</ele>
        <time>2012-08-23T06:43:11Z</time>
      </trkpt>
      <trkpt lat="45.0597" lon="5.44212">
        <ele>902.2</ele>
        <time>2012-08-23T06:43:14Z</time>
      </trkpt>
      <trkpt lat="45.0597" lon="5.44218">
        <ele>901.7</ele>
        <time>2012-08-23T06:43:17Z</time>
      </trkpt>
      <trkpt lat="45.05964" lon="5.4423">
        <ele>901.5</ele>
        <time>2012-08-23T06:43:24Z</time>
      </trkpt>
      <trkpt lat="45.05963" lon="5.44233">
        <ele>901.4</ele>
        <time>2012-08-23T06:43:26Z</time>
      </trkpt>
      <trkpt lat="45.05955" lon="5.44246">
        <ele>903.7</ele>
        <time>2012-08-23T06:43:33Z</time>
      </trkpt>
      <trkpt lat="45.05953" lon="5.44248">
        <ele>903.9</ele>
        <time>2012-08-23T06:43:35Z</time>
      </trkpt>
      <trkpt lat="45.0595" lon="5.44251">
        <ele>904</ele>
        <time>2012-08-23T06:43:37Z</time>
      </trkpt>
      <trkpt lat="45.05947" lon="5.44256">
        <ele>905</ele>
        <time>2012-08-23T06:43:39Z</time>
      </trkpt>
      <trkpt lat="45.05944" lon="5.4426">
        <ele>905.5</ele>
        <time>2012-08-23T06:43:41Z</time>
      </trkpt>
      <trkpt lat="45.05942" lon="5.44263">
        <ele>906</ele>
        <time>2012-08-23T06:43:43Z</time>
      </trkpt>
      <trkpt lat="45.05933" lon="5.44266">
        <ele>906</ele>
        <time>2012-08-23T06:43:48Z</time>
      </trkpt>
      <trkpt lat="45.05927" lon="5.44273">
        <ele>905.5</ele>
        <time>2012-08-23T06:43:52Z</time>
      </trkpt>
      <trkpt lat="45.05923" lon="5.44275">
        <ele>904</ele>
        <time>2012-08-23T06:43:54Z</time>
      </trkpt>
      <trkpt lat="45.05915" lon="5.44285">
        <ele>903.2</ele>
        <time>2012-08-23T06:43:59Z</time>
      </trkpt>
      <trkpt lat="45.0591" lon="5.44296">
        <ele>901.9</ele>
        <time>2012-08-23T06:44:03Z</time>
      </trkpt>
      <trkpt lat="45.05901" lon="5.44307">
        <ele>900</ele>
        <time>2012-08-23T06:44:08Z</time>
      </trkpt>
      <trkpt lat="45.05898" lon="5.4431">
        <ele>898.7</ele>
        <time>2012-08-23T06:44:10Z</time>
      </trkpt>
      <trkpt lat="45.05893" lon="5.44311">
        <ele>898.2</ele>
        <time>2012-08-23T06:44:12Z</time>
      </trkpt>
      <trkpt lat="45.05888" lon="5.44315">
        <ele>898</ele>
        <time>2012-08-23T06:44:15Z</time>
      </trkpt>
      <trkpt lat="45.05883" lon="5.44318">
        <ele>896.9</ele>
        <time>2012-08-23T06:44:19Z</time>
      </trkpt>
      <trkpt lat="45.05878" lon="5.44323">
        <ele>896.4</ele>
        <time>2012-08-23T06:44:23Z</time>
      </trkpt>
      <trkpt lat="45.05871" lon="5.44331">
        <ele>896.7</ele>
        <time>2012-08-23T06:44:29Z</time>
      </trkpt>
      <trkpt lat="45.05868" lon="5.44332">
        <ele>897</ele>
        <time>2012-08-23T06:44:31Z</time>
      </trkpt>
      <trkpt lat="45.05864" lon="5.44334">
        <ele>897</ele>
        <time>2012-08-23T06:44:33Z</time>
      </trkpt>
      <trkpt lat="45.0586" lon="5.44336">
        <ele>897.2</ele>
        <time>2012-08-23T06:44:35Z</time>
      </trkpt>
      <trkpt lat="45.05854" lon="5.44343">
        <ele>898.4</ele>
        <time>2012-08-23T06:44:40Z</time>
      </trkpt>
      <trkpt lat="45.05849" lon="5.44348">
        <ele>899</ele>
        <time>2012-08-23T06:44:43Z</time>
      </trkpt>
      <trkpt lat="45.05847" lon="5.44351">
        <ele>899</ele>
        <time>2012-08-23T06:44:45Z</time>
      </trkpt>
      <trkpt lat="45.05845" lon="5.44357">
        <ele>899.4</ele>
        <time>2012-08-23T06:44:48Z</time>
      </trkpt>
      <trkpt lat="45.05843" lon="5.44359">
        <ele>899.9</ele>
        <time>2012-08-23T06:44:50Z</time>
      </trkpt>
      <trkpt lat="45.05846" lon="5.44363">
        <ele>904</ele>
        <time>2012-08-23T06:45:01Z</time>
      </trkpt>
      <trkpt lat="45.05844" lon="5.44366">
        <ele>905</ele>
        <time>2012-08-23T06:45:06Z</time>
      </trkpt>
      <trkpt lat="45.05843" lon="5.44369">
        <ele>904.5</ele>
        <time>2012-08-23T06:45:08Z</time>
      </trkpt>
      <trkpt lat="45.0584" lon="5.44377">
        <ele>903.5</ele>
        <time>2012-08-23T06:45:12Z</time>
      </trkpt>
      <trkpt lat="45.05838" lon="5.44383">
        <ele>903.4</ele>
        <time>2012-08-23T06:45:15Z</time>
      </trkpt>
      <trkpt lat="45.05835" lon="5.44391">
        <ele>900.7</ele>
        <time>2012-08-23T06:45:19Z</time>
      </trkpt>
      <trkpt lat="45.05828" lon="5.44403">
        <ele>899.2</ele>
        <time>2012-08-23T06:45:26Z</time>
      </trkpt>
      <trkpt lat="45.05824" lon="5.44414">
        <ele>900</ele>
        <time>2012-08-23T06:45:31Z</time>
      </trkpt>
      <trkpt lat="45.05822" lon="5.44418">
        <ele>899</ele>
        <time>2012-08-23T06:45:33Z</time>
      </trkpt>
      <trkpt lat="45.05821" lon="5.44422">
        <ele>898.4</ele>
        <time>2012-08-23T06:45:35Z</time>
      </trkpt>
      <trkpt lat="45.05819" lon="5.44425">
        <ele>897.5</ele>
        <time>2012-08-23T06:45:37Z</time>
      </trkpt>
      <trkpt lat="45.05815" lon="5.44432">
        <ele>897.9</ele>
        <time>2012-08-23T06:45:41Z</time>
      </trkpt>
      <trkpt lat="45.05812" lon="5.44437">
        <ele>897</ele>
        <time>2012-08-23T06:45:44Z</time>
      </trkpt>
      <trkpt lat="45.05809" lon="5.4444">
        <ele>897.2</ele>
        <time>2012-08-23T06:45:46Z</time>
      </trkpt>
      <trkpt lat="45.05804" lon="5.44443">
        <ele>898.7</ele>
        <time>2012-08-23T06:45:48Z</time>
      </trkpt>
      <trkpt lat="45.058" lon="5.44447">
        <ele>898.7</ele>
        <time>2012-08-23T06:45:50Z</time>
      </trkpt>
      <trkpt lat="45.05795" lon="5.44454">
        <ele>899.7</ele>
        <time>2012-08-23T06:45:53Z</time>
      </trkpt>
      <trkpt lat="45.05789" lon="5.44459">
        <ele>900.7</ele>
        <time>2012-08-23T06:45:56Z</time>
      </trkpt>
      <trkpt lat="45.05788" lon="5.44462">
        <ele>901</ele>
        <time>2012-08-23T06:45:57Z</time>
      </trkpt>
      <trkpt lat="45.05784" lon="5.44464">
        <ele>901.9</ele>
        <time>2012-08-23T06:45:59Z</time>
      </trkpt>
      <trkpt lat="45.0578" lon="5.44466">
        <ele>903.4</ele>
        <time>2012-08-23T06:46:03Z</time>
      </trkpt>
      <trkpt lat="45.05774" lon="5.44469">
        <ele>905.9</ele>
        <time>2012-08-23T06:46:08Z</time>
      </trkpt>
      <trkpt lat="45.0577" lon="5.44469">
        <ele>905.9</ele>
        <time>2012-08-23T06:46:11Z</time>
      </trkpt>
      <trkpt lat="45.05762" lon="5.44473">
        <ele>905.2</ele>
        <time>2012-08-23T06:46:18Z</time>
      </trkpt>
      <trkpt lat="45.05752" lon="5.44475">
        <ele>906.7</ele>
        <time>2012-08-23T06:46:24Z</time>
      </trkpt>
      <trkpt lat="45.0575" lon="5.44476">
        <ele>907</ele>
        <time>2012-08-23T06:46:26Z</time>
      </trkpt>
      <trkpt lat="45.05739" lon="5.44478">
        <ele>906.7</ele>
        <time>2012-08-23T06:46:34Z</time>
      </trkpt>
      <trkpt lat="45.05732" lon="5.44482">
        <ele>908</ele>
        <time>2012-08-23T06:46:38Z</time>
      </trkpt>
      <trkpt lat="45.05729" lon="5.44485">
        <ele>909.5</ele>
        <time>2012-08-23T06:46:40Z</time>
      </trkpt>
      <trkpt lat="45.05724" lon="5.44483">
        <ele>909.9</ele>
        <time>2012-08-23T06:46:44Z</time>
      </trkpt>
      <trkpt lat="45.05719" lon="5.44483">
        <ele>911.7</ele>
        <time>2012-08-23T06:46:48Z</time>
      </trkpt>
      <trkpt lat="45.05709" lon="5.44478">
        <ele>911.5</ele>
        <time>2012-08-23T06:46:54Z</time>
      </trkpt>
      <trkpt lat="45.05706" lon="5.44478">
        <ele>912</ele>
        <time>2012-08-23T06:46:56Z</time>
      </trkpt>
      <trkpt lat="45.05701" lon="5.44477">
        <ele>908.9</ele>
        <time>2012-08-23T06:46:58Z</time>
      </trkpt>
      <trkpt lat="45.05695" lon="5.44477">
        <ele>907.4</ele>
        <time>2012-08-23T06:47:01Z</time>
      </trkpt>
      <trkpt lat="45.05691" lon="5.44479">
        <ele>906.2</ele>
        <time>2012-08-23T06:47:04Z</time>
      </trkpt>
      <trkpt lat="45.05683" lon="5.44481">
        <ele>905.7</ele>
        <time>2012-08-23T06:47:08Z</time>
      </trkpt>
      <trkpt lat="45.05681" lon="5.44482">
        <ele>906</ele>
        <time>2012-08-23T06:47:09Z</time>
      </trkpt>
      <trkpt lat="45.05671" lon="5.44486">
        <ele>908.5</ele>
        <time>2012-08-23T06:47:15Z</time>
      </trkpt>
      <trkpt lat="45.05667" lon="5.4449">
        <ele>910.9</ele>
        <time>2012-08-23T06:47:19Z</time>
      </trkpt>
      <trkpt lat="45.0566" lon="5.44493">
        <ele>911</ele>
        <time>2012-08-23T06:47:24Z</time>
      </trkpt>
      <trkpt lat="45.05657" lon="5.44496">
        <ele>911.7</ele>
        <time>2012-08-23T06:47:26Z</time>
      </trkpt>
      <trkpt lat="45.05651" lon="5.44504">
        <ele>912</ele>
        <time>2012-08-23T06:47:31Z</time>
      </trkpt>
      <trkpt lat="45.05648" lon="5.44507">
        <ele>911.5</ele>
        <time>2012-08-23T06:47:33Z</time>
      </trkpt>
      <trkpt lat="45.05645" lon="5.44514">
        <ele>911.9</ele>
        <time>2012-08-23T06:47:36Z</time>
      </trkpt>
      <trkpt lat="45.05643" lon="5.44515">
        <ele>911.9</ele>
        <time>2012-08-23T06:47:37Z</time>
      </trkpt>
      <trkpt lat="45.05636" lon="5.44525">
        <ele>911</ele>
        <time>2012-08-23T06:47:42Z</time>
      </trkpt>
      <trkpt lat="45.0563" lon="5.44536">
        <ele>910.5</ele>
        <time>2012-08-23T06:47:47Z</time>
      </trkpt>
      <trkpt lat="45.05624" lon="5.44545">
        <ele>911.7</ele>
        <time>2012-08-23T06:47:52Z</time>
      </trkpt>
      <trkpt lat="45.05621" lon="5.44548">
        <ele>910</ele>
        <time>2012-08-23T06:47:54Z</time>
      </trkpt>
      <trkpt lat="45.05614" lon="5.44559">
        <ele>915.7</ele>
        <time>2012-08-23T06:47:59Z</time>
      </trkpt>
      <trkpt lat="45.0561" lon="5.44564">
        <ele>915.5</ele>
        <time>2012-08-23T06:48:03Z</time>
      </trkpt>
      <trkpt lat="45.05602" lon="5.44569">
        <ele>915.7</ele>
        <time>2012-08-23T06:48:07Z</time>
      </trkpt>
      <trkpt lat="45.05599" lon="5.44572">
        <ele>915.5</ele>
        <time>2012-08-23T06:48:09Z</time>
      </trkpt>
      <trkpt lat="45.05592" lon="5.44576">
        <ele>916.7</ele>
        <time>2012-08-23T06:48:13Z</time>
      </trkpt>
      <trkpt lat="45.05586" lon="5.4458">
        <ele>917</ele>
        <time>2012-08-23T06:48:17Z</time>
      </trkpt>
      <trkpt lat="45.05583" lon="5.44581">
        <ele>917.7</ele>
        <time>2012-08-23T06:48:19Z</time>
      </trkpt>
      <trkpt lat="45.05578" lon="5.44582">
        <ele>917.9</ele>
        <time>2012-08-23T06:48:21Z</time>
      </trkpt>
      <trkpt lat="45.0557" lon="5.44585">
        <ele>917.7</ele>
        <time>2012-08-23T06:48:25Z</time>
      </trkpt>
      <trkpt lat="45.05564" lon="5.44594">
        <ele>916.9</ele>
        <time>2012-08-23T06:48:29Z</time>
      </trkpt>
      <trkpt lat="45.05559" lon="5.44598">
        <ele>916.5</ele>
        <time>2012-08-23T06:48:31Z</time>
      </trkpt>
      <trkpt lat="45.05554" lon="5.446">
        <ele>916.4</ele>
        <time>2012-08-23T06:48:33Z</time>
      </trkpt>
      <trkpt lat="45.0555" lon="5.44604">
        <ele>916.2</ele>
        <time>2012-08-23T06:48:35Z</time>
      </trkpt>
      <trkpt lat="45.05547" lon="5.44612">
        <ele>916</ele>
        <time>2012-08-23T06:48:38Z</time>
      </trkpt>
      <trkpt lat="45.05542" lon="5.44618">
        <ele>915.7</ele>
        <time>2012-08-23T06:48:41Z</time>
      </trkpt>
      <trkpt lat="45.05535" lon="5.44623">
        <ele>913</ele>
        <time>2012-08-23T06:48:46Z</time>
      </trkpt>
      <trkpt lat="45.05532" lon="5.44625">
        <ele>912</ele>
        <time>2012-08-23T06:48:48Z</time>
      </trkpt>
      <trkpt lat="45.05526" lon="5.44626">
        <ele>911.2</ele>
        <time>2012-08-23T06:48:52Z</time>
      </trkpt>
      <trkpt lat="45.05524" lon="5.44627">
        <ele>910.9</ele>
        <time>2012-08-23T06:48:53Z</time>
      </trkpt>
      <trkpt lat="45.05514" lon="5.44632">
        <ele>909.7</ele>
        <time>2012-08-23T06:48:58Z</time>
      </trkpt>
      <trkpt lat="45.05508" lon="5.44635">
        <ele>910.5</ele>
        <time>2012-08-23T06:49:01Z</time>
      </trkpt>
      <trkpt lat="45.05503" lon="5.44635">
        <ele>909.2</ele>
        <time>2012-08-23T06:49:04Z</time>
      </trkpt>
      <trkpt lat="45.05492" lon="5.44638">
        <ele>909.7</ele>
        <time>2012-08-23T06:49:10Z</time>
      </trkpt>
      <trkpt lat="45.05486" lon="5.4464">
        <ele>909.5</ele>
        <time>2012-08-23T06:49:13Z</time>
      </trkpt>
      <trkpt lat="45.05483" lon="5.44643">
        <ele>908.5</ele>
        <time>2012-08-23T06:49:15Z</time>
      </trkpt>
      <trkpt lat="45.05479" lon="5.44646">
        <ele>908.2</ele>
        <time>2012-08-23T06:49:18Z</time>
      </trkpt>
      <trkpt lat="45.05471" lon="5.44648">
        <ele>908</ele>
        <time>2012-08-23T06:49:22Z</time>
      </trkpt>
      <trkpt lat="45.05467" lon="5.44651">
        <ele>908</ele>
        <time>2012-08-23T06:49:24Z</time>
      </trkpt>
      <trkpt lat="45.05465" lon="5.44653">
        <ele>908.2</ele>
        <time>2012-08-23T06:49:25Z</time>
      </trkpt>
      <trkpt lat="45.05458" lon="5.4466">
        <ele>909.4</ele>
        <time>2012-08-23T06:49:31Z</time>
      </trkpt>
      <trkpt lat="45.05458" lon="5.44661">
        <ele>911.5</ele>
        <time>2012-08-23T06:49:38Z</time>
      </trkpt>
      <trkpt lat="45.05457" lon="5.44662">
        <ele>910.7</ele>
        <time>2012-08-23T06:49:42Z</time>
      </trkpt>
      <trkpt lat="45.05455" lon="5.44665">
        <ele>912.2</ele>
        <time>2012-08-23T06:49:49Z</time>
      </trkpt>
      <trkpt lat="45.05453" lon="5.44667">
        <ele>912.7</ele>
        <time>2012-08-23T06:49:52Z</time>
      </trkpt>
      <trkpt lat="45.05453" lon="5.44666">
        <ele>913.5</ele>
        <time>2012-08-23T06:49:56Z</time>
      </trkpt>
      <trkpt lat="45.05454" lon="5.44657">
        <ele>910.5</ele>
        <time>2012-08-23T06:50:03Z</time>
      </trkpt>
      <trkpt lat="45.05453" lon="5.44653">
        <ele>909.9</ele>
        <time>2012-08-23T06:50:05Z</time>
      </trkpt>
      <trkpt lat="45.05454" lon="5.44648">
        <ele>909.5</ele>
        <time>2012-08-23T06:50:09Z</time>
      </trkpt>
      <trkpt lat="45.0545" lon="5.44641">
        <ele>908.7</ele>
        <time>2012-08-23T06:50:12Z</time>
      </trkpt>
      <trkpt lat="45.05445" lon="5.44636">
        <ele>901.2</ele>
        <time>2012-08-23T06:50:17Z</time>
      </trkpt>
      <trkpt lat="45.05441" lon="5.44631">
        <ele>900.2</ele>
        <time>2012-08-23T06:50:19Z</time>
      </trkpt>
      <trkpt lat="45.05439" lon="5.44625">
        <ele>900.9</ele>
        <time>2012-08-23T06:50:21Z</time>
      </trkpt>
      <trkpt lat="45.05437" lon="5.44617">
        <ele>903</ele>
        <time>2012-08-23T06:50:23Z</time>
      </trkpt>
      <trkpt lat="45.05435" lon="5.44611">
        <ele>908</ele>
        <time>2012-08-23T06:50:25Z</time>
      </trkpt>
      <trkpt lat="45.05426" lon="5.44596">
        <ele>907.2</ele>
        <time>2012-08-23T06:50:29Z</time>
      </trkpt>
      <trkpt lat="45.0542" lon="5.44589">
        <ele>913.5</ele>
        <time>2012-08-23T06:50:32Z</time>
      </trkpt>
      <trkpt lat="45.05416" lon="5.44587">
        <ele>916.5</ele>
        <time>2012-08-23T06:50:35Z</time>
      </trkpt>
      <trkpt lat="45.05414" lon="5.44587">
        <ele>917.5</ele>
        <time>2012-08-23T06:50:36Z</time>
      </trkpt>
      <trkpt lat="45.0541" lon="5.44584">
        <ele>916.7</ele>
        <time>2012-08-23T06:50:38Z</time>
      </trkpt>
      <trkpt lat="45.05404" lon="5.44584">
        <ele>915.4</ele>
        <time>2012-08-23T06:50:41Z</time>
      </trkpt>
      <trkpt lat="45.05402" lon="5.44583">
        <ele>914.9</ele>
        <time>2012-08-23T06:50:42Z</time>
      </trkpt>
      <trkpt lat="45.05391" lon="5.44574">
        <ele>913</ele>
        <time>2012-08-23T06:50:47Z</time>
      </trkpt>
      <trkpt lat="45.05386" lon="5.44572">
        <ele>912.7</ele>
        <time>2012-08-23T06:50:49Z</time>
      </trkpt>
      <trkpt lat="45.05382" lon="5.44568">
        <ele>911.7</ele>
        <time>2012-08-23T06:50:51Z</time>
      </trkpt>
      <trkpt lat="45.05377" lon="5.44558">
        <ele>913.4</ele>
        <time>2012-08-23T06:50:55Z</time>
      </trkpt>
      <trkpt lat="45.05375" lon="5.44555">
        <ele>915.2</ele>
        <time>2012-08-23T06:50:57Z</time>
      </trkpt>
      <trkpt lat="45.05371" lon="5.44545">
        <ele>913.2</ele>
        <time>2012-08-23T06:51:03Z</time>
      </trkpt>
      <trkpt lat="45.05366" lon="5.44537">
        <ele>909.5</ele>
        <time>2012-08-23T06:51:07Z</time>
      </trkpt>
      <trkpt lat="45.05353" lon="5.44522">
        <ele>906.7</ele>
        <time>2012-08-23T06:51:14Z</time>
      </trkpt>
      <trkpt lat="45.05351" lon="5.4452">
        <ele>907</ele>
        <time>2012-08-23T06:51:15Z</time>
      </trkpt>
      <trkpt lat="45.0534" lon="5.44516">
        <ele>908.4</ele>
        <time>2012-08-23T06:51:22Z</time>
      </trkpt>
      <trkpt lat="45.05333" lon="5.44512">
        <ele>906.7</ele>
        <time>2012-08-23T06:51:26Z</time>
      </trkpt>
      <trkpt lat="45.0533" lon="5.44509">
        <ele>906.7</ele>
        <time>2012-08-23T06:51:28Z</time>
      </trkpt>
      <trkpt lat="45.05328" lon="5.44505">
        <ele>909.5</ele>
        <time>2012-08-23T06:51:31Z</time>
      </trkpt>
      <trkpt lat="45.05319" lon="5.44496">
        <ele>909.4</ele>
        <time>2012-08-23T06:51:39Z</time>
      </trkpt>
      <trkpt lat="45.05316" lon="5.44494">
        <ele>908.9</ele>
        <time>2012-08-23T06:51:43Z</time>
      </trkpt>
      <trkpt lat="45.05313" lon="5.44492">
        <ele>910</ele>
        <time>2012-08-23T06:51:46Z</time>
      </trkpt>
      <trkpt lat="45.05306" lon="5.44489">
        <ele>909.7</ele>
        <time>2012-08-23T06:51:53Z</time>
      </trkpt>
      <trkpt lat="45.05302" lon="5.44489">
        <ele>911.2</ele>
        <time>2012-08-23T06:51:57Z</time>
      </trkpt>
      <trkpt lat="45.05292" lon="5.4449">
        <ele>910.4</ele>
        <time>2012-08-23T06:52:05Z</time>
      </trkpt>
      <trkpt lat="45.05287" lon="5.4449">
        <ele>909.7</ele>
        <time>2012-08-23T06:52:08Z</time>
      </trkpt>
      <trkpt lat="45.05282" lon="5.44488">
        <ele>908.7</ele>
        <time>2012-08-23T06:52:11Z</time>
      </trkpt>
      <trkpt lat="45.05273" lon="5.44482">
        <ele>907.2</ele>
        <time>2012-08-23T06:52:17Z</time>
      </trkpt>
      <trkpt lat="45.05263" lon="5.44474">
        <ele>905</ele>
        <time>2012-08-23T06:52:24Z</time>
      </trkpt>
      <trkpt lat="45.05255" lon="5.44469">
        <ele>903.2</ele>
        <time>2012-08-23T06:52:29Z</time>
      </trkpt>
      <trkpt lat="45.05251" lon="5.44467">
        <ele>902</ele>
        <time>2012-08-23T06:52:32Z</time>
      </trkpt>
      <trkpt lat="45.05247" lon="5.44463">
        <ele>900.5</ele>
        <time>2012-08-23T06:52:35Z</time>
      </trkpt>
      <trkpt lat="45.05246" lon="5.4446">
        <ele>901.4</ele>
        <time>2012-08-23T06:52:37Z</time>
      </trkpt>
      <trkpt lat="45.05241" lon="5.44455">
        <ele>900.9</ele>
        <time>2012-08-23T06:52:41Z</time>
      </trkpt>
      <trkpt lat="45.05238" lon="5.4445">
        <ele>905.2</ele>
        <time>2012-08-23T06:52:46Z</time>
      </trkpt>
      <trkpt lat="45.05237" lon="5.44447">
        <ele>908.2</ele>
        <time>2012-08-23T06:52:51Z</time>
      </trkpt>
      <trkpt lat="45.05237" lon="5.44445">
        <ele>909.2</ele>
        <time>2012-08-23T06:52:57Z</time>
      </trkpt>
      <trkpt lat="45.05232" lon="5.44445">
        <ele>913.5</ele>
        <time>2012-08-23T06:53:02Z</time>
      </trkpt>
      <trkpt lat="45.05229" lon="5.44446">
        <ele>914</ele>
        <time>2012-08-23T06:53:04Z</time>
      </trkpt>
      <trkpt lat="45.05226" lon="5.44445">
        <ele>913.7</ele>
        <time>2012-08-23T06:53:06Z</time>
      </trkpt>
      <trkpt lat="45.05219" lon="5.44444">
        <ele>912.2</ele>
        <time>2012-08-23T06:53:10Z</time>
      </trkpt>
      <trkpt lat="45.05216" lon="5.44445">
        <ele>912.2</ele>
        <time>2012-08-23T06:53:12Z</time>
      </trkpt>
      <trkpt lat="45.0521" lon="5.44448">
        <ele>911.4</ele>
        <time>2012-08-23T06:53:16Z</time>
      </trkpt>
      <trkpt lat="45.05208" lon="5.44448">
        <ele>911.2</ele>
        <time>2012-08-23T06:53:19Z</time>
      </trkpt>
      <trkpt lat="45.05206" lon="5.4445">
        <ele>909.2</ele>
        <time>2012-08-23T06:53:29Z</time>
      </trkpt>
      <trkpt lat="45.05206" lon="5.44458">
        <ele>907.5</ele>
        <time>2012-08-23T06:53:34Z</time>
      </trkpt>
      <trkpt lat="45.05201" lon="5.44471">
        <ele>906.5</ele>
        <time>2012-08-23T06:53:40Z</time>
      </trkpt>
      <trkpt lat="45.052" lon="5.4447">
        <ele>906.2</ele>
        <time>2012-08-23T06:53:46Z</time>
      </trkpt>
      <trkpt lat="45.052" lon="5.44468">
        <ele>905.4</ele>
        <time>2012-08-23T06:53:54Z</time>
      </trkpt>
      <trkpt lat="45.05205" lon="5.44461">
        <ele>904.4</ele>
        <time>2012-08-23T06:53:58Z</time>
      </trkpt>
      <trkpt lat="45.05206" lon="5.44456">
        <ele>903.5</ele>
        <time>2012-08-23T06:54:00Z</time>
      </trkpt>
      <trkpt lat="45.05207" lon="5.44447">
        <ele>902.4</ele>
        <time>2012-08-23T06:54:03Z</time>
      </trkpt>
      <trkpt lat="45.05206" lon="5.4444">
        <ele>901.7</ele>
        <time>2012-08-23T06:54:05Z</time>
      </trkpt>
      <trkpt lat="45.05202" lon="5.44406">
        <ele>899.9</ele>
        <time>2012-08-23T06:54:13Z</time>
      </trkpt>
      <trkpt lat="45.05201" lon="5.44396">
        <ele>899.5</ele>
        <time>2012-08-23T06:54:16Z</time>
      </trkpt>
      <trkpt lat="45.052" lon="5.44392">
        <ele>898.9</ele>
        <time>2012-08-23T06:54:17Z</time>
      </trkpt>
      <trkpt lat="45.05194" lon="5.44382">
        <ele>897.4</ele>
        <time>2012-08-23T06:54:20Z</time>
      </trkpt>
      <trkpt lat="45.05186" lon="5.44372">
        <ele>897</ele>
        <time>2012-08-23T06:54:24Z</time>
      </trkpt>
      <trkpt lat="45.05179" lon="5.44368">
        <ele>897.2</ele>
        <time>2012-08-23T06:54:28Z</time>
      </trkpt>
      <trkpt lat="45.0517" lon="5.44366">
        <ele>897.7</ele>
        <time>2012-08-23T06:54:32Z</time>
      </trkpt>
      <trkpt lat="45.05168" lon="5.44365">
        <ele>897.2</ele>
        <time>2012-08-23T06:54:33Z</time>
      </trkpt>
      <trkpt lat="45.05156" lon="5.44361">
        <ele>894.7</ele>
        <time>2012-08-23T06:54:38Z</time>
      </trkpt>
      <trkpt lat="45.05154" lon="5.4436">
        <ele>894.2</ele>
        <time>2012-08-23T06:54:39Z</time>
      </trkpt>
      <trkpt lat="45.05146" lon="5.44357">
        <ele>892.2</ele>
        <time>2012-08-23T06:54:43Z</time>
      </trkpt>
      <trkpt lat="45.05143" lon="5.44354">
        <ele>891.4</ele>
        <time>2012-08-23T06:54:45Z</time>
      </trkpt>
      <trkpt lat="45.05141" lon="5.44351">
        <ele>890.7</ele>
        <time>2012-08-23T06:54:47Z</time>
      </trkpt>
      <trkpt lat="45.0514" lon="5.44351">
        <ele>890.2</ele>
        <time>2012-08-23T06:54:54Z</time>
      </trkpt>
      <trkpt lat="45.05139" lon="5.44349">
        <ele>892.4</ele>
        <time>2012-08-23T06:55:17Z</time>
      </trkpt>
      <trkpt lat="45.05136" lon="5.44345">
        <ele>894.5</ele>
        <time>2012-08-23T06:55:54Z</time>
      </trkpt>
      <trkpt lat="45.05135" lon="5.44345">
        <ele>893.7</ele>
        <time>2012-08-23T06:56:16Z</time>
      </trkpt>
      <trkpt lat="45.05136" lon="5.44348">
        <ele>893.7</ele>
        <time>2012-08-23T06:56:21Z</time>
      </trkpt>
      <trkpt lat="45.05137" lon="5.44353">
        <ele>895.2</ele>
        <time>2012-08-23T06:56:26Z</time>
      </trkpt>
      <trkpt lat="45.05137" lon="5.44356">
        <ele>896.7</ele>
        <time>2012-08-23T06:56:32Z</time>
      </trkpt>
      <trkpt lat="45.05133" lon="5.44362">
        <ele>897</ele>
        <time>2012-08-23T06:56:44Z</time>
      </trkpt>
      <trkpt lat="45.05129" lon="5.44366">
        <ele>897</ele>
        <time>2012-08-23T06:56:53Z</time>
      </trkpt>
      <trkpt lat="45.05127" lon="5.44368">
        <ele>897</ele>
        <time>2012-08-23T06:56:57Z</time>
      </trkpt>
      <trkpt lat="45.05126" lon="5.44367">
        <ele>898.2</ele>
        <time>2012-08-23T06:57:03Z</time>
      </trkpt>
      <trkpt lat="45.05122" lon="5.44372">
        <ele>899</ele>
        <time>2012-08-23T06:57:10Z</time>
      </trkpt>
      <trkpt lat="45.05118" lon="5.44381">
        <ele>899.5</ele>
        <time>2012-08-23T06:57:19Z</time>
      </trkpt>
      <trkpt lat="45.05116" lon="5.44393">
        <ele>898.5</ele>
        <time>2012-08-23T06:57:30Z</time>
      </trkpt>
      <trkpt lat="45.05114" lon="5.44399">
        <ele>898.4</ele>
        <time>2012-08-23T06:57:36Z</time>
      </trkpt>
      <trkpt lat="45.05112" lon="5.44402">
        <ele>897.9</ele>
        <time>2012-08-23T06:57:44Z</time>
      </trkpt>
      <trkpt lat="45.05108" lon="5.44407">
        <ele>897.7</ele>
        <time>2012-08-23T06:57:48Z</time>
      </trkpt>
      <trkpt lat="45.05094" lon="5.44417">
        <ele>897.5</ele>
        <time>2012-08-23T06:57:56Z</time>
      </trkpt>
      <trkpt lat="45.05087" lon="5.44422">
        <ele>897.9</ele>
        <time>2012-08-23T06:58:00Z</time>
      </trkpt>
      <trkpt lat="45.0508" lon="5.44427">
        <ele>898.2</ele>
        <time>2012-08-23T06:58:04Z</time>
      </trkpt>
      <trkpt lat="45.05076" lon="5.44428">
        <ele>898.4</ele>
        <time>2012-08-23T06:58:06Z</time>
      </trkpt>
      <trkpt lat="45.05072" lon="5.44429">
        <ele>898.5</ele>
        <time>2012-08-23T06:58:08Z</time>
      </trkpt>
      <trkpt lat="45.05066" lon="5.44429">
        <ele>899</ele>
        <time>2012-08-23T06:58:11Z</time>
      </trkpt>
      <trkpt lat="45.05058" lon="5.44427">
        <ele>899.2</ele>
        <time>2012-08-23T06:58:15Z</time>
      </trkpt>
      <trkpt lat="45.05046" lon="5.44423">
        <ele>899.5</ele>
        <time>2012-08-23T06:58:21Z</time>
      </trkpt>
      <trkpt lat="45.05038" lon="5.44421">
        <ele>899.9</ele>
        <time>2012-08-23T06:58:25Z</time>
      </trkpt>
      <trkpt lat="45.05037" lon="5.4442">
        <ele>900</ele>
        <time>2012-08-23T06:58:30Z</time>
      </trkpt>
      <trkpt lat="45.05038" lon="5.44413">
        <ele>900.9</ele>
        <time>2012-08-23T06:58:42Z</time>
      </trkpt>
      <trkpt lat="45.05037" lon="5.4441">
        <ele>901.4</ele>
        <time>2012-08-23T06:58:57Z</time>
      </trkpt>
      <trkpt lat="45.05038" lon="5.44403">
        <ele>900.5</ele>
        <time>2012-08-23T06:59:05Z</time>
      </trkpt>
      <trkpt lat="45.05041" lon="5.44392">
        <ele>900</ele>
        <time>2012-08-23T06:59:09Z</time>
      </trkpt>
      <trkpt lat="45.05041" lon="5.44389">
        <ele>899.9</ele>
        <time>2012-08-23T06:59:10Z</time>
      </trkpt>
      <trkpt lat="45.05046" lon="5.44377">
        <ele>899.2</ele>
        <time>2012-08-23T06:59:15Z</time>
      </trkpt>
      <trkpt lat="45.05051" lon="5.44363">
        <ele>898.5</ele>
        <time>2012-08-23T06:59:21Z</time>
      </trkpt>
      <trkpt lat="45.05054" lon="5.4435">
        <ele>899.2</ele>
        <time>2012-08-23T06:59:25Z</time>
      </trkpt>
      <trkpt lat="45.05056" lon="5.44344">
        <ele>899.4</ele>
        <time>2012-08-23T06:59:27Z</time>
      </trkpt>
      <trkpt lat="45.05061" lon="5.44325">
        <ele>898.7</ele>
        <time>2012-08-23T06:59:33Z</time>
      </trkpt>
      <trkpt lat="45.05063" lon="5.4431">
        <ele>899</ele>
        <time>2012-08-23T06:59:38Z</time>
      </trkpt>
      <trkpt lat="45.05065" lon="5.44304">
        <ele>900</ele>
        <time>2012-08-23T06:59:40Z</time>
      </trkpt>
      <trkpt lat="45.05069" lon="5.44293">
        <ele>901.7</ele>
        <time>2012-08-23T06:59:44Z</time>
      </trkpt>
      <trkpt lat="45.05074" lon="5.44287">
        <ele>903.4</ele>
        <time>2012-08-23T06:59:48Z</time>
      </trkpt>
      <trkpt lat="45.05077" lon="5.44284">
        <ele>904.2</ele>
        <time>2012-08-23T06:59:50Z</time>
      </trkpt>
      <trkpt lat="45.0508" lon="5.4428">
        <ele>904.2</ele>
        <time>2012-08-23T06:59:52Z</time>
      </trkpt>
      <trkpt lat="45.05081" lon="5.44277">
        <ele>904</ele>
        <time>2012-08-23T06:59:53Z</time>
      </trkpt>
      <trkpt lat="45.05082" lon="5.44272">
        <ele>903.7</ele>
        <time>2012-08-23T06:59:55Z</time>
      </trkpt>
      <trkpt lat="45.05085" lon="5.44267">
        <ele>903.4</ele>
        <time>2012-08-23T06:59:57Z</time>
      </trkpt>
      <trkpt lat="45.0509" lon="5.44265">
        <ele>904</ele>
        <time>2012-08-23T06:59:59Z</time>
      </trkpt>
      <trkpt lat="45.05096" lon="5.4426">
        <ele>904</ele>
        <time>2012-08-23T07:00:02Z</time>
      </trkpt>
      <trkpt lat="45.05104" lon="5.44256">
        <ele>903.7</ele>
        <time>2012-08-23T07:00:05Z</time>
      </trkpt>
      <trkpt lat="45.05107" lon="5.44254">
        <ele>903.4</ele>
        <time>2012-08-23T07:00:06Z</time>
      </trkpt>
      <trkpt lat="45.05123" lon="5.44252">
        <ele>902.4</ele>
        <time>2012-08-23T07:00:10Z</time>
      </trkpt>
      <trkpt lat="45.05139" lon="5.44244">
        <ele>898.9</ele>
        <time>2012-08-23T07:00:14Z</time>
      </trkpt>
      <trkpt lat="45.05144" lon="5.44241">
        <ele>898</ele>
        <time>2012-08-23T07:00:15Z</time>
      </trkpt>
      <trkpt lat="45.05149" lon="5.44236">
        <ele>897.5</ele>
        <time>2012-08-23T07:00:16Z</time>
      </trkpt>
      <trkpt lat="45.05161" lon="5.44219">
        <ele>897.5</ele>
        <time>2012-08-23T07:00:19Z</time>
      </trkpt>
      <trkpt lat="45.05177" lon="5.44189">
        <ele>897</ele>
        <time>2012-08-23T07:00:24Z</time>
      </trkpt>
      <trkpt lat="45.05185" lon="5.44175">
        <ele>896.7</ele>
        <time>2012-08-23T07:00:27Z</time>
      </trkpt>
      <trkpt lat="45.05195" lon="5.44162">
        <ele>895.5</ele>
        <time>2012-08-23T07:00:32Z</time>
      </trkpt>
      <trkpt lat="45.05197" lon="5.44161">
        <ele>895.7</ele>
        <time>2012-08-23T07:00:38Z</time>
      </trkpt>
      <trkpt lat="45.05204" lon="5.44153">
        <ele>895.5</ele>
        <time>2012-08-23T07:00:43Z</time>
      </trkpt>
      <trkpt lat="45.05211" lon="5.44147">
        <ele>895.5</ele>
        <time>2012-08-23T07:00:46Z</time>
      </trkpt>
      <trkpt lat="45.05219" lon="5.44144">
        <ele>895.2</ele>
        <time>2012-08-23T07:00:49Z</time>
      </trkpt>
      <trkpt lat="45.05232" lon="5.44136">
        <ele>896</ele>
        <time>2012-08-23T07:00:54Z</time>
      </trkpt>
      <trkpt lat="45.05243" lon="5.44127">
        <ele>897.5</ele>
        <time>2012-08-23T07:00:59Z</time>
      </trkpt>
      <trkpt lat="45.05245" lon="5.44125">
        <ele>897.4</ele>
        <time>2012-08-23T07:01:00Z</time>
      </trkpt>
      <trkpt lat="45.05259" lon="5.44114">
        <ele>897</ele>
        <time>2012-08-23T07:01:06Z</time>
      </trkpt>
      <trkpt lat="45.05269" lon="5.44104">
        <ele>894.5</ele>
        <time>2012-08-23T07:01:10Z</time>
      </trkpt>
      <trkpt lat="45.05288" lon="5.44087">
        <ele>891.2</ele>
        <time>2012-08-23T07:01:16Z</time>
      </trkpt>
      <trkpt lat="45.0529" lon="5.44085">
        <ele>890.7</ele>
        <time>2012-08-23T07:01:17Z</time>
      </trkpt>
      <trkpt lat="45.05308" lon="5.44061">
        <ele>889.7</ele>
        <time>2012-08-23T07:01:24Z</time>
      </trkpt>
      <trkpt lat="45.05311" lon="5.44058">
        <ele>889.2</ele>
        <time>2012-08-23T07:01:25Z</time>
      </trkpt>
      <trkpt lat="45.0532" lon="5.44052">
        <ele>890</ele>
        <time>2012-08-23T07:01:28Z</time>
      </trkpt>
      <trkpt lat="45.05325" lon="5.4405">
        <ele>890.2</ele>
        <time>2012-08-23T07:01:30Z</time>
      </trkpt>
      <trkpt lat="45.05329" lon="5.44047">
        <ele>889.7</ele>
        <time>2012-08-23T07:01:32Z</time>
      </trkpt>
      <trkpt lat="45.05332" lon="5.44044">
        <ele>889.2</ele>
        <time>2012-08-23T07:01:34Z</time>
      </trkpt>
      <trkpt lat="45.05334" lon="5.4404">
        <ele>888.5</ele>
        <time>2012-08-23T07:01:36Z</time>
      </trkpt>
      <trkpt lat="45.05338" lon="5.44036">
        <ele>887.7</ele>
        <time>2012-08-23T07:01:38Z</time>
      </trkpt>
      <trkpt lat="45.0534" lon="5.44031">
        <ele>887</ele>
        <time>2012-08-23T07:01:40Z</time>
      </trkpt>
      <trkpt lat="45.05343" lon="5.44025">
        <ele>885.5</ele>
        <time>2012-08-23T07:01:43Z</time>
      </trkpt>
      <trkpt lat="45.05345" lon="5.44022">
        <ele>885.4</ele>
        <time>2012-08-23T07:01:45Z</time>
      </trkpt>
      <trkpt lat="45.0535" lon="5.44023">
        <ele>883.5</ele>
        <time>2012-08-23T07:01:49Z</time>
      </trkpt>
      <trkpt lat="45.05353" lon="5.44021">
        <ele>882.5</ele>
        <time>2012-08-23T07:01:51Z</time>
      </trkpt>
      <trkpt lat="45.05362" lon="5.44013">
        <ele>880</ele>
        <time>2012-08-23T07:01:55Z</time>
      </trkpt>
      <trkpt lat="45.05368" lon="5.44004">
        <ele>879</ele>
        <time>2012-08-23T07:01:59Z</time>
      </trkpt>
      <trkpt lat="45.05371" lon="5.44">
        <ele>878.5</ele>
        <time>2012-08-23T07:02:01Z</time>
      </trkpt>
      <trkpt lat="45.05376" lon="5.43992">
        <ele>876.4</ele>
        <time>2012-08-23T07:02:05Z</time>
      </trkpt>
      <trkpt lat="45.05378" lon="5.43988">
        <ele>875.9</ele>
        <time>2012-08-23T07:02:07Z</time>
      </trkpt>
      <trkpt lat="45.05379" lon="5.43982">
        <ele>875.2</ele>
        <time>2012-08-23T07:02:09Z</time>
      </trkpt>
      <trkpt lat="45.05382" lon="5.43977">
        <ele>875.7</ele>
        <time>2012-08-23T07:02:11Z</time>
      </trkpt>
      <trkpt lat="45.05384" lon="5.43975">
        <ele>875.4</ele>
        <time>2012-08-23T07:02:12Z</time>
      </trkpt>
      <trkpt lat="45.05391" lon="5.43951">
        <ele>874.2</ele>
        <time>2012-08-23T07:02:18Z</time>
      </trkpt>
      <trkpt lat="45.05393" lon="5.43942">
        <ele>874</ele>
        <time>2012-08-23T07:02:20Z</time>
      </trkpt>
      <trkpt lat="45.054" lon="5.43925">
        <ele>874.5</ele>
        <time>2012-08-23T07:02:25Z</time>
      </trkpt>
      <trkpt lat="45.05402" lon="5.43918">
        <ele>873.7</ele>
        <time>2012-08-23T07:02:27Z</time>
      </trkpt>
      <trkpt lat="45.05404" lon="5.43915">
        <ele>873.7</ele>
        <time>2012-08-23T07:02:28Z</time>
      </trkpt>
      <trkpt lat="45.05407" lon="5.4391">
        <ele>873.4</ele>
        <time>2012-08-23T07:02:30Z</time>
      </trkpt>
      <trkpt lat="45.05424" lon="5.43894">
        <ele>873.5</ele>
        <time>2012-08-23T07:02:36Z</time>
      </trkpt>
      <trkpt lat="45.0543" lon="5.4389">
        <ele>874</ele>
        <time>2012-08-23T07:02:39Z</time>
      </trkpt>
      <trkpt lat="45.05434" lon="5.43885">
        <ele>875.4</ele>
        <time>2012-08-23T07:02:42Z</time>
      </trkpt>
      <trkpt lat="45.05442" lon="5.43881">
        <ele>876.7</ele>
        <time>2012-08-23T07:02:47Z</time>
      </trkpt>
      <trkpt lat="45.05447" lon="5.43877">
        <ele>875.5</ele>
        <time>2012-08-23T07:02:50Z</time>
      </trkpt>
      <trkpt lat="45.05458" lon="5.43863">
        <ele>874</ele>
        <time>2012-08-23T07:02:56Z</time>
      </trkpt>
      <trkpt lat="45.05466" lon="5.43856">
        <ele>872.2</ele>
        <time>2012-08-23T07:03:01Z</time>
      </trkpt>
      <trkpt lat="45.05473" lon="5.43851">
        <ele>871.4</ele>
        <time>2012-08-23T07:03:05Z</time>
      </trkpt>
      <trkpt lat="45.05476" lon="5.43849">
        <ele>869.5</ele>
        <time>2012-08-23T07:03:07Z</time>
      </trkpt>
      <trkpt lat="45.05479" lon="5.43845">
        <ele>869</ele>
        <time>2012-08-23T07:03:09Z</time>
      </trkpt>
      <trkpt lat="45.05487" lon="5.4384">
        <ele>868.7</ele>
        <time>2012-08-23T07:03:12Z</time>
      </trkpt>
      <trkpt lat="45.05494" lon="5.43837">
        <ele>870</ele>
        <time>2012-08-23T07:03:15Z</time>
      </trkpt>
      <trkpt lat="45.05499" lon="5.43834">
        <ele>869</ele>
        <time>2012-08-23T07:03:18Z</time>
      </trkpt>
      <trkpt lat="45.05509" lon="5.43828">
        <ele>868.7</ele>
        <time>2012-08-23T07:03:24Z</time>
      </trkpt>
      <trkpt lat="45.05513" lon="5.43824">
        <ele>869.7</ele>
        <time>2012-08-23T07:03:27Z</time>
      </trkpt>
      <trkpt lat="45.05518" lon="5.43822">
        <ele>869.4</ele>
        <time>2012-08-23T07:03:29Z</time>
      </trkpt>
      <trkpt lat="45.05525" lon="5.43818">
        <ele>868.4</ele>
        <time>2012-08-23T07:03:32Z</time>
      </trkpt>
      <trkpt lat="45.05527" lon="5.43816">
        <ele>868</ele>
        <time>2012-08-23T07:03:33Z</time>
      </trkpt>
      <trkpt lat="45.05532" lon="5.43812">
        <ele>868</ele>
        <time>2012-08-23T07:03:35Z</time>
      </trkpt>
      <trkpt lat="45.05534" lon="5.43812">
        <ele>867.7</ele>
        <time>2012-08-23T07:03:36Z</time>
      </trkpt>
      <trkpt lat="45.05537" lon="5.43809">
        <ele>867.5</ele>
        <time>2012-08-23T07:03:38Z</time>
      </trkpt>
      <trkpt lat="45.05543" lon="5.43805">
        <ele>866.7</ele>
        <time>2012-08-23T07:03:41Z</time>
      </trkpt>
      <trkpt lat="45.0555" lon="5.438">
        <ele>863.7</ele>
        <time>2012-08-23T07:03:46Z</time>
      </trkpt>
      <trkpt lat="45.05559" lon="5.43793">
        <ele>860.2</ele>
        <time>2012-08-23T07:03:54Z</time>
      </trkpt>
      <trkpt lat="45.05562" lon="5.43794">
        <ele>858.7</ele>
        <time>2012-08-23T07:03:58Z</time>
      </trkpt>
      <trkpt lat="45.05564" lon="5.43793">
        <ele>860.5</ele>
        <time>2012-08-23T07:04:03Z</time>
      </trkpt>
      <trkpt lat="45.05567" lon="5.43792">
        <ele>861.7</ele>
        <time>2012-08-23T07:04:12Z</time>
      </trkpt>
      <trkpt lat="45.05568" lon="5.43793">
        <ele>859.5</ele>
        <time>2012-08-23T07:04:17Z</time>
      </trkpt>
      <trkpt lat="45.05569" lon="5.43793">
        <ele>857.2</ele>
        <time>2012-08-23T07:04:25Z</time>
      </trkpt>
      <trkpt lat="45.05573" lon="5.43795">
        <ele>853.2</ele>
        <time>2012-08-23T07:04:46Z</time>
      </trkpt>
      <trkpt lat="45.05573" lon="5.43795">
        <ele>851.5</ele>
        <time>2012-08-23T07:04:55Z</time>
      </trkpt>
      <trkpt lat="45.05572" lon="5.43795">
        <ele>851</ele>
        <time>2012-08-23T07:05:01Z</time>
      </trkpt>
      <trkpt lat="45.05566" lon="5.43794">
        <ele>848.9</ele>
        <time>2012-08-23T07:05:27Z</time>
      </trkpt>
      <trkpt lat="45.05565" lon="5.43793">
        <ele>848.5</ele>
        <time>2012-08-23T07:05:35Z</time>
      </trkpt>
      <trkpt lat="45.05564" lon="5.43793">
        <ele>848.2</ele>
        <time>2012-08-23T07:05:42Z</time>
      </trkpt>
      <trkpt lat="45.05562" lon="5.43792">
        <ele>847.7</ele>
        <time>2012-08-23T07:05:51Z</time>
      </trkpt>
      <trkpt lat="45.05562" lon="5.43792">
        <ele>847.5</ele>
        <time>2012-08-23T07:05:55Z</time>
      </trkpt>
      <trkpt lat="45.05561" lon="5.43792">
        <ele>847.4</ele>
        <time>2012-08-23T07:06:03Z</time>
      </trkpt>
      <trkpt lat="45.05561" lon="5.43792">
        <ele>851.9</ele>
        <time>2012-08-23T07:06:34Z</time>
      </trkpt>
      <trkpt lat="45.05561" lon="5.43792">
        <ele>852.7</ele>
        <time>2012-08-23T07:06:46Z</time>
      </trkpt>
      <trkpt lat="45.05565" lon="5.43791">
        <ele>856.5</ele>
        <time>2012-08-23T07:06:57Z</time>
      </trkpt>
      <trkpt lat="45.05565" lon="5.43791">
        <ele>857.2</ele>
        <time>2012-08-23T07:07:03Z</time>
      </trkpt>
      <trkpt lat="45.05565" lon="5.43791">
        <ele>857.5</ele>
        <time>2012-08-23T07:07:08Z</time>
      </trkpt>
      <trkpt lat="45.05564" lon="5.43791">
        <ele>854.7</ele>
        <time>2012-08-23T07:07:16Z</time>
      </trkpt>
      <trkpt lat="45.05559" lon="5.4379">
        <ele>849.2</ele>
        <time>2012-08-23T07:07:27Z</time>
      </trkpt>
      <trkpt lat="45.05559" lon="5.43789">
        <ele>850</ele>
        <time>2012-08-23T07:07:35Z</time>
      </trkpt>
      <trkpt lat="45.05559" lon="5.43789">
        <ele>851</ele>
        <time>2012-08-23T07:07:46Z</time>
      </trkpt>
      <trkpt lat="45.05569" lon="5.43789">
        <ele>860.5</ele>
        <time>2012-08-23T07:07:56Z</time>
      </trkpt>
      <trkpt lat="45.05575" lon="5.4379">
        <ele>866.7</ele>
        <time>2012-08-23T07:08:04Z</time>
      </trkpt>
      <trkpt lat="45.05578" lon="5.4379">
        <ele>869</ele>
        <time>2012-08-23T07:08:09Z</time>
      </trkpt>
      <trkpt lat="45.05575" lon="5.43791">
        <ele>867.2</ele>
        <time>2012-08-23T07:08:16Z</time>
      </trkpt>
      <trkpt lat="45.05574" lon="5.4379">
        <ele>867.2</ele>
        <time>2012-08-23T07:08:19Z</time>
      </trkpt>
      <trkpt lat="45.05572" lon="5.4379">
        <ele>866.7</ele>
        <time>2012-08-23T07:08:25Z</time>
      </trkpt>
      <trkpt lat="45.05568" lon="5.43791">
        <ele>858.7</ele>
        <time>2012-08-23T07:08:35Z</time>
      </trkpt>
      <trkpt lat="45.05561" lon="5.43791">
        <ele>848.9</ele>
        <time>2012-08-23T07:08:57Z</time>
      </trkpt>
      <trkpt lat="45.0556" lon="5.4379">
        <ele>848.5</ele>
        <time>2012-08-23T07:09:26Z</time>
      </trkpt>
      <trkpt lat="45.05563" lon="5.43792">
        <ele>851.9</ele>
        <time>2012-08-23T07:09:38Z</time>
      </trkpt>
      <trkpt lat="45.05568" lon="5.43792">
        <ele>854.2</ele>
        <time>2012-08-23T07:09:53Z</time>
      </trkpt>
      <trkpt lat="45.05568" lon="5.43791">
        <ele>854.9</ele>
        <time>2012-08-23T07:10:05Z</time>
      </trkpt>
      <trkpt lat="45.05564" lon="5.43788">
        <ele>856.7</ele>
        <time>2012-08-23T07:10:16Z</time>
      </trkpt>
      <trkpt lat="45.05562" lon="5.43788">
        <ele>856.7</ele>
        <time>2012-08-23T07:10:21Z</time>
      </trkpt>
      <trkpt lat="45.05566" lon="5.43787">
        <ele>862.7</ele>
        <time>2012-08-23T07:10:35Z</time>
      </trkpt>
      <trkpt lat="45.05565" lon="5.43787">
        <ele>861.4</ele>
        <time>2012-08-23T07:10:41Z</time>
      </trkpt>
      <trkpt lat="45.05563" lon="5.43787">
        <ele>853.4</ele>
        <time>2012-08-23T07:10:52Z</time>
      </trkpt>
      <trkpt lat="45.05561" lon="5.43787">
        <ele>847.4</ele>
        <time>2012-08-23T07:10:58Z</time>
      </trkpt>
      <trkpt lat="45.05556" lon="5.43787">
        <ele>841.5</ele>
        <time>2012-08-23T07:11:23Z</time>
      </trkpt>
      <trkpt lat="45.05561" lon="5.43787">
        <ele>844.9</ele>
        <time>2012-08-23T07:11:32Z</time>
      </trkpt>
      <trkpt lat="45.0557" lon="5.43786">
        <ele>856.2</ele>
        <time>2012-08-23T07:11:58Z</time>
      </trkpt>
      <trkpt lat="45.05572" lon="5.43786">
        <ele>860</ele>
        <time>2012-08-23T07:12:09Z</time>
      </trkpt>
      <trkpt lat="45.05572" lon="5.43786">
        <ele>864.5</ele>
        <time>2012-08-23T07:13:00Z</time>
      </trkpt>
      <trkpt lat="45.05567" lon="5.43788">
        <ele>851.5</ele>
        <time>2012-08-23T07:13:13Z</time>
      </trkpt>
      <trkpt lat="45.05561" lon="5.43788">
        <ele>846</ele>
        <time>2012-08-23T07:13:23Z</time>
      </trkpt>
      <trkpt lat="45.05559" lon="5.43788">
        <ele>844.7</ele>
        <time>2012-08-23T07:13:28Z</time>
      </trkpt>
      <trkpt lat="45.05561" lon="5.43788">
        <ele>847.5</ele>
        <time>2012-08-23T07:13:32Z</time>
      </trkpt>
      <trkpt lat="45.05562" lon="5.43787">
        <ele>850.5</ele>
        <time>2012-08-23T07:13:42Z</time>
      </trkpt>
      <trkpt lat="45.05555" lon="5.43784">
        <ele>853.2</ele>
        <time>2012-08-23T07:13:53Z</time>
      </trkpt>
      <trkpt lat="45.05553" lon="5.43783">
        <ele>854</ele>
        <time>2012-08-23T07:13:57Z</time>
      </trkpt>
      <trkpt lat="45.05552" lon="5.43783">
        <ele>852</ele>
        <time>2012-08-23T07:14:01Z</time>
      </trkpt>
      <trkpt lat="45.05548" lon="5.43782">
        <ele>850.7</ele>
        <time>2012-08-23T07:14:39Z</time>
      </trkpt>
      <trkpt lat="45.05551" lon="5.43783">
        <ele>852.2</ele>
        <time>2012-08-23T07:14:43Z</time>
      </trkpt>
      <trkpt lat="45.05554" lon="5.43783">
        <ele>853</ele>
        <time>2012-08-23T07:14:52Z</time>
      </trkpt>
      <trkpt lat="45.05557" lon="5.43783">
        <ele>853</ele>
        <time>2012-08-23T07:15:03Z</time>
      </trkpt>
      <trkpt lat="45.0556" lon="5.43782">
        <ele>852.7</ele>
        <time>2012-08-23T07:15:33Z</time>
      </trkpt>
      <trkpt lat="45.05559" lon="5.43779">
        <ele>854.9</ele>
        <time>2012-08-23T07:15:39Z</time>
      </trkpt>
      <trkpt lat="45.0556" lon="5.43779">
        <ele>854.9</ele>
        <time>2012-08-23T07:15:45Z</time>
      </trkpt>
      <trkpt lat="45.0556" lon="5.43777">
        <ele>853.7</ele>
        <time>2012-08-23T07:15:50Z</time>
      </trkpt>
      <trkpt lat="45.0556" lon="5.43775">
        <ele>853.7</ele>
        <time>2012-08-23T07:15:56Z</time>
      </trkpt>
      <trkpt lat="45.0556" lon="5.43772">
        <ele>857</ele>
        <time>2012-08-23T07:16:01Z</time>
      </trkpt>
      <trkpt lat="45.05559" lon="5.43768">
        <ele>860.9</ele>
        <time>2012-08-23T07:16:05Z</time>
      </trkpt>
      <trkpt lat="45.05559" lon="5.43768">
        <ele>862.5</ele>
        <time>2012-08-23T07:16:08Z</time>
      </trkpt>
      <trkpt lat="45.0556" lon="5.43769">
        <ele>863.2</ele>
        <time>2012-08-23T07:16:15Z</time>
      </trkpt>
      <trkpt lat="45.05558" lon="5.4377">
        <ele>863.2</ele>
        <time>2012-08-23T07:16:20Z</time>
      </trkpt>
      <trkpt lat="45.05557" lon="5.43771">
        <ele>861</ele>
        <time>2012-08-23T07:16:24Z</time>
      </trkpt>
      <trkpt lat="45.05556" lon="5.43773">
        <ele>858.5</ele>
        <time>2012-08-23T07:16:26Z</time>
      </trkpt>
      <trkpt lat="45.05558" lon="5.43774">
        <ele>858.5</ele>
        <time>2012-08-23T07:16:29Z</time>
      </trkpt>
      <trkpt lat="45.0556" lon="5.43779">
        <ele>852.5</ele>
        <time>2012-08-23T07:16:33Z</time>
      </trkpt>
      <trkpt lat="45.05561" lon="5.43783">
        <ele>848.4</ele>
        <time>2012-08-23T07:16:38Z</time>
      </trkpt>
      <trkpt lat="45.05564" lon="5.43786">
        <ele>847.5</ele>
        <time>2012-08-23T07:16:45Z</time>
      </trkpt>
      <trkpt lat="45.05565" lon="5.43787">
        <ele>847.4</ele>
        <time>2012-08-23T07:16:48Z</time>
      </trkpt>
      <trkpt lat="45.05569" lon="5.43789">
        <ele>847.7</ele>
        <time>2012-08-23T07:16:54Z</time>
      </trkpt>
      <trkpt lat="45.05572" lon="5.43789">
        <ele>849.5</ele>
        <time>2012-08-23T07:16:57Z</time>
      </trkpt>
      <trkpt lat="45.05575" lon="5.43791">
        <ele>851.2</ele>
        <time>2012-08-23T07:17:00Z</time>
      </trkpt>
      <trkpt lat="45.05577" lon="5.4379">
        <ele>852.2</ele>
        <time>2012-08-23T07:17:05Z</time>
      </trkpt>
      <trkpt lat="45.05579" lon="5.43791">
        <ele>853</ele>
        <time>2012-08-23T07:17:10Z</time>
      </trkpt>
      <trkpt lat="45.0558" lon="5.43791">
        <ele>854.2</ele>
        <time>2012-08-23T07:17:17Z</time>
      </trkpt>
      <trkpt lat="45.05577" lon="5.4379">
        <ele>856.7</ele>
        <time>2012-08-23T07:17:33Z</time>
      </trkpt>
      <trkpt lat="45.05571" lon="5.43789">
        <ele>854.7</ele>
        <time>2012-08-23T07:18:02Z</time>
      </trkpt>
      <trkpt lat="45.05572" lon="5.43792">
        <ele>857.9</ele>
        <time>2012-08-23T07:18:14Z</time>
      </trkpt>
      <trkpt lat="45.05571" lon="5.43794">
        <ele>856.7</ele>
        <time>2012-08-23T07:18:19Z</time>
      </trkpt>
      <trkpt lat="45.05568" lon="5.43797">
        <ele>855.4</ele>
        <time>2012-08-23T07:18:27Z</time>
      </trkpt>
      <trkpt lat="45.05566" lon="5.43798">
        <ele>854.4</ele>
        <time>2012-08-23T07:18:30Z</time>
      </trkpt>
      <trkpt lat="45.05558" lon="5.43806">
        <ele>855.9</ele>
        <time>2012-08-23T07:18:41Z</time>
      </trkpt>
      <trkpt lat="45.05553" lon="5.43808">
        <ele>857</ele>
        <time>2012-08-23T07:18:48Z</time>
      </trkpt>
      <trkpt lat="45.05551" lon="5.43809">
        <ele>857.4</ele>
        <time>2012-08-23T07:18:51Z</time>
      </trkpt>
      <trkpt lat="45.05546" lon="5.43811">
        <ele>855.7</ele>
        <time>2012-08-23T07:18:59Z</time>
      </trkpt>
      <trkpt lat="45.05544" lon="5.43812">
        <ele>855.7</ele>
        <time>2012-08-23T07:19:01Z</time>
      </trkpt>
      <trkpt lat="45.05534" lon="5.43818">
        <ele>856</ele>
        <time>2012-08-23T07:19:10Z</time>
      </trkpt>
      <trkpt lat="45.05528" lon="5.43822">
        <ele>856.7</ele>
        <time>2012-08-23T07:19:15Z</time>
      </trkpt>
      <trkpt lat="45.0552" lon="5.43826">
        <ele>859.7</ele>
        <time>2012-08-23T07:19:21Z</time>
      </trkpt>
      <trkpt lat="45.05516" lon="5.43829">
        <ele>860.2</ele>
        <time>2012-08-23T07:19:24Z</time>
      </trkpt>
      <trkpt lat="45.05507" lon="5.43834">
        <ele>858.7</ele>
        <time>2012-08-23T07:19:30Z</time>
      </trkpt>
      <trkpt lat="45.05501" lon="5.43838">
        <ele>857.7</ele>
        <time>2012-08-23T07:19:34Z</time>
      </trkpt>
      <trkpt lat="45.05495" lon="5.4384">
        <ele>858.7</ele>
        <time>2012-08-23T07:19:38Z</time>
      </trkpt>
      <trkpt lat="45.05488" lon="5.43845">
        <ele>858</ele>
        <time>2012-08-23T07:19:42Z</time>
      </trkpt>
      <trkpt lat="45.05478" lon="5.43855">
        <ele>858</ele>
        <time>2012-08-23T07:19:50Z</time>
      </trkpt>
      <trkpt lat="45.05469" lon="5.43863">
        <ele>861.4</ele>
        <time>2012-08-23T07:19:57Z</time>
      </trkpt>
      <trkpt lat="45.05467" lon="5.43866">
        <ele>861.5</ele>
        <time>2012-08-23T07:19:59Z</time>
      </trkpt>
      <trkpt lat="45.05464" lon="5.43868">
        <ele>863.2</ele>
        <time>2012-08-23T07:20:01Z</time>
      </trkpt>
      <trkpt lat="45.0546" lon="5.43873">
        <ele>864.7</ele>
        <time>2012-08-23T07:20:04Z</time>
      </trkpt>
      <trkpt lat="45.05452" lon="5.43882">
        <ele>864.5</ele>
        <time>2012-08-23T07:20:11Z</time>
      </trkpt>
      <trkpt lat="45.05448" lon="5.43886">
        <ele>864.2</ele>
        <time>2012-08-23T07:20:15Z</time>
      </trkpt>
      <trkpt lat="45.05436" lon="5.43894">
        <ele>862.5</ele>
        <time>2012-08-23T07:20:21Z</time>
      </trkpt>
      <trkpt lat="45.05432" lon="5.43895">
        <ele>863.5</ele>
        <time>2012-08-23T07:20:23Z</time>
      </trkpt>
      <trkpt lat="45.05428" lon="5.43899">
        <ele>862.4</ele>
        <time>2012-08-23T07:20:26Z</time>
      </trkpt>
      <trkpt lat="45.05425" lon="5.43899">
        <ele>863.5</ele>
        <time>2012-08-23T07:20:28Z</time>
      </trkpt>
      <trkpt lat="45.05419" lon="5.43905">
        <ele>862.5</ele>
        <time>2012-08-23T07:20:32Z</time>
      </trkpt>
      <trkpt lat="45.05415" lon="5.4391">
        <ele>862.2</ele>
        <time>2012-08-23T07:20:35Z</time>
      </trkpt>
      <trkpt lat="45.05411" lon="5.43913">
        <ele>861.9</ele>
        <time>2012-08-23T07:20:40Z</time>
      </trkpt>
      <trkpt lat="45.05411" lon="5.43913">
        <ele>862</ele>
        <time>2012-08-23T07:20:43Z</time>
      </trkpt>
      <trkpt lat="45.05409" lon="5.43913">
        <ele>863.2</ele>
        <time>2012-08-23T07:20:52Z</time>
      </trkpt>
      <trkpt lat="45.05405" lon="5.43922">
        <ele>862.7</ele>
        <time>2012-08-23T07:21:01Z</time>
      </trkpt>
      <trkpt lat="45.05403" lon="5.43926">
        <ele>862.5</ele>
        <time>2012-08-23T07:21:05Z</time>
      </trkpt>
      <trkpt lat="45.05402" lon="5.4393">
        <ele>863</ele>
        <time>2012-08-23T07:21:07Z</time>
      </trkpt>
      <trkpt lat="45.05399" lon="5.43936">
        <ele>862.2</ele>
        <time>2012-08-23T07:21:11Z</time>
      </trkpt>
      <trkpt lat="45.05397" lon="5.43939">
        <ele>861.7</ele>
        <time>2012-08-23T07:21:14Z</time>
      </trkpt>
      <trkpt lat="45.05394" lon="5.43945">
        <ele>865.2</ele>
        <time>2012-08-23T07:21:17Z</time>
      </trkpt>
      <trkpt lat="45.05394" lon="5.43949">
        <ele>864</ele>
        <time>2012-08-23T07:21:20Z</time>
      </trkpt>
      <trkpt lat="45.05393" lon="5.43957">
        <ele>863.7</ele>
        <time>2012-08-23T07:21:24Z</time>
      </trkpt>
      <trkpt lat="45.05387" lon="5.43969">
        <ele>865</ele>
        <time>2012-08-23T07:21:32Z</time>
      </trkpt>
      <trkpt lat="45.05384" lon="5.43983">
        <ele>867.7</ele>
        <time>2012-08-23T07:21:43Z</time>
      </trkpt>
      <trkpt lat="45.05382" lon="5.43989">
        <ele>869.7</ele>
        <time>2012-08-23T07:21:47Z</time>
      </trkpt>
      <trkpt lat="45.0538" lon="5.43993">
        <ele>869.7</ele>
        <time>2012-08-23T07:21:49Z</time>
      </trkpt>
      <trkpt lat="45.05377" lon="5.43998">
        <ele>870.7</ele>
        <time>2012-08-23T07:21:53Z</time>
      </trkpt>
      <trkpt lat="45.05373" lon="5.44004">
        <ele>873.2</ele>
        <time>2012-08-23T07:21:57Z</time>
      </trkpt>
      <trkpt lat="45.05369" lon="5.44009">
        <ele>873</ele>
        <time>2012-08-23T07:22:01Z</time>
      </trkpt>
      <trkpt lat="45.05363" lon="5.44012">
        <ele>872.7</ele>
        <time>2012-08-23T07:22:05Z</time>
      </trkpt>
      <trkpt lat="45.05355" lon="5.44018">
        <ele>876</ele>
        <time>2012-08-23T07:22:14Z</time>
      </trkpt>
      <trkpt lat="45.05351" lon="5.44019">
        <ele>876.2</ele>
        <time>2012-08-23T07:22:20Z</time>
      </trkpt>
      <trkpt lat="45.05349" lon="5.44022">
        <ele>877</ele>
        <time>2012-08-23T07:22:27Z</time>
      </trkpt>
      <trkpt lat="45.05347" lon="5.44026">
        <ele>877</ele>
        <time>2012-08-23T07:22:32Z</time>
      </trkpt>
      <trkpt lat="45.05346" lon="5.44028">
        <ele>877.7</ele>
        <time>2012-08-23T07:22:35Z</time>
      </trkpt>
      <trkpt lat="45.05342" lon="5.44032">
        <ele>879.2</ele>
        <time>2012-08-23T07:22:42Z</time>
      </trkpt>
      <trkpt lat="45.0534" lon="5.44035">
        <ele>879.7</ele>
        <time>2012-08-23T07:22:45Z</time>
      </trkpt>
      <trkpt lat="45.05338" lon="5.44037">
        <ele>879.7</ele>
        <time>2012-08-23T07:22:49Z</time>
      </trkpt>
      <trkpt lat="45.0533" lon="5.44045">
        <ele>881.5</ele>
        <time>2012-08-23T07:23:01Z</time>
      </trkpt>
      <trkpt lat="45.05329" lon="5.44048">
        <ele>883.2</ele>
        <time>2012-08-23T07:23:06Z</time>
      </trkpt>
      <trkpt lat="45.05325" lon="5.44052">
        <ele>883.7</ele>
        <time>2012-08-23T07:23:09Z</time>
      </trkpt>
      <trkpt lat="45.05319" lon="5.44056">
        <ele>883.4</ele>
        <time>2012-08-23T07:23:13Z</time>
      </trkpt>
      <trkpt lat="45.05314" lon="5.44061">
        <ele>883.5</ele>
        <time>2012-08-23T07:23:17Z</time>
      </trkpt>
      <trkpt lat="45.05312" lon="5.44064">
        <ele>883.5</ele>
        <time>2012-08-23T07:23:19Z</time>
      </trkpt>
      <trkpt lat="45.05308" lon="5.44071">
        <ele>883.7</ele>
        <time>2012-08-23T07:23:23Z</time>
      </trkpt>
      <trkpt lat="45.05301" lon="5.44078">
        <ele>883.5</ele>
        <time>2012-08-23T07:23:28Z</time>
      </trkpt>
      <trkpt lat="45.05297" lon="5.44081">
        <ele>884.2</ele>
        <time>2012-08-23T07:23:31Z</time>
      </trkpt>
      <trkpt lat="45.05288" lon="5.4409">
        <ele>885</ele>
        <time>2012-08-23T07:23:39Z</time>
      </trkpt>
      <trkpt lat="45.05286" lon="5.44091">
        <ele>885.5</ele>
        <time>2012-08-23T07:23:40Z</time>
      </trkpt>
      <trkpt lat="45.05277" lon="5.441">
        <ele>886</ele>
        <time>2012-08-23T07:23:46Z</time>
      </trkpt>
      <trkpt lat="45.05273" lon="5.44103">
        <ele>886.4</ele>
        <time>2012-08-23T07:23:49Z</time>
      </trkpt>
      <trkpt lat="45.05269" lon="5.44107">
        <ele>887.5</ele>
        <time>2012-08-23T07:23:53Z</time>
      </trkpt>
      <trkpt lat="45.05259" lon="5.44117">
        <ele>892.2</ele>
        <time>2012-08-23T07:24:04Z</time>
      </trkpt>
      <trkpt lat="45.05257" lon="5.44118">
        <ele>892.7</ele>
        <time>2012-08-23T07:24:06Z</time>
      </trkpt>
      <trkpt lat="45.05255" lon="5.44121">
        <ele>892.7</ele>
        <time>2012-08-23T07:24:08Z</time>
      </trkpt>
      <trkpt lat="45.05252" lon="5.44123">
        <ele>892</ele>
        <time>2012-08-23T07:24:10Z</time>
      </trkpt>
      <trkpt lat="45.05249" lon="5.44125">
        <ele>891.7</ele>
        <time>2012-08-23T07:24:12Z</time>
      </trkpt>
      <trkpt lat="45.05247" lon="5.44127">
        <ele>892</ele>
        <time>2012-08-23T07:24:14Z</time>
      </trkpt>
      <trkpt lat="45.05243" lon="5.4413">
        <ele>893</ele>
        <time>2012-08-23T07:24:17Z</time>
      </trkpt>
      <trkpt lat="45.05239" lon="5.44132">
        <ele>893.4</ele>
        <time>2012-08-23T07:24:19Z</time>
      </trkpt>
      <trkpt lat="45.05231" lon="5.44137">
        <ele>893</ele>
        <time>2012-08-23T07:24:25Z</time>
      </trkpt>
      <trkpt lat="45.05225" lon="5.44141">
        <ele>892.4</ele>
        <time>2012-08-23T07:24:29Z</time>
      </trkpt>
      <trkpt lat="45.05222" lon="5.44143">
        <ele>892.2</ele>
        <time>2012-08-23T07:24:31Z</time>
      </trkpt>
      <trkpt lat="45.05209" lon="5.4415">
        <ele>891.7</ele>
        <time>2012-08-23T07:24:38Z</time>
      </trkpt>
      <trkpt lat="45.05202" lon="5.44155">
        <ele>892.5</ele>
        <time>2012-08-23T07:24:43Z</time>
      </trkpt>
      <trkpt lat="45.05198" lon="5.44156">
        <ele>893</ele>
        <time>2012-08-23T07:24:46Z</time>
      </trkpt>
      <trkpt lat="45.05196" lon="5.44152">
        <ele>892.5</ele>
        <time>2012-08-23T07:24:48Z</time>
      </trkpt>
      <trkpt lat="45.05193" lon="5.44146">
        <ele>892</ele>
        <time>2012-08-23T07:24:50Z</time>
      </trkpt>
      <trkpt lat="45.05191" lon="5.44143">
        <ele>892</ele>
        <time>2012-08-23T07:24:51Z</time>
      </trkpt>
      <trkpt lat="45.05182" lon="5.4413">
        <ele>891.5</ele>
        <time>2012-08-23T07:24:56Z</time>
      </trkpt>
      <trkpt lat="45.05174" lon="5.44122">
        <ele>890.7</ele>
        <time>2012-08-23T07:25:00Z</time>
      </trkpt>
      <trkpt lat="45.05171" lon="5.44118">
        <ele>890.2</ele>
        <time>2012-08-23T07:25:02Z</time>
      </trkpt>
      <trkpt lat="45.05169" lon="5.44111">
        <ele>889.7</ele>
        <time>2012-08-23T07:25:04Z</time>
      </trkpt>
      <trkpt lat="45.05165" lon="5.44088">
        <ele>888.5</ele>
        <time>2012-08-23T07:25:10Z</time>
      </trkpt>
      <trkpt lat="45.05165" lon="5.44079">
        <ele>888.4</ele>
        <time>2012-08-23T07:25:12Z</time>
      </trkpt>
      <trkpt lat="45.05165" lon="5.44061">
        <ele>887.7</ele>
        <time>2012-08-23T07:25:16Z</time>
      </trkpt>
      <trkpt lat="45.05167" lon="5.4404">
        <ele>888.2</ele>
        <time>2012-08-23T07:25:20Z</time>
      </trkpt>
      <trkpt lat="45.05168" lon="5.44036">
        <ele>888.5</ele>
        <time>2012-08-23T07:25:21Z</time>
      </trkpt>
      <trkpt lat="45.0517" lon="5.44019">
        <ele>888.5</ele>
        <time>2012-08-23T07:25:25Z</time>
      </trkpt>
      <trkpt lat="45.0517" lon="5.44007">
        <ele>887.7</ele>
        <time>2012-08-23T07:25:28Z</time>
      </trkpt>
      <trkpt lat="45.0517" lon="5.43999">
        <ele>887.2</ele>
        <time>2012-08-23T07:25:30Z</time>
      </trkpt>
      <trkpt lat="45.05168" lon="5.43992">
        <ele>886.5</ele>
        <time>2012-08-23T07:25:32Z</time>
      </trkpt>
      <trkpt lat="45.05162" lon="5.43969">
        <ele>885</ele>
        <time>2012-08-23T07:25:38Z</time>
      </trkpt>
      <trkpt lat="45.05157" lon="5.43959">
        <ele>885</ele>
        <time>2012-08-23T07:25:41Z</time>
      </trkpt>
      <trkpt lat="45.05154" lon="5.43953">
        <ele>884.9</ele>
        <time>2012-08-23T07:25:43Z</time>
      </trkpt>
      <trkpt lat="45.05149" lon="5.43948">
        <ele>885</ele>
        <time>2012-08-23T07:25:45Z</time>
      </trkpt>
      <trkpt lat="45.05146" lon="5.43947">
        <ele>885</ele>
        <time>2012-08-23T07:25:46Z</time>
      </trkpt>
      <trkpt lat="45.05134" lon="5.4395">
        <ele>885.2</ele>
        <time>2012-08-23T07:25:51Z</time>
      </trkpt>
      <trkpt lat="45.05129" lon="5.43951">
        <ele>884.9</ele>
        <time>2012-08-23T07:25:53Z</time>
      </trkpt>
      <trkpt lat="45.05126" lon="5.43951">
        <ele>884.5</ele>
        <time>2012-08-23T07:25:54Z</time>
      </trkpt>
      <trkpt lat="45.05113" lon="5.43945">
        <ele>883.4</ele>
        <time>2012-08-23T07:25:58Z</time>
      </trkpt>
      <trkpt lat="45.05102" lon="5.43943">
        <ele>882.4</ele>
        <time>2012-08-23T07:26:01Z</time>
      </trkpt>
      <trkpt lat="45.05095" lon="5.43942">
        <ele>882.5</ele>
        <time>2012-08-23T07:26:03Z</time>
      </trkpt>
      <trkpt lat="45.0509" lon="5.43941">
        <ele>882.5</ele>
        <time>2012-08-23T07:26:05Z</time>
      </trkpt>
      <trkpt lat="45.05071" lon="5.43933">
        <ele>886</ele>
        <time>2012-08-23T07:26:13Z</time>
      </trkpt>
      <trkpt lat="45.0507" lon="5.43932">
        <ele>886</ele>
        <time>2012-08-23T07:26:14Z</time>
      </trkpt>
      <trkpt lat="45.05063" lon="5.4393">
        <ele>886.9</ele>
        <time>2012-08-23T07:26:17Z</time>
      </trkpt>
      <trkpt lat="45.05059" lon="5.43929">
        <ele>886.7</ele>
        <time>2012-08-23T07:26:19Z</time>
      </trkpt>
      <trkpt lat="45.05046" lon="5.43924">
        <ele>886.5</ele>
        <time>2012-08-23T07:26:25Z</time>
      </trkpt>
      <trkpt lat="45.05042" lon="5.4392">
        <ele>886.5</ele>
        <time>2012-08-23T07:26:27Z</time>
      </trkpt>
      <trkpt lat="45.0503" lon="5.43908">
        <ele>887.7</ele>
        <time>2012-08-23T07:26:33Z</time>
      </trkpt>
      <trkpt lat="45.05017" lon="5.43892">
        <ele>889.2</ele>
        <time>2012-08-23T07:26:40Z</time>
      </trkpt>
      <trkpt lat="45.05015" lon="5.4389">
        <ele>889</ele>
        <time>2012-08-23T07:26:41Z</time>
      </trkpt>
      <trkpt lat="45.05008" lon="5.43879">
        <ele>888.2</ele>
        <time>2012-08-23T07:26:45Z</time>
      </trkpt>
      <trkpt lat="45.05006" lon="5.43873">
        <ele>888</ele>
        <time>2012-08-23T07:26:47Z</time>
      </trkpt>
      <trkpt lat="45.05002" lon="5.43856">
        <ele>887</ele>
        <time>2012-08-23T07:26:53Z</time>
      </trkpt>
      <trkpt lat="45.05" lon="5.4385">
        <ele>886.9</ele>
        <time>2012-08-23T07:26:55Z</time>
      </trkpt>
      <trkpt lat="45.04997" lon="5.43832">
        <ele>886</ele>
        <time>2012-08-23T07:27:00Z</time>
      </trkpt>
      <trkpt lat="45.04994" lon="5.43818">
        <ele>885.5</ele>
        <time>2012-08-23T07:27:03Z</time>
      </trkpt>
      <trkpt lat="45.04993" lon="5.43814">
        <ele>885.2</ele>
        <time>2012-08-23T07:27:04Z</time>
      </trkpt>
      <trkpt lat="45.04993" lon="5.43799">
        <ele>884</ele>
        <time>2012-08-23T07:27:07Z</time>
      </trkpt>
      <trkpt lat="45.04991" lon="5.43789">
        <ele>883.7</ele>
        <time>2012-08-23T07:27:09Z</time>
      </trkpt>
      <trkpt lat="45.04986" lon="5.43775">
        <ele>882.7</ele>
        <time>2012-08-23T07:27:13Z</time>
      </trkpt>
      <trkpt lat="45.04981" lon="5.43752">
        <ele>883.9</ele>
        <time>2012-08-23T07:27:19Z</time>
      </trkpt>
      <trkpt lat="45.04979" lon="5.43746">
        <ele>884.5</ele>
        <time>2012-08-23T07:27:21Z</time>
      </trkpt>
      <trkpt lat="45.04977" lon="5.43743">
        <ele>885</ele>
        <time>2012-08-23T07:27:22Z</time>
      </trkpt>
      <trkpt lat="45.04971" lon="5.43735">
        <ele>887.7</ele>
        <time>2012-08-23T07:27:25Z</time>
      </trkpt>
      <trkpt lat="45.04969" lon="5.43733">
        <ele>888.5</ele>
        <time>2012-08-23T07:27:26Z</time>
      </trkpt>
      <trkpt lat="45.04965" lon="5.43731">
        <ele>889.7</ele>
        <time>2012-08-23T07:27:28Z</time>
      </trkpt>
      <trkpt lat="45.04952" lon="5.43733">
        <ele>889</ele>
        <time>2012-08-23T07:27:34Z</time>
      </trkpt>
      <trkpt lat="45.04947" lon="5.43735">
        <ele>889.5</ele>
        <time>2012-08-23T07:27:36Z</time>
      </trkpt>
      <trkpt lat="45.04943" lon="5.43735">
        <ele>889.7</ele>
        <time>2012-08-23T07:27:38Z</time>
      </trkpt>
      <trkpt lat="45.04938" lon="5.43732">
        <ele>889.7</ele>
        <time>2012-08-23T07:27:41Z</time>
      </trkpt>
      <trkpt lat="45.04926" lon="5.43724">
        <ele>891</ele>
        <time>2012-08-23T07:27:47Z</time>
      </trkpt>
      <trkpt lat="45.04924" lon="5.43723">
        <ele>891.7</ele>
        <time>2012-08-23T07:27:48Z</time>
      </trkpt>
      <trkpt lat="45.0492" lon="5.43722">
        <ele>892.5</ele>
        <time>2012-08-23T07:27:50Z</time>
      </trkpt>
      <trkpt lat="45.04911" lon="5.43721">
        <ele>893.9</ele>
        <time>2012-08-23T07:27:54Z</time>
      </trkpt>
      <trkpt lat="45.04897" lon="5.4372">
        <ele>894</ele>
        <time>2012-08-23T07:27:59Z</time>
      </trkpt>
      <trkpt lat="45.04886" lon="5.43722">
        <ele>893.2</ele>
        <time>2012-08-23T07:28:03Z</time>
      </trkpt>
      <trkpt lat="45.04878" lon="5.43722">
        <ele>892.9</ele>
        <time>2012-08-23T07:28:06Z</time>
      </trkpt>
      <trkpt lat="45.04875" lon="5.43721">
        <ele>892.9</ele>
        <time>2012-08-23T07:28:07Z</time>
      </trkpt>
      <trkpt lat="45.0487" lon="5.43718">
        <ele>893.5</ele>
        <time>2012-08-23T07:28:09Z</time>
      </trkpt>
      <trkpt lat="45.04868" lon="5.43716">
        <ele>893.7</ele>
        <time>2012-08-23T07:28:10Z</time>
      </trkpt>
      <trkpt lat="45.04864" lon="5.43712">
        <ele>894.2</ele>
        <time>2012-08-23T07:28:12Z</time>
      </trkpt>
      <trkpt lat="45.0486" lon="5.43709">
        <ele>894.5</ele>
        <time>2012-08-23T07:28:14Z</time>
      </trkpt>
      <trkpt lat="45.04856" lon="5.43707">
        <ele>894.5</ele>
        <time>2012-08-23T07:28:16Z</time>
      </trkpt>
      <trkpt lat="45.04852" lon="5.43702">
        <ele>896</ele>
        <time>2012-08-23T07:28:18Z</time>
      </trkpt>
      <trkpt lat="45.0485" lon="5.43701">
        <ele>896.2</ele>
        <time>2012-08-23T07:28:19Z</time>
      </trkpt>
      <trkpt lat="45.04846" lon="5.43697">
        <ele>897</ele>
        <time>2012-08-23T07:28:21Z</time>
      </trkpt>
      <trkpt lat="45.04841" lon="5.43693">
        <ele>898.2</ele>
        <time>2012-08-23T07:28:24Z</time>
      </trkpt>
      <trkpt lat="45.04839" lon="5.43692">
        <ele>898.7</ele>
        <time>2012-08-23T07:28:25Z</time>
      </trkpt>
      <trkpt lat="45.04833" lon="5.43692">
        <ele>898.2</ele>
        <time>2012-08-23T07:28:28Z</time>
      </trkpt>
      <trkpt lat="45.04826" lon="5.43693">
        <ele>897.7</ele>
        <time>2012-08-23T07:28:31Z</time>
      </trkpt>
      <trkpt lat="45.04824" lon="5.43693">
        <ele>898</ele>
        <time>2012-08-23T07:28:32Z</time>
      </trkpt>
      <trkpt lat="45.04814" lon="5.43695">
        <ele>897</ele>
        <time>2012-08-23T07:28:36Z</time>
      </trkpt>
      <trkpt lat="45.04799" lon="5.43696">
        <ele>895</ele>
        <time>2012-08-23T07:28:42Z</time>
      </trkpt>
      <trkpt lat="45.04794" lon="5.43695">
        <ele>894.2</ele>
        <time>2012-08-23T07:28:44Z</time>
      </trkpt>
      <trkpt lat="45.04787" lon="5.43693">
        <ele>893.9</ele>
        <time>2012-08-23T07:28:47Z</time>
      </trkpt>
      <trkpt lat="45.04781" lon="5.43689">
        <ele>893.7</ele>
        <time>2012-08-23T07:28:50Z</time>
      </trkpt>
      <trkpt lat="45.04777" lon="5.43686">
        <ele>893.7</ele>
        <time>2012-08-23T07:28:52Z</time>
      </trkpt>
      <trkpt lat="45.04768" lon="5.43676">
        <ele>896</ele>
        <time>2012-08-23T07:28:58Z</time>
      </trkpt>
      <trkpt lat="45.04768" lon="5.43675">
        <ele>896.5</ele>
        <time>2012-08-23T07:29:04Z</time>
      </trkpt>
      <trkpt lat="45.04768" lon="5.43674">
        <ele>897.2</ele>
        <time>2012-08-23T07:29:10Z</time>
      </trkpt>
      <trkpt lat="45.04767" lon="5.43672">
        <ele>897</ele>
        <time>2012-08-23T07:29:12Z</time>
      </trkpt>
      <trkpt lat="45.04769" lon="5.43665">
        <ele>895.2</ele>
        <time>2012-08-23T07:29:16Z</time>
      </trkpt>
      <trkpt lat="45.04773" lon="5.43648">
        <ele>893.7</ele>
        <time>2012-08-23T07:29:21Z</time>
      </trkpt>
      <trkpt lat="45.04776" lon="5.43634">
        <ele>893.7</ele>
        <time>2012-08-23T07:29:25Z</time>
      </trkpt>
      <trkpt lat="45.0478" lon="5.4362">
        <ele>893.7</ele>
        <time>2012-08-23T07:29:30Z</time>
      </trkpt>
      <trkpt lat="45.04782" lon="5.43616">
        <ele>893.7</ele>
        <time>2012-08-23T07:29:32Z</time>
      </trkpt>
      <trkpt lat="45.04788" lon="5.43606">
        <ele>895.7</ele>
        <time>2012-08-23T07:29:37Z</time>
      </trkpt>
      <trkpt lat="45.0479" lon="5.43603">
        <ele>896.7</ele>
        <time>2012-08-23T07:29:39Z</time>
      </trkpt>
      <trkpt lat="45.04794" lon="5.43598">
        <ele>896.9</ele>
        <time>2012-08-23T07:29:42Z</time>
      </trkpt>
      <trkpt lat="45.04794" lon="5.43596">
        <ele>897.5</ele>
        <time>2012-08-23T07:29:43Z</time>
      </trkpt>
      <trkpt lat="45.04797" lon="5.43591">
        <ele>899.7</ele>
        <time>2012-08-23T07:29:46Z</time>
      </trkpt>
      <trkpt lat="45.04799" lon="5.43587">
        <ele>901.7</ele>
        <time>2012-08-23T07:29:48Z</time>
      </trkpt>
      <trkpt lat="45.04801" lon="5.43584">
        <ele>903.9</ele>
        <time>2012-08-23T07:29:50Z</time>
      </trkpt>
      <trkpt lat="45.0481" lon="5.43576">
        <ele>907</ele>
        <time>2012-08-23T07:29:58Z</time>
      </trkpt>
      <trkpt lat="45.04814" lon="5.4357">
        <ele>907.7</ele>
        <time>2012-08-23T07:30:02Z</time>
      </trkpt>
      <trkpt lat="45.04819" lon="5.43567">
        <ele>908.2</ele>
        <time>2012-08-23T07:30:05Z</time>
      </trkpt>
      <trkpt lat="45.04826" lon="5.43558">
        <ele>909.9</ele>
        <time>2012-08-23T07:30:12Z</time>
      </trkpt>
      <trkpt lat="45.04827" lon="5.43555">
        <ele>909.4</ele>
        <time>2012-08-23T07:30:14Z</time>
      </trkpt>
      <trkpt lat="45.04831" lon="5.43552">
        <ele>910.5</ele>
        <time>2012-08-23T07:30:17Z</time>
      </trkpt>
      <trkpt lat="45.04839" lon="5.43543">
        <ele>911.5</ele>
        <time>2012-08-23T07:30:25Z</time>
      </trkpt>
      <trkpt lat="45.04843" lon="5.4354">
        <ele>912.7</ele>
        <time>2012-08-23T07:30:29Z</time>
      </trkpt>
      <trkpt lat="45.04846" lon="5.43535">
        <ele>912.5</ele>
        <time>2012-08-23T07:30:32Z</time>
      </trkpt>
      <trkpt lat="45.04849" lon="5.43533">
        <ele>912.5</ele>
        <time>2012-08-23T07:30:34Z</time>
      </trkpt>
      <trkpt lat="45.04853" lon="5.43527">
        <ele>912.2</ele>
        <time>2012-08-23T07:30:38Z</time>
      </trkpt>
      <trkpt lat="45.0486" lon="5.43519">
        <ele>912.7</ele>
        <time>2012-08-23T07:30:44Z</time>
      </trkpt>
      <trkpt lat="45.04862" lon="5.43516">
        <ele>912.5</ele>
        <time>2012-08-23T07:30:46Z</time>
      </trkpt>
      <trkpt lat="45.04871" lon="5.43507">
        <ele>912.4</ele>
        <time>2012-08-23T07:30:53Z</time>
      </trkpt>
      <trkpt lat="45.04875" lon="5.43501">
        <ele>911.4</ele>
        <time>2012-08-23T07:30:57Z</time>
      </trkpt>
      <trkpt lat="45.0488" lon="5.43487">
        <ele>909.9</ele>
        <time>2012-08-23T07:31:03Z</time>
      </trkpt>
      <trkpt lat="45.0488" lon="5.43484">
        <ele>909.9</ele>
        <time>2012-08-23T07:31:04Z</time>
      </trkpt>
      <trkpt lat="45.04884" lon="5.4347">
        <ele>909.5</ele>
        <time>2012-08-23T07:31:09Z</time>
      </trkpt>
      <trkpt lat="45.04889" lon="5.43459">
        <ele>909.5</ele>
        <time>2012-08-23T07:31:13Z</time>
      </trkpt>
      <trkpt lat="45.04891" lon="5.43448">
        <ele>907.7</ele>
        <time>2012-08-23T07:31:17Z</time>
      </trkpt>
      <trkpt lat="45.04892" lon="5.43445">
        <ele>907.5</ele>
        <time>2012-08-23T07:31:18Z</time>
      </trkpt>
      <trkpt lat="45.04893" lon="5.43437">
        <ele>908.2</ele>
        <time>2012-08-23T07:31:21Z</time>
      </trkpt>
      <trkpt lat="45.04893" lon="5.43435">
        <ele>908.2</ele>
        <time>2012-08-23T07:31:22Z</time>
      </trkpt>
      <trkpt lat="45.04892" lon="5.43428">
        <ele>908</ele>
        <time>2012-08-23T07:31:25Z</time>
      </trkpt>
      <trkpt lat="45.04885" lon="5.43415">
        <ele>911.2</ele>
        <time>2012-08-23T07:31:31Z</time>
      </trkpt>
      <trkpt lat="45.04878" lon="5.43404">
        <ele>914</ele>
        <time>2012-08-23T07:31:37Z</time>
      </trkpt>
      <trkpt lat="45.04876" lon="5.43399">
        <ele>915</ele>
        <time>2012-08-23T07:31:41Z</time>
      </trkpt>
      <trkpt lat="45.04876" lon="5.43397">
        <ele>915.7</ele>
        <time>2012-08-23T07:31:45Z</time>
      </trkpt>
      <trkpt lat="45.04876" lon="5.4339">
        <ele>914</ele>
        <time>2012-08-23T07:31:53Z</time>
      </trkpt>
      <trkpt lat="45.04875" lon="5.43384">
        <ele>913</ele>
        <time>2012-08-23T07:31:59Z</time>
      </trkpt>
      <trkpt lat="45.04875" lon="5.43381">
        <ele>912.9</ele>
        <time>2012-08-23T07:32:01Z</time>
      </trkpt>
      <trkpt lat="45.04875" lon="5.43372">
        <ele>911.7</ele>
        <time>2012-08-23T07:32:11Z</time>
      </trkpt>
      <trkpt lat="45.04876" lon="5.43367">
        <ele>910.7</ele>
        <time>2012-08-23T07:32:17Z</time>
      </trkpt>
      <trkpt lat="45.04875" lon="5.43357">
        <ele>911.5</ele>
        <time>2012-08-23T07:32:25Z</time>
      </trkpt>
      <trkpt lat="45.04875" lon="5.43349">
        <ele>915.5</ele>
        <time>2012-08-23T07:32:32Z</time>
      </trkpt>
      <trkpt lat="45.04875" lon="5.43343">
        <ele>915.7</ele>
        <time>2012-08-23T07:32:38Z</time>
      </trkpt>
      <trkpt lat="45.04873" lon="5.4334">
        <ele>915.9</ele>
        <time>2012-08-23T07:32:41Z</time>
      </trkpt>
      <trkpt lat="45.04872" lon="5.43336">
        <ele>916.2</ele>
        <time>2012-08-23T07:32:45Z</time>
      </trkpt>
      <trkpt lat="45.0487" lon="5.43334">
        <ele>917</ele>
        <time>2012-08-23T07:32:47Z</time>
      </trkpt>
      <trkpt lat="45.04865" lon="5.43326">
        <ele>918.4</ele>
        <time>2012-08-23T07:32:55Z</time>
      </trkpt>
      <trkpt lat="45.04862" lon="5.43319">
        <ele>920.9</ele>
        <time>2012-08-23T07:33:01Z</time>
      </trkpt>
      <trkpt lat="45.0486" lon="5.43312">
        <ele>920.7</ele>
        <time>2012-08-23T07:33:11Z</time>
      </trkpt>
      <trkpt lat="45.04859" lon="5.4331">
        <ele>921.2</ele>
        <time>2012-08-23T07:33:13Z</time>
      </trkpt>
      <trkpt lat="45.04858" lon="5.43307">
        <ele>922</ele>
        <time>2012-08-23T07:33:16Z</time>
      </trkpt>
      <trkpt lat="45.04859" lon="5.43305">
        <ele>924.4</ele>
        <time>2012-08-23T07:33:20Z</time>
      </trkpt>
      <trkpt lat="45.0486" lon="5.43304">
        <ele>925.2</ele>
        <time>2012-08-23T07:33:24Z</time>
      </trkpt>
      <trkpt lat="45.04861" lon="5.43298">
        <ele>925.9</ele>
        <time>2012-08-23T07:33:33Z</time>
      </trkpt>
      <trkpt lat="45.04863" lon="5.43295">
        <ele>927.7</ele>
        <time>2012-08-23T07:33:40Z</time>
      </trkpt>
      <trkpt lat="45.04865" lon="5.4329">
        <ele>928.2</ele>
        <time>2012-08-23T07:33:48Z</time>
      </trkpt>
      <trkpt lat="45.0487" lon="5.43283">
        <ele>932.5</ele>
        <time>2012-08-23T07:34:03Z</time>
      </trkpt>
      <trkpt lat="45.04872" lon="5.43283">
        <ele>935</ele>
        <time>2012-08-23T07:34:09Z</time>
      </trkpt>
      <trkpt lat="45.04873" lon="5.4328">
        <ele>933.9</ele>
        <time>2012-08-23T07:34:12Z</time>
      </trkpt>
      <trkpt lat="45.04874" lon="5.43278">
        <ele>934.9</ele>
        <time>2012-08-23T07:34:16Z</time>
      </trkpt>
      <trkpt lat="45.04874" lon="5.43277">
        <ele>936.5</ele>
        <time>2012-08-23T07:34:31Z</time>
      </trkpt>
      <trkpt lat="45.04876" lon="5.43276">
        <ele>938.2</ele>
        <time>2012-08-23T07:34:35Z</time>
      </trkpt>
      <trkpt lat="45.04877" lon="5.43276">
        <ele>939.2</ele>
        <time>2012-08-23T07:34:40Z</time>
      </trkpt>
      <trkpt lat="45.04885" lon="5.43275">
        <ele>940.7</ele>
        <time>2012-08-23T07:34:50Z</time>
      </trkpt>
      <trkpt lat="45.0489" lon="5.43276">
        <ele>943</ele>
        <time>2012-08-23T07:34:56Z</time>
      </trkpt>
      <trkpt lat="45.04893" lon="5.43276">
        <ele>943</ele>
        <time>2012-08-23T07:35:00Z</time>
      </trkpt>
      <trkpt lat="45.04895" lon="5.43276">
        <ele>943.5</ele>
        <time>2012-08-23T07:35:03Z</time>
      </trkpt>
      <trkpt lat="45.04904" lon="5.43272">
        <ele>942.2</ele>
        <time>2012-08-23T07:35:13Z</time>
      </trkpt>
      <trkpt lat="45.04912" lon="5.43267">
        <ele>940.4</ele>
        <time>2012-08-23T07:35:23Z</time>
      </trkpt>
      <trkpt lat="45.04916" lon="5.43265">
        <ele>941.2</ele>
        <time>2012-08-23T07:35:28Z</time>
      </trkpt>
      <trkpt lat="45.04921" lon="5.43261">
        <ele>941.2</ele>
        <time>2012-08-23T07:35:35Z</time>
      </trkpt>
      <trkpt lat="45.04925" lon="5.43258">
        <ele>941.5</ele>
        <time>2012-08-23T07:35:41Z</time>
      </trkpt>
      <trkpt lat="45.04933" lon="5.43253">
        <ele>941</ele>
        <time>2012-08-23T07:35:53Z</time>
      </trkpt>
      <trkpt lat="45.04937" lon="5.43254">
        <ele>945.5</ele>
        <time>2012-08-23T07:35:59Z</time>
      </trkpt>
      <trkpt lat="45.04938" lon="5.43255">
        <ele>947.7</ele>
        <time>2012-08-23T07:36:06Z</time>
      </trkpt>
      <trkpt lat="45.04943" lon="5.43253">
        <ele>946.7</ele>
        <time>2012-08-23T07:36:11Z</time>
      </trkpt>
      <trkpt lat="45.04948" lon="5.43253">
        <ele>946.4</ele>
        <time>2012-08-23T07:36:14Z</time>
      </trkpt>
      <trkpt lat="45.04951" lon="5.43252">
        <ele>946.7</ele>
        <time>2012-08-23T07:36:16Z</time>
      </trkpt>
      <trkpt lat="45.04955" lon="5.43251">
        <ele>946</ele>
        <time>2012-08-23T07:36:18Z</time>
      </trkpt>
      <trkpt lat="45.0496" lon="5.43247">
        <ele>945.5</ele>
        <time>2012-08-23T07:36:21Z</time>
      </trkpt>
      <trkpt lat="45.04964" lon="5.43243">
        <ele>945.2</ele>
        <time>2012-08-23T07:36:24Z</time>
      </trkpt>
      <trkpt lat="45.04966" lon="5.43239">
        <ele>945</ele>
        <time>2012-08-23T07:36:26Z</time>
      </trkpt>
      <trkpt lat="45.04968" lon="5.43235">
        <ele>944.9</ele>
        <time>2012-08-23T07:36:28Z</time>
      </trkpt>
      <trkpt lat="45.04972" lon="5.43229">
        <ele>943.5</ele>
        <time>2012-08-23T07:36:31Z</time>
      </trkpt>
      <trkpt lat="45.04974" lon="5.43222">
        <ele>943.2</ele>
        <time>2012-08-23T07:36:34Z</time>
      </trkpt>
      <trkpt lat="45.04977" lon="5.4321">
        <ele>944.9</ele>
        <time>2012-08-23T07:36:40Z</time>
      </trkpt>
      <trkpt lat="45.04976" lon="5.432">
        <ele>947.2</ele>
        <time>2012-08-23T07:36:44Z</time>
      </trkpt>
      <trkpt lat="45.04974" lon="5.43193">
        <ele>949.4</ele>
        <time>2012-08-23T07:36:47Z</time>
      </trkpt>
      <trkpt lat="45.04972" lon="5.43187">
        <ele>951.2</ele>
        <time>2012-08-23T07:36:50Z</time>
      </trkpt>
      <trkpt lat="45.04971" lon="5.43178">
        <ele>954.9</ele>
        <time>2012-08-23T07:36:59Z</time>
      </trkpt>
      <trkpt lat="45.04971" lon="5.43175">
        <ele>960</ele>
        <time>2012-08-23T07:37:04Z</time>
      </trkpt>
      <trkpt lat="45.04971" lon="5.43173">
        <ele>962</ele>
        <time>2012-08-23T07:37:07Z</time>
      </trkpt>
      <trkpt lat="45.04975" lon="5.43165">
        <ele>962.7</ele>
        <time>2012-08-23T07:37:18Z</time>
      </trkpt>
      <trkpt lat="45.04976" lon="5.43163">
        <ele>962.9</ele>
        <time>2012-08-23T07:37:21Z</time>
      </trkpt>
      <trkpt lat="45.04977" lon="5.43163">
        <ele>962.2</ele>
        <time>2012-08-23T07:37:24Z</time>
      </trkpt>
      <trkpt lat="45.04978" lon="5.43164">
        <ele>962.7</ele>
        <time>2012-08-23T07:37:28Z</time>
      </trkpt>
      <trkpt lat="45.04982" lon="5.43159">
        <ele>962</ele>
        <time>2012-08-23T07:37:34Z</time>
      </trkpt>
      <trkpt lat="45.04991" lon="5.43154">
        <ele>963.9</ele>
        <time>2012-08-23T07:37:40Z</time>
      </trkpt>
      <trkpt lat="45.04994" lon="5.43153">
        <ele>964.7</ele>
        <time>2012-08-23T07:37:42Z</time>
      </trkpt>
      <trkpt lat="45.04998" lon="5.43153">
        <ele>965.7</ele>
        <time>2012-08-23T07:37:44Z</time>
      </trkpt>
      <trkpt lat="45.05001" lon="5.43152">
        <ele>966</ele>
        <time>2012-08-23T07:37:46Z</time>
      </trkpt>
      <trkpt lat="45.0501" lon="5.43148">
        <ele>967.2</ele>
        <time>2012-08-23T07:37:53Z</time>
      </trkpt>
      <trkpt lat="45.05013" lon="5.43147">
        <ele>966.7</ele>
        <time>2012-08-23T07:37:55Z</time>
      </trkpt>
      <trkpt lat="45.05016" lon="5.43143">
        <ele>965.2</ele>
        <time>2012-08-23T07:37:57Z</time>
      </trkpt>
      <trkpt lat="45.05018" lon="5.43138">
        <ele>963.9</ele>
        <time>2012-08-23T07:37:59Z</time>
      </trkpt>
      <trkpt lat="45.05017" lon="5.43134">
        <ele>963.2</ele>
        <time>2012-08-23T07:38:01Z</time>
      </trkpt>
      <trkpt lat="45.05015" lon="5.43126">
        <ele>963.5</ele>
        <time>2012-08-23T07:38:05Z</time>
      </trkpt>
      <trkpt lat="45.05012" lon="5.43119">
        <ele>964.2</ele>
        <time>2012-08-23T07:38:10Z</time>
      </trkpt>
      <trkpt lat="45.05012" lon="5.43115">
        <ele>963.5</ele>
        <time>2012-08-23T07:38:12Z</time>
      </trkpt>
      <trkpt lat="45.05012" lon="5.43115">
        <ele>963</ele>
        <time>2012-08-23T07:38:17Z</time>
      </trkpt>
      <trkpt lat="45.05012" lon="5.43107">
        <ele>966.9</ele>
        <time>2012-08-23T07:38:27Z</time>
      </trkpt>
      <trkpt lat="45.05011" lon="5.43104">
        <ele>968.7</ele>
        <time>2012-08-23T07:38:31Z</time>
      </trkpt>
      <trkpt lat="45.0501" lon="5.43102">
        <ele>969.7</ele>
        <time>2012-08-23T07:38:35Z</time>
      </trkpt>
      <trkpt lat="45.0501" lon="5.43099">
        <ele>969.2</ele>
        <time>2012-08-23T07:38:38Z</time>
      </trkpt>
      <trkpt lat="45.05006" lon="5.43091">
        <ele>969</ele>
        <time>2012-08-23T07:38:47Z</time>
      </trkpt>
      <trkpt lat="45.05001" lon="5.43084">
        <ele>969.2</ele>
        <time>2012-08-23T07:39:01Z</time>
      </trkpt>
      <trkpt lat="45.04998" lon="5.43076">
        <ele>969.5</ele>
        <time>2012-08-23T07:39:12Z</time>
      </trkpt>
      <trkpt lat="45.04997" lon="5.43072">
        <ele>969.5</ele>
        <time>2012-08-23T07:39:16Z</time>
      </trkpt>
      <trkpt lat="45.04996" lon="5.43071">
        <ele>969.5</ele>
        <time>2012-08-23T07:39:18Z</time>
      </trkpt>
      <trkpt lat="45.04994" lon="5.43066">
        <ele>969.5</ele>
        <time>2012-08-23T07:39:26Z</time>
      </trkpt>
      <trkpt lat="45.04991" lon="5.43059">
        <ele>971.5</ele>
        <time>2012-08-23T07:39:35Z</time>
      </trkpt>
      <trkpt lat="45.0499" lon="5.43055">
        <ele>970.9</ele>
        <time>2012-08-23T07:39:41Z</time>
      </trkpt>
      <trkpt lat="45.0499" lon="5.43053">
        <ele>970.5</ele>
        <time>2012-08-23T07:39:46Z</time>
      </trkpt>
      <trkpt lat="45.0499" lon="5.43047">
        <ele>971.7</ele>
        <time>2012-08-23T07:39:55Z</time>
      </trkpt>
      <trkpt lat="45.0499" lon="5.43042">
        <ele>973.7</ele>
        <time>2012-08-23T07:40:04Z</time>
      </trkpt>
      <trkpt lat="45.0499" lon="5.43037">
        <ele>975.5</ele>
        <time>2012-08-23T07:40:11Z</time>
      </trkpt>
      <trkpt lat="45.04989" lon="5.43034">
        <ele>976.5</ele>
        <time>2012-08-23T07:40:16Z</time>
      </trkpt>
      <trkpt lat="45.04989" lon="5.43029">
        <ele>976</ele>
        <time>2012-08-23T07:40:22Z</time>
      </trkpt>
      <trkpt lat="45.04988" lon="5.43024">
        <ele>975.2</ele>
        <time>2012-08-23T07:40:28Z</time>
      </trkpt>
      <trkpt lat="45.04986" lon="5.43019">
        <ele>976.2</ele>
        <time>2012-08-23T07:40:33Z</time>
      </trkpt>
      <trkpt lat="45.04986" lon="5.43015">
        <ele>977.2</ele>
        <time>2012-08-23T07:40:37Z</time>
      </trkpt>
      <trkpt lat="45.04986" lon="5.43013">
        <ele>978.9</ele>
        <time>2012-08-23T07:40:47Z</time>
      </trkpt>
      <trkpt lat="45.04986" lon="5.43002">
        <ele>979.7</ele>
        <time>2012-08-23T07:40:54Z</time>
      </trkpt>
      <trkpt lat="45.04985" lon="5.42995">
        <ele>981.7</ele>
        <time>2012-08-23T07:40:58Z</time>
      </trkpt>
      <trkpt lat="45.04984" lon="5.42989">
        <ele>984.5</ele>
        <time>2012-08-23T07:41:01Z</time>
      </trkpt>
      <trkpt lat="45.04982" lon="5.42985">
        <ele>986.9</ele>
        <time>2012-08-23T07:41:05Z</time>
      </trkpt>
      <trkpt lat="45.0498" lon="5.42979">
        <ele>987.7</ele>
        <time>2012-08-23T07:41:09Z</time>
      </trkpt>
      <trkpt lat="45.0498" lon="5.42974">
        <ele>988.2</ele>
        <time>2012-08-23T07:41:12Z</time>
      </trkpt>
      <trkpt lat="45.04982" lon="5.42965">
        <ele>988.2</ele>
        <time>2012-08-23T07:41:18Z</time>
      </trkpt>
      <trkpt lat="45.04982" lon="5.42951">
        <ele>990.7</ele>
        <time>2012-08-23T07:41:25Z</time>
      </trkpt>
      <trkpt lat="45.04981" lon="5.42942">
        <ele>989.7</ele>
        <time>2012-08-23T07:41:30Z</time>
      </trkpt>
      <trkpt lat="45.04981" lon="5.42938">
        <ele>990</ele>
        <time>2012-08-23T07:41:32Z</time>
      </trkpt>
      <trkpt lat="45.04982" lon="5.42931">
        <ele>992</ele>
        <time>2012-08-23T07:41:36Z</time>
      </trkpt>
      <trkpt lat="45.04981" lon="5.42924">
        <ele>994.2</ele>
        <time>2012-08-23T07:41:42Z</time>
      </trkpt>
      <trkpt lat="45.04985" lon="5.42923">
        <ele>994.4</ele>
        <time>2012-08-23T07:41:46Z</time>
      </trkpt>
      <trkpt lat="45.04989" lon="5.42924">
        <ele>993.4</ele>
        <time>2012-08-23T07:41:49Z</time>
      </trkpt>
      <trkpt lat="45.04993" lon="5.42923">
        <ele>993.5</ele>
        <time>2012-08-23T07:41:52Z</time>
      </trkpt>
      <trkpt lat="45.04997" lon="5.42922">
        <ele>993.9</ele>
        <time>2012-08-23T07:41:54Z</time>
      </trkpt>
      <trkpt lat="45.05" lon="5.42919">
        <ele>993.5</ele>
        <time>2012-08-23T07:41:56Z</time>
      </trkpt>
      <trkpt lat="45.05007" lon="5.42914">
        <ele>995.7</ele>
        <time>2012-08-23T07:42:03Z</time>
      </trkpt>
      <trkpt lat="45.05012" lon="5.42909">
        <ele>996.5</ele>
        <time>2012-08-23T07:42:08Z</time>
      </trkpt>
      <trkpt lat="45.05019" lon="5.429">
        <ele>995.2</ele>
        <time>2012-08-23T07:42:14Z</time>
      </trkpt>
      <trkpt lat="45.05019" lon="5.42893">
        <ele>996.9</ele>
        <time>2012-08-23T07:42:19Z</time>
      </trkpt>
      <trkpt lat="45.05014" lon="5.42887">
        <ele>999.7</ele>
        <time>2012-08-23T07:42:27Z</time>
      </trkpt>
      <trkpt lat="45.05009" lon="5.42882">
        <ele>1002</ele>
        <time>2012-08-23T07:42:33Z</time>
      </trkpt>
      <trkpt lat="45.05003" lon="5.42873">
        <ele>1005.7</ele>
        <time>2012-08-23T07:42:41Z</time>
      </trkpt>
      <trkpt lat="45.04998" lon="5.42865">
        <ele>1005.9</ele>
        <time>2012-08-23T07:42:49Z</time>
      </trkpt>
      <trkpt lat="45.04994" lon="5.4286">
        <ele>1004.5</ele>
        <time>2012-08-23T07:42:55Z</time>
      </trkpt>
      <trkpt lat="45.04993" lon="5.42857">
        <ele>1004.9</ele>
        <time>2012-08-23T07:42:57Z</time>
      </trkpt>
      <trkpt lat="45.04989" lon="5.42852">
        <ele>1006</ele>
        <time>2012-08-23T07:43:02Z</time>
      </trkpt>
      <trkpt lat="45.04983" lon="5.42842">
        <ele>1007</ele>
        <time>2012-08-23T07:43:10Z</time>
      </trkpt>
      <trkpt lat="45.0498" lon="5.42838">
        <ele>1008</ele>
        <time>2012-08-23T07:43:13Z</time>
      </trkpt>
      <trkpt lat="45.04976" lon="5.42831">
        <ele>1008.2</ele>
        <time>2012-08-23T07:43:18Z</time>
      </trkpt>
      <trkpt lat="45.04969" lon="5.42821">
        <ele>1007.5</ele>
        <time>2012-08-23T07:43:26Z</time>
      </trkpt>
      <trkpt lat="45.04966" lon="5.42814">
        <ele>1007.2</ele>
        <time>2012-08-23T07:43:30Z</time>
      </trkpt>
      <trkpt lat="45.04962" lon="5.42809">
        <ele>1007.4</ele>
        <time>2012-08-23T07:43:34Z</time>
      </trkpt>
      <trkpt lat="45.04957" lon="5.42801">
        <ele>1009.9</ele>
        <time>2012-08-23T07:43:40Z</time>
      </trkpt>
      <trkpt lat="45.04954" lon="5.42798">
        <ele>1011.2</ele>
        <time>2012-08-23T07:43:43Z</time>
      </trkpt>
      <trkpt lat="45.04945" lon="5.42791">
        <ele>1011.7</ele>
        <time>2012-08-23T07:43:51Z</time>
      </trkpt>
      <trkpt lat="45.04941" lon="5.42786">
        <ele>1012.4</ele>
        <time>2012-08-23T07:43:54Z</time>
      </trkpt>
      <trkpt lat="45.0494" lon="5.42785">
        <ele>1012.5</ele>
        <time>2012-08-23T07:43:55Z</time>
      </trkpt>
      <trkpt lat="45.04936" lon="5.42781">
        <ele>1014.7</ele>
        <time>2012-08-23T07:43:57Z</time>
      </trkpt>
      <trkpt lat="45.04934" lon="5.4278">
        <ele>1015</ele>
        <time>2012-08-23T07:43:58Z</time>
      </trkpt>
      <trkpt lat="45.04925" lon="5.42769">
        <ele>1010.5</ele>
        <time>2012-08-23T07:44:04Z</time>
      </trkpt>
      <trkpt lat="45.04921" lon="5.42766">
        <ele>1008.7</ele>
        <time>2012-08-23T07:44:07Z</time>
      </trkpt>
      <trkpt lat="45.04918" lon="5.42763">
        <ele>1008</ele>
        <time>2012-08-23T07:44:09Z</time>
      </trkpt>
      <trkpt lat="45.04914" lon="5.42757">
        <ele>1005</ele>
        <time>2012-08-23T07:44:13Z</time>
      </trkpt>
      <trkpt lat="45.04912" lon="5.42753">
        <ele>1002.5</ele>
        <time>2012-08-23T07:44:16Z</time>
      </trkpt>
      <trkpt lat="45.04911" lon="5.42749">
        <ele>1000.5</ele>
        <time>2012-08-23T07:44:19Z</time>
      </trkpt>
      <trkpt lat="45.04907" lon="5.42735">
        <ele>996</ele>
        <time>2012-08-23T07:44:26Z</time>
      </trkpt>
      <trkpt lat="45.04907" lon="5.42727">
        <ele>993</ele>
        <time>2012-08-23T07:44:31Z</time>
      </trkpt>
      <trkpt lat="45.04904" lon="5.42715">
        <ele>989.4</ele>
        <time>2012-08-23T07:44:39Z</time>
      </trkpt>
      <trkpt lat="45.04903" lon="5.42709">
        <ele>988.2</ele>
        <time>2012-08-23T07:44:42Z</time>
      </trkpt>
      <trkpt lat="45.04904" lon="5.42702">
        <ele>990.9</ele>
        <time>2012-08-23T07:44:48Z</time>
      </trkpt>
      <trkpt lat="45.04906" lon="5.42698">
        <ele>990.5</ele>
        <time>2012-08-23T07:44:54Z</time>
      </trkpt>
      <trkpt lat="45.04904" lon="5.42689">
        <ele>990.9</ele>
        <time>2012-08-23T07:45:02Z</time>
      </trkpt>
      <trkpt lat="45.04902" lon="5.42673">
        <ele>995.4</ele>
        <time>2012-08-23T07:45:10Z</time>
      </trkpt>
      <trkpt lat="45.04901" lon="5.42664">
        <ele>1002.9</ele>
        <time>2012-08-23T07:45:14Z</time>
      </trkpt>
      <trkpt lat="45.04901" lon="5.42657">
        <ele>1007.9</ele>
        <time>2012-08-23T07:45:19Z</time>
      </trkpt>
      <trkpt lat="45.049" lon="5.42654">
        <ele>1012.5</ele>
        <time>2012-08-23T07:45:23Z</time>
      </trkpt>
      <trkpt lat="45.04897" lon="5.42642">
        <ele>1022.7</ele>
        <time>2012-08-23T07:45:35Z</time>
      </trkpt>
      <trkpt lat="45.04897" lon="5.4264">
        <ele>1025</ele>
        <time>2012-08-23T07:45:40Z</time>
      </trkpt>
      <trkpt lat="45.04897" lon="5.42637">
        <ele>1027</ele>
        <time>2012-08-23T07:45:46Z</time>
      </trkpt>
      <trkpt lat="45.04896" lon="5.42635">
        <ele>1024</ele>
        <time>2012-08-23T07:45:56Z</time>
      </trkpt>
      <trkpt lat="45.04893" lon="5.42627">
        <ele>1022</ele>
        <time>2012-08-23T07:46:03Z</time>
      </trkpt>
      <trkpt lat="45.04895" lon="5.42623">
        <ele>1024</ele>
        <time>2012-08-23T07:46:10Z</time>
      </trkpt>
      <trkpt lat="45.04895" lon="5.4262">
        <ele>1023.4</ele>
        <time>2012-08-23T07:46:16Z</time>
      </trkpt>
      <trkpt lat="45.04894" lon="5.42617">
        <ele>1020.7</ele>
        <time>2012-08-23T07:46:28Z</time>
      </trkpt>
      <trkpt lat="45.04891" lon="5.42616">
        <ele>1018.7</ele>
        <time>2012-08-23T07:46:32Z</time>
      </trkpt>
      <trkpt lat="45.04891" lon="5.42618">
        <ele>1019.9</ele>
        <time>2012-08-23T07:46:39Z</time>
      </trkpt>
      <trkpt lat="45.04889" lon="5.42621">
        <ele>1020.5</ele>
        <time>2012-08-23T07:46:44Z</time>
      </trkpt>
      <trkpt lat="45.04889" lon="5.42621">
        <ele>1017.5</ele>
        <time>2012-08-23T07:46:48Z</time>
      </trkpt>
      <trkpt lat="45.04889" lon="5.42616">
        <ele>1022.9</ele>
        <time>2012-08-23T07:46:54Z</time>
      </trkpt>
      <trkpt lat="45.0489" lon="5.42612">
        <ele>1025.8</ele>
        <time>2012-08-23T07:46:57Z</time>
      </trkpt>
      <trkpt lat="45.04892" lon="5.42617">
        <ele>1030.5</ele>
        <time>2012-08-23T07:47:03Z</time>
      </trkpt>
      <trkpt lat="45.04892" lon="5.42626">
        <ele>1034</ele>
        <time>2012-08-23T07:47:11Z</time>
      </trkpt>
      <trkpt lat="45.04893" lon="5.42627">
        <ele>1035.3</ele>
        <time>2012-08-23T07:47:14Z</time>
      </trkpt>
      <trkpt lat="45.04893" lon="5.42629">
        <ele>1038</ele>
        <time>2012-08-23T07:47:16Z</time>
      </trkpt>
      <trkpt lat="45.04892" lon="5.42632">
        <ele>1040.8</ele>
        <time>2012-08-23T07:47:20Z</time>
      </trkpt>
      <trkpt lat="45.04886" lon="5.42638">
        <ele>1046.5</ele>
        <time>2012-08-23T07:47:28Z</time>
      </trkpt>
      <trkpt lat="45.04883" lon="5.42646">
        <ele>1054</ele>
        <time>2012-08-23T07:47:36Z</time>
      </trkpt>
      <trkpt lat="45.04881" lon="5.42648">
        <ele>1057.3</ele>
        <time>2012-08-23T07:47:39Z</time>
      </trkpt>
      <trkpt lat="45.04881" lon="5.42648">
        <ele>1061.5</ele>
        <time>2012-08-23T07:47:44Z</time>
      </trkpt>
      <trkpt lat="45.04881" lon="5.42647">
        <ele>1063</ele>
        <time>2012-08-23T07:47:47Z</time>
      </trkpt>
      <trkpt lat="45.04881" lon="5.42646">
        <ele>1061.3</ele>
        <time>2012-08-23T07:47:50Z</time>
      </trkpt>
      <trkpt lat="45.04884" lon="5.4264">
        <ele>1052.5</ele>
        <time>2012-08-23T07:47:57Z</time>
      </trkpt>
      <trkpt lat="45.04887" lon="5.42637">
        <ele>1047</ele>
        <time>2012-08-23T07:48:00Z</time>
      </trkpt>
      <trkpt lat="45.0489" lon="5.42632">
        <ele>1041.5</ele>
        <time>2012-08-23T07:48:04Z</time>
      </trkpt>
      <trkpt lat="45.04895" lon="5.42631">
        <ele>1039.3</ele>
        <time>2012-08-23T07:48:06Z</time>
      </trkpt>
      <trkpt lat="45.04898" lon="5.4263">
        <ele>1038</ele>
        <time>2012-08-23T07:48:09Z</time>
      </trkpt>
      <trkpt lat="45.04901" lon="5.42628">
        <ele>1035.3</ele>
        <time>2012-08-23T07:48:17Z</time>
      </trkpt>
      <trkpt lat="45.04899" lon="5.42624">
        <ele>1029</ele>
        <time>2012-08-23T07:48:22Z</time>
      </trkpt>
      <trkpt lat="45.04898" lon="5.42624">
        <ele>1025.5</ele>
        <time>2012-08-23T07:48:26Z</time>
      </trkpt>
      <trkpt lat="45.04897" lon="5.42625">
        <ele>1024.4</ele>
        <time>2012-08-23T07:48:30Z</time>
      </trkpt>
      <trkpt lat="45.04894" lon="5.42627">
        <ele>1025</ele>
        <time>2012-08-23T07:48:37Z</time>
      </trkpt>
      <trkpt lat="45.04893" lon="5.42625">
        <ele>1027</ele>
        <time>2012-08-23T07:48:43Z</time>
      </trkpt>
      <trkpt lat="45.04893" lon="5.4262">
        <ele>1027.4</ele>
        <time>2012-08-23T07:48:48Z</time>
      </trkpt>
      <trkpt lat="45.04893" lon="5.42615">
        <ele>1032</ele>
        <time>2012-08-23T07:48:56Z</time>
      </trkpt>
      <trkpt lat="45.04894" lon="5.4262">
        <ele>1032.8</ele>
        <time>2012-08-23T07:49:05Z</time>
      </trkpt>
      <trkpt lat="45.04896" lon="5.42619">
        <ele>1037</ele>
        <time>2012-08-23T07:49:15Z</time>
      </trkpt>
      <trkpt lat="45.04895" lon="5.42619">
        <ele>1036.8</ele>
        <time>2012-08-23T07:49:18Z</time>
      </trkpt>
      <trkpt lat="45.04895" lon="5.42617">
        <ele>1035.5</ele>
        <time>2012-08-23T07:49:22Z</time>
      </trkpt>
      <trkpt lat="45.04894" lon="5.42617">
        <ele>1034.5</ele>
        <time>2012-08-23T07:49:25Z</time>
      </trkpt>
      <trkpt lat="45.04895" lon="5.42618">
        <ele>1028.5</ele>
        <time>2012-08-23T07:49:44Z</time>
      </trkpt>
      <trkpt lat="45.04894" lon="5.4262">
        <ele>1024.5</ele>
        <time>2012-08-23T07:49:49Z</time>
      </trkpt>
      <trkpt lat="45.04891" lon="5.42624">
        <ele>1024</ele>
        <time>2012-08-23T07:49:51Z</time>
      </trkpt>
      <trkpt lat="45.04891" lon="5.4263">
        <ele>1019</ele>
        <time>2012-08-23T07:49:54Z</time>
      </trkpt>
      <trkpt lat="45.04891" lon="5.4263">
        <ele>1011.7</ele>
        <time>2012-08-23T07:49:59Z</time>
      </trkpt>
      <trkpt lat="45.04892" lon="5.42628">
        <ele>1006.7</ele>
        <time>2012-08-23T07:50:03Z</time>
      </trkpt>
      <trkpt lat="45.04891" lon="5.42627">
        <ele>1004</ele>
        <time>2012-08-23T07:50:07Z</time>
      </trkpt>
      <trkpt lat="45.04894" lon="5.42622">
        <ele>997</ele>
        <time>2012-08-23T07:50:12Z</time>
      </trkpt>
      <trkpt lat="45.04894" lon="5.4262">
        <ele>993.7</ele>
        <time>2012-08-23T07:50:15Z</time>
      </trkpt>
      <trkpt lat="45.04891" lon="5.4262">
        <ele>994</ele>
        <time>2012-08-23T07:50:17Z</time>
      </trkpt>
      <trkpt lat="45.04887" lon="5.42624">
        <ele>998.5</ele>
        <time>2012-08-23T07:50:19Z</time>
      </trkpt>
      <trkpt lat="45.04883" lon="5.4263">
        <ele>1007</ele>
        <time>2012-08-23T07:50:26Z</time>
      </trkpt>
      <trkpt lat="45.04883" lon="5.42631">
        <ele>1009</ele>
        <time>2012-08-23T07:50:31Z</time>
      </trkpt>
      <trkpt lat="45.04882" lon="5.42628">
        <ele>1006.5</ele>
        <time>2012-08-23T07:50:35Z</time>
      </trkpt>
      <trkpt lat="45.04883" lon="5.42623">
        <ele>1002.4</ele>
        <time>2012-08-23T07:50:44Z</time>
      </trkpt>
      <trkpt lat="45.04885" lon="5.42623">
        <ele>1002.4</ele>
        <time>2012-08-23T07:50:53Z</time>
      </trkpt>
      <trkpt lat="45.04885" lon="5.42623">
        <ele>1002.5</ele>
        <time>2012-08-23T07:50:58Z</time>
      </trkpt>
      <trkpt lat="45.04886" lon="5.42622">
        <ele>1002</ele>
        <time>2012-08-23T07:51:03Z</time>
      </trkpt>
      <trkpt lat="45.04887" lon="5.42621">
        <ele>1003</ele>
        <time>2012-08-23T07:51:13Z</time>
      </trkpt>
      <trkpt lat="45.04888" lon="5.4262">
        <ele>1004</ele>
        <time>2012-08-23T07:51:20Z</time>
      </trkpt>
      <trkpt lat="45.04888" lon="5.4262">
        <ele>1005.4</ele>
        <time>2012-08-23T07:51:27Z</time>
      </trkpt>
      <trkpt lat="45.04889" lon="5.42621">
        <ele>1015</ele>
        <time>2012-08-23T07:51:42Z</time>
      </trkpt>
      <trkpt lat="45.04884" lon="5.4263">
        <ele>1024.4</ele>
        <time>2012-08-23T07:51:50Z</time>
      </trkpt>
      <trkpt lat="45.04885" lon="5.4263">
        <ele>1023.7</ele>
        <time>2012-08-23T07:51:54Z</time>
      </trkpt>
      <trkpt lat="45.04889" lon="5.42625">
        <ele>1021.2</ele>
        <time>2012-08-23T07:52:00Z</time>
      </trkpt>
      <trkpt lat="45.04889" lon="5.42622">
        <ele>1023.7</ele>
        <time>2012-08-23T07:52:04Z</time>
      </trkpt>
      <trkpt lat="45.0489" lon="5.4262">
        <ele>1026.3</ele>
        <time>2012-08-23T07:52:09Z</time>
      </trkpt>
      <trkpt lat="45.04893" lon="5.42617">
        <ele>1028.5</ele>
        <time>2012-08-23T07:52:13Z</time>
      </trkpt>
      <trkpt lat="45.04892" lon="5.42615">
        <ele>1032.5</ele>
        <time>2012-08-23T07:52:17Z</time>
      </trkpt>
      <trkpt lat="45.04894" lon="5.42615">
        <ele>1032.9</ele>
        <time>2012-08-23T07:52:21Z</time>
      </trkpt>
      <trkpt lat="45.0489" lon="5.42615">
        <ele>1030.9</ele>
        <time>2012-08-23T07:52:24Z</time>
      </trkpt>
      <trkpt lat="45.04887" lon="5.42617">
        <ele>1027.5</ele>
        <time>2012-08-23T07:52:27Z</time>
      </trkpt>
      <trkpt lat="45.04891" lon="5.42617">
        <ele>1021.7</ele>
        <time>2012-08-23T07:52:32Z</time>
      </trkpt>
      <trkpt lat="45.04894" lon="5.42616">
        <ele>1019.5</ele>
        <time>2012-08-23T07:52:36Z</time>
      </trkpt>
      <trkpt lat="45.04892" lon="5.42612">
        <ele>1021</ele>
        <time>2012-08-23T07:52:42Z</time>
      </trkpt>
      <trkpt lat="45.04891" lon="5.42611">
        <ele>1022</ele>
        <time>2012-08-23T07:52:45Z</time>
      </trkpt>
      <trkpt lat="45.04885" lon="5.42615">
        <ele>1024.3</ele>
        <time>2012-08-23T07:52:52Z</time>
      </trkpt>
      <trkpt lat="45.04881" lon="5.42617">
        <ele>1029.9</ele>
        <time>2012-08-23T07:53:03Z</time>
      </trkpt>
      <trkpt lat="45.04878" lon="5.42619">
        <ele>1031.3</ele>
        <time>2012-08-23T07:53:19Z</time>
      </trkpt>
      <trkpt lat="45.04878" lon="5.42621">
        <ele>1028.9</ele>
        <time>2012-08-23T07:53:22Z</time>
      </trkpt>
      <trkpt lat="45.04877" lon="5.42622">
        <ele>1030.9</ele>
        <time>2012-08-23T07:53:27Z</time>
      </trkpt>
      <trkpt lat="45.04876" lon="5.42623">
        <ele>1029</ele>
        <time>2012-08-23T07:53:35Z</time>
      </trkpt>
      <trkpt lat="45.04875" lon="5.42623">
        <ele>1026.5</ele>
        <time>2012-08-23T07:53:42Z</time>
      </trkpt>
      <trkpt lat="45.04873" lon="5.4262">
        <ele>1027.5</ele>
        <time>2012-08-23T07:53:44Z</time>
      </trkpt>
      <trkpt lat="45.0487" lon="5.42616">
        <ele>1029.8</ele>
        <time>2012-08-23T07:53:48Z</time>
      </trkpt>
      <trkpt lat="45.04867" lon="5.42605">
        <ele>1031</ele>
        <time>2012-08-23T07:53:54Z</time>
      </trkpt>
      <trkpt lat="45.04863" lon="5.42595">
        <ele>1027.8</ele>
        <time>2012-08-23T07:54:01Z</time>
      </trkpt>
      <trkpt lat="45.04857" lon="5.42587">
        <ele>1026.3</ele>
        <time>2012-08-23T07:54:08Z</time>
      </trkpt>
      <trkpt lat="45.04854" lon="5.42581">
        <ele>1027.9</ele>
        <time>2012-08-23T07:54:12Z</time>
      </trkpt>
      <trkpt lat="45.04847" lon="5.42572">
        <ele>1027.9</ele>
        <time>2012-08-23T07:54:19Z</time>
      </trkpt>
      <trkpt lat="45.04844" lon="5.42567">
        <ele>1025.5</ele>
        <time>2012-08-23T07:54:24Z</time>
      </trkpt>
      <trkpt lat="45.04838" lon="5.42562">
        <ele>1025</ele>
        <time>2012-08-23T07:54:31Z</time>
      </trkpt>
      <trkpt lat="45.04828" lon="5.4256">
        <ele>1025.5</ele>
        <time>2012-08-23T07:54:38Z</time>
      </trkpt>
      <trkpt lat="45.04826" lon="5.42559">
        <ele>1026.9</ele>
        <time>2012-08-23T07:54:40Z</time>
      </trkpt>
      <trkpt lat="45.0482" lon="5.4256">
        <ele>1026.5</ele>
        <time>2012-08-23T07:54:44Z</time>
      </trkpt>
      <trkpt lat="45.04812" lon="5.4256">
        <ele>1025.5</ele>
        <time>2012-08-23T07:54:49Z</time>
      </trkpt>
      <trkpt lat="45.04802" lon="5.42561">
        <ele>1024.5</ele>
        <time>2012-08-23T07:54:55Z</time>
      </trkpt>
      <trkpt lat="45.04799" lon="5.4256">
        <ele>1024</ele>
        <time>2012-08-23T07:54:57Z</time>
      </trkpt>
      <trkpt lat="45.04788" lon="5.42561">
        <ele>1021.9</ele>
        <time>2012-08-23T07:55:04Z</time>
      </trkpt>
      <trkpt lat="45.04785" lon="5.42561">
        <ele>1021.7</ele>
        <time>2012-08-23T07:55:06Z</time>
      </trkpt>
      <trkpt lat="45.04778" lon="5.42561">
        <ele>1024.3</ele>
        <time>2012-08-23T07:55:10Z</time>
      </trkpt>
      <trkpt lat="45.04775" lon="5.4256">
        <ele>1024.4</ele>
        <time>2012-08-23T07:55:12Z</time>
      </trkpt>
      <trkpt lat="45.04763" lon="5.42559">
        <ele>1022.9</ele>
        <time>2012-08-23T07:55:19Z</time>
      </trkpt>
      <trkpt lat="45.04756" lon="5.42558">
        <ele>1023.2</ele>
        <time>2012-08-23T07:55:23Z</time>
      </trkpt>
      <trkpt lat="45.04748" lon="5.42557">
        <ele>1022.5</ele>
        <time>2012-08-23T07:55:29Z</time>
      </trkpt>
      <trkpt lat="45.04743" lon="5.42558">
        <ele>1023.2</ele>
        <time>2012-08-23T07:55:32Z</time>
      </trkpt>
      <trkpt lat="45.04737" lon="5.42558">
        <ele>1023.9</ele>
        <time>2012-08-23T07:55:35Z</time>
      </trkpt>
      <trkpt lat="45.04735" lon="5.42559">
        <ele>1023.7</ele>
        <time>2012-08-23T07:55:36Z</time>
      </trkpt>
      <trkpt lat="45.04724" lon="5.4256">
        <ele>1021.4</ele>
        <time>2012-08-23T07:55:43Z</time>
      </trkpt>
      <trkpt lat="45.0472" lon="5.42559">
        <ele>1020.7</ele>
        <time>2012-08-23T07:55:46Z</time>
      </trkpt>
      <trkpt lat="45.04711" lon="5.42558">
        <ele>1021</ele>
        <time>2012-08-23T07:55:52Z</time>
      </trkpt>
      <trkpt lat="45.04708" lon="5.42557">
        <ele>1021.9</ele>
        <time>2012-08-23T07:55:54Z</time>
      </trkpt>
      <trkpt lat="45.04704" lon="5.42554">
        <ele>1023</ele>
        <time>2012-08-23T07:55:56Z</time>
      </trkpt>
      <trkpt lat="45.047" lon="5.42549">
        <ele>1024.8</ele>
        <time>2012-08-23T07:55:59Z</time>
      </trkpt>
      <trkpt lat="45.04698" lon="5.42547">
        <ele>1027.3</ele>
        <time>2012-08-23T07:56:01Z</time>
      </trkpt>
      <trkpt lat="45.04695" lon="5.42543">
        <ele>1029</ele>
        <time>2012-08-23T07:56:04Z</time>
      </trkpt>
      <trkpt lat="45.04693" lon="5.42539">
        <ele>1029.5</ele>
        <time>2012-08-23T07:56:07Z</time>
      </trkpt>
      <trkpt lat="45.04691" lon="5.42538">
        <ele>1032.5</ele>
        <time>2012-08-23T07:56:16Z</time>
      </trkpt>
      <trkpt lat="45.04691" lon="5.42534">
        <ele>1032.5</ele>
        <time>2012-08-23T07:56:27Z</time>
      </trkpt>
      <trkpt lat="45.04695" lon="5.42533">
        <ele>1032.9</ele>
        <time>2012-08-23T07:56:30Z</time>
      </trkpt>
      <trkpt lat="45.04699" lon="5.42531">
        <ele>1032</ele>
        <time>2012-08-23T07:56:33Z</time>
      </trkpt>
      <trkpt lat="45.047" lon="5.42527">
        <ele>1032</ele>
        <time>2012-08-23T07:56:36Z</time>
      </trkpt>
      <trkpt lat="45.04703" lon="5.42522">
        <ele>1031.4</ele>
        <time>2012-08-23T07:56:39Z</time>
      </trkpt>
      <trkpt lat="45.04705" lon="5.42519">
        <ele>1031.3</ele>
        <time>2012-08-23T07:56:41Z</time>
      </trkpt>
      <trkpt lat="45.04708" lon="5.42514">
        <ele>1030.4</ele>
        <time>2012-08-23T07:56:44Z</time>
      </trkpt>
      <trkpt lat="45.04713" lon="5.42504">
        <ele>1029.9</ele>
        <time>2012-08-23T07:56:50Z</time>
      </trkpt>
      <trkpt lat="45.04717" lon="5.42493">
        <ele>1029.3</ele>
        <time>2012-08-23T07:56:56Z</time>
      </trkpt>
      <trkpt lat="45.04718" lon="5.42488">
        <ele>1028.8</ele>
        <time>2012-08-23T07:56:59Z</time>
      </trkpt>
      <trkpt lat="45.04723" lon="5.42475">
        <ele>1028.9</ele>
        <time>2012-08-23T07:57:06Z</time>
      </trkpt>
      <trkpt lat="45.04727" lon="5.42466">
        <ele>1029</ele>
        <time>2012-08-23T07:57:12Z</time>
      </trkpt>
      <trkpt lat="45.04729" lon="5.42463">
        <ele>1029.5</ele>
        <time>2012-08-23T07:57:14Z</time>
      </trkpt>
      <trkpt lat="45.04736" lon="5.42452">
        <ele>1031.4</ele>
        <time>2012-08-23T07:57:22Z</time>
      </trkpt>
      <trkpt lat="45.04739" lon="5.4245">
        <ele>1032</ele>
        <time>2012-08-23T07:57:24Z</time>
      </trkpt>
      <trkpt lat="45.04741" lon="5.42446">
        <ele>1032.8</ele>
        <time>2012-08-23T07:57:27Z</time>
      </trkpt>
      <trkpt lat="45.04743" lon="5.42439">
        <ele>1033.5</ele>
        <time>2012-08-23T07:57:31Z</time>
      </trkpt>
      <trkpt lat="45.04743" lon="5.42431">
        <ele>1034.9</ele>
        <time>2012-08-23T07:57:35Z</time>
      </trkpt>
      <trkpt lat="45.04742" lon="5.42426">
        <ele>1035.9</ele>
        <time>2012-08-23T07:57:38Z</time>
      </trkpt>
      <trkpt lat="45.04739" lon="5.4242">
        <ele>1037.8</ele>
        <time>2012-08-23T07:57:42Z</time>
      </trkpt>
      <trkpt lat="45.04731" lon="5.42412">
        <ele>1037.5</ele>
        <time>2012-08-23T07:57:49Z</time>
      </trkpt>
      <trkpt lat="45.04728" lon="5.42407">
        <ele>1037.5</ele>
        <time>2012-08-23T07:57:53Z</time>
      </trkpt>
      <trkpt lat="45.0472" lon="5.42402">
        <ele>1038.9</ele>
        <time>2012-08-23T07:58:00Z</time>
      </trkpt>
      <trkpt lat="45.04713" lon="5.42394">
        <ele>1042.5</ele>
        <time>2012-08-23T07:58:06Z</time>
      </trkpt>
      <trkpt lat="45.04707" lon="5.42387">
        <ele>1047.5</ele>
        <time>2012-08-23T07:58:11Z</time>
      </trkpt>
      <trkpt lat="45.04703" lon="5.42383">
        <ele>1049.4</ele>
        <time>2012-08-23T07:58:14Z</time>
      </trkpt>
      <trkpt lat="45.04695" lon="5.42371">
        <ele>1052.5</ele>
        <time>2012-08-23T07:58:22Z</time>
      </trkpt>
      <trkpt lat="45.04693" lon="5.42368">
        <ele>1054.5</ele>
        <time>2012-08-23T07:58:24Z</time>
      </trkpt>
      <trkpt lat="45.04685" lon="5.42357">
        <ele>1058.5</ele>
        <time>2012-08-23T07:58:31Z</time>
      </trkpt>
      <trkpt lat="45.04684" lon="5.42354">
        <ele>1059</ele>
        <time>2012-08-23T07:58:33Z</time>
      </trkpt>
      <trkpt lat="45.04678" lon="5.42343">
        <ele>1059</ele>
        <time>2012-08-23T07:58:41Z</time>
      </trkpt>
      <trkpt lat="45.04674" lon="5.42338">
        <ele>1060.9</ele>
        <time>2012-08-23T07:58:45Z</time>
      </trkpt>
      <trkpt lat="45.0467" lon="5.42327">
        <ele>1061.8</ele>
        <time>2012-08-23T07:58:52Z</time>
      </trkpt>
      <trkpt lat="45.04668" lon="5.42323">
        <ele>1062.5</ele>
        <time>2012-08-23T07:58:55Z</time>
      </trkpt>
      <trkpt lat="45.04665" lon="5.42315">
        <ele>1061.5</ele>
        <time>2012-08-23T07:59:01Z</time>
      </trkpt>
      <trkpt lat="45.04663" lon="5.42303">
        <ele>1060.8</ele>
        <time>2012-08-23T07:59:08Z</time>
      </trkpt>
      <trkpt lat="45.04661" lon="5.42292">
        <ele>1061.9</ele>
        <time>2012-08-23T07:59:14Z</time>
      </trkpt>
      <trkpt lat="45.0466" lon="5.42285">
        <ele>1061.9</ele>
        <time>2012-08-23T07:59:18Z</time>
      </trkpt>
      <trkpt lat="45.04655" lon="5.42272">
        <ele>1064.5</ele>
        <time>2012-08-23T07:59:25Z</time>
      </trkpt>
      <trkpt lat="45.04652" lon="5.42267">
        <ele>1063.5</ele>
        <time>2012-08-23T07:59:29Z</time>
      </trkpt>
      <trkpt lat="45.04644" lon="5.4226">
        <ele>1062.5</ele>
        <time>2012-08-23T07:59:36Z</time>
      </trkpt>
      <trkpt lat="45.0464" lon="5.42254">
        <ele>1064</ele>
        <time>2012-08-23T07:59:40Z</time>
      </trkpt>
      <trkpt lat="45.04638" lon="5.42249">
        <ele>1065.3</ele>
        <time>2012-08-23T07:59:43Z</time>
      </trkpt>
      <trkpt lat="45.04631" lon="5.42243">
        <ele>1067.5</ele>
        <time>2012-08-23T07:59:49Z</time>
      </trkpt>
      <trkpt lat="45.04628" lon="5.42238">
        <ele>1068.8</ele>
        <time>2012-08-23T07:59:52Z</time>
      </trkpt>
      <trkpt lat="45.0462" lon="5.42228">
        <ele>1066.9</ele>
        <time>2012-08-23T08:00:00Z</time>
      </trkpt>
      <trkpt lat="45.04612" lon="5.42219">
        <ele>1065.4</ele>
        <time>2012-08-23T08:00:07Z</time>
      </trkpt>
      <trkpt lat="45.0461" lon="5.42217">
        <ele>1065</ele>
        <time>2012-08-23T08:00:09Z</time>
      </trkpt>
      <trkpt lat="45.04601" lon="5.42208">
        <ele>1067.5</ele>
        <time>2012-08-23T08:00:17Z</time>
      </trkpt>
      <trkpt lat="45.04595" lon="5.42205">
        <ele>1068</ele>
        <time>2012-08-23T08:00:21Z</time>
      </trkpt>
      <trkpt lat="45.04591" lon="5.422">
        <ele>1069</ele>
        <time>2012-08-23T08:00:25Z</time>
      </trkpt>
      <trkpt lat="45.04586" lon="5.42198">
        <ele>1069.4</ele>
        <time>2012-08-23T08:00:29Z</time>
      </trkpt>
      <trkpt lat="45.0458" lon="5.42194">
        <ele>1068</ele>
        <time>2012-08-23T08:00:34Z</time>
      </trkpt>
      <trkpt lat="45.04569" lon="5.4219">
        <ele>1069.8</ele>
        <time>2012-08-23T08:00:42Z</time>
      </trkpt>
      <trkpt lat="45.04561" lon="5.4219">
        <ele>1070.5</ele>
        <time>2012-08-23T08:00:48Z</time>
      </trkpt>
      <trkpt lat="45.04554" lon="5.42191">
        <ele>1070.5</ele>
        <time>2012-08-23T08:00:54Z</time>
      </trkpt>
      <trkpt lat="45.04549" lon="5.42192">
        <ele>1071.3</ele>
        <time>2012-08-23T08:00:58Z</time>
      </trkpt>
      <trkpt lat="45.04541" lon="5.42194">
        <ele>1073</ele>
        <time>2012-08-23T08:01:04Z</time>
      </trkpt>
      <trkpt lat="45.04532" lon="5.42198">
        <ele>1074.5</ele>
        <time>2012-08-23T08:01:12Z</time>
      </trkpt>
      <trkpt lat="45.04529" lon="5.42198">
        <ele>1074.5</ele>
        <time>2012-08-23T08:01:15Z</time>
      </trkpt>
      <trkpt lat="45.04525" lon="5.42198">
        <ele>1076.3</ele>
        <time>2012-08-23T08:01:18Z</time>
      </trkpt>
      <trkpt lat="45.04521" lon="5.42194">
        <ele>1076.9</ele>
        <time>2012-08-23T08:01:22Z</time>
      </trkpt>
      <trkpt lat="45.04518" lon="5.42188">
        <ele>1077.5</ele>
        <time>2012-08-23T08:01:26Z</time>
      </trkpt>
      <trkpt lat="45.04517" lon="5.42183">
        <ele>1077.5</ele>
        <time>2012-08-23T08:01:29Z</time>
      </trkpt>
      <trkpt lat="45.04518" lon="5.42179">
        <ele>1077.4</ele>
        <time>2012-08-23T08:01:31Z</time>
      </trkpt>
      <trkpt lat="45.04519" lon="5.42176">
        <ele>1075.8</ele>
        <time>2012-08-23T08:01:37Z</time>
      </trkpt>
      <trkpt lat="45.04521" lon="5.42176">
        <ele>1074.5</ele>
        <time>2012-08-23T08:01:42Z</time>
      </trkpt>
      <trkpt lat="45.04524" lon="5.4217">
        <ele>1072.9</ele>
        <time>2012-08-23T08:02:20Z</time>
      </trkpt>
      <trkpt lat="45.04525" lon="5.42167">
        <ele>1072.9</ele>
        <time>2012-08-23T08:02:22Z</time>
      </trkpt>
      <trkpt lat="45.0453" lon="5.42158">
        <ele>1073</ele>
        <time>2012-08-23T08:02:28Z</time>
      </trkpt>
      <trkpt lat="45.04533" lon="5.42152">
        <ele>1073</ele>
        <time>2012-08-23T08:02:32Z</time>
      </trkpt>
      <trkpt lat="45.04536" lon="5.42146">
        <ele>1072.9</ele>
        <time>2012-08-23T08:02:36Z</time>
      </trkpt>
      <trkpt lat="45.04539" lon="5.42137">
        <ele>1073.8</ele>
        <time>2012-08-23T08:02:41Z</time>
      </trkpt>
      <trkpt lat="45.04541" lon="5.42132">
        <ele>1075.5</ele>
        <time>2012-08-23T08:02:44Z</time>
      </trkpt>
      <trkpt lat="45.04543" lon="5.42123">
        <ele>1078.9</ele>
        <time>2012-08-23T08:02:50Z</time>
      </trkpt>
      <trkpt lat="45.04549" lon="5.42111">
        <ele>1081</ele>
        <time>2012-08-23T08:02:58Z</time>
      </trkpt>
      <trkpt lat="45.04558" lon="5.42103">
        <ele>1083</ele>
        <time>2012-08-23T08:03:06Z</time>
      </trkpt>
      <trkpt lat="45.04559" lon="5.42102">
        <ele>1083</ele>
        <time>2012-08-23T08:03:07Z</time>
      </trkpt>
      <trkpt lat="45.04568" lon="5.42098">
        <ele>1084.5</ele>
        <time>2012-08-23T08:03:13Z</time>
      </trkpt>
      <trkpt lat="45.04573" lon="5.42094">
        <ele>1084.5</ele>
        <time>2012-08-23T08:03:17Z</time>
      </trkpt>
      <trkpt lat="45.04582" lon="5.42093">
        <ele>1084</ele>
        <time>2012-08-23T08:03:24Z</time>
      </trkpt>
      <trkpt lat="45.04591" lon="5.42093">
        <ele>1083</ele>
        <time>2012-08-23T08:03:30Z</time>
      </trkpt>
      <trkpt lat="45.04596" lon="5.42092">
        <ele>1082.9</ele>
        <time>2012-08-23T08:03:33Z</time>
      </trkpt>
      <trkpt lat="45.04598" lon="5.42093">
        <ele>1083.3</ele>
        <time>2012-08-23T08:03:35Z</time>
      </trkpt>
      <trkpt lat="45.04601" lon="5.4209">
        <ele>1083.8</ele>
        <time>2012-08-23T08:03:38Z</time>
      </trkpt>
      <trkpt lat="45.046" lon="5.42083">
        <ele>1083.9</ele>
        <time>2012-08-23T08:03:42Z</time>
      </trkpt>
      <trkpt lat="45.04598" lon="5.42082">
        <ele>1084</ele>
        <time>2012-08-23T08:03:44Z</time>
      </trkpt>
      <trkpt lat="45.04593" lon="5.42078">
        <ele>1084</ele>
        <time>2012-08-23T08:03:49Z</time>
      </trkpt>
      <trkpt lat="45.04589" lon="5.42077">
        <ele>1084.5</ele>
        <time>2012-08-23T08:03:52Z</time>
      </trkpt>
      <trkpt lat="45.04584" lon="5.42073">
        <ele>1085.4</ele>
        <time>2012-08-23T08:03:56Z</time>
      </trkpt>
      <trkpt lat="45.0458" lon="5.42068">
        <ele>1087.8</ele>
        <time>2012-08-23T08:04:00Z</time>
      </trkpt>
      <trkpt lat="45.04575" lon="5.42064">
        <ele>1090.5</ele>
        <time>2012-08-23T08:04:04Z</time>
      </trkpt>
      <trkpt lat="45.04568" lon="5.42057">
        <ele>1093.3</ele>
        <time>2012-08-23T08:04:10Z</time>
      </trkpt>
      <trkpt lat="45.04562" lon="5.42051">
        <ele>1094.4</ele>
        <time>2012-08-23T08:04:16Z</time>
      </trkpt>
      <trkpt lat="45.04557" lon="5.42045">
        <ele>1093.8</ele>
        <time>2012-08-23T08:04:22Z</time>
      </trkpt>
      <trkpt lat="45.04554" lon="5.42041">
        <ele>1095</ele>
        <time>2012-08-23T08:04:25Z</time>
      </trkpt>
      <trkpt lat="45.04551" lon="5.42037">
        <ele>1095.5</ele>
        <time>2012-08-23T08:04:28Z</time>
      </trkpt>
      <trkpt lat="45.04547" lon="5.42022">
        <ele>1093</ele>
        <time>2012-08-23T08:04:36Z</time>
      </trkpt>
      <trkpt lat="45.04545" lon="5.42009">
        <ele>1091.5</ele>
        <time>2012-08-23T08:04:43Z</time>
      </trkpt>
      <trkpt lat="45.04544" lon="5.41999">
        <ele>1091</ele>
        <time>2012-08-23T08:04:48Z</time>
      </trkpt>
      <trkpt lat="45.04542" lon="5.41986">
        <ele>1091</ele>
        <time>2012-08-23T08:04:55Z</time>
      </trkpt>
      <trkpt lat="45.0454" lon="5.41979">
        <ele>1091.4</ele>
        <time>2012-08-23T08:04:59Z</time>
      </trkpt>
      <trkpt lat="45.04537" lon="5.41967">
        <ele>1092.9</ele>
        <time>2012-08-23T08:05:06Z</time>
      </trkpt>
      <trkpt lat="45.04533" lon="5.41959">
        <ele>1094</ele>
        <time>2012-08-23T08:05:11Z</time>
      </trkpt>
      <trkpt lat="45.04532" lon="5.41955">
        <ele>1095.3</ele>
        <time>2012-08-23T08:05:13Z</time>
      </trkpt>
      <trkpt lat="45.04526" lon="5.41945">
        <ele>1101</ele>
        <time>2012-08-23T08:05:20Z</time>
      </trkpt>
      <trkpt lat="45.04525" lon="5.4194">
        <ele>1102</ele>
        <time>2012-08-23T08:05:23Z</time>
      </trkpt>
      <trkpt lat="45.04522" lon="5.41933">
        <ele>1105</ele>
        <time>2012-08-23T08:05:27Z</time>
      </trkpt>
      <trkpt lat="45.04521" lon="5.4193">
        <ele>1105.5</ele>
        <time>2012-08-23T08:05:29Z</time>
      </trkpt>
      <trkpt lat="45.04519" lon="5.41925">
        <ele>1106.5</ele>
        <time>2012-08-23T08:05:33Z</time>
      </trkpt>
      <trkpt lat="45.04516" lon="5.41919">
        <ele>1108.5</ele>
        <time>2012-08-23T08:05:37Z</time>
      </trkpt>
      <trkpt lat="45.04514" lon="5.41914">
        <ele>1111</ele>
        <time>2012-08-23T08:05:40Z</time>
      </trkpt>
      <trkpt lat="45.04511" lon="5.41903">
        <ele>1113.9</ele>
        <time>2012-08-23T08:05:47Z</time>
      </trkpt>
      <trkpt lat="45.04509" lon="5.41891">
        <ele>1116.5</ele>
        <time>2012-08-23T08:05:54Z</time>
      </trkpt>
      <trkpt lat="45.04509" lon="5.41887">
        <ele>1117.3</ele>
        <time>2012-08-23T08:05:57Z</time>
      </trkpt>
      <trkpt lat="45.04511" lon="5.41875">
        <ele>1111.3</ele>
        <time>2012-08-23T08:06:04Z</time>
      </trkpt>
      <trkpt lat="45.04512" lon="5.41864">
        <ele>1108.5</ele>
        <time>2012-08-23T08:06:10Z</time>
      </trkpt>
      <trkpt lat="45.04513" lon="5.41848">
        <ele>1106.5</ele>
        <time>2012-08-23T08:06:18Z</time>
      </trkpt>
      <trkpt lat="45.04512" lon="5.41844">
        <ele>1107</ele>
        <time>2012-08-23T08:06:20Z</time>
      </trkpt>
      <trkpt lat="45.04512" lon="5.41832">
        <ele>1105.5</ele>
        <time>2012-08-23T08:06:26Z</time>
      </trkpt>
      <trkpt lat="45.04512" lon="5.41827">
        <ele>1105.9</ele>
        <time>2012-08-23T08:06:28Z</time>
      </trkpt>
      <trkpt lat="45.04509" lon="5.41813">
        <ele>1109</ele>
        <time>2012-08-23T08:06:34Z</time>
      </trkpt>
      <trkpt lat="45.04507" lon="5.41799">
        <ele>1109</ele>
        <time>2012-08-23T08:06:41Z</time>
      </trkpt>
      <trkpt lat="45.04506" lon="5.41783">
        <ele>1107.4</ele>
        <time>2012-08-23T08:06:49Z</time>
      </trkpt>
      <trkpt lat="45.04506" lon="5.41777">
        <ele>1107</ele>
        <time>2012-08-23T08:06:52Z</time>
      </trkpt>
      <trkpt lat="45.04504" lon="5.41768">
        <ele>1108</ele>
        <time>2012-08-23T08:06:56Z</time>
      </trkpt>
      <trkpt lat="45.04503" lon="5.41756">
        <ele>1109</ele>
        <time>2012-08-23T08:07:02Z</time>
      </trkpt>
      <trkpt lat="45.04502" lon="5.41754">
        <ele>1109.5</ele>
        <time>2012-08-23T08:07:03Z</time>
      </trkpt>
      <trkpt lat="45.045" lon="5.4174">
        <ele>1111</ele>
        <time>2012-08-23T08:07:10Z</time>
      </trkpt>
      <trkpt lat="45.045" lon="5.41737">
        <ele>1110.5</ele>
        <time>2012-08-23T08:07:12Z</time>
      </trkpt>
      <trkpt lat="45.04498" lon="5.41726">
        <ele>1110.5</ele>
        <time>2012-08-23T08:07:18Z</time>
      </trkpt>
      <trkpt lat="45.04495" lon="5.4172">
        <ele>1112.5</ele>
        <time>2012-08-23T08:07:22Z</time>
      </trkpt>
      <trkpt lat="45.04493" lon="5.41712">
        <ele>1114.5</ele>
        <time>2012-08-23T08:07:26Z</time>
      </trkpt>
      <trkpt lat="45.04491" lon="5.41701">
        <ele>1116.3</ele>
        <time>2012-08-23T08:07:33Z</time>
      </trkpt>
      <trkpt lat="45.04491" lon="5.41694">
        <ele>1118</ele>
        <time>2012-08-23T08:07:37Z</time>
      </trkpt>
      <trkpt lat="45.04494" lon="5.41682">
        <ele>1120.5</ele>
        <time>2012-08-23T08:07:44Z</time>
      </trkpt>
      <trkpt lat="45.04494" lon="5.41677">
        <ele>1122.3</ele>
        <time>2012-08-23T08:07:47Z</time>
      </trkpt>
      <trkpt lat="45.04495" lon="5.41665">
        <ele>1123</ele>
        <time>2012-08-23T08:07:54Z</time>
      </trkpt>
      <trkpt lat="45.04494" lon="5.4165">
        <ele>1124.5</ele>
        <time>2012-08-23T08:08:01Z</time>
      </trkpt>
      <trkpt lat="45.04494" lon="5.41635">
        <ele>1123.5</ele>
        <time>2012-08-23T08:08:09Z</time>
      </trkpt>
      <trkpt lat="45.04493" lon="5.41631">
        <ele>1123.3</ele>
        <time>2012-08-23T08:08:11Z</time>
      </trkpt>
      <trkpt lat="45.04493" lon="5.41625">
        <ele>1123.5</ele>
        <time>2012-08-23T08:08:14Z</time>
      </trkpt>
      <trkpt lat="45.04492" lon="5.41611">
        <ele>1124</ele>
        <time>2012-08-23T08:08:21Z</time>
      </trkpt>
      <trkpt lat="45.04492" lon="5.41607">
        <ele>1124.3</ele>
        <time>2012-08-23T08:08:23Z</time>
      </trkpt>
      <trkpt lat="45.04492" lon="5.41599">
        <ele>1123.8</ele>
        <time>2012-08-23T08:08:27Z</time>
      </trkpt>
      <trkpt lat="45.0449" lon="5.41594">
        <ele>1125.4</ele>
        <time>2012-08-23T08:08:29Z</time>
      </trkpt>
      <trkpt lat="45.04489" lon="5.4159">
        <ele>1125.5</ele>
        <time>2012-08-23T08:08:31Z</time>
      </trkpt>
      <trkpt lat="45.04489" lon="5.41585">
        <ele>1126</ele>
        <time>2012-08-23T08:08:33Z</time>
      </trkpt>
      <trkpt lat="45.04486" lon="5.41576">
        <ele>1129.3</ele>
        <time>2012-08-23T08:08:37Z</time>
      </trkpt>
      <trkpt lat="45.04478" lon="5.41563">
        <ele>1135.5</ele>
        <time>2012-08-23T08:08:44Z</time>
      </trkpt>
      <trkpt lat="45.04474" lon="5.41558">
        <ele>1133</ele>
        <time>2012-08-23T08:08:49Z</time>
      </trkpt>
      <trkpt lat="45.04469" lon="5.41557">
        <ele>1131.5</ele>
        <time>2012-08-23T08:08:53Z</time>
      </trkpt>
      <trkpt lat="45.04463" lon="5.41554">
        <ele>1131</ele>
        <time>2012-08-23T08:08:57Z</time>
      </trkpt>
      <trkpt lat="45.04458" lon="5.41548">
        <ele>1131.5</ele>
        <time>2012-08-23T08:09:01Z</time>
      </trkpt>
      <trkpt lat="45.04452" lon="5.41538">
        <ele>1129.5</ele>
        <time>2012-08-23T08:09:07Z</time>
      </trkpt>
      <trkpt lat="45.04449" lon="5.41537">
        <ele>1128.5</ele>
        <time>2012-08-23T08:09:10Z</time>
      </trkpt>
      <trkpt lat="45.04449" lon="5.41538">
        <ele>1128.4</ele>
        <time>2012-08-23T08:09:30Z</time>
      </trkpt>
      <trkpt lat="45.0445" lon="5.41541">
        <ele>1124.5</ele>
        <time>2012-08-23T08:09:39Z</time>
      </trkpt>
      <trkpt lat="45.0445" lon="5.41535">
        <ele>1123</ele>
        <time>2012-08-23T08:09:49Z</time>
      </trkpt>
      <trkpt lat="45.04452" lon="5.41529">
        <ele>1123.5</ele>
        <time>2012-08-23T08:09:52Z</time>
      </trkpt>
      <trkpt lat="45.04454" lon="5.41525">
        <ele>1125</ele>
        <time>2012-08-23T08:09:54Z</time>
      </trkpt>
      <trkpt lat="45.04459" lon="5.41519">
        <ele>1126</ele>
        <time>2012-08-23T08:09:58Z</time>
      </trkpt>
      <trkpt lat="45.04464" lon="5.41506">
        <ele>1125</ele>
        <time>2012-08-23T08:10:04Z</time>
      </trkpt>
      <trkpt lat="45.04467" lon="5.41494">
        <ele>1124.5</ele>
        <time>2012-08-23T08:10:07Z</time>
      </trkpt>
      <trkpt lat="45.04477" lon="5.41447">
        <ele>1121.3</ele>
        <time>2012-08-23T08:10:15Z</time>
      </trkpt>
      <trkpt lat="45.04479" lon="5.41434">
        <ele>1120.8</ele>
        <time>2012-08-23T08:10:17Z</time>
      </trkpt>
      <trkpt lat="45.04479" lon="5.41423">
        <ele>1120.8</ele>
        <time>2012-08-23T08:10:19Z</time>
      </trkpt>
      <trkpt lat="45.04479" lon="5.41409">
        <ele>1119.5</ele>
        <time>2012-08-23T08:10:22Z</time>
      </trkpt>
      <trkpt lat="45.04481" lon="5.41375">
        <ele>1118.8</ele>
        <time>2012-08-23T08:10:28Z</time>
      </trkpt>
      <trkpt lat="45.04481" lon="5.41363">
        <ele>1118.4</ele>
        <time>2012-08-23T08:10:30Z</time>
      </trkpt>
      <trkpt lat="45.0448" lon="5.41357">
        <ele>1118.8</ele>
        <time>2012-08-23T08:10:31Z</time>
      </trkpt>
      <trkpt lat="45.04474" lon="5.41336">
        <ele>1120</ele>
        <time>2012-08-23T08:10:35Z</time>
      </trkpt>
      <trkpt lat="45.04471" lon="5.41323">
        <ele>1121.8</ele>
        <time>2012-08-23T08:10:40Z</time>
      </trkpt>
      <trkpt lat="45.04469" lon="5.4131">
        <ele>1128.3</ele>
        <time>2012-08-23T08:10:46Z</time>
      </trkpt>
      <trkpt lat="45.04469" lon="5.41308">
        <ele>1129.8</ele>
        <time>2012-08-23T08:10:47Z</time>
      </trkpt>
      <trkpt lat="45.04468" lon="5.41303">
        <ele>1131.9</ele>
        <time>2012-08-23T08:10:50Z</time>
      </trkpt>
      <trkpt lat="45.04469" lon="5.41291">
        <ele>1133</ele>
        <time>2012-08-23T08:10:57Z</time>
      </trkpt>
      <trkpt lat="45.04471" lon="5.41283">
        <ele>1131.9</ele>
        <time>2012-08-23T08:11:02Z</time>
      </trkpt>
      <trkpt lat="45.04471" lon="5.41277">
        <ele>1131</ele>
        <time>2012-08-23T08:11:06Z</time>
      </trkpt>
      <trkpt lat="45.04471" lon="5.4127">
        <ele>1131</ele>
        <time>2012-08-23T08:11:10Z</time>
      </trkpt>
      <trkpt lat="45.04471" lon="5.41265">
        <ele>1130</ele>
        <time>2012-08-23T08:11:13Z</time>
      </trkpt>
      <trkpt lat="45.04467" lon="5.41254">
        <ele>1128</ele>
        <time>2012-08-23T08:11:21Z</time>
      </trkpt>
      <trkpt lat="45.04466" lon="5.41251">
        <ele>1129.5</ele>
        <time>2012-08-23T08:11:25Z</time>
      </trkpt>
      <trkpt lat="45.04466" lon="5.41249">
        <ele>1130.4</ele>
        <time>2012-08-23T08:11:29Z</time>
      </trkpt>
      <trkpt lat="45.04463" lon="5.41243">
        <ele>1127.9</ele>
        <time>2012-08-23T08:11:39Z</time>
      </trkpt>
      <trkpt lat="45.04463" lon="5.41243">
        <ele>1124</ele>
        <time>2012-08-23T08:11:49Z</time>
      </trkpt>
      <trkpt lat="45.04463" lon="5.41242">
        <ele>1125</ele>
        <time>2012-08-23T08:11:58Z</time>
      </trkpt>
      <trkpt lat="45.04464" lon="5.41242">
        <ele>1124.9</ele>
        <time>2012-08-23T08:12:12Z</time>
      </trkpt>
      <trkpt lat="45.04468" lon="5.41242">
        <ele>1124</ele>
        <time>2012-08-23T08:12:44Z</time>
      </trkpt>
      <trkpt lat="45.04471" lon="5.4124">
        <ele>1123</ele>
        <time>2012-08-23T08:13:01Z</time>
      </trkpt>
      <trkpt lat="45.0447" lon="5.41242">
        <ele>1124</ele>
        <time>2012-08-23T08:13:09Z</time>
      </trkpt>
      <trkpt lat="45.04469" lon="5.41243">
        <ele>1124.9</ele>
        <time>2012-08-23T08:13:15Z</time>
      </trkpt>
      <trkpt lat="45.04468" lon="5.41244">
        <ele>1125.4</ele>
        <time>2012-08-23T08:13:18Z</time>
      </trkpt>
      <trkpt lat="45.04468" lon="5.41245">
        <ele>1125.5</ele>
        <time>2012-08-23T08:13:20Z</time>
      </trkpt>
      <trkpt lat="45.04468" lon="5.41245">
        <ele>1126</ele>
        <time>2012-08-23T08:13:23Z</time>
      </trkpt>
      <trkpt lat="45.04466" lon="5.41247">
        <ele>1126.5</ele>
        <time>2012-08-23T08:13:32Z</time>
      </trkpt>
      <trkpt lat="45.04465" lon="5.41249">
        <ele>1126.5</ele>
        <time>2012-08-23T08:13:42Z</time>
      </trkpt>
      <trkpt lat="45.04463" lon="5.41249">
        <ele>1123.5</ele>
        <time>2012-08-23T08:14:06Z</time>
      </trkpt>
      <trkpt lat="45.0447" lon="5.41245">
        <ele>1129.5</ele>
        <time>2012-08-23T08:14:17Z</time>
      </trkpt>
      <trkpt lat="45.04471" lon="5.41245">
        <ele>1130.5</ele>
        <time>2012-08-23T08:14:22Z</time>
      </trkpt>
      <trkpt lat="45.04468" lon="5.41247">
        <ele>1128</ele>
        <time>2012-08-23T08:14:48Z</time>
      </trkpt>
      <trkpt lat="45.04465" lon="5.41245">
        <ele>1129.9</ele>
        <time>2012-08-23T08:15:01Z</time>
      </trkpt>
      <trkpt lat="45.04463" lon="5.41245">
        <ele>1129.5</ele>
        <time>2012-08-23T08:15:04Z</time>
      </trkpt>
      <trkpt lat="45.04459" lon="5.41239">
        <ele>1129</ele>
        <time>2012-08-23T08:15:08Z</time>
      </trkpt>
      <trkpt lat="45.04457" lon="5.41233">
        <ele>1128.5</ele>
        <time>2012-08-23T08:15:10Z</time>
      </trkpt>
      <trkpt lat="45.04454" lon="5.41214">
        <ele>1128.9</ele>
        <time>2012-08-23T08:15:14Z</time>
      </trkpt>
      <trkpt lat="45.04451" lon="5.41207">
        <ele>1128.4</ele>
        <time>2012-08-23T08:15:16Z</time>
      </trkpt>
      <trkpt lat="45.04436" lon="5.41185">
        <ele>1132.3</ele>
        <time>2012-08-23T08:15:23Z</time>
      </trkpt>
      <trkpt lat="45.04428" lon="5.41177">
        <ele>1133.8</ele>
        <time>2012-08-23T08:15:29Z</time>
      </trkpt>
      <trkpt lat="45.04424" lon="5.41171">
        <ele>1135.8</ele>
        <time>2012-08-23T08:15:33Z</time>
      </trkpt>
      <trkpt lat="45.04418" lon="5.41165">
        <ele>1139</ele>
        <time>2012-08-23T08:15:39Z</time>
      </trkpt>
      <trkpt lat="45.04413" lon="5.41158">
        <ele>1141.9</ele>
        <time>2012-08-23T08:15:43Z</time>
      </trkpt>
      <trkpt lat="45.04393" lon="5.41139">
        <ele>1148.4</ele>
        <time>2012-08-23T08:15:51Z</time>
      </trkpt>
      <trkpt lat="45.04388" lon="5.41137">
        <ele>1149</ele>
        <time>2012-08-23T08:15:54Z</time>
      </trkpt>
      <trkpt lat="45.04385" lon="5.41136">
        <ele>1149</ele>
        <time>2012-08-23T08:15:56Z</time>
      </trkpt>
      <trkpt lat="45.0438" lon="5.41137">
        <ele>1147</ele>
        <time>2012-08-23T08:16:00Z</time>
      </trkpt>
      <trkpt lat="45.04375" lon="5.41136">
        <ele>1146.4</ele>
        <time>2012-08-23T08:16:04Z</time>
      </trkpt>
      <trkpt lat="45.04371" lon="5.41138">
        <ele>1144.5</ele>
        <time>2012-08-23T08:16:08Z</time>
      </trkpt>
      <trkpt lat="45.04368" lon="5.41138">
        <ele>1143.8</ele>
        <time>2012-08-23T08:16:11Z</time>
      </trkpt>
      <trkpt lat="45.04365" lon="5.41138">
        <ele>1142.5</ele>
        <time>2012-08-23T08:16:13Z</time>
      </trkpt>
      <trkpt lat="45.04355" lon="5.41141">
        <ele>1140</ele>
        <time>2012-08-23T08:16:19Z</time>
      </trkpt>
      <trkpt lat="45.04351" lon="5.41141">
        <ele>1140.5</ele>
        <time>2012-08-23T08:16:22Z</time>
      </trkpt>
      <trkpt lat="45.04345" lon="5.4114">
        <ele>1140.5</ele>
        <time>2012-08-23T08:16:26Z</time>
      </trkpt>
      <trkpt lat="45.04336" lon="5.41132">
        <ele>1145</ele>
        <time>2012-08-23T08:16:32Z</time>
      </trkpt>
      <trkpt lat="45.04335" lon="5.41126">
        <ele>1145</ele>
        <time>2012-08-23T08:16:36Z</time>
      </trkpt>
      <trkpt lat="45.04336" lon="5.41116">
        <ele>1145.8</ele>
        <time>2012-08-23T08:16:42Z</time>
      </trkpt>
      <trkpt lat="45.04336" lon="5.41106">
        <ele>1147.5</ele>
        <time>2012-08-23T08:16:48Z</time>
      </trkpt>
      <trkpt lat="45.04335" lon="5.41098">
        <ele>1151</ele>
        <time>2012-08-23T08:16:52Z</time>
      </trkpt>
      <trkpt lat="45.04335" lon="5.41094">
        <ele>1151.5</ele>
        <time>2012-08-23T08:16:54Z</time>
      </trkpt>
      <trkpt lat="45.04332" lon="5.41082">
        <ele>1153.4</ele>
        <time>2012-08-23T08:17:01Z</time>
      </trkpt>
      <trkpt lat="45.04328" lon="5.41071">
        <ele>1151.9</ele>
        <time>2012-08-23T08:17:08Z</time>
      </trkpt>
      <trkpt lat="45.04325" lon="5.41066">
        <ele>1152.5</ele>
        <time>2012-08-23T08:17:11Z</time>
      </trkpt>
      <trkpt lat="45.0432" lon="5.41062">
        <ele>1151.4</ele>
        <time>2012-08-23T08:17:15Z</time>
      </trkpt>
      <trkpt lat="45.04316" lon="5.41054">
        <ele>1155</ele>
        <time>2012-08-23T08:17:19Z</time>
      </trkpt>
      <trkpt lat="45.04315" lon="5.4105">
        <ele>1157.4</ele>
        <time>2012-08-23T08:17:21Z</time>
      </trkpt>
      <trkpt lat="45.04311" lon="5.41044">
        <ele>1158.8</ele>
        <time>2012-08-23T08:17:25Z</time>
      </trkpt>
      <trkpt lat="45.04306" lon="5.4104">
        <ele>1158.3</ele>
        <time>2012-08-23T08:17:29Z</time>
      </trkpt>
      <trkpt lat="45.04301" lon="5.41035">
        <ele>1157.8</ele>
        <time>2012-08-23T08:17:34Z</time>
      </trkpt>
      <trkpt lat="45.04297" lon="5.41031">
        <ele>1157.4</ele>
        <time>2012-08-23T08:17:38Z</time>
      </trkpt>
      <trkpt lat="45.04293" lon="5.41022">
        <ele>1160.8</ele>
        <time>2012-08-23T08:17:43Z</time>
      </trkpt>
      <trkpt lat="45.04287" lon="5.41014">
        <ele>1161.5</ele>
        <time>2012-08-23T08:17:48Z</time>
      </trkpt>
      <trkpt lat="45.04283" lon="5.41004">
        <ele>1159.5</ele>
        <time>2012-08-23T08:17:54Z</time>
      </trkpt>
      <trkpt lat="45.04282" lon="5.41001">
        <ele>1158.4</ele>
        <time>2012-08-23T08:17:56Z</time>
      </trkpt>
      <trkpt lat="45.0428" lon="5.40987">
        <ele>1156</ele>
        <time>2012-08-23T08:18:01Z</time>
      </trkpt>
      <trkpt lat="45.04279" lon="5.4098">
        <ele>1155</ele>
        <time>2012-08-23T08:18:04Z</time>
      </trkpt>
      <trkpt lat="45.04278" lon="5.40975">
        <ele>1154.5</ele>
        <time>2012-08-23T08:18:06Z</time>
      </trkpt>
      <trkpt lat="45.04274" lon="5.4096">
        <ele>1154</ele>
        <time>2012-08-23T08:18:11Z</time>
      </trkpt>
      <trkpt lat="45.04273" lon="5.40951">
        <ele>1154</ele>
        <time>2012-08-23T08:18:14Z</time>
      </trkpt>
      <trkpt lat="45.04272" lon="5.40943">
        <ele>1153.5</ele>
        <time>2012-08-23T08:18:17Z</time>
      </trkpt>
      <trkpt lat="45.04273" lon="5.40935">
        <ele>1152.5</ele>
        <time>2012-08-23T08:18:20Z</time>
      </trkpt>
      <trkpt lat="45.04273" lon="5.40924">
        <ele>1149.5</ele>
        <time>2012-08-23T08:18:25Z</time>
      </trkpt>
      <trkpt lat="45.04272" lon="5.40921">
        <ele>1147.5</ele>
        <time>2012-08-23T08:18:30Z</time>
      </trkpt>
      <trkpt lat="45.04272" lon="5.40917">
        <ele>1147.5</ele>
        <time>2012-08-23T08:18:44Z</time>
      </trkpt>
      <trkpt lat="45.04269" lon="5.40916">
        <ele>1147.9</ele>
        <time>2012-08-23T08:18:47Z</time>
      </trkpt>
      <trkpt lat="45.04265" lon="5.40913">
        <ele>1147</ele>
        <time>2012-08-23T08:18:51Z</time>
      </trkpt>
      <trkpt lat="45.0426" lon="5.40911">
        <ele>1147</ele>
        <time>2012-08-23T08:18:55Z</time>
      </trkpt>
      <trkpt lat="45.04258" lon="5.40908">
        <ele>1147</ele>
        <time>2012-08-23T08:18:59Z</time>
      </trkpt>
      <trkpt lat="45.04256" lon="5.40905">
        <ele>1148</ele>
        <time>2012-08-23T08:19:01Z</time>
      </trkpt>
      <trkpt lat="45.04253" lon="5.40902">
        <ele>1148.5</ele>
        <time>2012-08-23T08:19:02Z</time>
      </trkpt>
      <trkpt lat="45.04244" lon="5.40896">
        <ele>1150</ele>
        <time>2012-08-23T08:19:05Z</time>
      </trkpt>
      <trkpt lat="45.04232" lon="5.40884">
        <ele>1149</ele>
        <time>2012-08-23T08:19:09Z</time>
      </trkpt>
      <trkpt lat="45.0423" lon="5.4088">
        <ele>1148.8</ele>
        <time>2012-08-23T08:19:10Z</time>
      </trkpt>
      <trkpt lat="45.04228" lon="5.40876">
        <ele>1148.5</ele>
        <time>2012-08-23T08:19:11Z</time>
      </trkpt>
      <trkpt lat="45.04227" lon="5.40872">
        <ele>1147.9</ele>
        <time>2012-08-23T08:19:12Z</time>
      </trkpt>
      <trkpt lat="45.04226" lon="5.40864">
        <ele>1146.5</ele>
        <time>2012-08-23T08:19:14Z</time>
      </trkpt>
      <trkpt lat="45.04226" lon="5.40859">
        <ele>1146.5</ele>
        <time>2012-08-23T08:19:15Z</time>
      </trkpt>
      <trkpt lat="45.04223" lon="5.4084">
        <ele>1144.5</ele>
        <time>2012-08-23T08:19:19Z</time>
      </trkpt>
      <trkpt lat="45.04223" lon="5.40834">
        <ele>1144.5</ele>
        <time>2012-08-23T08:19:20Z</time>
      </trkpt>
      <trkpt lat="45.04224" lon="5.40828">
        <ele>1144.5</ele>
        <time>2012-08-23T08:19:21Z</time>
      </trkpt>
      <trkpt lat="45.04229" lon="5.4081">
        <ele>1145.3</ele>
        <time>2012-08-23T08:19:24Z</time>
      </trkpt>
      <trkpt lat="45.0423" lon="5.40783">
        <ele>1144.5</ele>
        <time>2012-08-23T08:19:29Z</time>
      </trkpt>
      <trkpt lat="45.04228" lon="5.40769">
        <ele>1142.4</ele>
        <time>2012-08-23T08:19:33Z</time>
      </trkpt>
      <trkpt lat="45.04227" lon="5.40766">
        <ele>1142.5</ele>
        <time>2012-08-23T08:19:34Z</time>
      </trkpt>
      <trkpt lat="45.04226" lon="5.4076">
        <ele>1142</ele>
        <time>2012-08-23T08:19:37Z</time>
      </trkpt>
      <trkpt lat="45.04225" lon="5.40754">
        <ele>1142</ele>
        <time>2012-08-23T08:19:40Z</time>
      </trkpt>
      <trkpt lat="45.04223" lon="5.40751">
        <ele>1142.3</ele>
        <time>2012-08-23T08:19:42Z</time>
      </trkpt>
      <trkpt lat="45.04217" lon="5.40742">
        <ele>1142</ele>
        <time>2012-08-23T08:19:49Z</time>
      </trkpt>
      <trkpt lat="45.0421" lon="5.40734">
        <ele>1141.8</ele>
        <time>2012-08-23T08:19:56Z</time>
      </trkpt>
      <trkpt lat="45.04203" lon="5.40727">
        <ele>1141.8</ele>
        <time>2012-08-23T08:20:03Z</time>
      </trkpt>
      <trkpt lat="45.04197" lon="5.40721">
        <ele>1143</ele>
        <time>2012-08-23T08:20:09Z</time>
      </trkpt>
      <trkpt lat="45.0419" lon="5.40713">
        <ele>1144</ele>
        <time>2012-08-23T08:20:16Z</time>
      </trkpt>
      <trkpt lat="45.04184" lon="5.40706">
        <ele>1145.4</ele>
        <time>2012-08-23T08:20:22Z</time>
      </trkpt>
      <trkpt lat="45.04182" lon="5.40702">
        <ele>1145.8</ele>
        <time>2012-08-23T08:20:25Z</time>
      </trkpt>
      <trkpt lat="45.04179" lon="5.40698">
        <ele>1146.9</ele>
        <time>2012-08-23T08:20:28Z</time>
      </trkpt>
      <trkpt lat="45.04175" lon="5.40694">
        <ele>1147</ele>
        <time>2012-08-23T08:20:31Z</time>
      </trkpt>
      <trkpt lat="45.04169" lon="5.40693">
        <ele>1147</ele>
        <time>2012-08-23T08:20:33Z</time>
      </trkpt>
      <trkpt lat="45.04166" lon="5.40694">
        <ele>1146.9</ele>
        <time>2012-08-23T08:20:34Z</time>
      </trkpt>
      <trkpt lat="45.0416" lon="5.40697">
        <ele>1146.5</ele>
        <time>2012-08-23T08:20:36Z</time>
      </trkpt>
      <trkpt lat="45.04154" lon="5.40701">
        <ele>1146.8</ele>
        <time>2012-08-23T08:20:38Z</time>
      </trkpt>
      <trkpt lat="45.04148" lon="5.40705">
        <ele>1147</ele>
        <time>2012-08-23T08:20:41Z</time>
      </trkpt>
      <trkpt lat="45.04137" lon="5.40709">
        <ele>1149.9</ele>
        <time>2012-08-23T08:20:47Z</time>
      </trkpt>
      <trkpt lat="45.0413" lon="5.4071">
        <ele>1149.9</ele>
        <time>2012-08-23T08:20:51Z</time>
      </trkpt>
      <trkpt lat="45.04125" lon="5.40708">
        <ele>1149</ele>
        <time>2012-08-23T08:20:54Z</time>
      </trkpt>
      <trkpt lat="45.04117" lon="5.40703">
        <ele>1150</ele>
        <time>2012-08-23T08:20:58Z</time>
      </trkpt>
      <trkpt lat="45.04112" lon="5.40703">
        <ele>1150.5</ele>
        <time>2012-08-23T08:21:00Z</time>
      </trkpt>
      <trkpt lat="45.04109" lon="5.40703">
        <ele>1150.9</ele>
        <time>2012-08-23T08:21:01Z</time>
      </trkpt>
      <trkpt lat="45.04105" lon="5.40705">
        <ele>1151.8</ele>
        <time>2012-08-23T08:21:02Z</time>
      </trkpt>
      <trkpt lat="45.04102" lon="5.40708">
        <ele>1152.3</ele>
        <time>2012-08-23T08:21:03Z</time>
      </trkpt>
      <trkpt lat="45.04091" lon="5.40727">
        <ele>1150</ele>
        <time>2012-08-23T08:21:07Z</time>
      </trkpt>
      <trkpt lat="45.0407" lon="5.4077">
        <ele>1146</ele>
        <time>2012-08-23T08:21:14Z</time>
      </trkpt>
      <trkpt lat="45.04064" lon="5.4078">
        <ele>1146</ele>
        <time>2012-08-23T08:21:16Z</time>
      </trkpt>
      <trkpt lat="45.04052" lon="5.40791">
        <ele>1143.3</ele>
        <time>2012-08-23T08:21:23Z</time>
      </trkpt>
      <trkpt lat="45.04048" lon="5.40797">
        <ele>1142.4</ele>
        <time>2012-08-23T08:21:28Z</time>
      </trkpt>
      <trkpt lat="45.04038" lon="5.40813">
        <ele>1140.5</ele>
        <time>2012-08-23T08:21:33Z</time>
      </trkpt>
      <trkpt lat="45.04032" lon="5.40819">
        <ele>1141.5</ele>
        <time>2012-08-23T08:21:35Z</time>
      </trkpt>
      <trkpt lat="45.04029" lon="5.40821">
        <ele>1142.4</ele>
        <time>2012-08-23T08:21:36Z</time>
      </trkpt>
      <trkpt lat="45.04022" lon="5.40831">
        <ele>1142.8</ele>
        <time>2012-08-23T08:21:43Z</time>
      </trkpt>
      <trkpt lat="45.04013" lon="5.40833">
        <ele>1141.5</ele>
        <time>2012-08-23T08:21:52Z</time>
      </trkpt>
      <trkpt lat="45.04005" lon="5.40833">
        <ele>1141</ele>
        <time>2012-08-23T08:21:58Z</time>
      </trkpt>
      <trkpt lat="45.04004" lon="5.40833">
        <ele>1141</ele>
        <time>2012-08-23T08:21:59Z</time>
      </trkpt>
      <trkpt lat="45.03993" lon="5.40837">
        <ele>1140.4</ele>
        <time>2012-08-23T08:22:06Z</time>
      </trkpt>
      <trkpt lat="45.03987" lon="5.40841">
        <ele>1139.8</ele>
        <time>2012-08-23T08:22:09Z</time>
      </trkpt>
      <trkpt lat="45.03985" lon="5.40841">
        <ele>1139.5</ele>
        <time>2012-08-23T08:22:10Z</time>
      </trkpt>
      <trkpt lat="45.03972" lon="5.40848">
        <ele>1138.5</ele>
        <time>2012-08-23T08:22:16Z</time>
      </trkpt>
      <trkpt lat="45.03966" lon="5.40852">
        <ele>1138</ele>
        <time>2012-08-23T08:22:19Z</time>
      </trkpt>
      <trkpt lat="45.03958" lon="5.4086">
        <ele>1136.5</ele>
        <time>2012-08-23T08:22:24Z</time>
      </trkpt>
      <trkpt lat="45.03956" lon="5.40864">
        <ele>1136.4</ele>
        <time>2012-08-23T08:22:26Z</time>
      </trkpt>
      <trkpt lat="45.03946" lon="5.40875">
        <ele>1135</ele>
        <time>2012-08-23T08:22:31Z</time>
      </trkpt>
      <trkpt lat="45.0394" lon="5.40875">
        <ele>1138.8</ele>
        <time>2012-08-23T08:22:33Z</time>
      </trkpt>
      <trkpt lat="45.03935" lon="5.40877">
        <ele>1139.8</ele>
        <time>2012-08-23T08:22:35Z</time>
      </trkpt>
      <trkpt lat="45.0393" lon="5.4088">
        <ele>1141</ele>
        <time>2012-08-23T08:22:38Z</time>
      </trkpt>
      <trkpt lat="45.03926" lon="5.40882">
        <ele>1141.8</ele>
        <time>2012-08-23T08:22:40Z</time>
      </trkpt>
      <trkpt lat="45.03923" lon="5.40886">
        <ele>1141</ele>
        <time>2012-08-23T08:22:42Z</time>
      </trkpt>
      <trkpt lat="45.03913" lon="5.40895">
        <ele>1139</ele>
        <time>2012-08-23T08:22:47Z</time>
      </trkpt>
      <trkpt lat="45.03908" lon="5.40898">
        <ele>1138.9</ele>
        <time>2012-08-23T08:22:50Z</time>
      </trkpt>
      <trkpt lat="45.03903" lon="5.409">
        <ele>1139</ele>
        <time>2012-08-23T08:22:53Z</time>
      </trkpt>
      <trkpt lat="45.03895" lon="5.40896">
        <ele>1145.9</ele>
        <time>2012-08-23T08:23:00Z</time>
      </trkpt>
      <trkpt lat="45.0389" lon="5.40894">
        <ele>1149.5</ele>
        <time>2012-08-23T08:23:04Z</time>
      </trkpt>
      <trkpt lat="45.03883" lon="5.40891">
        <ele>1153.9</ele>
        <time>2012-08-23T08:23:10Z</time>
      </trkpt>
      <trkpt lat="45.03881" lon="5.40889">
        <ele>1156.5</ele>
        <time>2012-08-23T08:23:12Z</time>
      </trkpt>
      <trkpt lat="45.03877" lon="5.40886">
        <ele>1158.9</ele>
        <time>2012-08-23T08:23:16Z</time>
      </trkpt>
      <trkpt lat="45.03874" lon="5.40882">
        <ele>1158.5</ele>
        <time>2012-08-23T08:23:20Z</time>
      </trkpt>
      <trkpt lat="45.03873" lon="5.40874">
        <ele>1159.5</ele>
        <time>2012-08-23T08:23:26Z</time>
      </trkpt>
      <trkpt lat="45.03872" lon="5.40865">
        <ele>1162</ele>
        <time>2012-08-23T08:23:32Z</time>
      </trkpt>
      <trkpt lat="45.03871" lon="5.4086">
        <ele>1163.5</ele>
        <time>2012-08-23T08:23:36Z</time>
      </trkpt>
      <trkpt lat="45.03871" lon="5.40854">
        <ele>1166</ele>
        <time>2012-08-23T08:23:40Z</time>
      </trkpt>
      <trkpt lat="45.03872" lon="5.40849">
        <ele>1167.5</ele>
        <time>2012-08-23T08:23:44Z</time>
      </trkpt>
      <trkpt lat="45.03872" lon="5.40845">
        <ele>1167.3</ele>
        <time>2012-08-23T08:23:47Z</time>
      </trkpt>
      <trkpt lat="45.03873" lon="5.4084">
        <ele>1166.3</ele>
        <time>2012-08-23T08:23:51Z</time>
      </trkpt>
      <trkpt lat="45.03874" lon="5.40833">
        <ele>1166</ele>
        <time>2012-08-23T08:23:56Z</time>
      </trkpt>
      <trkpt lat="45.03873" lon="5.40821">
        <ele>1164.3</ele>
        <time>2012-08-23T08:24:04Z</time>
      </trkpt>
      <trkpt lat="45.03872" lon="5.40816">
        <ele>1163.5</ele>
        <time>2012-08-23T08:24:06Z</time>
      </trkpt>
      <trkpt lat="45.03868" lon="5.40811">
        <ele>1162.5</ele>
        <time>2012-08-23T08:24:08Z</time>
      </trkpt>
      <trkpt lat="45.03864" lon="5.40808">
        <ele>1161.5</ele>
        <time>2012-08-23T08:24:10Z</time>
      </trkpt>
      <trkpt lat="45.03857" lon="5.40805">
        <ele>1162</ele>
        <time>2012-08-23T08:24:13Z</time>
      </trkpt>
      <trkpt lat="45.03845" lon="5.40803">
        <ele>1161</ele>
        <time>2012-08-23T08:24:21Z</time>
      </trkpt>
      <trkpt lat="45.03838" lon="5.40803">
        <ele>1160.9</ele>
        <time>2012-08-23T08:24:26Z</time>
      </trkpt>
      <trkpt lat="45.03833" lon="5.40802">
        <ele>1161.5</ele>
        <time>2012-08-23T08:24:30Z</time>
      </trkpt>
      <trkpt lat="45.03825" lon="5.40802">
        <ele>1161.3</ele>
        <time>2012-08-23T08:24:36Z</time>
      </trkpt>
      <trkpt lat="45.03819" lon="5.40802">
        <ele>1159</ele>
        <time>2012-08-23T08:24:42Z</time>
      </trkpt>
      <trkpt lat="45.03816" lon="5.40803">
        <ele>1158.3</ele>
        <time>2012-08-23T08:24:44Z</time>
      </trkpt>
      <trkpt lat="45.03812" lon="5.40803">
        <ele>1156.5</ele>
        <time>2012-08-23T08:24:47Z</time>
      </trkpt>
      <trkpt lat="45.03807" lon="5.40804">
        <ele>1154.8</ele>
        <time>2012-08-23T08:24:50Z</time>
      </trkpt>
      <trkpt lat="45.03799" lon="5.40803">
        <ele>1155</ele>
        <time>2012-08-23T08:24:55Z</time>
      </trkpt>
      <trkpt lat="45.03797" lon="5.40803">
        <ele>1156</ele>
        <time>2012-08-23T08:24:56Z</time>
      </trkpt>
      <trkpt lat="45.03791" lon="5.40801">
        <ele>1155.5</ele>
        <time>2012-08-23T08:25:00Z</time>
      </trkpt>
      <trkpt lat="45.03781" lon="5.40797">
        <ele>1155.5</ele>
        <time>2012-08-23T08:25:07Z</time>
      </trkpt>
      <trkpt lat="45.03769" lon="5.40789">
        <ele>1159.3</ele>
        <time>2012-08-23T08:25:13Z</time>
      </trkpt>
      <trkpt lat="45.03761" lon="5.40784">
        <ele>1162.5</ele>
        <time>2012-08-23T08:25:16Z</time>
      </trkpt>
      <trkpt lat="45.03746" lon="5.40777">
        <ele>1168.5</ele>
        <time>2012-08-23T08:25:22Z</time>
      </trkpt>
      <trkpt lat="45.03741" lon="5.40777">
        <ele>1168.5</ele>
        <time>2012-08-23T08:25:24Z</time>
      </trkpt>
      <trkpt lat="45.03732" lon="5.40779">
        <ele>1167.5</ele>
        <time>2012-08-23T08:25:29Z</time>
      </trkpt>
      <trkpt lat="45.03722" lon="5.40779">
        <ele>1169.5</ele>
        <time>2012-08-23T08:25:34Z</time>
      </trkpt>
      <trkpt lat="45.03715" lon="5.40779">
        <ele>1169</ele>
        <time>2012-08-23T08:25:38Z</time>
      </trkpt>
      <trkpt lat="45.03707" lon="5.40774">
        <ele>1168.5</ele>
        <time>2012-08-23T08:25:44Z</time>
      </trkpt>
      <trkpt lat="45.03697" lon="5.40761">
        <ele>1168</ele>
        <time>2012-08-23T08:25:50Z</time>
      </trkpt>
      <trkpt lat="45.03694" lon="5.40753">
        <ele>1167.5</ele>
        <time>2012-08-23T08:25:53Z</time>
      </trkpt>
      <trkpt lat="45.03687" lon="5.40743">
        <ele>1167.8</ele>
        <time>2012-08-23T08:25:57Z</time>
      </trkpt>
      <trkpt lat="45.03677" lon="5.40727">
        <ele>1170.5</ele>
        <time>2012-08-23T08:26:04Z</time>
      </trkpt>
      <trkpt lat="45.0367" lon="5.40711">
        <ele>1173.5</ele>
        <time>2012-08-23T08:26:10Z</time>
      </trkpt>
      <trkpt lat="45.03667" lon="5.40707">
        <ele>1172.5</ele>
        <time>2012-08-23T08:26:12Z</time>
      </trkpt>
      <trkpt lat="45.03666" lon="5.40703">
        <ele>1172</ele>
        <time>2012-08-23T08:26:14Z</time>
      </trkpt>
      <trkpt lat="45.03665" lon="5.40695">
        <ele>1170.4</ele>
        <time>2012-08-23T08:26:17Z</time>
      </trkpt>
      <trkpt lat="45.03663" lon="5.40687">
        <ele>1169</ele>
        <time>2012-08-23T08:26:20Z</time>
      </trkpt>
      <trkpt lat="45.03661" lon="5.40683">
        <ele>1168.5</ele>
        <time>2012-08-23T08:26:22Z</time>
      </trkpt>
      <trkpt lat="45.03654" lon="5.40675">
        <ele>1168.5</ele>
        <time>2012-08-23T08:26:26Z</time>
      </trkpt>
      <trkpt lat="45.03651" lon="5.4067">
        <ele>1168.5</ele>
        <time>2012-08-23T08:26:28Z</time>
      </trkpt>
      <trkpt lat="45.03646" lon="5.40655">
        <ele>1168</ele>
        <time>2012-08-23T08:26:34Z</time>
      </trkpt>
      <trkpt lat="45.03646" lon="5.40649">
        <ele>1168.8</ele>
        <time>2012-08-23T08:26:36Z</time>
      </trkpt>
      <trkpt lat="45.03644" lon="5.40641">
        <ele>1169.5</ele>
        <time>2012-08-23T08:26:39Z</time>
      </trkpt>
      <trkpt lat="45.03644" lon="5.4063">
        <ele>1171.8</ele>
        <time>2012-08-23T08:26:43Z</time>
      </trkpt>
      <trkpt lat="45.03644" lon="5.40623">
        <ele>1173</ele>
        <time>2012-08-23T08:26:46Z</time>
      </trkpt>
      <trkpt lat="45.03644" lon="5.40614">
        <ele>1173</ele>
        <time>2012-08-23T08:26:50Z</time>
      </trkpt>
      <trkpt lat="45.03643" lon="5.4061">
        <ele>1172.4</ele>
        <time>2012-08-23T08:26:52Z</time>
      </trkpt>
      <trkpt lat="45.03638" lon="5.4059">
        <ele>1171</ele>
        <time>2012-08-23T08:26:59Z</time>
      </trkpt>
      <trkpt lat="45.03632" lon="5.40574">
        <ele>1169.8</ele>
        <time>2012-08-23T08:27:05Z</time>
      </trkpt>
      <trkpt lat="45.0363" lon="5.40564">
        <ele>1169</ele>
        <time>2012-08-23T08:27:08Z</time>
      </trkpt>
      <trkpt lat="45.03628" lon="5.40557">
        <ele>1169</ele>
        <time>2012-08-23T08:27:11Z</time>
      </trkpt>
      <trkpt lat="45.03624" lon="5.40551">
        <ele>1169.5</ele>
        <time>2012-08-23T08:27:13Z</time>
      </trkpt>
      <trkpt lat="45.03622" lon="5.40546">
        <ele>1169.9</ele>
        <time>2012-08-23T08:27:15Z</time>
      </trkpt>
      <trkpt lat="45.03616" lon="5.40539">
        <ele>1170</ele>
        <time>2012-08-23T08:27:18Z</time>
      </trkpt>
      <trkpt lat="45.03614" lon="5.40538">
        <ele>1170</ele>
        <time>2012-08-23T08:27:19Z</time>
      </trkpt>
      <trkpt lat="45.03602" lon="5.40527">
        <ele>1170</ele>
        <time>2012-08-23T08:27:24Z</time>
      </trkpt>
      <trkpt lat="45.0359" lon="5.40509">
        <ele>1170.5</ele>
        <time>2012-08-23T08:27:28Z</time>
      </trkpt>
      <trkpt lat="45.03584" lon="5.40496">
        <ele>1171</ele>
        <time>2012-08-23T08:27:31Z</time>
      </trkpt>
      <trkpt lat="45.03576" lon="5.40476">
        <ele>1174.5</ele>
        <time>2012-08-23T08:27:37Z</time>
      </trkpt>
      <trkpt lat="45.03571" lon="5.40458">
        <ele>1177.5</ele>
        <time>2012-08-23T08:27:43Z</time>
      </trkpt>
      <trkpt lat="45.0357" lon="5.40453">
        <ele>1176.5</ele>
        <time>2012-08-23T08:27:45Z</time>
      </trkpt>
      <trkpt lat="45.03568" lon="5.40448">
        <ele>1176.8</ele>
        <time>2012-08-23T08:27:47Z</time>
      </trkpt>
      <trkpt lat="45.03567" lon="5.40442">
        <ele>1176</ele>
        <time>2012-08-23T08:27:49Z</time>
      </trkpt>
      <trkpt lat="45.03567" lon="5.40438">
        <ele>1174.9</ele>
        <time>2012-08-23T08:27:51Z</time>
      </trkpt>
      <trkpt lat="45.03567" lon="5.40427">
        <ele>1174.5</ele>
        <time>2012-08-23T08:27:56Z</time>
      </trkpt>
      <trkpt lat="45.03565" lon="5.40423">
        <ele>1176</ele>
        <time>2012-08-23T08:27:58Z</time>
      </trkpt>
      <trkpt lat="45.03565" lon="5.40417">
        <ele>1177</ele>
        <time>2012-08-23T08:28:01Z</time>
      </trkpt>
      <trkpt lat="45.03562" lon="5.40409">
        <ele>1179.3</ele>
        <time>2012-08-23T08:28:05Z</time>
      </trkpt>
      <trkpt lat="45.03561" lon="5.40401">
        <ele>1180.3</ele>
        <time>2012-08-23T08:28:09Z</time>
      </trkpt>
      <trkpt lat="45.03561" lon="5.40394">
        <ele>1180</ele>
        <time>2012-08-23T08:28:13Z</time>
      </trkpt>
      <trkpt lat="45.03559" lon="5.4038">
        <ele>1181</ele>
        <time>2012-08-23T08:28:18Z</time>
      </trkpt>
      <trkpt lat="45.03558" lon="5.40372">
        <ele>1179.5</ele>
        <time>2012-08-23T08:28:21Z</time>
      </trkpt>
      <trkpt lat="45.03557" lon="5.4037">
        <ele>1179.3</ele>
        <time>2012-08-23T08:28:22Z</time>
      </trkpt>
      <trkpt lat="45.03555" lon="5.40356">
        <ele>1176.5</ele>
        <time>2012-08-23T08:28:27Z</time>
      </trkpt>
      <trkpt lat="45.03552" lon="5.40344">
        <ele>1177.5</ele>
        <time>2012-08-23T08:28:33Z</time>
      </trkpt>
      <trkpt lat="45.03548" lon="5.40339">
        <ele>1180.4</ele>
        <time>2012-08-23T08:28:36Z</time>
      </trkpt>
      <trkpt lat="45.03542" lon="5.40325">
        <ele>1184.3</ele>
        <time>2012-08-23T08:28:42Z</time>
      </trkpt>
      <trkpt lat="45.03533" lon="5.40312">
        <ele>1183.5</ele>
        <time>2012-08-23T08:28:49Z</time>
      </trkpt>
      <trkpt lat="45.03531" lon="5.40308">
        <ele>1181.5</ele>
        <time>2012-08-23T08:28:51Z</time>
      </trkpt>
      <trkpt lat="45.0353" lon="5.40304">
        <ele>1179.5</ele>
        <time>2012-08-23T08:28:53Z</time>
      </trkpt>
      <trkpt lat="45.03522" lon="5.40295">
        <ele>1176</ele>
        <time>2012-08-23T08:29:01Z</time>
      </trkpt>
      <trkpt lat="45.03521" lon="5.40293">
        <ele>1176</ele>
        <time>2012-08-23T08:29:02Z</time>
      </trkpt>
      <trkpt lat="45.03516" lon="5.4029">
        <ele>1174.5</ele>
        <time>2012-08-23T08:29:06Z</time>
      </trkpt>
      <trkpt lat="45.03506" lon="5.40289">
        <ele>1173</ele>
        <time>2012-08-23T08:29:11Z</time>
      </trkpt>
      <trkpt lat="45.03502" lon="5.40288">
        <ele>1173.3</ele>
        <time>2012-08-23T08:29:13Z</time>
      </trkpt>
      <trkpt lat="45.03499" lon="5.40286">
        <ele>1173</ele>
        <time>2012-08-23T08:29:15Z</time>
      </trkpt>
      <trkpt lat="45.03485" lon="5.40283">
        <ele>1173.9</ele>
        <time>2012-08-23T08:29:21Z</time>
      </trkpt>
      <trkpt lat="45.03478" lon="5.4028">
        <ele>1175.5</ele>
        <time>2012-08-23T08:29:24Z</time>
      </trkpt>
      <trkpt lat="45.03472" lon="5.40276">
        <ele>1176.9</ele>
        <time>2012-08-23T08:29:28Z</time>
      </trkpt>
      <trkpt lat="45.03462" lon="5.40272">
        <ele>1178.3</ele>
        <time>2012-08-23T08:29:33Z</time>
      </trkpt>
      <trkpt lat="45.03458" lon="5.40272">
        <ele>1177.8</ele>
        <time>2012-08-23T08:29:35Z</time>
      </trkpt>
      <trkpt lat="45.03453" lon="5.4027">
        <ele>1177.4</ele>
        <time>2012-08-23T08:29:37Z</time>
      </trkpt>
      <trkpt lat="45.03451" lon="5.4027">
        <ele>1177.5</ele>
        <time>2012-08-23T08:29:38Z</time>
      </trkpt>
      <trkpt lat="45.03443" lon="5.40267">
        <ele>1177</ele>
        <time>2012-08-23T08:29:41Z</time>
      </trkpt>
      <trkpt lat="45.03438" lon="5.40263">
        <ele>1177.8</ele>
        <time>2012-08-23T08:29:43Z</time>
      </trkpt>
      <trkpt lat="45.03428" lon="5.40252">
        <ele>1176.4</ele>
        <time>2012-08-23T08:29:49Z</time>
      </trkpt>
      <trkpt lat="45.03417" lon="5.40243">
        <ele>1177</ele>
        <time>2012-08-23T08:29:55Z</time>
      </trkpt>
      <trkpt lat="45.03416" lon="5.40241">
        <ele>1177</ele>
        <time>2012-08-23T08:29:56Z</time>
      </trkpt>
      <trkpt lat="45.03412" lon="5.40238">
        <ele>1177.5</ele>
        <time>2012-08-23T08:29:59Z</time>
      </trkpt>
      <trkpt lat="45.0341" lon="5.40235">
        <ele>1177.4</ele>
        <time>2012-08-23T08:30:01Z</time>
      </trkpt>
      <trkpt lat="45.03404" lon="5.40224">
        <ele>1176</ele>
        <time>2012-08-23T08:30:08Z</time>
      </trkpt>
      <trkpt lat="45.03397" lon="5.40215">
        <ele>1176</ele>
        <time>2012-08-23T08:30:15Z</time>
      </trkpt>
      <trkpt lat="45.03393" lon="5.40209">
        <ele>1176</ele>
        <time>2012-08-23T08:30:22Z</time>
      </trkpt>
      <trkpt lat="45.03388" lon="5.40198">
        <ele>1174.5</ele>
        <time>2012-08-23T08:30:34Z</time>
      </trkpt>
      <trkpt lat="45.03387" lon="5.40187">
        <ele>1175.9</ele>
        <time>2012-08-23T08:30:42Z</time>
      </trkpt>
      <trkpt lat="45.03387" lon="5.40182">
        <ele>1176</ele>
        <time>2012-08-23T08:30:46Z</time>
      </trkpt>
      <trkpt lat="45.03385" lon="5.40174">
        <ele>1175.5</ele>
        <time>2012-08-23T08:30:53Z</time>
      </trkpt>
      <trkpt lat="45.03383" lon="5.40166">
        <ele>1176.8</ele>
        <time>2012-08-23T08:30:59Z</time>
      </trkpt>
      <trkpt lat="45.03383" lon="5.40163">
        <ele>1176.8</ele>
        <time>2012-08-23T08:31:03Z</time>
      </trkpt>
      <trkpt lat="45.03381" lon="5.40162">
        <ele>1176.9</ele>
        <time>2012-08-23T08:31:09Z</time>
      </trkpt>
      <trkpt lat="45.03377" lon="5.4015">
        <ele>1178.5</ele>
        <time>2012-08-23T08:31:19Z</time>
      </trkpt>
      <trkpt lat="45.03374" lon="5.40143">
        <ele>1179.9</ele>
        <time>2012-08-23T08:31:26Z</time>
      </trkpt>
      <trkpt lat="45.03372" lon="5.40138">
        <ele>1180.5</ele>
        <time>2012-08-23T08:31:30Z</time>
      </trkpt>
      <trkpt lat="45.03368" lon="5.40127">
        <ele>1182</ele>
        <time>2012-08-23T08:31:37Z</time>
      </trkpt>
      <trkpt lat="45.03363" lon="5.40119">
        <ele>1181.5</ele>
        <time>2012-08-23T08:31:45Z</time>
      </trkpt>
      <trkpt lat="45.03361" lon="5.40115">
        <ele>1180.9</ele>
        <time>2012-08-23T08:31:49Z</time>
      </trkpt>
      <trkpt lat="45.0336" lon="5.4011">
        <ele>1181.5</ele>
        <time>2012-08-23T08:31:53Z</time>
      </trkpt>
      <trkpt lat="45.03359" lon="5.40104">
        <ele>1182</ele>
        <time>2012-08-23T08:31:58Z</time>
      </trkpt>
      <trkpt lat="45.03357" lon="5.40094">
        <ele>1181.8</ele>
        <time>2012-08-23T08:32:10Z</time>
      </trkpt>
      <trkpt lat="45.03357" lon="5.40088">
        <ele>1181.5</ele>
        <time>2012-08-23T08:32:14Z</time>
      </trkpt>
      <trkpt lat="45.03356" lon="5.40082">
        <ele>1180</ele>
        <time>2012-08-23T08:32:18Z</time>
      </trkpt>
      <trkpt lat="45.03354" lon="5.40075">
        <ele>1178.3</ele>
        <time>2012-08-23T08:32:27Z</time>
      </trkpt>
      <trkpt lat="45.03352" lon="5.40073">
        <ele>1178.8</ele>
        <time>2012-08-23T08:32:29Z</time>
      </trkpt>
      <trkpt lat="45.03347" lon="5.40072">
        <ele>1179.5</ele>
        <time>2012-08-23T08:32:32Z</time>
      </trkpt>
      <trkpt lat="45.03342" lon="5.40068">
        <ele>1179.5</ele>
        <time>2012-08-23T08:32:36Z</time>
      </trkpt>
      <trkpt lat="45.0334" lon="5.40065">
        <ele>1178</ele>
        <time>2012-08-23T08:32:38Z</time>
      </trkpt>
      <trkpt lat="45.03338" lon="5.4006">
        <ele>1175.9</ele>
        <time>2012-08-23T08:32:42Z</time>
      </trkpt>
      <trkpt lat="45.03336" lon="5.40058">
        <ele>1174.5</ele>
        <time>2012-08-23T08:32:45Z</time>
      </trkpt>
      <trkpt lat="45.03335" lon="5.40055">
        <ele>1174.8</ele>
        <time>2012-08-23T08:32:51Z</time>
      </trkpt>
      <trkpt lat="45.03335" lon="5.40053">
        <ele>1175.5</ele>
        <time>2012-08-23T08:32:55Z</time>
      </trkpt>
      <trkpt lat="45.03336" lon="5.40051">
        <ele>1177.5</ele>
        <time>2012-08-23T08:33:09Z</time>
      </trkpt>
      <trkpt lat="45.03336" lon="5.40048">
        <ele>1178.9</ele>
        <time>2012-08-23T08:33:15Z</time>
      </trkpt>
      <trkpt lat="45.03336" lon="5.40047">
        <ele>1178.5</ele>
        <time>2012-08-23T08:33:21Z</time>
      </trkpt>
      <trkpt lat="45.03337" lon="5.40047">
        <ele>1178</ele>
        <time>2012-08-23T08:33:32Z</time>
      </trkpt>
      <trkpt lat="45.03336" lon="5.40048">
        <ele>1179</ele>
        <time>2012-08-23T08:33:38Z</time>
      </trkpt>
      <trkpt lat="45.03334" lon="5.40049">
        <ele>1179.8</ele>
        <time>2012-08-23T08:33:55Z</time>
      </trkpt>
      <trkpt lat="45.03332" lon="5.40048">
        <ele>1176.8</ele>
        <time>2012-08-23T08:35:03Z</time>
      </trkpt>
      <trkpt lat="45.03333" lon="5.40047">
        <ele>1176</ele>
        <time>2012-08-23T08:35:07Z</time>
      </trkpt>
      <trkpt lat="45.03333" lon="5.40044">
        <ele>1174</ele>
        <time>2012-08-23T08:35:14Z</time>
      </trkpt>
      <trkpt lat="45.03334" lon="5.40043">
        <ele>1173.4</ele>
        <time>2012-08-23T08:35:19Z</time>
      </trkpt>
      <trkpt lat="45.03334" lon="5.40042">
        <ele>1172</ele>
        <time>2012-08-23T08:35:31Z</time>
      </trkpt>
      <trkpt lat="45.0333" lon="5.40048">
        <ele>1173</ele>
        <time>2012-08-23T08:37:49Z</time>
      </trkpt>
      <trkpt lat="45.03327" lon="5.40044">
        <ele>1178.3</ele>
        <time>2012-08-23T08:38:15Z</time>
      </trkpt>
      <trkpt lat="45.03328" lon="5.40045">
        <ele>1181</ele>
        <time>2012-08-23T08:39:07Z</time>
      </trkpt>
      <trkpt lat="45.03328" lon="5.40047">
        <ele>1180.5</ele>
        <time>2012-08-23T08:39:20Z</time>
      </trkpt>
      <trkpt lat="45.03326" lon="5.40049">
        <ele>1179.3</ele>
        <time>2012-08-23T08:39:26Z</time>
      </trkpt>
      <trkpt lat="45.03322" lon="5.40052">
        <ele>1178</ele>
        <time>2012-08-23T08:39:29Z</time>
      </trkpt>
      <trkpt lat="45.0331" lon="5.40058">
        <ele>1175</ele>
        <time>2012-08-23T08:39:36Z</time>
      </trkpt>
      <trkpt lat="45.03306" lon="5.40058">
        <ele>1174.9</ele>
        <time>2012-08-23T08:39:38Z</time>
      </trkpt>
      <trkpt lat="45.03302" lon="5.40059">
        <ele>1175.3</ele>
        <time>2012-08-23T08:39:40Z</time>
      </trkpt>
      <trkpt lat="45.03299" lon="5.40062">
        <ele>1174</ele>
        <time>2012-08-23T08:39:43Z</time>
      </trkpt>
      <trkpt lat="45.03294" lon="5.40067">
        <ele>1172.4</ele>
        <time>2012-08-23T08:39:47Z</time>
      </trkpt>
      <trkpt lat="45.03287" lon="5.4007">
        <ele>1170.5</ele>
        <time>2012-08-23T08:39:51Z</time>
      </trkpt>
      <trkpt lat="45.03286" lon="5.40071">
        <ele>1170</ele>
        <time>2012-08-23T08:39:52Z</time>
      </trkpt>
      <trkpt lat="45.03282" lon="5.40074">
        <ele>1170.3</ele>
        <time>2012-08-23T08:39:55Z</time>
      </trkpt>
      <trkpt lat="45.03271" lon="5.40079">
        <ele>1168</ele>
        <time>2012-08-23T08:40:01Z</time>
      </trkpt>
      <trkpt lat="45.03258" lon="5.40083">
        <ele>1167.5</ele>
        <time>2012-08-23T08:40:05Z</time>
      </trkpt>
      <trkpt lat="45.03255" lon="5.40083">
        <ele>1167.5</ele>
        <time>2012-08-23T08:40:06Z</time>
      </trkpt>
      <trkpt lat="45.03239" lon="5.40088">
        <ele>1168</ele>
        <time>2012-08-23T08:40:11Z</time>
      </trkpt>
      <trkpt lat="45.03231" lon="5.40095">
        <ele>1166.4</ele>
        <time>2012-08-23T08:40:16Z</time>
      </trkpt>
      <trkpt lat="45.03229" lon="5.40096">
        <ele>1165.9</ele>
        <time>2012-08-23T08:40:17Z</time>
      </trkpt>
      <trkpt lat="45.03221" lon="5.40103">
        <ele>1166</ele>
        <time>2012-08-23T08:40:23Z</time>
      </trkpt>
      <trkpt lat="45.03217" lon="5.40106">
        <ele>1165.4</ele>
        <time>2012-08-23T08:40:26Z</time>
      </trkpt>
      <trkpt lat="45.03212" lon="5.4011">
        <ele>1165.5</ele>
        <time>2012-08-23T08:40:29Z</time>
      </trkpt>
      <trkpt lat="45.03208" lon="5.40112">
        <ele>1166</ele>
        <time>2012-08-23T08:40:31Z</time>
      </trkpt>
      <trkpt lat="45.03199" lon="5.40114">
        <ele>1167.5</ele>
        <time>2012-08-23T08:40:35Z</time>
      </trkpt>
      <trkpt lat="45.03187" lon="5.40117">
        <ele>1169</ele>
        <time>2012-08-23T08:40:40Z</time>
      </trkpt>
      <trkpt lat="45.03172" lon="5.40124">
        <ele>1167.4</ele>
        <time>2012-08-23T08:40:47Z</time>
      </trkpt>
      <trkpt lat="45.03168" lon="5.40125">
        <ele>1167.5</ele>
        <time>2012-08-23T08:40:49Z</time>
      </trkpt>
      <trkpt lat="45.03165" lon="5.40126">
        <ele>1168.3</ele>
        <time>2012-08-23T08:40:50Z</time>
      </trkpt>
      <trkpt lat="45.03155" lon="5.40132">
        <ele>1170</ele>
        <time>2012-08-23T08:40:54Z</time>
      </trkpt>
      <trkpt lat="45.03141" lon="5.4014">
        <ele>1170.4</ele>
        <time>2012-08-23T08:41:00Z</time>
      </trkpt>
      <trkpt lat="45.0314" lon="5.40142">
        <ele>1169.5</ele>
        <time>2012-08-23T08:41:01Z</time>
      </trkpt>
      <trkpt lat="45.03135" lon="5.40147">
        <ele>1168.5</ele>
        <time>2012-08-23T08:41:04Z</time>
      </trkpt>
      <trkpt lat="45.03132" lon="5.40151">
        <ele>1167</ele>
        <time>2012-08-23T08:41:06Z</time>
      </trkpt>
      <trkpt lat="45.03128" lon="5.40162">
        <ele>1164.3</ele>
        <time>2012-08-23T08:41:10Z</time>
      </trkpt>
      <trkpt lat="45.03127" lon="5.40168">
        <ele>1162.4</ele>
        <time>2012-08-23T08:41:13Z</time>
      </trkpt>
      <trkpt lat="45.03126" lon="5.40175">
        <ele>1159.5</ele>
        <time>2012-08-23T08:41:16Z</time>
      </trkpt>
      <trkpt lat="45.03126" lon="5.40182">
        <ele>1157.4</ele>
        <time>2012-08-23T08:41:19Z</time>
      </trkpt>
      <trkpt lat="45.03126" lon="5.40189">
        <ele>1154.5</ele>
        <time>2012-08-23T08:41:22Z</time>
      </trkpt>
      <trkpt lat="45.03126" lon="5.40192">
        <ele>1154</ele>
        <time>2012-08-23T08:41:23Z</time>
      </trkpt>
      <trkpt lat="45.03129" lon="5.40207">
        <ele>1151</ele>
        <time>2012-08-23T08:41:28Z</time>
      </trkpt>
      <trkpt lat="45.03132" lon="5.40213">
        <ele>1150.5</ele>
        <time>2012-08-23T08:41:30Z</time>
      </trkpt>
      <trkpt lat="45.03134" lon="5.40219">
        <ele>1149</ele>
        <time>2012-08-23T08:41:32Z</time>
      </trkpt>
      <trkpt lat="45.03135" lon="5.40225">
        <ele>1149</ele>
        <time>2012-08-23T08:41:34Z</time>
      </trkpt>
      <trkpt lat="45.03138" lon="5.40238">
        <ele>1148</ele>
        <time>2012-08-23T08:41:39Z</time>
      </trkpt>
      <trkpt lat="45.03137" lon="5.40248">
        <ele>1146</ele>
        <time>2012-08-23T08:41:42Z</time>
      </trkpt>
      <trkpt lat="45.03136" lon="5.40253">
        <ele>1146</ele>
        <time>2012-08-23T08:41:44Z</time>
      </trkpt>
      <trkpt lat="45.03135" lon="5.40256">
        <ele>1145</ele>
        <time>2012-08-23T08:41:45Z</time>
      </trkpt>
      <trkpt lat="45.03132" lon="5.40264">
        <ele>1143.5</ele>
        <time>2012-08-23T08:41:48Z</time>
      </trkpt>
      <trkpt lat="45.03123" lon="5.40275">
        <ele>1143.4</ele>
        <time>2012-08-23T08:41:52Z</time>
      </trkpt>
      <trkpt lat="45.03121" lon="5.40279">
        <ele>1142.9</ele>
        <time>2012-08-23T08:41:53Z</time>
      </trkpt>
      <trkpt lat="45.03115" lon="5.40299">
        <ele>1140.5</ele>
        <time>2012-08-23T08:41:57Z</time>
      </trkpt>
      <trkpt lat="45.03113" lon="5.40313">
        <ele>1140.4</ele>
        <time>2012-08-23T08:42:00Z</time>
      </trkpt>
      <trkpt lat="45.03114" lon="5.40322">
        <ele>1140.5</ele>
        <time>2012-08-23T08:42:03Z</time>
      </trkpt>
      <trkpt lat="45.03115" lon="5.40327">
        <ele>1141</ele>
        <time>2012-08-23T08:42:05Z</time>
      </trkpt>
      <trkpt lat="45.03116" lon="5.40332">
        <ele>1141</ele>
        <time>2012-08-23T08:42:07Z</time>
      </trkpt>
      <trkpt lat="45.03116" lon="5.40337">
        <ele>1144</ele>
        <time>2012-08-23T08:42:09Z</time>
      </trkpt>
      <trkpt lat="45.03116" lon="5.4034">
        <ele>1144.5</ele>
        <time>2012-08-23T08:42:10Z</time>
      </trkpt>
      <trkpt lat="45.03116" lon="5.40344">
        <ele>1148.4</ele>
        <time>2012-08-23T08:42:13Z</time>
      </trkpt>
      <trkpt lat="45.03113" lon="5.40354">
        <ele>1153</ele>
        <time>2012-08-23T08:42:19Z</time>
      </trkpt>
      <trkpt lat="45.0311" lon="5.40358">
        <ele>1152.5</ele>
        <time>2012-08-23T08:42:22Z</time>
      </trkpt>
      <trkpt lat="45.03109" lon="5.40362">
        <ele>1152.5</ele>
        <time>2012-08-23T08:42:24Z</time>
      </trkpt>
      <trkpt lat="45.03105" lon="5.40367">
        <ele>1154.4</ele>
        <time>2012-08-23T08:42:28Z</time>
      </trkpt>
      <trkpt lat="45.03102" lon="5.40376">
        <ele>1153.5</ele>
        <time>2012-08-23T08:42:37Z</time>
      </trkpt>
      <trkpt lat="45.03097" lon="5.40388">
        <ele>1155.5</ele>
        <time>2012-08-23T08:42:46Z</time>
      </trkpt>
      <trkpt lat="45.03095" lon="5.40392">
        <ele>1157.5</ele>
        <time>2012-08-23T08:42:50Z</time>
      </trkpt>
      <trkpt lat="45.03094" lon="5.40397">
        <ele>1159.8</ele>
        <time>2012-08-23T08:42:55Z</time>
      </trkpt>
      <trkpt lat="45.0309" lon="5.40407">
        <ele>1161</ele>
        <time>2012-08-23T08:43:04Z</time>
      </trkpt>
      <trkpt lat="45.03089" lon="5.4041">
        <ele>1162.8</ele>
        <time>2012-08-23T08:43:07Z</time>
      </trkpt>
      <trkpt lat="45.03088" lon="5.40419">
        <ele>1161.8</ele>
        <time>2012-08-23T08:43:15Z</time>
      </trkpt>
      <trkpt lat="45.03087" lon="5.40432">
        <ele>1161</ele>
        <time>2012-08-23T08:43:26Z</time>
      </trkpt>
      <trkpt lat="45.03088" lon="5.40438">
        <ele>1161</ele>
        <time>2012-08-23T08:43:31Z</time>
      </trkpt>
      <trkpt lat="45.03089" lon="5.40452">
        <ele>1164.3</ele>
        <time>2012-08-23T08:43:40Z</time>
      </trkpt>
      <trkpt lat="45.03089" lon="5.40456">
        <ele>1165.3</ele>
        <time>2012-08-23T08:43:43Z</time>
      </trkpt>
      <trkpt lat="45.03087" lon="5.40463">
        <ele>1165</ele>
        <time>2012-08-23T08:43:49Z</time>
      </trkpt>
      <trkpt lat="45.03086" lon="5.40465">
        <ele>1164</ele>
        <time>2012-08-23T08:43:53Z</time>
      </trkpt>
      <trkpt lat="45.03084" lon="5.40465">
        <ele>1166</ele>
        <time>2012-08-23T08:43:57Z</time>
      </trkpt>
      <trkpt lat="45.03083" lon="5.40466">
        <ele>1169</ele>
        <time>2012-08-23T08:44:01Z</time>
      </trkpt>
      <trkpt lat="45.03081" lon="5.40468">
        <ele>1169.3</ele>
        <time>2012-08-23T08:44:05Z</time>
      </trkpt>
      <trkpt lat="45.03079" lon="5.40475">
        <ele>1169.5</ele>
        <time>2012-08-23T08:44:11Z</time>
      </trkpt>
      <trkpt lat="45.03077" lon="5.4048">
        <ele>1169</ele>
        <time>2012-08-23T08:44:15Z</time>
      </trkpt>
      <trkpt lat="45.03074" lon="5.40489">
        <ele>1168.4</ele>
        <time>2012-08-23T08:44:21Z</time>
      </trkpt>
      <trkpt lat="45.03072" lon="5.40495">
        <ele>1167</ele>
        <time>2012-08-23T08:44:27Z</time>
      </trkpt>
      <trkpt lat="45.03067" lon="5.40503">
        <ele>1168</ele>
        <time>2012-08-23T08:44:34Z</time>
      </trkpt>
      <trkpt lat="45.03065" lon="5.40513">
        <ele>1167.8</ele>
        <time>2012-08-23T08:44:41Z</time>
      </trkpt>
      <trkpt lat="45.03066" lon="5.40518">
        <ele>1168</ele>
        <time>2012-08-23T08:44:45Z</time>
      </trkpt>
      <trkpt lat="45.03066" lon="5.40521">
        <ele>1167.5</ele>
        <time>2012-08-23T08:44:48Z</time>
      </trkpt>
      <trkpt lat="45.03063" lon="5.40535">
        <ele>1167</ele>
        <time>2012-08-23T08:44:59Z</time>
      </trkpt>
      <trkpt lat="45.03063" lon="5.40537">
        <ele>1166.5</ele>
        <time>2012-08-23T08:45:03Z</time>
      </trkpt>
      <trkpt lat="45.0306" lon="5.40541">
        <ele>1166.5</ele>
        <time>2012-08-23T08:45:07Z</time>
      </trkpt>
      <trkpt lat="45.03058" lon="5.40544">
        <ele>1165.4</ele>
        <time>2012-08-23T08:45:09Z</time>
      </trkpt>
      <trkpt lat="45.03054" lon="5.40548">
        <ele>1164.5</ele>
        <time>2012-08-23T08:45:11Z</time>
      </trkpt>
      <trkpt lat="45.03052" lon="5.40553">
        <ele>1163.5</ele>
        <time>2012-08-23T08:45:13Z</time>
      </trkpt>
      <trkpt lat="45.03047" lon="5.40558">
        <ele>1161.5</ele>
        <time>2012-08-23T08:45:16Z</time>
      </trkpt>
      <trkpt lat="45.03039" lon="5.40566">
        <ele>1158.5</ele>
        <time>2012-08-23T08:45:21Z</time>
      </trkpt>
      <trkpt lat="45.03037" lon="5.4057">
        <ele>1157.5</ele>
        <time>2012-08-23T08:45:23Z</time>
      </trkpt>
      <trkpt lat="45.03036" lon="5.40574">
        <ele>1156.9</ele>
        <time>2012-08-23T08:45:25Z</time>
      </trkpt>
      <trkpt lat="45.03035" lon="5.40581">
        <ele>1156.9</ele>
        <time>2012-08-23T08:45:29Z</time>
      </trkpt>
      <trkpt lat="45.03034" lon="5.40585">
        <ele>1157</ele>
        <time>2012-08-23T08:45:31Z</time>
      </trkpt>
      <trkpt lat="45.03035" lon="5.40591">
        <ele>1156.9</ele>
        <time>2012-08-23T08:45:35Z</time>
      </trkpt>
      <trkpt lat="45.03035" lon="5.40596">
        <ele>1156.5</ele>
        <time>2012-08-23T08:45:37Z</time>
      </trkpt>
      <trkpt lat="45.03032" lon="5.40603">
        <ele>1157.5</ele>
        <time>2012-08-23T08:45:41Z</time>
      </trkpt>
      <trkpt lat="45.03031" lon="5.40609">
        <ele>1157.5</ele>
        <time>2012-08-23T08:45:44Z</time>
      </trkpt>
      <trkpt lat="45.03028" lon="5.40618">
        <ele>1158</ele>
        <time>2012-08-23T08:45:48Z</time>
      </trkpt>
      <trkpt lat="45.03025" lon="5.40633">
        <ele>1157.9</ele>
        <time>2012-08-23T08:45:55Z</time>
      </trkpt>
      <trkpt lat="45.03019" lon="5.40647">
        <ele>1157.4</ele>
        <time>2012-08-23T08:46:03Z</time>
      </trkpt>
      <trkpt lat="45.03017" lon="5.40651">
        <ele>1157.3</ele>
        <time>2012-08-23T08:46:05Z</time>
      </trkpt>
      <trkpt lat="45.03015" lon="5.40657">
        <ele>1157</ele>
        <time>2012-08-23T08:46:07Z</time>
      </trkpt>
      <trkpt lat="45.03013" lon="5.4066">
        <ele>1158</ele>
        <time>2012-08-23T08:46:08Z</time>
      </trkpt>
      <trkpt lat="45.0301" lon="5.4067">
        <ele>1158.8</ele>
        <time>2012-08-23T08:46:11Z</time>
      </trkpt>
      <trkpt lat="45.0301" lon="5.40675">
        <ele>1158</ele>
        <time>2012-08-23T08:46:13Z</time>
      </trkpt>
      <trkpt lat="45.03012" lon="5.40681">
        <ele>1158</ele>
        <time>2012-08-23T08:46:16Z</time>
      </trkpt>
      <trkpt lat="45.03015" lon="5.40692">
        <ele>1157</ele>
        <time>2012-08-23T08:46:25Z</time>
      </trkpt>
      <trkpt lat="45.03017" lon="5.40699">
        <ele>1156.4</ele>
        <time>2012-08-23T08:46:29Z</time>
      </trkpt>
      <trkpt lat="45.03019" lon="5.40709">
        <ele>1156</ele>
        <time>2012-08-23T08:46:36Z</time>
      </trkpt>
      <trkpt lat="45.03019" lon="5.40714">
        <ele>1155.5</ele>
        <time>2012-08-23T08:46:38Z</time>
      </trkpt>
      <trkpt lat="45.0302" lon="5.40719">
        <ele>1155.5</ele>
        <time>2012-08-23T08:46:40Z</time>
      </trkpt>
      <trkpt lat="45.0302" lon="5.40727">
        <ele>1156</ele>
        <time>2012-08-23T08:46:44Z</time>
      </trkpt>
      <trkpt lat="45.0302" lon="5.40731">
        <ele>1156.5</ele>
        <time>2012-08-23T08:46:46Z</time>
      </trkpt>
      <trkpt lat="45.0302" lon="5.40737">
        <ele>1157.8</ele>
        <time>2012-08-23T08:46:49Z</time>
      </trkpt>
      <trkpt lat="45.0302" lon="5.40744">
        <ele>1158.9</ele>
        <time>2012-08-23T08:46:53Z</time>
      </trkpt>
      <trkpt lat="45.03021" lon="5.40748">
        <ele>1158.9</ele>
        <time>2012-08-23T08:46:55Z</time>
      </trkpt>
      <trkpt lat="45.0302" lon="5.40754">
        <ele>1161.4</ele>
        <time>2012-08-23T08:46:58Z</time>
      </trkpt>
      <trkpt lat="45.0302" lon="5.40757">
        <ele>1162</ele>
        <time>2012-08-23T08:46:59Z</time>
      </trkpt>
      <trkpt lat="45.0302" lon="5.40766">
        <ele>1164.4</ele>
        <time>2012-08-23T08:47:02Z</time>
      </trkpt>
      <trkpt lat="45.03022" lon="5.40771">
        <ele>1165.8</ele>
        <time>2012-08-23T08:47:04Z</time>
      </trkpt>
      <trkpt lat="45.03025" lon="5.40777">
        <ele>1166.8</ele>
        <time>2012-08-23T08:47:07Z</time>
      </trkpt>
      <trkpt lat="45.03025" lon="5.4078">
        <ele>1166.8</ele>
        <time>2012-08-23T08:47:11Z</time>
      </trkpt>
      <trkpt lat="45.03024" lon="5.40781">
        <ele>1164</ele>
        <time>2012-08-23T08:47:18Z</time>
      </trkpt>
      <trkpt lat="45.03023" lon="5.40782">
        <ele>1162.8</ele>
        <time>2012-08-23T08:47:23Z</time>
      </trkpt>
      <trkpt lat="45.0302" lon="5.40783">
        <ele>1164.9</ele>
        <time>2012-08-23T08:47:26Z</time>
      </trkpt>
      <trkpt lat="45.03019" lon="5.40786">
        <ele>1166.5</ele>
        <time>2012-08-23T08:47:34Z</time>
      </trkpt>
      <trkpt lat="45.03016" lon="5.40787">
        <ele>1170.4</ele>
        <time>2012-08-23T08:47:43Z</time>
      </trkpt>
      <trkpt lat="45.03015" lon="5.40786">
        <ele>1172.4</ele>
        <time>2012-08-23T08:47:47Z</time>
      </trkpt>
      <trkpt lat="45.03016" lon="5.40783">
        <ele>1172.4</ele>
        <time>2012-08-23T08:47:50Z</time>
      </trkpt>
      <trkpt lat="45.03017" lon="5.40783">
        <ele>1173.5</ele>
        <time>2012-08-23T08:47:53Z</time>
      </trkpt>
      <trkpt lat="45.03018" lon="5.40781">
        <ele>1175</ele>
        <time>2012-08-23T08:47:59Z</time>
      </trkpt>
      <trkpt lat="45.03017" lon="5.40779">
        <ele>1174.5</ele>
        <time>2012-08-23T08:48:09Z</time>
      </trkpt>
      <trkpt lat="45.03015" lon="5.40777">
        <ele>1174.8</ele>
        <time>2012-08-23T08:48:18Z</time>
      </trkpt>
      <trkpt lat="45.03015" lon="5.40776">
        <ele>1174</ele>
        <time>2012-08-23T08:48:28Z</time>
      </trkpt>
      <trkpt lat="45.03016" lon="5.40776">
        <ele>1171.5</ele>
        <time>2012-08-23T08:48:32Z</time>
      </trkpt>
      <trkpt lat="45.03019" lon="5.40779">
        <ele>1167.5</ele>
        <time>2012-08-23T08:48:37Z</time>
      </trkpt>
      <trkpt lat="45.03021" lon="5.40781">
        <ele>1166.5</ele>
        <time>2012-08-23T08:48:39Z</time>
      </trkpt>
      <trkpt lat="45.03021" lon="5.40788">
        <ele>1166.3</ele>
        <time>2012-08-23T08:48:43Z</time>
      </trkpt>
      <trkpt lat="45.03021" lon="5.40796">
        <ele>1166.4</ele>
        <time>2012-08-23T08:48:47Z</time>
      </trkpt>
      <trkpt lat="45.03022" lon="5.40802">
        <ele>1165.5</ele>
        <time>2012-08-23T08:48:51Z</time>
      </trkpt>
      <trkpt lat="45.03023" lon="5.40804">
        <ele>1164.9</ele>
        <time>2012-08-23T08:48:53Z</time>
      </trkpt>
      <trkpt lat="45.03023" lon="5.40807">
        <ele>1166.4</ele>
        <time>2012-08-23T08:48:57Z</time>
      </trkpt>
      <trkpt lat="45.03028" lon="5.40815">
        <ele>1167</ele>
        <time>2012-08-23T08:49:06Z</time>
      </trkpt>
      <trkpt lat="45.03029" lon="5.40817">
        <ele>1167.3</ele>
        <time>2012-08-23T08:49:10Z</time>
      </trkpt>
      <trkpt lat="45.0303" lon="5.40828">
        <ele>1165.4</ele>
        <time>2012-08-23T08:49:19Z</time>
      </trkpt>
      <trkpt lat="45.03032" lon="5.40833">
        <ele>1167</ele>
        <time>2012-08-23T08:49:26Z</time>
      </trkpt>
      <trkpt lat="45.03033" lon="5.40836">
        <ele>1168</ele>
        <time>2012-08-23T08:49:30Z</time>
      </trkpt>
      <trkpt lat="45.03032" lon="5.40838">
        <ele>1168.9</ele>
        <time>2012-08-23T08:49:32Z</time>
      </trkpt>
      <trkpt lat="45.03031" lon="5.40841">
        <ele>1169</ele>
        <time>2012-08-23T08:49:35Z</time>
      </trkpt>
      <trkpt lat="45.0303" lon="5.40844">
        <ele>1167.9</ele>
        <time>2012-08-23T08:49:39Z</time>
      </trkpt>
      <trkpt lat="45.03028" lon="5.40846">
        <ele>1168</ele>
        <time>2012-08-23T08:49:44Z</time>
      </trkpt>
      <trkpt lat="45.03029" lon="5.40852">
        <ele>1165.8</ele>
        <time>2012-08-23T08:49:49Z</time>
      </trkpt>
      <trkpt lat="45.03026" lon="5.40859">
        <ele>1165.4</ele>
        <time>2012-08-23T08:49:59Z</time>
      </trkpt>
      <trkpt lat="45.03023" lon="5.40866">
        <ele>1168</ele>
        <time>2012-08-23T08:50:16Z</time>
      </trkpt>
      <trkpt lat="45.03021" lon="5.40869">
        <ele>1167.8</ele>
        <time>2012-08-23T08:50:21Z</time>
      </trkpt>
      <trkpt lat="45.03017" lon="5.40876">
        <ele>1167.5</ele>
        <time>2012-08-23T08:50:30Z</time>
      </trkpt>
      <trkpt lat="45.03017" lon="5.40878">
        <ele>1168</ele>
        <time>2012-08-23T08:50:33Z</time>
      </trkpt>
      <trkpt lat="45.03015" lon="5.40882">
        <ele>1169</ele>
        <time>2012-08-23T08:50:41Z</time>
      </trkpt>
      <trkpt lat="45.03011" lon="5.40884">
        <ele>1170.4</ele>
        <time>2012-08-23T08:50:46Z</time>
      </trkpt>
      <trkpt lat="45.03006" lon="5.40889">
        <ele>1167.3</ele>
        <time>2012-08-23T08:50:53Z</time>
      </trkpt>
      <trkpt lat="45.03002" lon="5.4089">
        <ele>1166.5</ele>
        <time>2012-08-23T08:50:56Z</time>
      </trkpt>
      <trkpt lat="45.02997" lon="5.4089">
        <ele>1166.9</ele>
        <time>2012-08-23T08:51:00Z</time>
      </trkpt>
      <trkpt lat="45.02993" lon="5.40892">
        <ele>1166.8</ele>
        <time>2012-08-23T08:51:04Z</time>
      </trkpt>
      <trkpt lat="45.02989" lon="5.40893">
        <ele>1166</ele>
        <time>2012-08-23T08:51:09Z</time>
      </trkpt>
      <trkpt lat="45.02986" lon="5.40894">
        <ele>1167</ele>
        <time>2012-08-23T08:51:13Z</time>
      </trkpt>
      <trkpt lat="45.02983" lon="5.40895">
        <ele>1170.5</ele>
        <time>2012-08-23T08:51:20Z</time>
      </trkpt>
      <trkpt lat="45.02981" lon="5.40896">
        <ele>1173.5</ele>
        <time>2012-08-23T08:51:27Z</time>
      </trkpt>
      <trkpt lat="45.0298" lon="5.40895">
        <ele>1175</ele>
        <time>2012-08-23T08:51:32Z</time>
      </trkpt>
      <trkpt lat="45.02979" lon="5.40895">
        <ele>1176</ele>
        <time>2012-08-23T08:51:36Z</time>
      </trkpt>
      <trkpt lat="45.02979" lon="5.40894">
        <ele>1176.5</ele>
        <time>2012-08-23T08:51:42Z</time>
      </trkpt>
      <trkpt lat="45.02969" lon="5.40896">
        <ele>1172</ele>
        <time>2012-08-23T08:51:54Z</time>
      </trkpt>
      <trkpt lat="45.02959" lon="5.40897">
        <ele>1168</ele>
        <time>2012-08-23T08:52:01Z</time>
      </trkpt>
      <trkpt lat="45.02953" lon="5.40898">
        <ele>1167</ele>
        <time>2012-08-23T08:52:05Z</time>
      </trkpt>
      <trkpt lat="45.02947" lon="5.40902">
        <ele>1165.5</ele>
        <time>2012-08-23T08:52:10Z</time>
      </trkpt>
      <trkpt lat="45.02937" lon="5.40905">
        <ele>1163</ele>
        <time>2012-08-23T08:52:17Z</time>
      </trkpt>
      <trkpt lat="45.02934" lon="5.40908">
        <ele>1163.4</ele>
        <time>2012-08-23T08:52:20Z</time>
      </trkpt>
      <trkpt lat="45.0293" lon="5.4091">
        <ele>1163</ele>
        <time>2012-08-23T08:52:23Z</time>
      </trkpt>
      <trkpt lat="45.02926" lon="5.40914">
        <ele>1163.8</ele>
        <time>2012-08-23T08:52:27Z</time>
      </trkpt>
      <trkpt lat="45.0292" lon="5.40917">
        <ele>1166</ele>
        <time>2012-08-23T08:52:32Z</time>
      </trkpt>
      <trkpt lat="45.02911" lon="5.40919">
        <ele>1168.5</ele>
        <time>2012-08-23T08:52:37Z</time>
      </trkpt>
      <trkpt lat="45.02908" lon="5.4092">
        <ele>1169.5</ele>
        <time>2012-08-23T08:52:40Z</time>
      </trkpt>
      <trkpt lat="45.02909" lon="5.40923">
        <ele>1168.9</ele>
        <time>2012-08-23T08:52:45Z</time>
      </trkpt>
      <trkpt lat="45.0291" lon="5.40929">
        <ele>1169</ele>
        <time>2012-08-23T08:52:51Z</time>
      </trkpt>
      <trkpt lat="45.02912" lon="5.40936">
        <ele>1169.5</ele>
        <time>2012-08-23T08:53:00Z</time>
      </trkpt>
      <trkpt lat="45.02911" lon="5.40937">
        <ele>1170</ele>
        <time>2012-08-23T08:53:03Z</time>
      </trkpt>
      <trkpt lat="45.02911" lon="5.40938">
        <ele>1170.5</ele>
        <time>2012-08-23T08:53:06Z</time>
      </trkpt>
      <trkpt lat="45.02911" lon="5.40938">
        <ele>1170.4</ele>
        <time>2012-08-23T08:53:10Z</time>
      </trkpt>
      <trkpt lat="45.02914" lon="5.40942">
        <ele>1168.8</ele>
        <time>2012-08-23T08:53:14Z</time>
      </trkpt>
      <trkpt lat="45.02916" lon="5.40946">
        <ele>1169.5</ele>
        <time>2012-08-23T08:53:16Z</time>
      </trkpt>
      <trkpt lat="45.02917" lon="5.4095">
        <ele>1169.5</ele>
        <time>2012-08-23T08:53:18Z</time>
      </trkpt>
      <trkpt lat="45.02921" lon="5.4096">
        <ele>1168.3</ele>
        <time>2012-08-23T08:53:23Z</time>
      </trkpt>
      <trkpt lat="45.02923" lon="5.40964">
        <ele>1168</ele>
        <time>2012-08-23T08:53:25Z</time>
      </trkpt>
      <trkpt lat="45.02924" lon="5.40969">
        <ele>1166.5</ele>
        <time>2012-08-23T08:53:28Z</time>
      </trkpt>
      <trkpt lat="45.02926" lon="5.40982">
        <ele>1166.9</ele>
        <time>2012-08-23T08:53:34Z</time>
      </trkpt>
      <trkpt lat="45.02926" lon="5.40986">
        <ele>1167.5</ele>
        <time>2012-08-23T08:53:36Z</time>
      </trkpt>
      <trkpt lat="45.02924" lon="5.40995">
        <ele>1166.4</ele>
        <time>2012-08-23T08:53:40Z</time>
      </trkpt>
      <trkpt lat="45.02923" lon="5.41001">
        <ele>1166</ele>
        <time>2012-08-23T08:53:43Z</time>
      </trkpt>
      <trkpt lat="45.02923" lon="5.41008">
        <ele>1167</ele>
        <time>2012-08-23T08:53:46Z</time>
      </trkpt>
      <trkpt lat="45.02922" lon="5.41023">
        <ele>1169.4</ele>
        <time>2012-08-23T08:53:52Z</time>
      </trkpt>
      <trkpt lat="45.0292" lon="5.41029">
        <ele>1171.9</ele>
        <time>2012-08-23T08:53:55Z</time>
      </trkpt>
      <trkpt lat="45.02919" lon="5.41038">
        <ele>1173.5</ele>
        <time>2012-08-23T08:53:59Z</time>
      </trkpt>
      <trkpt lat="45.02917" lon="5.41043">
        <ele>1174</ele>
        <time>2012-08-23T08:54:01Z</time>
      </trkpt>
      <trkpt lat="45.02913" lon="5.41047">
        <ele>1175</ele>
        <time>2012-08-23T08:54:03Z</time>
      </trkpt>
      <trkpt lat="45.0291" lon="5.41052">
        <ele>1174</ele>
        <time>2012-08-23T08:54:05Z</time>
      </trkpt>
      <trkpt lat="45.02905" lon="5.41062">
        <ele>1170.3</ele>
        <time>2012-08-23T08:54:10Z</time>
      </trkpt>
      <trkpt lat="45.02903" lon="5.41064">
        <ele>1170</ele>
        <time>2012-08-23T08:54:11Z</time>
      </trkpt>
      <trkpt lat="45.02898" lon="5.41075">
        <ele>1164.8</ele>
        <time>2012-08-23T08:54:17Z</time>
      </trkpt>
      <trkpt lat="45.02896" lon="5.41079">
        <ele>1162</ele>
        <time>2012-08-23T08:54:19Z</time>
      </trkpt>
      <trkpt lat="45.02889" lon="5.41089">
        <ele>1160.5</ele>
        <time>2012-08-23T08:54:23Z</time>
      </trkpt>
      <trkpt lat="45.02884" lon="5.41094">
        <ele>1158.3</ele>
        <time>2012-08-23T08:54:26Z</time>
      </trkpt>
      <trkpt lat="45.0288" lon="5.41098">
        <ele>1156</ele>
        <time>2012-08-23T08:54:28Z</time>
      </trkpt>
      <trkpt lat="45.02875" lon="5.41102">
        <ele>1154.5</ele>
        <time>2012-08-23T08:54:30Z</time>
      </trkpt>
      <trkpt lat="45.02873" lon="5.41105">
        <ele>1153.9</ele>
        <time>2012-08-23T08:54:31Z</time>
      </trkpt>
      <trkpt lat="45.02866" lon="5.41112">
        <ele>1151.4</ele>
        <time>2012-08-23T08:54:35Z</time>
      </trkpt>
      <trkpt lat="45.02862" lon="5.41115">
        <ele>1149.9</ele>
        <time>2012-08-23T08:54:37Z</time>
      </trkpt>
      <trkpt lat="45.02854" lon="5.41117">
        <ele>1148</ele>
        <time>2012-08-23T08:54:40Z</time>
      </trkpt>
      <trkpt lat="45.02846" lon="5.41123">
        <ele>1146.9</ele>
        <time>2012-08-23T08:54:43Z</time>
      </trkpt>
      <trkpt lat="45.0284" lon="5.41131">
        <ele>1146.5</ele>
        <time>2012-08-23T08:54:46Z</time>
      </trkpt>
      <trkpt lat="45.02832" lon="5.41136">
        <ele>1146.3</ele>
        <time>2012-08-23T08:54:49Z</time>
      </trkpt>
      <trkpt lat="45.02823" lon="5.41139">
        <ele>1145.5</ele>
        <time>2012-08-23T08:54:52Z</time>
      </trkpt>
      <trkpt lat="45.02816" lon="5.41145">
        <ele>1145</ele>
        <time>2012-08-23T08:54:55Z</time>
      </trkpt>
      <trkpt lat="45.02792" lon="5.41154">
        <ele>1144.5</ele>
        <time>2012-08-23T08:55:02Z</time>
      </trkpt>
      <trkpt lat="45.02789" lon="5.41156">
        <ele>1144.5</ele>
        <time>2012-08-23T08:55:03Z</time>
      </trkpt>
      <trkpt lat="45.02784" lon="5.4116">
        <ele>1144</ele>
        <time>2012-08-23T08:55:05Z</time>
      </trkpt>
      <trkpt lat="45.0278" lon="5.41164">
        <ele>1143.9</ele>
        <time>2012-08-23T08:55:07Z</time>
      </trkpt>
      <trkpt lat="45.02775" lon="5.41168">
        <ele>1143.5</ele>
        <time>2012-08-23T08:55:09Z</time>
      </trkpt>
      <trkpt lat="45.0277" lon="5.41168">
        <ele>1144</ele>
        <time>2012-08-23T08:55:11Z</time>
      </trkpt>
      <trkpt lat="45.02766" lon="5.41171">
        <ele>1143.5</ele>
        <time>2012-08-23T08:55:13Z</time>
      </trkpt>
      <trkpt lat="45.02759" lon="5.41184">
        <ele>1142.8</ele>
        <time>2012-08-23T08:55:18Z</time>
      </trkpt>
      <trkpt lat="45.02757" lon="5.41188">
        <ele>1143.4</ele>
        <time>2012-08-23T08:55:19Z</time>
      </trkpt>
      <trkpt lat="45.02756" lon="5.41194">
        <ele>1144</ele>
        <time>2012-08-23T08:55:21Z</time>
      </trkpt>
      <trkpt lat="45.02753" lon="5.412">
        <ele>1144.8</ele>
        <time>2012-08-23T08:55:24Z</time>
      </trkpt>
      <trkpt lat="45.02751" lon="5.4121">
        <ele>1146.4</ele>
        <time>2012-08-23T08:55:28Z</time>
      </trkpt>
      <trkpt lat="45.0275" lon="5.41215">
        <ele>1146.3</ele>
        <time>2012-08-23T08:55:30Z</time>
      </trkpt>
      <trkpt lat="45.02749" lon="5.41216">
        <ele>1145.9</ele>
        <time>2012-08-23T08:55:33Z</time>
      </trkpt>
      <trkpt lat="45.02748" lon="5.41215">
        <ele>1147.5</ele>
        <time>2012-08-23T08:55:41Z</time>
      </trkpt>
      <trkpt lat="45.02741" lon="5.41217">
        <ele>1148.5</ele>
        <time>2012-08-23T08:55:54Z</time>
      </trkpt>
      <trkpt lat="45.02738" lon="5.4122">
        <ele>1147</ele>
        <time>2012-08-23T08:55:58Z</time>
      </trkpt>
      <trkpt lat="45.02735" lon="5.41221">
        <ele>1147.4</ele>
        <time>2012-08-23T08:56:02Z</time>
      </trkpt>
      <trkpt lat="45.02734" lon="5.41222">
        <ele>1144</ele>
        <time>2012-08-23T08:56:10Z</time>
      </trkpt>
      <trkpt lat="45.02732" lon="5.41222">
        <ele>1144</ele>
        <time>2012-08-23T08:56:16Z</time>
      </trkpt>
      <trkpt lat="45.02728" lon="5.41223">
        <ele>1141.5</ele>
        <time>2012-08-23T08:56:20Z</time>
      </trkpt>
      <trkpt lat="45.02726" lon="5.41224">
        <ele>1140.9</ele>
        <time>2012-08-23T08:56:21Z</time>
      </trkpt>
      <trkpt lat="45.02717" lon="5.41233">
        <ele>1140</ele>
        <time>2012-08-23T08:56:25Z</time>
      </trkpt>
      <trkpt lat="45.02712" lon="5.4124">
        <ele>1139.5</ele>
        <time>2012-08-23T08:56:28Z</time>
      </trkpt>
      <trkpt lat="45.02711" lon="5.41244">
        <ele>1139.4</ele>
        <time>2012-08-23T08:56:30Z</time>
      </trkpt>
      <trkpt lat="45.02705" lon="5.4125">
        <ele>1138.3</ele>
        <time>2012-08-23T08:56:38Z</time>
      </trkpt>
      <trkpt lat="45.02705" lon="5.4125">
        <ele>1143.4</ele>
        <time>2012-08-23T08:56:55Z</time>
      </trkpt>
      <trkpt lat="45.02704" lon="5.4125">
        <ele>1145.5</ele>
        <time>2012-08-23T08:57:02Z</time>
      </trkpt>
      <trkpt lat="45.02703" lon="5.41251">
        <ele>1144.4</ele>
        <time>2012-08-23T08:57:13Z</time>
      </trkpt>
      <trkpt lat="45.02702" lon="5.41252">
        <ele>1142</ele>
        <time>2012-08-23T08:57:40Z</time>
      </trkpt>
      <trkpt lat="45.02708" lon="5.41251">
        <ele>1146.8</ele>
        <time>2012-08-23T08:58:17Z</time>
      </trkpt>
      <trkpt lat="45.02711" lon="5.41254">
        <ele>1148.9</ele>
        <time>2012-08-23T08:58:36Z</time>
      </trkpt>
      <trkpt lat="45.0271" lon="5.41256">
        <ele>1148.3</ele>
        <time>2012-08-23T08:58:41Z</time>
      </trkpt>
      <trkpt lat="45.02701" lon="5.4126">
        <ele>1146.3</ele>
        <time>2012-08-23T08:58:45Z</time>
      </trkpt>
      <trkpt lat="45.02698" lon="5.41262">
        <ele>1145.9</ele>
        <time>2012-08-23T08:58:46Z</time>
      </trkpt>
      <trkpt lat="45.02696" lon="5.41264">
        <ele>1144.5</ele>
        <time>2012-08-23T08:58:47Z</time>
      </trkpt>
      <trkpt lat="45.02684" lon="5.41281">
        <ele>1139.9</ele>
        <time>2012-08-23T08:58:52Z</time>
      </trkpt>
      <trkpt lat="45.02683" lon="5.41283">
        <ele>1139</ele>
        <time>2012-08-23T08:58:53Z</time>
      </trkpt>
      <trkpt lat="45.02681" lon="5.4129">
        <ele>1137.8</ele>
        <time>2012-08-23T08:58:55Z</time>
      </trkpt>
      <trkpt lat="45.0268" lon="5.41296">
        <ele>1136.5</ele>
        <time>2012-08-23T08:58:57Z</time>
      </trkpt>
      <trkpt lat="45.0268" lon="5.41299">
        <ele>1136.3</ele>
        <time>2012-08-23T08:58:58Z</time>
      </trkpt>
      <trkpt lat="45.0268" lon="5.41305">
        <ele>1136</ele>
        <time>2012-08-23T08:59:00Z</time>
      </trkpt>
      <trkpt lat="45.02677" lon="5.41312">
        <ele>1135</ele>
        <time>2012-08-23T08:59:02Z</time>
      </trkpt>
      <trkpt lat="45.02669" lon="5.41326">
        <ele>1133.8</ele>
        <time>2012-08-23T08:59:06Z</time>
      </trkpt>
      <trkpt lat="45.02667" lon="5.41329">
        <ele>1133.4</ele>
        <time>2012-08-23T08:59:07Z</time>
      </trkpt>
      <trkpt lat="45.02662" lon="5.41334">
        <ele>1132.3</ele>
        <time>2012-08-23T08:59:09Z</time>
      </trkpt>
      <trkpt lat="45.02658" lon="5.41339">
        <ele>1131.5</ele>
        <time>2012-08-23T08:59:11Z</time>
      </trkpt>
      <trkpt lat="45.02656" lon="5.41344">
        <ele>1131</ele>
        <time>2012-08-23T08:59:13Z</time>
      </trkpt>
      <trkpt lat="45.02657" lon="5.41348">
        <ele>1129</ele>
        <time>2012-08-23T08:59:15Z</time>
      </trkpt>
      <trkpt lat="45.02655" lon="5.41353">
        <ele>1128</ele>
        <time>2012-08-23T08:59:17Z</time>
      </trkpt>
      <trkpt lat="45.02653" lon="5.41356">
        <ele>1127</ele>
        <time>2012-08-23T08:59:19Z</time>
      </trkpt>
      <trkpt lat="45.02647" lon="5.41359">
        <ele>1123.5</ele>
        <time>2012-08-23T08:59:23Z</time>
      </trkpt>
      <trkpt lat="45.02641" lon="5.41363">
        <ele>1121</ele>
        <time>2012-08-23T08:59:26Z</time>
      </trkpt>
      <trkpt lat="45.02639" lon="5.41364">
        <ele>1119.4</ele>
        <time>2012-08-23T08:59:29Z</time>
      </trkpt>
      <trkpt lat="45.02638" lon="5.41366">
        <ele>1118</ele>
        <time>2012-08-23T08:59:35Z</time>
      </trkpt>
      <trkpt lat="45.02637" lon="5.41366">
        <ele>1117.4</ele>
        <time>2012-08-23T08:59:36Z</time>
      </trkpt>
      <trkpt lat="45.02631" lon="5.41368">
        <ele>1114.9</ele>
        <time>2012-08-23T08:59:40Z</time>
      </trkpt>
      <trkpt lat="45.02622" lon="5.41372">
        <ele>1111</ele>
        <time>2012-08-23T08:59:46Z</time>
      </trkpt>
      <trkpt lat="45.02612" lon="5.41378">
        <ele>1106.8</ele>
        <time>2012-08-23T08:59:53Z</time>
      </trkpt>
      <trkpt lat="45.02611" lon="5.41379">
        <ele>1106.3</ele>
        <time>2012-08-23T08:59:54Z</time>
      </trkpt>
      <trkpt lat="45.02602" lon="5.41382">
        <ele>1103.5</ele>
        <time>2012-08-23T08:59:59Z</time>
      </trkpt>
      <trkpt lat="45.02599" lon="5.41383">
        <ele>1102.9</ele>
        <time>2012-08-23T09:00:01Z</time>
      </trkpt>
      <trkpt lat="45.02594" lon="5.41385">
        <ele>1102.3</ele>
        <time>2012-08-23T09:00:04Z</time>
      </trkpt>
      <trkpt lat="45.02581" lon="5.41392">
        <ele>1100.5</ele>
        <time>2012-08-23T09:00:11Z</time>
      </trkpt>
      <trkpt lat="45.02578" lon="5.41397">
        <ele>1100.5</ele>
        <time>2012-08-23T09:00:15Z</time>
      </trkpt>
      <trkpt lat="45.02577" lon="5.41404">
        <ele>1099.9</ele>
        <time>2012-08-23T09:00:19Z</time>
      </trkpt>
      <trkpt lat="45.02578" lon="5.41408">
        <ele>1100.4</ele>
        <time>2012-08-23T09:00:35Z</time>
      </trkpt>
      <trkpt lat="45.02579" lon="5.41409">
        <ele>1101.5</ele>
        <time>2012-08-23T09:00:43Z</time>
      </trkpt>
      <trkpt lat="45.02582" lon="5.41414">
        <ele>1102</ele>
        <time>2012-08-23T09:00:54Z</time>
      </trkpt>
      <trkpt lat="45.02584" lon="5.41416">
        <ele>1101.8</ele>
        <time>2012-08-23T09:00:56Z</time>
      </trkpt>
      <trkpt lat="45.02587" lon="5.41421">
        <ele>1100</ele>
        <time>2012-08-23T09:01:00Z</time>
      </trkpt>
      <trkpt lat="45.02589" lon="5.41424">
        <ele>1098.8</ele>
        <time>2012-08-23T09:01:03Z</time>
      </trkpt>
      <trkpt lat="45.02593" lon="5.41427">
        <ele>1097</ele>
        <time>2012-08-23T09:01:08Z</time>
      </trkpt>
      <trkpt lat="45.02594" lon="5.41428">
        <ele>1096.5</ele>
        <time>2012-08-23T09:01:09Z</time>
      </trkpt>
      <trkpt lat="45.02606" lon="5.41431">
        <ele>1093.3</ele>
        <time>2012-08-23T09:01:17Z</time>
      </trkpt>
      <trkpt lat="45.02609" lon="5.41433">
        <ele>1092.5</ele>
        <time>2012-08-23T09:01:19Z</time>
      </trkpt>
      <trkpt lat="45.02611" lon="5.41438">
        <ele>1091.8</ele>
        <time>2012-08-23T09:01:21Z</time>
      </trkpt>
      <trkpt lat="45.02612" lon="5.4144">
        <ele>1091.5</ele>
        <time>2012-08-23T09:01:22Z</time>
      </trkpt>
      <trkpt lat="45.02618" lon="5.41454">
        <ele>1092</ele>
        <time>2012-08-23T09:01:27Z</time>
      </trkpt>
      <trkpt lat="45.02621" lon="5.41461">
        <ele>1092</ele>
        <time>2012-08-23T09:01:30Z</time>
      </trkpt>
      <trkpt lat="45.02622" lon="5.41472">
        <ele>1091.4</ele>
        <time>2012-08-23T09:01:33Z</time>
      </trkpt>
      <trkpt lat="45.0262" lon="5.41484">
        <ele>1091.5</ele>
        <time>2012-08-23T09:01:36Z</time>
      </trkpt>
      <trkpt lat="45.02616" lon="5.41495">
        <ele>1090.5</ele>
        <time>2012-08-23T09:01:39Z</time>
      </trkpt>
      <trkpt lat="45.02608" lon="5.41507">
        <ele>1090.5</ele>
        <time>2012-08-23T09:01:43Z</time>
      </trkpt>
      <trkpt lat="45.02607" lon="5.4151">
        <ele>1090.9</ele>
        <time>2012-08-23T09:01:44Z</time>
      </trkpt>
      <trkpt lat="45.02607" lon="5.41521">
        <ele>1092</ele>
        <time>2012-08-23T09:01:57Z</time>
      </trkpt>
      <trkpt lat="45.02608" lon="5.41529">
        <ele>1097</ele>
        <time>2012-08-23T09:02:07Z</time>
      </trkpt>
      <trkpt lat="45.02609" lon="5.41529">
        <ele>1098</ele>
        <time>2012-08-23T09:02:11Z</time>
      </trkpt>
      <trkpt lat="45.0261" lon="5.41529">
        <ele>1098.5</ele>
        <time>2012-08-23T09:02:16Z</time>
      </trkpt>
      <trkpt lat="45.0261" lon="5.41529">
        <ele>1099.3</ele>
        <time>2012-08-23T09:02:22Z</time>
      </trkpt>
      <trkpt lat="45.02609" lon="5.4153">
        <ele>1100.5</ele>
        <time>2012-08-23T09:02:26Z</time>
      </trkpt>
      <trkpt lat="45.0261" lon="5.41532">
        <ele>1099.8</ele>
        <time>2012-08-23T09:02:28Z</time>
      </trkpt>
      <trkpt lat="45.02611" lon="5.41539">
        <ele>1098.5</ele>
        <time>2012-08-23T09:02:31Z</time>
      </trkpt>
      <trkpt lat="45.0261" lon="5.41543">
        <ele>1098.4</ele>
        <time>2012-08-23T09:02:32Z</time>
      </trkpt>
      <trkpt lat="45.02606" lon="5.41556">
        <ele>1095.8</ele>
        <time>2012-08-23T09:02:35Z</time>
      </trkpt>
      <trkpt lat="45.02605" lon="5.41562">
        <ele>1094.9</ele>
        <time>2012-08-23T09:02:36Z</time>
      </trkpt>
      <trkpt lat="45.02604" lon="5.41568">
        <ele>1094</ele>
        <time>2012-08-23T09:02:37Z</time>
      </trkpt>
      <trkpt lat="45.02604" lon="5.41578">
        <ele>1092.4</ele>
        <time>2012-08-23T09:02:39Z</time>
      </trkpt>
      <trkpt lat="45.02607" lon="5.41598">
        <ele>1089.9</ele>
        <time>2012-08-23T09:02:44Z</time>
      </trkpt>
      <trkpt lat="45.02607" lon="5.41603">
        <ele>1089</ele>
        <time>2012-08-23T09:02:46Z</time>
      </trkpt>
      <trkpt lat="45.02605" lon="5.4161">
        <ele>1088.4</ele>
        <time>2012-08-23T09:02:51Z</time>
      </trkpt>
      <trkpt lat="45.02602" lon="5.41617">
        <ele>1088.8</ele>
        <time>2012-08-23T09:02:56Z</time>
      </trkpt>
      <trkpt lat="45.02601" lon="5.41623">
        <ele>1088</ele>
        <time>2012-08-23T09:03:00Z</time>
      </trkpt>
      <trkpt lat="45.02602" lon="5.41628">
        <ele>1086.5</ele>
        <time>2012-08-23T09:03:03Z</time>
      </trkpt>
      <trkpt lat="45.02605" lon="5.41633">
        <ele>1084.4</ele>
        <time>2012-08-23T09:03:07Z</time>
      </trkpt>
      <trkpt lat="45.02611" lon="5.41636">
        <ele>1082</ele>
        <time>2012-08-23T09:03:11Z</time>
      </trkpt>
      <trkpt lat="45.02622" lon="5.41649">
        <ele>1077.3</ele>
        <time>2012-08-23T09:03:19Z</time>
      </trkpt>
      <trkpt lat="45.02627" lon="5.41653">
        <ele>1075.9</ele>
        <time>2012-08-23T09:03:22Z</time>
      </trkpt>
      <trkpt lat="45.02631" lon="5.41661">
        <ele>1074.5</ele>
        <time>2012-08-23T09:03:28Z</time>
      </trkpt>
      <trkpt lat="45.02631" lon="5.41662">
        <ele>1076.3</ele>
        <time>2012-08-23T09:03:35Z</time>
      </trkpt>
      <trkpt lat="45.02633" lon="5.41664">
        <ele>1078.4</ele>
        <time>2012-08-23T09:03:39Z</time>
      </trkpt>
      <trkpt lat="45.02633" lon="5.41671">
        <ele>1080.9</ele>
        <time>2012-08-23T09:03:47Z</time>
      </trkpt>
      <trkpt lat="45.02631" lon="5.41678">
        <ele>1081</ele>
        <time>2012-08-23T09:03:50Z</time>
      </trkpt>
      <trkpt lat="45.0263" lon="5.41685">
        <ele>1080.4</ele>
        <time>2012-08-23T09:03:53Z</time>
      </trkpt>
      <trkpt lat="45.02628" lon="5.41695">
        <ele>1079.5</ele>
        <time>2012-08-23T09:03:57Z</time>
      </trkpt>
      <trkpt lat="45.02624" lon="5.4171">
        <ele>1078.5</ele>
        <time>2012-08-23T09:04:03Z</time>
      </trkpt>
      <trkpt lat="45.0262" lon="5.41721">
        <ele>1077.5</ele>
        <time>2012-08-23T09:04:08Z</time>
      </trkpt>
      <trkpt lat="45.02618" lon="5.41725">
        <ele>1078.4</ele>
        <time>2012-08-23T09:04:16Z</time>
      </trkpt>
      <trkpt lat="45.02618" lon="5.41726">
        <ele>1078.8</ele>
        <time>2012-08-23T09:04:20Z</time>
      </trkpt>
      <trkpt lat="45.02619" lon="5.41731">
        <ele>1078.5</ele>
        <time>2012-08-23T09:04:32Z</time>
      </trkpt>
      <trkpt lat="45.02615" lon="5.41747">
        <ele>1076.8</ele>
        <time>2012-08-23T09:04:38Z</time>
      </trkpt>
      <trkpt lat="45.02612" lon="5.41754">
        <ele>1076</ele>
        <time>2012-08-23T09:04:41Z</time>
      </trkpt>
      <trkpt lat="45.02609" lon="5.41756">
        <ele>1075.5</ele>
        <time>2012-08-23T09:04:43Z</time>
      </trkpt>
      <trkpt lat="45.02604" lon="5.41755">
        <ele>1073.8</ele>
        <time>2012-08-23T09:04:47Z</time>
      </trkpt>
      <trkpt lat="45.02599" lon="5.41756">
        <ele>1072.9</ele>
        <time>2012-08-23T09:04:49Z</time>
      </trkpt>
      <trkpt lat="45.0258" lon="5.41766">
        <ele>1070</ele>
        <time>2012-08-23T09:04:55Z</time>
      </trkpt>
      <trkpt lat="45.02574" lon="5.41767">
        <ele>1069.5</ele>
        <time>2012-08-23T09:04:57Z</time>
      </trkpt>
      <trkpt lat="45.0256" lon="5.41766">
        <ele>1067.9</ele>
        <time>2012-08-23T09:05:02Z</time>
      </trkpt>
      <trkpt lat="45.02545" lon="5.41768">
        <ele>1065</ele>
        <time>2012-08-23T09:05:07Z</time>
      </trkpt>
      <trkpt lat="45.02542" lon="5.41768">
        <ele>1064</ele>
        <time>2012-08-23T09:05:08Z</time>
      </trkpt>
      <trkpt lat="45.02533" lon="5.4177">
        <ele>1062.5</ele>
        <time>2012-08-23T09:05:11Z</time>
      </trkpt>
      <trkpt lat="45.02511" lon="5.4177">
        <ele>1060.9</ele>
        <time>2012-08-23T09:05:17Z</time>
      </trkpt>
      <trkpt lat="45.02508" lon="5.41771">
        <ele>1060.4</ele>
        <time>2012-08-23T09:05:18Z</time>
      </trkpt>
      <trkpt lat="45.02505" lon="5.41772">
        <ele>1060.5</ele>
        <time>2012-08-23T09:05:19Z</time>
      </trkpt>
      <trkpt lat="45.02501" lon="5.41776">
        <ele>1060.5</ele>
        <time>2012-08-23T09:05:22Z</time>
      </trkpt>
      <trkpt lat="45.02499" lon="5.41781">
        <ele>1061.4</ele>
        <time>2012-08-23T09:05:24Z</time>
      </trkpt>
      <trkpt lat="45.02493" lon="5.41788">
        <ele>1064</ele>
        <time>2012-08-23T09:05:28Z</time>
      </trkpt>
      <trkpt lat="45.0249" lon="5.41791">
        <ele>1064.9</ele>
        <time>2012-08-23T09:05:30Z</time>
      </trkpt>
      <trkpt lat="45.02484" lon="5.41804">
        <ele>1063.5</ele>
        <time>2012-08-23T09:05:38Z</time>
      </trkpt>
      <trkpt lat="45.02474" lon="5.41817">
        <ele>1063.3</ele>
        <time>2012-08-23T09:05:45Z</time>
      </trkpt>
      <trkpt lat="45.0247" lon="5.41819">
        <ele>1062.8</ele>
        <time>2012-08-23T09:05:48Z</time>
      </trkpt>
      <trkpt lat="45.02465" lon="5.41823">
        <ele>1062.5</ele>
        <time>2012-08-23T09:05:51Z</time>
      </trkpt>
      <trkpt lat="45.02457" lon="5.41833">
        <ele>1064</ele>
        <time>2012-08-23T09:05:56Z</time>
      </trkpt>
      <trkpt lat="45.02454" lon="5.41839">
        <ele>1063</ele>
        <time>2012-08-23T09:05:58Z</time>
      </trkpt>
      <trkpt lat="45.02447" lon="5.4185">
        <ele>1062.9</ele>
        <time>2012-08-23T09:06:02Z</time>
      </trkpt>
      <trkpt lat="45.02445" lon="5.41854">
        <ele>1062.8</ele>
        <time>2012-08-23T09:06:04Z</time>
      </trkpt>
      <trkpt lat="45.02441" lon="5.41861">
        <ele>1062.4</ele>
        <time>2012-08-23T09:06:07Z</time>
      </trkpt>
      <trkpt lat="45.02438" lon="5.41865">
        <ele>1062.3</ele>
        <time>2012-08-23T09:06:09Z</time>
      </trkpt>
      <trkpt lat="45.02436" lon="5.41866">
        <ele>1062.9</ele>
        <time>2012-08-23T09:06:10Z</time>
      </trkpt>
      <trkpt lat="45.0243" lon="5.41874">
        <ele>1061.5</ele>
        <time>2012-08-23T09:06:14Z</time>
      </trkpt>
      <trkpt lat="45.02422" lon="5.41882">
        <ele>1060.9</ele>
        <time>2012-08-23T09:06:18Z</time>
      </trkpt>
      <trkpt lat="45.02418" lon="5.41884">
        <ele>1060.9</ele>
        <time>2012-08-23T09:06:19Z</time>
      </trkpt>
      <trkpt lat="45.02415" lon="5.41886">
        <ele>1060.9</ele>
        <time>2012-08-23T09:06:20Z</time>
      </trkpt>
      <trkpt lat="45.02401" lon="5.4189">
        <ele>1061.8</ele>
        <time>2012-08-23T09:06:24Z</time>
      </trkpt>
      <trkpt lat="45.02398" lon="5.41892">
        <ele>1061.9</ele>
        <time>2012-08-23T09:06:25Z</time>
      </trkpt>
      <trkpt lat="45.0239" lon="5.41902">
        <ele>1060.5</ele>
        <time>2012-08-23T09:06:29Z</time>
      </trkpt>
      <trkpt lat="45.02389" lon="5.41906">
        <ele>1060</ele>
        <time>2012-08-23T09:06:30Z</time>
      </trkpt>
      <trkpt lat="45.02386" lon="5.41918">
        <ele>1058.9</ele>
        <time>2012-08-23T09:06:33Z</time>
      </trkpt>
      <trkpt lat="45.02386" lon="5.41923">
        <ele>1058.8</ele>
        <time>2012-08-23T09:06:34Z</time>
      </trkpt>
      <trkpt lat="45.02383" lon="5.41932">
        <ele>1060</ele>
        <time>2012-08-23T09:06:36Z</time>
      </trkpt>
      <trkpt lat="45.02381" lon="5.41935">
        <ele>1060.3</ele>
        <time>2012-08-23T09:06:37Z</time>
      </trkpt>
      <trkpt lat="45.02378" lon="5.4194">
        <ele>1060.9</ele>
        <time>2012-08-23T09:06:39Z</time>
      </trkpt>
      <trkpt lat="45.02374" lon="5.41944">
        <ele>1060.8</ele>
        <time>2012-08-23T09:06:41Z</time>
      </trkpt>
      <trkpt lat="45.02369" lon="5.41946">
        <ele>1060.5</ele>
        <time>2012-08-23T09:06:43Z</time>
      </trkpt>
      <trkpt lat="45.02359" lon="5.41946">
        <ele>1058</ele>
        <time>2012-08-23T09:06:50Z</time>
      </trkpt>
      <trkpt lat="45.02356" lon="5.41945">
        <ele>1058.3</ele>
        <time>2012-08-23T09:06:52Z</time>
      </trkpt>
      <trkpt lat="45.02349" lon="5.41941">
        <ele>1057.5</ele>
        <time>2012-08-23T09:06:59Z</time>
      </trkpt>
      <trkpt lat="45.0234" lon="5.41937">
        <ele>1054</ele>
        <time>2012-08-23T09:07:05Z</time>
      </trkpt>
      <trkpt lat="45.02337" lon="5.41937">
        <ele>1052.8</ele>
        <time>2012-08-23T09:07:07Z</time>
      </trkpt>
      <trkpt lat="45.02336" lon="5.41935">
        <ele>1053.3</ele>
        <time>2012-08-23T09:07:20Z</time>
      </trkpt>
      <trkpt lat="45.02336" lon="5.41934">
        <ele>1052.9</ele>
        <time>2012-08-23T09:07:25Z</time>
      </trkpt>
      <trkpt lat="45.02335" lon="5.41935">
        <ele>1052.5</ele>
        <time>2012-08-23T09:07:28Z</time>
      </trkpt>
      <trkpt lat="45.02326" lon="5.4194">
        <ele>1053.9</ele>
        <time>2012-08-23T09:07:34Z</time>
      </trkpt>
      <trkpt lat="45.02316" lon="5.41944">
        <ele>1054.4</ele>
        <time>2012-08-23T09:07:40Z</time>
      </trkpt>
      <trkpt lat="45.02313" lon="5.4195">
        <ele>1053.5</ele>
        <time>2012-08-23T09:07:52Z</time>
      </trkpt>
      <trkpt lat="45.02309" lon="5.41956">
        <ele>1051.8</ele>
        <time>2012-08-23T09:08:01Z</time>
      </trkpt>
      <trkpt lat="45.02305" lon="5.41961">
        <ele>1050.9</ele>
        <time>2012-08-23T09:08:04Z</time>
      </trkpt>
      <trkpt lat="45.02303" lon="5.41962">
        <ele>1049.8</ele>
        <time>2012-08-23T09:08:06Z</time>
      </trkpt>
      <trkpt lat="45.02295" lon="5.41968">
        <ele>1047.9</ele>
        <time>2012-08-23T09:08:10Z</time>
      </trkpt>
      <trkpt lat="45.02278" lon="5.41975">
        <ele>1048</ele>
        <time>2012-08-23T09:08:16Z</time>
      </trkpt>
      <trkpt lat="45.02271" lon="5.4198">
        <ele>1045.3</ele>
        <time>2012-08-23T09:08:22Z</time>
      </trkpt>
      <trkpt lat="45.02269" lon="5.41981">
        <ele>1044.8</ele>
        <time>2012-08-23T09:08:23Z</time>
      </trkpt>
      <trkpt lat="45.0226" lon="5.41982">
        <ele>1042.4</ele>
        <time>2012-08-23T09:08:26Z</time>
      </trkpt>
      <trkpt lat="45.02252" lon="5.41985">
        <ele>1039.5</ele>
        <time>2012-08-23T09:08:31Z</time>
      </trkpt>
      <trkpt lat="45.02248" lon="5.41985">
        <ele>1039</ele>
        <time>2012-08-23T09:08:33Z</time>
      </trkpt>
      <trkpt lat="45.02243" lon="5.41988">
        <ele>1039.5</ele>
        <time>2012-08-23T09:08:35Z</time>
      </trkpt>
      <trkpt lat="45.02241" lon="5.4199">
        <ele>1039.9</ele>
        <time>2012-08-23T09:08:36Z</time>
      </trkpt>
      <trkpt lat="45.02237" lon="5.41994">
        <ele>1039.5</ele>
        <time>2012-08-23T09:08:38Z</time>
      </trkpt>
      <trkpt lat="45.02234" lon="5.41996">
        <ele>1039.5</ele>
        <time>2012-08-23T09:08:39Z</time>
      </trkpt>
      <trkpt lat="45.02228" lon="5.41998">
        <ele>1039.5</ele>
        <time>2012-08-23T09:08:41Z</time>
      </trkpt>
      <trkpt lat="45.02222" lon="5.41998">
        <ele>1038.5</ele>
        <time>2012-08-23T09:08:43Z</time>
      </trkpt>
      <trkpt lat="45.02218" lon="5.42">
        <ele>1037</ele>
        <time>2012-08-23T09:08:45Z</time>
      </trkpt>
      <trkpt lat="45.02209" lon="5.42003">
        <ele>1037</ele>
        <time>2012-08-23T09:08:50Z</time>
      </trkpt>
      <trkpt lat="45.02204" lon="5.42007">
        <ele>1036</ele>
        <time>2012-08-23T09:08:53Z</time>
      </trkpt>
      <trkpt lat="45.02201" lon="5.42007">
        <ele>1033.5</ele>
        <time>2012-08-23T09:08:55Z</time>
      </trkpt>
      <trkpt lat="45.02198" lon="5.4201">
        <ele>1032.9</ele>
        <time>2012-08-23T09:08:57Z</time>
      </trkpt>
      <trkpt lat="45.02191" lon="5.42018">
        <ele>1029.9</ele>
        <time>2012-08-23T09:09:01Z</time>
      </trkpt>
      <trkpt lat="45.02186" lon="5.42027">
        <ele>1027.5</ele>
        <time>2012-08-23T09:09:04Z</time>
      </trkpt>
      <trkpt lat="45.02184" lon="5.42031">
        <ele>1026.9</ele>
        <time>2012-08-23T09:09:05Z</time>
      </trkpt>
      <trkpt lat="45.02183" lon="5.42035">
        <ele>1026</ele>
        <time>2012-08-23T09:09:06Z</time>
      </trkpt>
      <trkpt lat="45.02175" lon="5.42061">
        <ele>1023.9</ele>
        <time>2012-08-23T09:09:12Z</time>
      </trkpt>
      <trkpt lat="45.02168" lon="5.42087">
        <ele>1022.9</ele>
        <time>2012-08-23T09:09:17Z</time>
      </trkpt>
      <trkpt lat="45.02158" lon="5.42117">
        <ele>1018.7</ele>
        <time>2012-08-23T09:09:24Z</time>
      </trkpt>
      <trkpt lat="45.02158" lon="5.4212">
        <ele>1018.7</ele>
        <time>2012-08-23T09:09:26Z</time>
      </trkpt>
      <trkpt lat="45.02155" lon="5.42125">
        <ele>1023.5</ele>
        <time>2012-08-23T09:09:33Z</time>
      </trkpt>
      <trkpt lat="45.02152" lon="5.42127">
        <ele>1020.7</ele>
        <time>2012-08-23T09:09:40Z</time>
      </trkpt>
      <trkpt lat="45.02152" lon="5.42128">
        <ele>1018.7</ele>
        <time>2012-08-23T09:09:49Z</time>
      </trkpt>
      <trkpt lat="45.02151" lon="5.42128">
        <ele>1014.9</ele>
        <time>2012-08-23T09:10:04Z</time>
      </trkpt>
      <trkpt lat="45.0215" lon="5.4213">
        <ele>1015.4</ele>
        <time>2012-08-23T09:10:10Z</time>
      </trkpt>
      <trkpt lat="45.02148" lon="5.42134">
        <ele>1016</ele>
        <time>2012-08-23T09:10:13Z</time>
      </trkpt>
      <trkpt lat="45.02141" lon="5.4214">
        <ele>1018</ele>
        <time>2012-08-23T09:10:19Z</time>
      </trkpt>
      <trkpt lat="45.02139" lon="5.42145">
        <ele>1019</ele>
        <time>2012-08-23T09:10:22Z</time>
      </trkpt>
      <trkpt lat="45.02136" lon="5.42148">
        <ele>1019.7</ele>
        <time>2012-08-23T09:10:26Z</time>
      </trkpt>
      <trkpt lat="45.02133" lon="5.42155">
        <ele>1020.9</ele>
        <time>2012-08-23T09:10:30Z</time>
      </trkpt>
      <trkpt lat="45.02133" lon="5.42159">
        <ele>1021.5</ele>
        <time>2012-08-23T09:10:33Z</time>
      </trkpt>
      <trkpt lat="45.02136" lon="5.42163">
        <ele>1022.2</ele>
        <time>2012-08-23T09:10:37Z</time>
      </trkpt>
      <trkpt lat="45.02141" lon="5.42166">
        <ele>1022.2</ele>
        <time>2012-08-23T09:10:41Z</time>
      </trkpt>
      <trkpt lat="45.02143" lon="5.42168">
        <ele>1022.2</ele>
        <time>2012-08-23T09:10:43Z</time>
      </trkpt>
      <trkpt lat="45.02147" lon="5.42172">
        <ele>1022.2</ele>
        <time>2012-08-23T09:10:46Z</time>
      </trkpt>
      <trkpt lat="45.0215" lon="5.42178">
        <ele>1023.2</ele>
        <time>2012-08-23T09:10:50Z</time>
      </trkpt>
      <trkpt lat="45.02156" lon="5.42186">
        <ele>1025</ele>
        <time>2012-08-23T09:10:57Z</time>
      </trkpt>
      <trkpt lat="45.0216" lon="5.42191">
        <ele>1026.9</ele>
        <time>2012-08-23T09:11:02Z</time>
      </trkpt>
      <trkpt lat="45.02166" lon="5.42196">
        <ele>1028</ele>
        <time>2012-08-23T09:11:08Z</time>
      </trkpt>
      <trkpt lat="45.02168" lon="5.42201">
        <ele>1028.3</ele>
        <time>2012-08-23T09:11:12Z</time>
      </trkpt>
      <trkpt lat="45.02172" lon="5.42204">
        <ele>1029.5</ele>
        <time>2012-08-23T09:11:17Z</time>
      </trkpt>
      <trkpt lat="45.02176" lon="5.42209">
        <ele>1031.8</ele>
        <time>2012-08-23T09:11:22Z</time>
      </trkpt>
      <trkpt lat="45.02182" lon="5.42212">
        <ele>1034.5</ele>
        <time>2012-08-23T09:11:27Z</time>
      </trkpt>
      <trkpt lat="45.02188" lon="5.42218">
        <ele>1036</ele>
        <time>2012-08-23T09:11:36Z</time>
      </trkpt>
      <trkpt lat="45.02193" lon="5.42225">
        <ele>1036</ele>
        <time>2012-08-23T09:11:46Z</time>
      </trkpt>
      <trkpt lat="45.02195" lon="5.42227">
        <ele>1035.3</ele>
        <time>2012-08-23T09:11:50Z</time>
      </trkpt>
      <trkpt lat="45.02199" lon="5.42231">
        <ele>1034.8</ele>
        <time>2012-08-23T09:11:59Z</time>
      </trkpt>
      <trkpt lat="45.02201" lon="5.42234">
        <ele>1034.5</ele>
        <time>2012-08-23T09:12:02Z</time>
      </trkpt>
      <trkpt lat="45.02204" lon="5.42239">
        <ele>1035.5</ele>
        <time>2012-08-23T09:12:06Z</time>
      </trkpt>
      <trkpt lat="45.02209" lon="5.42243">
        <ele>1036.5</ele>
        <time>2012-08-23T09:12:11Z</time>
      </trkpt>
      <trkpt lat="45.02213" lon="5.42245">
        <ele>1036.5</ele>
        <time>2012-08-23T09:12:14Z</time>
      </trkpt>
      <trkpt lat="45.02217" lon="5.42249">
        <ele>1037</ele>
        <time>2012-08-23T09:12:19Z</time>
      </trkpt>
      <trkpt lat="45.02221" lon="5.42256">
        <ele>1038.5</ele>
        <time>2012-08-23T09:12:24Z</time>
      </trkpt>
      <trkpt lat="45.02223" lon="5.42262">
        <ele>1040.4</ele>
        <time>2012-08-23T09:12:28Z</time>
      </trkpt>
      <trkpt lat="45.02223" lon="5.42267">
        <ele>1041.3</ele>
        <time>2012-08-23T09:12:32Z</time>
      </trkpt>
      <trkpt lat="45.02224" lon="5.4228">
        <ele>1042</ele>
        <time>2012-08-23T09:12:42Z</time>
      </trkpt>
      <trkpt lat="45.02224" lon="5.42285">
        <ele>1043.5</ele>
        <time>2012-08-23T09:12:46Z</time>
      </trkpt>
      <trkpt lat="45.02227" lon="5.42296">
        <ele>1044.8</ele>
        <time>2012-08-23T09:12:52Z</time>
      </trkpt>
      <trkpt lat="45.02231" lon="5.42304">
        <ele>1046</ele>
        <time>2012-08-23T09:12:56Z</time>
      </trkpt>
      <trkpt lat="45.02232" lon="5.42307">
        <ele>1046.4</ele>
        <time>2012-08-23T09:12:58Z</time>
      </trkpt>
      <trkpt lat="45.02238" lon="5.42318">
        <ele>1047.5</ele>
        <time>2012-08-23T09:13:04Z</time>
      </trkpt>
      <trkpt lat="45.0224" lon="5.42324">
        <ele>1048.3</ele>
        <time>2012-08-23T09:13:08Z</time>
      </trkpt>
      <trkpt lat="45.02241" lon="5.42326">
        <ele>1048.8</ele>
        <time>2012-08-23T09:13:09Z</time>
      </trkpt>
      <trkpt lat="45.02243" lon="5.42332">
        <ele>1049.5</ele>
        <time>2012-08-23T09:13:12Z</time>
      </trkpt>
      <trkpt lat="45.02243" lon="5.42335">
        <ele>1049</ele>
        <time>2012-08-23T09:13:14Z</time>
      </trkpt>
      <trkpt lat="45.02242" lon="5.42339">
        <ele>1048.9</ele>
        <time>2012-08-23T09:13:17Z</time>
      </trkpt>
      <trkpt lat="45.02242" lon="5.42342">
        <ele>1049</ele>
        <time>2012-08-23T09:13:20Z</time>
      </trkpt>
      <trkpt lat="45.02243" lon="5.42347">
        <ele>1050.5</ele>
        <time>2012-08-23T09:13:25Z</time>
      </trkpt>
      <trkpt lat="45.02246" lon="5.42351">
        <ele>1053</ele>
        <time>2012-08-23T09:13:29Z</time>
      </trkpt>
      <trkpt lat="45.02255" lon="5.42356">
        <ele>1053.5</ele>
        <time>2012-08-23T09:13:37Z</time>
      </trkpt>
      <trkpt lat="45.0226" lon="5.42357">
        <ele>1053.5</ele>
        <time>2012-08-23T09:13:42Z</time>
      </trkpt>
      <trkpt lat="45.02263" lon="5.42358">
        <ele>1053.3</ele>
        <time>2012-08-23T09:13:46Z</time>
      </trkpt>
      <trkpt lat="45.02265" lon="5.42361">
        <ele>1052.9</ele>
        <time>2012-08-23T09:13:48Z</time>
      </trkpt>
      <trkpt lat="45.02267" lon="5.42366">
        <ele>1053.5</ele>
        <time>2012-08-23T09:13:52Z</time>
      </trkpt>
      <trkpt lat="45.0227" lon="5.42367">
        <ele>1053.5</ele>
        <time>2012-08-23T09:13:55Z</time>
      </trkpt>
      <trkpt lat="45.02275" lon="5.42366">
        <ele>1051.4</ele>
        <time>2012-08-23T09:14:02Z</time>
      </trkpt>
      <trkpt lat="45.02281" lon="5.42365">
        <ele>1050.4</ele>
        <time>2012-08-23T09:14:06Z</time>
      </trkpt>
      <trkpt lat="45.02286" lon="5.42366">
        <ele>1049</ele>
        <time>2012-08-23T09:14:09Z</time>
      </trkpt>
      <trkpt lat="45.0229" lon="5.42364">
        <ele>1048.5</ele>
        <time>2012-08-23T09:14:13Z</time>
      </trkpt>
      <trkpt lat="45.02296" lon="5.42364">
        <ele>1047.5</ele>
        <time>2012-08-23T09:14:17Z</time>
      </trkpt>
      <trkpt lat="45.023" lon="5.42363">
        <ele>1046.5</ele>
        <time>2012-08-23T09:14:20Z</time>
      </trkpt>
      <trkpt lat="45.02304" lon="5.42364">
        <ele>1046</ele>
        <time>2012-08-23T09:14:22Z</time>
      </trkpt>
      <trkpt lat="45.02308" lon="5.42363">
        <ele>1045</ele>
        <time>2012-08-23T09:14:25Z</time>
      </trkpt>
      <trkpt lat="45.02312" lon="5.42363">
        <ele>1044.5</ele>
        <time>2012-08-23T09:14:27Z</time>
      </trkpt>
      <trkpt lat="45.02321" lon="5.42365">
        <ele>1044.5</ele>
        <time>2012-08-23T09:14:35Z</time>
      </trkpt>
      <trkpt lat="45.02326" lon="5.42367">
        <ele>1043.9</ele>
        <time>2012-08-23T09:14:40Z</time>
      </trkpt>
      <trkpt lat="45.02336" lon="5.42375">
        <ele>1044</ele>
        <time>2012-08-23T09:14:46Z</time>
      </trkpt>
      <trkpt lat="45.02338" lon="5.42378">
        <ele>1045</ele>
        <time>2012-08-23T09:14:49Z</time>
      </trkpt>
      <trkpt lat="45.0234" lon="5.4238">
        <ele>1045.3</ele>
        <time>2012-08-23T09:14:51Z</time>
      </trkpt>
      <trkpt lat="45.02343" lon="5.42382">
        <ele>1044.9</ele>
        <time>2012-08-23T09:14:53Z</time>
      </trkpt>
      <trkpt lat="45.02346" lon="5.42385">
        <ele>1044</ele>
        <time>2012-08-23T09:14:56Z</time>
      </trkpt>
      <trkpt lat="45.0235" lon="5.42387">
        <ele>1043.4</ele>
        <time>2012-08-23T09:14:58Z</time>
      </trkpt>
      <trkpt lat="45.02357" lon="5.42393">
        <ele>1043.4</ele>
        <time>2012-08-23T09:15:04Z</time>
      </trkpt>
      <trkpt lat="45.02361" lon="5.42399">
        <ele>1045</ele>
        <time>2012-08-23T09:15:10Z</time>
      </trkpt>
      <trkpt lat="45.02362" lon="5.42403">
        <ele>1044.8</ele>
        <time>2012-08-23T09:15:12Z</time>
      </trkpt>
      <trkpt lat="45.02365" lon="5.4242">
        <ele>1042</ele>
        <time>2012-08-23T09:15:17Z</time>
      </trkpt>
      <trkpt lat="45.02368" lon="5.42428">
        <ele>1038.5</ele>
        <time>2012-08-23T09:15:21Z</time>
      </trkpt>
      <trkpt lat="45.02369" lon="5.42431">
        <ele>1038.4</ele>
        <time>2012-08-23T09:15:23Z</time>
      </trkpt>
      <trkpt lat="45.02374" lon="5.42435">
        <ele>1039</ele>
        <time>2012-08-23T09:15:25Z</time>
      </trkpt>
      <trkpt lat="45.0238" lon="5.42444">
        <ele>1040.5</ele>
        <time>2012-08-23T09:15:30Z</time>
      </trkpt>
      <trkpt lat="45.02385" lon="5.42448">
        <ele>1041.3</ele>
        <time>2012-08-23T09:15:33Z</time>
      </trkpt>
      <trkpt lat="45.02391" lon="5.42456">
        <ele>1041.5</ele>
        <time>2012-08-23T09:15:39Z</time>
      </trkpt>
      <trkpt lat="45.02396" lon="5.42465">
        <ele>1040.3</ele>
        <time>2012-08-23T09:15:44Z</time>
      </trkpt>
      <trkpt lat="45.024" lon="5.42471">
        <ele>1040.9</ele>
        <time>2012-08-23T09:15:48Z</time>
      </trkpt>
      <trkpt lat="45.02402" lon="5.42474">
        <ele>1040.5</ele>
        <time>2012-08-23T09:15:50Z</time>
      </trkpt>
      <trkpt lat="45.02404" lon="5.42477">
        <ele>1039.5</ele>
        <time>2012-08-23T09:15:52Z</time>
      </trkpt>
      <trkpt lat="45.02409" lon="5.42487">
        <ele>1037.9</ele>
        <time>2012-08-23T09:15:57Z</time>
      </trkpt>
      <trkpt lat="45.0241" lon="5.42492">
        <ele>1037.9</ele>
        <time>2012-08-23T09:15:59Z</time>
      </trkpt>
      <trkpt lat="45.02412" lon="5.42496">
        <ele>1036.3</ele>
        <time>2012-08-23T09:16:01Z</time>
      </trkpt>
      <trkpt lat="45.02416" lon="5.42503">
        <ele>1035.5</ele>
        <time>2012-08-23T09:16:06Z</time>
      </trkpt>
      <trkpt lat="45.02421" lon="5.4251">
        <ele>1032.5</ele>
        <time>2012-08-23T09:16:15Z</time>
      </trkpt>
      <trkpt lat="45.02422" lon="5.42512">
        <ele>1032.8</ele>
        <time>2012-08-23T09:16:16Z</time>
      </trkpt>
      <trkpt lat="45.02433" lon="5.42524">
        <ele>1033</ele>
        <time>2012-08-23T09:16:20Z</time>
      </trkpt>
      <trkpt lat="45.02439" lon="5.4253">
        <ele>1031.4</ele>
        <time>2012-08-23T09:16:24Z</time>
      </trkpt>
      <trkpt lat="45.02446" lon="5.42541">
        <ele>1031.8</ele>
        <time>2012-08-23T09:16:30Z</time>
      </trkpt>
      <trkpt lat="45.0245" lon="5.42544">
        <ele>1031</ele>
        <time>2012-08-23T09:16:33Z</time>
      </trkpt>
      <trkpt lat="45.02453" lon="5.42548">
        <ele>1030.5</ele>
        <time>2012-08-23T09:16:35Z</time>
      </trkpt>
      <trkpt lat="45.02456" lon="5.42553">
        <ele>1030</ele>
        <time>2012-08-23T09:16:38Z</time>
      </trkpt>
      <trkpt lat="45.0246" lon="5.42558">
        <ele>1028.5</ele>
        <time>2012-08-23T09:16:46Z</time>
      </trkpt>
      <trkpt lat="45.02461" lon="5.42561">
        <ele>1028.9</ele>
        <time>2012-08-23T09:16:49Z</time>
      </trkpt>
      <trkpt lat="45.02466" lon="5.42571">
        <ele>1029.8</ele>
        <time>2012-08-23T09:16:58Z</time>
      </trkpt>
      <trkpt lat="45.02467" lon="5.42573">
        <ele>1029.3</ele>
        <time>2012-08-23T09:17:00Z</time>
      </trkpt>
      <trkpt lat="45.02471" lon="5.42576">
        <ele>1026.5</ele>
        <time>2012-08-23T09:17:05Z</time>
      </trkpt>
      <trkpt lat="45.02474" lon="5.42583">
        <ele>1025</ele>
        <time>2012-08-23T09:17:11Z</time>
      </trkpt>
      <trkpt lat="45.02477" lon="5.42591">
        <ele>1026.5</ele>
        <time>2012-08-23T09:17:22Z</time>
      </trkpt>
      <trkpt lat="45.02477" lon="5.42594">
        <ele>1028</ele>
        <time>2012-08-23T09:17:26Z</time>
      </trkpt>
      <trkpt lat="45.0248" lon="5.42601">
        <ele>1026</ele>
        <time>2012-08-23T09:17:32Z</time>
      </trkpt>
      <trkpt lat="45.02483" lon="5.42605">
        <ele>1023.5</ele>
        <time>2012-08-23T09:17:37Z</time>
      </trkpt>
      <trkpt lat="45.02487" lon="5.42615">
        <ele>1022.5</ele>
        <time>2012-08-23T09:17:44Z</time>
      </trkpt>
      <trkpt lat="45.02488" lon="5.4262">
        <ele>1023.2</ele>
        <time>2012-08-23T09:17:49Z</time>
      </trkpt>
      <trkpt lat="45.02489" lon="5.42625">
        <ele>1021.4</ele>
        <time>2012-08-23T09:17:52Z</time>
      </trkpt>
      <trkpt lat="45.0249" lon="5.42632">
        <ele>1018</ele>
        <time>2012-08-23T09:17:56Z</time>
      </trkpt>
      <trkpt lat="45.02489" lon="5.42637">
        <ele>1017.5</ele>
        <time>2012-08-23T09:17:59Z</time>
      </trkpt>
      <trkpt lat="45.0249" lon="5.42644">
        <ele>1015.5</ele>
        <time>2012-08-23T09:18:03Z</time>
      </trkpt>
      <trkpt lat="45.02489" lon="5.42656">
        <ele>1016.7</ele>
        <time>2012-08-23T09:18:12Z</time>
      </trkpt>
      <trkpt lat="45.02488" lon="5.42664">
        <ele>1017.7</ele>
        <time>2012-08-23T09:18:21Z</time>
      </trkpt>
      <trkpt lat="45.02488" lon="5.4267">
        <ele>1016.2</ele>
        <time>2012-08-23T09:18:27Z</time>
      </trkpt>
      <trkpt lat="45.0249" lon="5.42676">
        <ele>1013.7</ele>
        <time>2012-08-23T09:18:35Z</time>
      </trkpt>
      <trkpt lat="45.0249" lon="5.42679">
        <ele>1012.9</ele>
        <time>2012-08-23T09:18:39Z</time>
      </trkpt>
      <trkpt lat="45.02491" lon="5.42688">
        <ele>1010.7</ele>
        <time>2012-08-23T09:18:47Z</time>
      </trkpt>
      <trkpt lat="45.02493" lon="5.42693">
        <ele>1008.2</ele>
        <time>2012-08-23T09:18:52Z</time>
      </trkpt>
      <trkpt lat="45.02495" lon="5.427">
        <ele>1008.2</ele>
        <time>2012-08-23T09:18:57Z</time>
      </trkpt>
      <trkpt lat="45.02496" lon="5.42707">
        <ele>1006.7</ele>
        <time>2012-08-23T09:19:03Z</time>
      </trkpt>
      <trkpt lat="45.02497" lon="5.42712">
        <ele>1007</ele>
        <time>2012-08-23T09:19:07Z</time>
      </trkpt>
      <trkpt lat="45.02499" lon="5.42717">
        <ele>1008</ele>
        <time>2012-08-23T09:19:11Z</time>
      </trkpt>
      <trkpt lat="45.02499" lon="5.42722">
        <ele>1008.5</ele>
        <time>2012-08-23T09:19:15Z</time>
      </trkpt>
      <trkpt lat="45.02499" lon="5.42732">
        <ele>1008.7</ele>
        <time>2012-08-23T09:19:24Z</time>
      </trkpt>
      <trkpt lat="45.02502" lon="5.42747">
        <ele>1007.7</ele>
        <time>2012-08-23T09:19:30Z</time>
      </trkpt>
      <trkpt lat="45.02502" lon="5.4275">
        <ele>1006.2</ele>
        <time>2012-08-23T09:19:32Z</time>
      </trkpt>
      <trkpt lat="45.02503" lon="5.42754">
        <ele>1004.4</ele>
        <time>2012-08-23T09:19:41Z</time>
      </trkpt>
      <trkpt lat="45.02507" lon="5.42757">
        <ele>1004.7</ele>
        <time>2012-08-23T09:19:54Z</time>
      </trkpt>
      <trkpt lat="45.02511" lon="5.42761">
        <ele>1007.2</ele>
        <time>2012-08-23T09:20:09Z</time>
      </trkpt>
      <trkpt lat="45.02512" lon="5.42761">
        <ele>1007.5</ele>
        <time>2012-08-23T09:20:15Z</time>
      </trkpt>
      <trkpt lat="45.02514" lon="5.42761">
        <ele>1007.5</ele>
        <time>2012-08-23T09:20:18Z</time>
      </trkpt>
      <trkpt lat="45.02514" lon="5.42762">
        <ele>1008.5</ele>
        <time>2012-08-23T09:20:23Z</time>
      </trkpt>
      <trkpt lat="45.02514" lon="5.42768">
        <ele>1008.7</ele>
        <time>2012-08-23T09:20:31Z</time>
      </trkpt>
      <trkpt lat="45.02516" lon="5.42773">
        <ele>1008</ele>
        <time>2012-08-23T09:20:34Z</time>
      </trkpt>
      <trkpt lat="45.02519" lon="5.42777">
        <ele>1006.5</ele>
        <time>2012-08-23T09:20:37Z</time>
      </trkpt>
      <trkpt lat="45.02525" lon="5.4278">
        <ele>1005.4</ele>
        <time>2012-08-23T09:20:40Z</time>
      </trkpt>
      <trkpt lat="45.02527" lon="5.42782">
        <ele>1005.5</ele>
        <time>2012-08-23T09:20:42Z</time>
      </trkpt>
      <trkpt lat="45.02527" lon="5.42785">
        <ele>1007</ele>
        <time>2012-08-23T09:20:45Z</time>
      </trkpt>
      <trkpt lat="45.02533" lon="5.42794">
        <ele>1008.5</ele>
        <time>2012-08-23T09:20:53Z</time>
      </trkpt>
      <trkpt lat="45.02537" lon="5.42801">
        <ele>1008.5</ele>
        <time>2012-08-23T09:20:57Z</time>
      </trkpt>
      <trkpt lat="45.02537" lon="5.42806">
        <ele>1009.5</ele>
        <time>2012-08-23T09:21:00Z</time>
      </trkpt>
      <trkpt lat="45.02538" lon="5.42811">
        <ele>1010.5</ele>
        <time>2012-08-23T09:21:03Z</time>
      </trkpt>
      <trkpt lat="45.02539" lon="5.42816">
        <ele>1011.2</ele>
        <time>2012-08-23T09:21:06Z</time>
      </trkpt>
      <trkpt lat="45.02538" lon="5.42821">
        <ele>1012.5</ele>
        <time>2012-08-23T09:21:09Z</time>
      </trkpt>
      <trkpt lat="45.02538" lon="5.42824">
        <ele>1011.7</ele>
        <time>2012-08-23T09:21:11Z</time>
      </trkpt>
      <trkpt lat="45.0254" lon="5.42831">
        <ele>1009.7</ele>
        <time>2012-08-23T09:21:15Z</time>
      </trkpt>
      <trkpt lat="45.02541" lon="5.42841">
        <ele>1010.7</ele>
        <time>2012-08-23T09:21:22Z</time>
      </trkpt>
      <trkpt lat="45.02537" lon="5.42855">
        <ele>1012.7</ele>
        <time>2012-08-23T09:21:28Z</time>
      </trkpt>
      <trkpt lat="45.02537" lon="5.42859">
        <ele>1012.7</ele>
        <time>2012-08-23T09:21:30Z</time>
      </trkpt>
      <trkpt lat="45.02539" lon="5.42865">
        <ele>1010.5</ele>
        <time>2012-08-23T09:21:34Z</time>
      </trkpt>
      <trkpt lat="45.02541" lon="5.42868">
        <ele>1009.2</ele>
        <time>2012-08-23T09:21:36Z</time>
      </trkpt>
      <trkpt lat="45.02545" lon="5.42871">
        <ele>1007.9</ele>
        <time>2012-08-23T09:21:39Z</time>
      </trkpt>
      <trkpt lat="45.02554" lon="5.42873">
        <ele>1006.4</ele>
        <time>2012-08-23T09:21:45Z</time>
      </trkpt>
      <trkpt lat="45.02564" lon="5.42877">
        <ele>1007.4</ele>
        <time>2012-08-23T09:21:51Z</time>
      </trkpt>
      <trkpt lat="45.02567" lon="5.4288">
        <ele>1008.2</ele>
        <time>2012-08-23T09:21:53Z</time>
      </trkpt>
      <trkpt lat="45.02569" lon="5.42881">
        <ele>1007.7</ele>
        <time>2012-08-23T09:21:55Z</time>
      </trkpt>
      <trkpt lat="45.0258" lon="5.42882">
        <ele>1005</ele>
        <time>2012-08-23T09:22:00Z</time>
      </trkpt>
      <trkpt lat="45.02589" lon="5.42887">
        <ele>1005</ele>
        <time>2012-08-23T09:22:04Z</time>
      </trkpt>
      <trkpt lat="45.02592" lon="5.42888">
        <ele>1004.5</ele>
        <time>2012-08-23T09:22:05Z</time>
      </trkpt>
      <trkpt lat="45.02601" lon="5.42889">
        <ele>1003.5</ele>
        <time>2012-08-23T09:22:09Z</time>
      </trkpt>
      <trkpt lat="45.0262" lon="5.42899">
        <ele>1002.2</ele>
        <time>2012-08-23T09:22:15Z</time>
      </trkpt>
      <trkpt lat="45.02625" lon="5.42903">
        <ele>1002</ele>
        <time>2012-08-23T09:22:17Z</time>
      </trkpt>
      <trkpt lat="45.02627" lon="5.42908">
        <ele>1001.5</ele>
        <time>2012-08-23T09:22:20Z</time>
      </trkpt>
      <trkpt lat="45.02628" lon="5.42911">
        <ele>1001.2</ele>
        <time>2012-08-23T09:22:30Z</time>
      </trkpt>
      <trkpt lat="45.02629" lon="5.42911">
        <ele>1000.5</ele>
        <time>2012-08-23T09:22:35Z</time>
      </trkpt>
      <trkpt lat="45.02629" lon="5.42916">
        <ele>1000.7</ele>
        <time>2012-08-23T09:22:40Z</time>
      </trkpt>
      <trkpt lat="45.02627" lon="5.4292">
        <ele>1000.7</ele>
        <time>2012-08-23T09:22:42Z</time>
      </trkpt>
      <trkpt lat="45.02625" lon="5.42933">
        <ele>1001</ele>
        <time>2012-08-23T09:22:47Z</time>
      </trkpt>
      <trkpt lat="45.02625" lon="5.42939">
        <ele>1000.5</ele>
        <time>2012-08-23T09:22:50Z</time>
      </trkpt>
      <trkpt lat="45.02629" lon="5.42944">
        <ele>999.5</ele>
        <time>2012-08-23T09:22:53Z</time>
      </trkpt>
      <trkpt lat="45.02632" lon="5.42947">
        <ele>999.5</ele>
        <time>2012-08-23T09:22:55Z</time>
      </trkpt>
      <trkpt lat="45.02641" lon="5.42956">
        <ele>1000.5</ele>
        <time>2012-08-23T09:23:01Z</time>
      </trkpt>
      <trkpt lat="45.02646" lon="5.42962">
        <ele>1000.5</ele>
        <time>2012-08-23T09:23:05Z</time>
      </trkpt>
      <trkpt lat="45.02648" lon="5.42968">
        <ele>1000.7</ele>
        <time>2012-08-23T09:23:08Z</time>
      </trkpt>
      <trkpt lat="45.02652" lon="5.42974">
        <ele>1000.2</ele>
        <time>2012-08-23T09:23:12Z</time>
      </trkpt>
      <trkpt lat="45.02653" lon="5.42977">
        <ele>999</ele>
        <time>2012-08-23T09:23:22Z</time>
      </trkpt>
      <trkpt lat="45.02657" lon="5.42977">
        <ele>999.5</ele>
        <time>2012-08-23T09:23:26Z</time>
      </trkpt>
      <trkpt lat="45.02659" lon="5.42978">
        <ele>999.9</ele>
        <time>2012-08-23T09:23:27Z</time>
      </trkpt>
      <trkpt lat="45.02668" lon="5.42984">
        <ele>1000.7</ele>
        <time>2012-08-23T09:23:31Z</time>
      </trkpt>
      <trkpt lat="45.02676" lon="5.42987">
        <ele>1002.4</ele>
        <time>2012-08-23T09:23:37Z</time>
      </trkpt>
      <trkpt lat="45.02681" lon="5.42988">
        <ele>1002.5</ele>
        <time>2012-08-23T09:23:40Z</time>
      </trkpt>
      <trkpt lat="45.02691" lon="5.42991">
        <ele>1004</ele>
        <time>2012-08-23T09:23:46Z</time>
      </trkpt>
      <trkpt lat="45.02696" lon="5.42991">
        <ele>1004.7</ele>
        <time>2012-08-23T09:23:49Z</time>
      </trkpt>
      <trkpt lat="45.02701" lon="5.42993">
        <ele>1005.5</ele>
        <time>2012-08-23T09:23:52Z</time>
      </trkpt>
      <trkpt lat="45.02704" lon="5.42995">
        <ele>1006.2</ele>
        <time>2012-08-23T09:23:54Z</time>
      </trkpt>
      <trkpt lat="45.02718" lon="5.43002">
        <ele>1007</ele>
        <time>2012-08-23T09:24:01Z</time>
      </trkpt>
      <trkpt lat="45.02721" lon="5.43004">
        <ele>1007.5</ele>
        <time>2012-08-23T09:24:03Z</time>
      </trkpt>
      <trkpt lat="45.02723" lon="5.43007">
        <ele>1008.7</ele>
        <time>2012-08-23T09:24:05Z</time>
      </trkpt>
      <trkpt lat="45.02731" lon="5.43014">
        <ele>1005.2</ele>
        <time>2012-08-23T09:24:10Z</time>
      </trkpt>
      <trkpt lat="45.02733" lon="5.43015">
        <ele>1004.5</ele>
        <time>2012-08-23T09:24:11Z</time>
      </trkpt>
      <trkpt lat="45.02743" lon="5.43023">
        <ele>1002.4</ele>
        <time>2012-08-23T09:24:16Z</time>
      </trkpt>
      <trkpt lat="45.02747" lon="5.43025">
        <ele>1002.2</ele>
        <time>2012-08-23T09:24:18Z</time>
      </trkpt>
      <trkpt lat="45.02761" lon="5.43028">
        <ele>1003.2</ele>
        <time>2012-08-23T09:24:24Z</time>
      </trkpt>
      <trkpt lat="45.02769" lon="5.43031">
        <ele>1005.5</ele>
        <time>2012-08-23T09:24:27Z</time>
      </trkpt>
      <trkpt lat="45.02772" lon="5.43034">
        <ele>1005.7</ele>
        <time>2012-08-23T09:24:31Z</time>
      </trkpt>
      <trkpt lat="45.02773" lon="5.43035">
        <ele>1006</ele>
        <time>2012-08-23T09:24:35Z</time>
      </trkpt>
      <trkpt lat="45.02774" lon="5.43036">
        <ele>1006.2</ele>
        <time>2012-08-23T09:24:37Z</time>
      </trkpt>
      <trkpt lat="45.02774" lon="5.43037">
        <ele>1006.9</ele>
        <time>2012-08-23T09:24:40Z</time>
      </trkpt>
      <trkpt lat="45.02776" lon="5.43038">
        <ele>1005.7</ele>
        <time>2012-08-23T09:24:45Z</time>
      </trkpt>
      <trkpt lat="45.0278" lon="5.43039">
        <ele>1002.9</ele>
        <time>2012-08-23T09:24:58Z</time>
      </trkpt>
      <trkpt lat="45.02782" lon="5.43038">
        <ele>1002.7</ele>
        <time>2012-08-23T09:25:07Z</time>
      </trkpt>
      <trkpt lat="45.02786" lon="5.4304">
        <ele>1004.2</ele>
        <time>2012-08-23T09:25:17Z</time>
      </trkpt>
      <trkpt lat="45.02787" lon="5.43042">
        <ele>1005.5</ele>
        <time>2012-08-23T09:25:21Z</time>
      </trkpt>
      <trkpt lat="45.02785" lon="5.43054">
        <ele>1006</ele>
        <time>2012-08-23T09:25:32Z</time>
      </trkpt>
      <trkpt lat="45.02789" lon="5.43064">
        <ele>1007.5</ele>
        <time>2012-08-23T09:25:36Z</time>
      </trkpt>
      <trkpt lat="45.02799" lon="5.43073">
        <ele>1007.5</ele>
        <time>2012-08-23T09:25:40Z</time>
      </trkpt>
      <trkpt lat="45.02802" lon="5.43076">
        <ele>1007.7</ele>
        <time>2012-08-23T09:25:41Z</time>
      </trkpt>
      <trkpt lat="45.02811" lon="5.43078">
        <ele>1007.5</ele>
        <time>2012-08-23T09:25:43Z</time>
      </trkpt>
      <trkpt lat="45.02815" lon="5.43079">
        <ele>1007</ele>
        <time>2012-08-23T09:25:44Z</time>
      </trkpt>
      <trkpt lat="45.02852" lon="5.43087">
        <ele>1004.5</ele>
        <time>2012-08-23T09:25:50Z</time>
      </trkpt>
      <trkpt lat="45.02888" lon="5.43099">
        <ele>1000.7</ele>
        <time>2012-08-23T09:25:56Z</time>
      </trkpt>
      <trkpt lat="45.02928" lon="5.43131">
        <ele>996.7</ele>
        <time>2012-08-23T09:26:01Z</time>
      </trkpt>
      <trkpt lat="45.0296" lon="5.43151">
        <ele>991.2</ele>
        <time>2012-08-23T09:26:05Z</time>
      </trkpt>
      <trkpt lat="45.03" lon="5.43165">
        <ele>986</ele>
        <time>2012-08-23T09:26:10Z</time>
      </trkpt>
      <trkpt lat="45.03032" lon="5.43172">
        <ele>980.5</ele>
        <time>2012-08-23T09:26:14Z</time>
      </trkpt>
      <trkpt lat="45.0304" lon="5.43172">
        <ele>979.9</ele>
        <time>2012-08-23T09:26:15Z</time>
      </trkpt>
      <trkpt lat="45.03048" lon="5.4317">
        <ele>978.2</ele>
        <time>2012-08-23T09:26:16Z</time>
      </trkpt>
      <trkpt lat="45.03076" lon="5.43154">
        <ele>970.9</ele>
        <time>2012-08-23T09:26:20Z</time>
      </trkpt>
      <trkpt lat="45.03088" lon="5.4315">
        <ele>968.2</ele>
        <time>2012-08-23T09:26:22Z</time>
      </trkpt>
      <trkpt lat="45.03095" lon="5.43151">
        <ele>967.2</ele>
        <time>2012-08-23T09:26:23Z</time>
      </trkpt>
      <trkpt lat="45.03122" lon="5.43171">
        <ele>964.5</ele>
        <time>2012-08-23T09:26:28Z</time>
      </trkpt>
      <trkpt lat="45.03138" lon="5.43179">
        <ele>962.4</ele>
        <time>2012-08-23T09:26:30Z</time>
      </trkpt>
      <trkpt lat="45.03145" lon="5.43179">
        <ele>961.5</ele>
        <time>2012-08-23T09:26:31Z</time>
      </trkpt>
      <trkpt lat="45.03153" lon="5.43178">
        <ele>960.4</ele>
        <time>2012-08-23T09:26:32Z</time>
      </trkpt>
      <trkpt lat="45.03167" lon="5.43173">
        <ele>957.2</ele>
        <time>2012-08-23T09:26:34Z</time>
      </trkpt>
      <trkpt lat="45.03172" lon="5.43166">
        <ele>955</ele>
        <time>2012-08-23T09:26:35Z</time>
      </trkpt>
      <trkpt lat="45.03179" lon="5.4316">
        <ele>953.5</ele>
        <time>2012-08-23T09:26:36Z</time>
      </trkpt>
      <trkpt lat="45.03186" lon="5.43156">
        <ele>952.2</ele>
        <time>2012-08-23T09:26:37Z</time>
      </trkpt>
      <trkpt lat="45.03193" lon="5.43154">
        <ele>951.2</ele>
        <time>2012-08-23T09:26:38Z</time>
      </trkpt>
      <trkpt lat="45.03204" lon="5.43155">
        <ele>949.4</ele>
        <time>2012-08-23T09:26:40Z</time>
      </trkpt>
      <trkpt lat="45.03206" lon="5.43158">
        <ele>949</ele>
        <time>2012-08-23T09:26:41Z</time>
      </trkpt>
      <trkpt lat="45.03211" lon="5.43168">
        <ele>949.5</ele>
        <time>2012-08-23T09:26:43Z</time>
      </trkpt>
      <trkpt lat="45.03213" lon="5.43175">
        <ele>950.2</ele>
        <time>2012-08-23T09:26:44Z</time>
      </trkpt>
      <trkpt lat="45.03213" lon="5.43181">
        <ele>950.4</ele>
        <time>2012-08-23T09:26:45Z</time>
      </trkpt>
      <trkpt lat="45.03214" lon="5.43187">
        <ele>949.5</ele>
        <time>2012-08-23T09:26:46Z</time>
      </trkpt>
      <trkpt lat="45.03224" lon="5.4322">
        <ele>950.7</ele>
        <time>2012-08-23T09:26:50Z</time>
      </trkpt>
      <trkpt lat="45.03233" lon="5.43235">
        <ele>949.5</ele>
        <time>2012-08-23T09:26:52Z</time>
      </trkpt>
      <trkpt lat="45.03263" lon="5.43277">
        <ele>948.7</ele>
        <time>2012-08-23T09:26:57Z</time>
      </trkpt>
      <trkpt lat="45.03288" lon="5.4333">
        <ele>945.2</ele>
        <time>2012-08-23T09:27:02Z</time>
      </trkpt>
      <trkpt lat="45.03294" lon="5.43339">
        <ele>944.5</ele>
        <time>2012-08-23T09:27:03Z</time>
      </trkpt>
      <trkpt lat="45.03299" lon="5.43347">
        <ele>944</ele>
        <time>2012-08-23T09:27:04Z</time>
      </trkpt>
      <trkpt lat="45.03305" lon="5.43353">
        <ele>943.2</ele>
        <time>2012-08-23T09:27:05Z</time>
      </trkpt>
      <trkpt lat="45.03313" lon="5.43358">
        <ele>942.5</ele>
        <time>2012-08-23T09:27:06Z</time>
      </trkpt>
      <trkpt lat="45.03321" lon="5.43361">
        <ele>941.9</ele>
        <time>2012-08-23T09:27:07Z</time>
      </trkpt>
      <trkpt lat="45.03361" lon="5.43373">
        <ele>938.7</ele>
        <time>2012-08-23T09:27:12Z</time>
      </trkpt>
      <trkpt lat="45.03409" lon="5.43403">
        <ele>938.7</ele>
        <time>2012-08-23T09:27:18Z</time>
      </trkpt>
      <trkpt lat="45.03429" lon="5.43409">
        <ele>938.9</ele>
        <time>2012-08-23T09:27:21Z</time>
      </trkpt>
      <trkpt lat="45.03434" lon="5.43409">
        <ele>938.9</ele>
        <time>2012-08-23T09:27:22Z</time>
      </trkpt>
      <trkpt lat="45.03439" lon="5.43408">
        <ele>938.7</ele>
        <time>2012-08-23T09:27:23Z</time>
      </trkpt>
      <trkpt lat="45.03444" lon="5.43407">
        <ele>938.5</ele>
        <time>2012-08-23T09:27:24Z</time>
      </trkpt>
      <trkpt lat="45.03464" lon="5.43393">
        <ele>938.7</ele>
        <time>2012-08-23T09:27:31Z</time>
      </trkpt>
      <trkpt lat="45.03466" lon="5.43392">
        <ele>938.7</ele>
        <time>2012-08-23T09:27:32Z</time>
      </trkpt>
      <trkpt lat="45.03471" lon="5.43387">
        <ele>938.5</ele>
        <time>2012-08-23T09:27:35Z</time>
      </trkpt>
      <trkpt lat="45.03479" lon="5.43378">
        <ele>937.7</ele>
        <time>2012-08-23T09:27:40Z</time>
      </trkpt>
      <trkpt lat="45.03486" lon="5.43367">
        <ele>937.2</ele>
        <time>2012-08-23T09:27:46Z</time>
      </trkpt>
      <trkpt lat="45.03488" lon="5.43363">
        <ele>936.9</ele>
        <time>2012-08-23T09:27:48Z</time>
      </trkpt>
      <trkpt lat="45.0349" lon="5.43359">
        <ele>937</ele>
        <time>2012-08-23T09:27:50Z</time>
      </trkpt>
      <trkpt lat="45.03494" lon="5.43353">
        <ele>936.9</ele>
        <time>2012-08-23T09:27:53Z</time>
      </trkpt>
      <trkpt lat="45.03495" lon="5.43348">
        <ele>936.5</ele>
        <time>2012-08-23T09:27:55Z</time>
      </trkpt>
      <trkpt lat="45.03501" lon="5.43335">
        <ele>935.4</ele>
        <time>2012-08-23T09:28:01Z</time>
      </trkpt>
      <trkpt lat="45.03504" lon="5.43331">
        <ele>935</ele>
        <time>2012-08-23T09:28:03Z</time>
      </trkpt>
      <trkpt lat="45.03516" lon="5.43315">
        <ele>934</ele>
        <time>2012-08-23T09:28:10Z</time>
      </trkpt>
      <trkpt lat="45.03519" lon="5.43311">
        <ele>933.5</ele>
        <time>2012-08-23T09:28:12Z</time>
      </trkpt>
      <trkpt lat="45.03526" lon="5.43299">
        <ele>932.9</ele>
        <time>2012-08-23T09:28:17Z</time>
      </trkpt>
      <trkpt lat="45.03537" lon="5.43288">
        <ele>930.4</ele>
        <time>2012-08-23T09:28:21Z</time>
      </trkpt>
      <trkpt lat="45.03541" lon="5.43286">
        <ele>930</ele>
        <time>2012-08-23T09:28:22Z</time>
      </trkpt>
      <trkpt lat="45.03546" lon="5.43284">
        <ele>929.7</ele>
        <time>2012-08-23T09:28:23Z</time>
      </trkpt>
      <trkpt lat="45.0355" lon="5.43283">
        <ele>929.9</ele>
        <time>2012-08-23T09:28:24Z</time>
      </trkpt>
      <trkpt lat="45.03555" lon="5.43283">
        <ele>929.7</ele>
        <time>2012-08-23T09:28:25Z</time>
      </trkpt>
      <trkpt lat="45.03559" lon="5.43285">
        <ele>929.4</ele>
        <time>2012-08-23T09:28:26Z</time>
      </trkpt>
      <trkpt lat="45.03578" lon="5.43297">
        <ele>928.9</ele>
        <time>2012-08-23T09:28:30Z</time>
      </trkpt>
      <trkpt lat="45.03607" lon="5.43305">
        <ele>931.5</ele>
        <time>2012-08-23T09:28:36Z</time>
      </trkpt>
      <trkpt lat="45.03621" lon="5.43309">
        <ele>933.2</ele>
        <time>2012-08-23T09:28:40Z</time>
      </trkpt>
      <trkpt lat="45.03624" lon="5.43309">
        <ele>933.7</ele>
        <time>2012-08-23T09:28:41Z</time>
      </trkpt>
      <trkpt lat="45.03628" lon="5.43307">
        <ele>934.2</ele>
        <time>2012-08-23T09:28:43Z</time>
      </trkpt>
      <trkpt lat="45.03632" lon="5.43307">
        <ele>936.2</ele>
        <time>2012-08-23T09:28:53Z</time>
      </trkpt>
      <trkpt lat="45.03632" lon="5.43308">
        <ele>939.4</ele>
        <time>2012-08-23T09:29:09Z</time>
      </trkpt>
      <trkpt lat="45.0363" lon="5.4331">
        <ele>941.4</ele>
        <time>2012-08-23T09:29:22Z</time>
      </trkpt>
      <trkpt lat="45.03631" lon="5.4331">
        <ele>942</ele>
        <time>2012-08-23T09:29:31Z</time>
      </trkpt>
      <trkpt lat="45.03632" lon="5.43309">
        <ele>941.4</ele>
        <time>2012-08-23T09:29:35Z</time>
      </trkpt>
      <trkpt lat="45.03633" lon="5.43309">
        <ele>942.2</ele>
        <time>2012-08-23T09:29:51Z</time>
      </trkpt>
      <trkpt lat="45.03634" lon="5.4331">
        <ele>942</ele>
        <time>2012-08-23T09:29:55Z</time>
      </trkpt>
      <trkpt lat="45.03635" lon="5.43311">
        <ele>941.4</ele>
        <time>2012-08-23T09:30:00Z</time>
      </trkpt>
      <trkpt lat="45.03636" lon="5.43331">
        <ele>937.7</ele>
        <time>2012-08-23T09:30:06Z</time>
      </trkpt>
      <trkpt lat="45.03638" lon="5.43342">
        <ele>936.5</ele>
        <time>2012-08-23T09:30:08Z</time>
      </trkpt>
      <trkpt lat="45.03639" lon="5.43347">
        <ele>935.7</ele>
        <time>2012-08-23T09:30:09Z</time>
      </trkpt>
      <trkpt lat="45.03641" lon="5.43352">
        <ele>935.2</ele>
        <time>2012-08-23T09:30:10Z</time>
      </trkpt>
      <trkpt lat="45.0365" lon="5.43369">
        <ele>934</ele>
        <time>2012-08-23T09:30:13Z</time>
      </trkpt>
      <trkpt lat="45.03657" lon="5.43379">
        <ele>933.2</ele>
        <time>2012-08-23T09:30:15Z</time>
      </trkpt>
      <trkpt lat="45.03662" lon="5.43384">
        <ele>932.7</ele>
        <time>2012-08-23T09:30:16Z</time>
      </trkpt>
      <trkpt lat="45.03686" lon="5.43398">
        <ele>931.7</ele>
        <time>2012-08-23T09:30:20Z</time>
      </trkpt>
      <trkpt lat="45.03721" lon="5.43413">
        <ele>932.5</ele>
        <time>2012-08-23T09:30:27Z</time>
      </trkpt>
      <trkpt lat="45.0373" lon="5.4342">
        <ele>932.7</ele>
        <time>2012-08-23T09:30:30Z</time>
      </trkpt>
      <trkpt lat="45.03732" lon="5.43424">
        <ele>932.5</ele>
        <time>2012-08-23T09:30:31Z</time>
      </trkpt>
      <trkpt lat="45.03735" lon="5.43428">
        <ele>932.5</ele>
        <time>2012-08-23T09:30:32Z</time>
      </trkpt>
      <trkpt lat="45.03737" lon="5.43433">
        <ele>932.2</ele>
        <time>2012-08-23T09:30:33Z</time>
      </trkpt>
      <trkpt lat="45.03737" lon="5.43439">
        <ele>931.7</ele>
        <time>2012-08-23T09:30:34Z</time>
      </trkpt>
      <trkpt lat="45.03737" lon="5.43486">
        <ele>928.4</ele>
        <time>2012-08-23T09:30:41Z</time>
      </trkpt>
      <trkpt lat="45.03737" lon="5.43492">
        <ele>927.9</ele>
        <time>2012-08-23T09:30:42Z</time>
      </trkpt>
      <trkpt lat="45.03738" lon="5.43498">
        <ele>927.5</ele>
        <time>2012-08-23T09:30:43Z</time>
      </trkpt>
      <trkpt lat="45.0374" lon="5.43503">
        <ele>927</ele>
        <time>2012-08-23T09:30:44Z</time>
      </trkpt>
      <trkpt lat="45.03744" lon="5.43507">
        <ele>926.7</ele>
        <time>2012-08-23T09:30:45Z</time>
      </trkpt>
      <trkpt lat="45.03748" lon="5.4351">
        <ele>926.5</ele>
        <time>2012-08-23T09:30:46Z</time>
      </trkpt>
      <trkpt lat="45.03753" lon="5.43513">
        <ele>926.2</ele>
        <time>2012-08-23T09:30:47Z</time>
      </trkpt>
      <trkpt lat="45.03794" lon="5.43521">
        <ele>923.2</ele>
        <time>2012-08-23T09:30:54Z</time>
      </trkpt>
      <trkpt lat="45.03806" lon="5.43522">
        <ele>922.5</ele>
        <time>2012-08-23T09:30:56Z</time>
      </trkpt>
      <trkpt lat="45.03834" lon="5.43521">
        <ele>920.4</ele>
        <time>2012-08-23T09:31:01Z</time>
      </trkpt>
      <trkpt lat="45.03861" lon="5.4353">
        <ele>917.5</ele>
        <time>2012-08-23T09:31:06Z</time>
      </trkpt>
      <trkpt lat="45.03876" lon="5.43532">
        <ele>915.7</ele>
        <time>2012-08-23T09:31:08Z</time>
      </trkpt>
      <trkpt lat="45.03893" lon="5.4353">
        <ele>914</ele>
        <time>2012-08-23T09:31:10Z</time>
      </trkpt>
      <trkpt lat="45.03964" lon="5.43511">
        <ele>910</ele>
        <time>2012-08-23T09:31:18Z</time>
      </trkpt>
      <trkpt lat="45.03996" lon="5.43506">
        <ele>909</ele>
        <time>2012-08-23T09:31:22Z</time>
      </trkpt>
      <trkpt lat="45.04003" lon="5.43507">
        <ele>908.7</ele>
        <time>2012-08-23T09:31:23Z</time>
      </trkpt>
      <trkpt lat="45.0401" lon="5.43509">
        <ele>908.2</ele>
        <time>2012-08-23T09:31:24Z</time>
      </trkpt>
      <trkpt lat="45.04017" lon="5.43512">
        <ele>908</ele>
        <time>2012-08-23T09:31:25Z</time>
      </trkpt>
      <trkpt lat="45.04028" lon="5.43521">
        <ele>907.7</ele>
        <time>2012-08-23T09:31:27Z</time>
      </trkpt>
      <trkpt lat="45.04045" lon="5.43542">
        <ele>907.5</ele>
        <time>2012-08-23T09:31:31Z</time>
      </trkpt>
      <trkpt lat="45.04067" lon="5.43574">
        <ele>907.4</ele>
        <time>2012-08-23T09:31:38Z</time>
      </trkpt>
      <trkpt lat="45.04078" lon="5.4359">
        <ele>907.4</ele>
        <time>2012-08-23T09:31:43Z</time>
      </trkpt>
      <trkpt lat="45.04083" lon="5.43598">
        <ele>907.5</ele>
        <time>2012-08-23T09:31:46Z</time>
      </trkpt>
      <trkpt lat="45.04092" lon="5.43611">
        <ele>907.7</ele>
        <time>2012-08-23T09:31:51Z</time>
      </trkpt>
      <trkpt lat="45.04096" lon="5.43617">
        <ele>907.7</ele>
        <time>2012-08-23T09:31:53Z</time>
      </trkpt>
      <trkpt lat="45.0411" lon="5.43638">
        <ele>907.5</ele>
        <time>2012-08-23T09:32:00Z</time>
      </trkpt>
      <trkpt lat="45.04112" lon="5.4364">
        <ele>907.5</ele>
        <time>2012-08-23T09:32:01Z</time>
      </trkpt>
      <trkpt lat="45.04117" lon="5.43642">
        <ele>907.2</ele>
        <time>2012-08-23T09:32:03Z</time>
      </trkpt>
      <trkpt lat="45.04122" lon="5.4364">
        <ele>907.5</ele>
        <time>2012-08-23T09:32:05Z</time>
      </trkpt>
      <trkpt lat="45.04125" lon="5.43636">
        <ele>907.7</ele>
        <time>2012-08-23T09:32:07Z</time>
      </trkpt>
      <trkpt lat="45.04128" lon="5.43633">
        <ele>908</ele>
        <time>2012-08-23T09:32:09Z</time>
      </trkpt>
      <trkpt lat="45.04144" lon="5.43629">
        <ele>908.4</ele>
        <time>2012-08-23T09:32:16Z</time>
      </trkpt>
      <trkpt lat="45.04174" lon="5.43621">
        <ele>906.9</ele>
        <time>2012-08-23T09:32:24Z</time>
      </trkpt>
      <trkpt lat="45.04205" lon="5.43611">
        <ele>905.7</ele>
        <time>2012-08-23T09:32:30Z</time>
      </trkpt>
      <trkpt lat="45.04215" lon="5.43609">
        <ele>905.5</ele>
        <time>2012-08-23T09:32:32Z</time>
      </trkpt>
      <trkpt lat="45.04252" lon="5.43598">
        <ele>904.9</ele>
        <time>2012-08-23T09:32:40Z</time>
      </trkpt>
      <trkpt lat="45.04273" lon="5.43593">
        <ele>904.7</ele>
        <time>2012-08-23T09:32:46Z</time>
      </trkpt>
      <trkpt lat="45.04292" lon="5.43587">
        <ele>903.9</ele>
        <time>2012-08-23T09:32:52Z</time>
      </trkpt>
      <trkpt lat="45.04304" lon="5.43583">
        <ele>903.2</ele>
        <time>2012-08-23T09:32:57Z</time>
      </trkpt>
      <trkpt lat="45.04321" lon="5.43579">
        <ele>902.5</ele>
        <time>2012-08-23T09:33:04Z</time>
      </trkpt>
      <trkpt lat="45.04324" lon="5.43578">
        <ele>902.4</ele>
        <time>2012-08-23T09:33:05Z</time>
      </trkpt>
      <trkpt lat="45.0434" lon="5.43573">
        <ele>901.7</ele>
        <time>2012-08-23T09:33:12Z</time>
      </trkpt>
      <trkpt lat="45.04342" lon="5.43572">
        <ele>901.7</ele>
        <time>2012-08-23T09:33:13Z</time>
      </trkpt>
      <trkpt lat="45.04359" lon="5.43568">
        <ele>901.5</ele>
        <time>2012-08-23T09:33:20Z</time>
      </trkpt>
      <trkpt lat="45.04364" lon="5.43567">
        <ele>901.5</ele>
        <time>2012-08-23T09:33:22Z</time>
      </trkpt>
      <trkpt lat="45.04373" lon="5.43562">
        <ele>901.4</ele>
        <time>2012-08-23T09:33:26Z</time>
      </trkpt>
      <trkpt lat="45.04377" lon="5.43559">
        <ele>901.4</ele>
        <time>2012-08-23T09:33:28Z</time>
      </trkpt>
      <trkpt lat="45.04382" lon="5.43552">
        <ele>901.4</ele>
        <time>2012-08-23T09:33:31Z</time>
      </trkpt>
      <trkpt lat="45.04386" lon="5.43546">
        <ele>901.2</ele>
        <time>2012-08-23T09:33:33Z</time>
      </trkpt>
      <trkpt lat="45.04389" lon="5.43536">
        <ele>902.7</ele>
        <time>2012-08-23T09:33:36Z</time>
      </trkpt>
      <trkpt lat="45.04393" lon="5.43528">
        <ele>903</ele>
        <time>2012-08-23T09:33:38Z</time>
      </trkpt>
      <trkpt lat="45.04402" lon="5.43514">
        <ele>903.9</ele>
        <time>2012-08-23T09:33:42Z</time>
      </trkpt>
      <trkpt lat="45.04404" lon="5.43511">
        <ele>904</ele>
        <time>2012-08-23T09:33:43Z</time>
      </trkpt>
      <trkpt lat="45.04422" lon="5.43495">
        <ele>905</ele>
        <time>2012-08-23T09:33:50Z</time>
      </trkpt>
      <trkpt lat="45.04429" lon="5.43491">
        <ele>905</ele>
        <time>2012-08-23T09:33:52Z</time>
      </trkpt>
      <trkpt lat="45.04439" lon="5.43488">
        <ele>904.7</ele>
        <time>2012-08-23T09:33:55Z</time>
      </trkpt>
      <trkpt lat="45.04443" lon="5.43487">
        <ele>904.7</ele>
        <time>2012-08-23T09:33:56Z</time>
      </trkpt>
      <trkpt lat="45.04447" lon="5.43488">
        <ele>904.5</ele>
        <time>2012-08-23T09:33:57Z</time>
      </trkpt>
      <trkpt lat="45.04455" lon="5.43491">
        <ele>904.2</ele>
        <time>2012-08-23T09:33:59Z</time>
      </trkpt>
      <trkpt lat="45.0447" lon="5.43499">
        <ele>903</ele>
        <time>2012-08-23T09:34:02Z</time>
      </trkpt>
      <trkpt lat="45.04476" lon="5.43501">
        <ele>902.4</ele>
        <time>2012-08-23T09:34:03Z</time>
      </trkpt>
      <trkpt lat="45.0449" lon="5.43503">
        <ele>901</ele>
        <time>2012-08-23T09:34:05Z</time>
      </trkpt>
      <trkpt lat="45.04534" lon="5.43499">
        <ele>898</ele>
        <time>2012-08-23T09:34:11Z</time>
      </trkpt>
      <trkpt lat="45.04539" lon="5.435">
        <ele>897.7</ele>
        <time>2012-08-23T09:34:12Z</time>
      </trkpt>
      <trkpt lat="45.04543" lon="5.43502">
        <ele>897.4</ele>
        <time>2012-08-23T09:34:13Z</time>
      </trkpt>
      <trkpt lat="45.04545" lon="5.43504">
        <ele>897</ele>
        <time>2012-08-23T09:34:14Z</time>
      </trkpt>
      <trkpt lat="45.04552" lon="5.43519">
        <ele>896.2</ele>
        <time>2012-08-23T09:34:18Z</time>
      </trkpt>
      <trkpt lat="45.04557" lon="5.4353">
        <ele>895.5</ele>
        <time>2012-08-23T09:34:21Z</time>
      </trkpt>
      <trkpt lat="45.04563" lon="5.43551">
        <ele>894.5</ele>
        <time>2012-08-23T09:34:26Z</time>
      </trkpt>
      <trkpt lat="45.04566" lon="5.43556">
        <ele>894.5</ele>
        <time>2012-08-23T09:34:28Z</time>
      </trkpt>
      <trkpt lat="45.0457" lon="5.43559">
        <ele>894.5</ele>
        <time>2012-08-23T09:34:30Z</time>
      </trkpt>
      <trkpt lat="45.04585" lon="5.4357">
        <ele>896</ele>
        <time>2012-08-23T09:34:35Z</time>
      </trkpt>
      <trkpt lat="45.04597" lon="5.43575">
        <ele>896.2</ele>
        <time>2012-08-23T09:34:38Z</time>
      </trkpt>
      <trkpt lat="45.0462" lon="5.43584">
        <ele>895.9</ele>
        <time>2012-08-23T09:34:43Z</time>
      </trkpt>
      <trkpt lat="45.0464" lon="5.43593">
        <ele>895</ele>
        <time>2012-08-23T09:34:47Z</time>
      </trkpt>
      <trkpt lat="45.04652" lon="5.43601">
        <ele>894</ele>
        <time>2012-08-23T09:34:49Z</time>
      </trkpt>
      <trkpt lat="45.04657" lon="5.43606">
        <ele>893.4</ele>
        <time>2012-08-23T09:34:50Z</time>
      </trkpt>
      <trkpt lat="45.04661" lon="5.43612">
        <ele>893</ele>
        <time>2012-08-23T09:34:51Z</time>
      </trkpt>
      <trkpt lat="45.04665" lon="5.43618">
        <ele>893</ele>
        <time>2012-08-23T09:34:52Z</time>
      </trkpt>
    </trkseg>
  </trk>
</gpx>